<?xml version="1.0" encoding="UTF-8" standalone="no" ?>
<gpx xmlns="http://www.topografix.com/GPX/1/1" xmlns:xsi="http://www.w3.org/2001/XMLSchema-instance" xsi:schemaLocation="http://www.topografix.com/GPX/1/1 http://www.topografix.com/GPX/1/1/gpx.xsd" version="1.1" creator="VisuGPX - https://www.visugpx.com">
  <metadata>
    <name>Le Surchauffant-La Tour du Meix-St Christophe.</name>
  </metadata>
  <trk>
    <name><![CDATA[Le Surchauffant-La Tour du Meix-St Christophe._1]]></name>
    <extensions>
      <line xmlns="http://www.topografix.com/GPX/gpx_style/0/2">
        <color>0000FF</color>
        <width>4</width>
      </line>
    </extensions>
    <trkseg>
      <trkpt lat="46.52158" lon="5.67121">
        <ele>431.7</ele>
        <time>2022-06-07T07:44:14Z</time>
      </trkpt>
      <trkpt lat="46.52167" lon="5.67133">
        <ele>435.3</ele>
        <time>2022-06-07T07:44:17Z</time>
      </trkpt>
      <trkpt lat="46.52167" lon="5.67145">
        <ele>440.5</ele>
        <time>2022-06-07T07:44:20Z</time>
      </trkpt>
      <trkpt lat="46.5217" lon="5.6714">
        <ele>446.7</ele>
        <time>2022-06-07T07:44:28Z</time>
      </trkpt>
      <trkpt lat="46.52175" lon="5.67137">
        <ele>440.6</ele>
        <time>2022-06-07T07:45:34Z</time>
      </trkpt>
      <trkpt lat="46.5218" lon="5.6714">
        <ele>440.1</ele>
        <time>2022-06-07T07:45:40Z</time>
      </trkpt>
      <trkpt lat="46.52184" lon="5.67141">
        <ele>440.4</ele>
        <time>2022-06-07T07:45:46Z</time>
      </trkpt>
      <trkpt lat="46.52189" lon="5.67142">
        <ele>441.4</ele>
        <time>2022-06-07T07:45:58Z</time>
      </trkpt>
      <trkpt lat="46.52183" lon="5.67142">
        <ele>442.8</ele>
        <time>2022-06-07T07:47:01Z</time>
      </trkpt>
      <trkpt lat="46.52179" lon="5.6714">
        <ele>442.9</ele>
        <time>2022-06-07T07:47:13Z</time>
      </trkpt>
      <trkpt lat="46.52174" lon="5.67138">
        <ele>442.5</ele>
        <time>2022-06-07T07:47:21Z</time>
      </trkpt>
      <trkpt lat="46.5217" lon="5.67135">
        <ele>442.5</ele>
        <time>2022-06-07T07:47:27Z</time>
      </trkpt>
      <trkpt lat="46.52165" lon="5.67134">
        <ele>442.1</ele>
        <time>2022-06-07T07:47:33Z</time>
      </trkpt>
      <trkpt lat="46.52161" lon="5.67132">
        <ele>441.3</ele>
        <time>2022-06-07T07:47:39Z</time>
      </trkpt>
      <trkpt lat="46.52156" lon="5.67132">
        <ele>441.2</ele>
        <time>2022-06-07T07:47:46Z</time>
      </trkpt>
      <trkpt lat="46.52152" lon="5.67128">
        <ele>441.5</ele>
        <time>2022-06-07T07:47:50Z</time>
      </trkpt>
      <trkpt lat="46.52147" lon="5.67125">
        <ele>441.4</ele>
        <time>2022-06-07T07:47:54Z</time>
      </trkpt>
      <trkpt lat="46.52143" lon="5.67121">
        <ele>440.9</ele>
        <time>2022-06-07T07:47:59Z</time>
      </trkpt>
      <trkpt lat="46.52138" lon="5.67122">
        <ele>441</ele>
        <time>2022-06-07T07:48:04Z</time>
      </trkpt>
      <trkpt lat="46.52133" lon="5.67122">
        <ele>441.7</ele>
        <time>2022-06-07T07:48:09Z</time>
      </trkpt>
      <trkpt lat="46.52128" lon="5.67118">
        <ele>442</ele>
        <time>2022-06-07T07:48:14Z</time>
      </trkpt>
      <trkpt lat="46.52125" lon="5.67112">
        <ele>441.8</ele>
        <time>2022-06-07T07:48:19Z</time>
      </trkpt>
      <trkpt lat="46.5212" lon="5.67109">
        <ele>441.7</ele>
        <time>2022-06-07T07:48:23Z</time>
      </trkpt>
      <trkpt lat="46.52115" lon="5.67108">
        <ele>441.6</ele>
        <time>2022-06-07T07:48:27Z</time>
      </trkpt>
      <trkpt lat="46.52111" lon="5.67106">
        <ele>440.9</ele>
        <time>2022-06-07T07:48:32Z</time>
      </trkpt>
      <trkpt lat="46.52106" lon="5.67105">
        <ele>439.8</ele>
        <time>2022-06-07T07:48:37Z</time>
      </trkpt>
      <trkpt lat="46.52101" lon="5.67104">
        <ele>439.2</ele>
        <time>2022-06-07T07:48:41Z</time>
      </trkpt>
      <trkpt lat="46.52096" lon="5.67105">
        <ele>438.8</ele>
        <time>2022-06-07T07:48:45Z</time>
      </trkpt>
      <trkpt lat="46.52091" lon="5.67105">
        <ele>438.9</ele>
        <time>2022-06-07T07:48:49Z</time>
      </trkpt>
      <trkpt lat="46.52085" lon="5.67104">
        <ele>439.8</ele>
        <time>2022-06-07T07:48:53Z</time>
      </trkpt>
      <trkpt lat="46.5208" lon="5.67102">
        <ele>441.3</ele>
        <time>2022-06-07T07:48:57Z</time>
      </trkpt>
      <trkpt lat="46.52075" lon="5.67103">
        <ele>442.5</ele>
        <time>2022-06-07T07:49:01Z</time>
      </trkpt>
      <trkpt lat="46.52071" lon="5.67109">
        <ele>443.6</ele>
        <time>2022-06-07T07:49:06Z</time>
      </trkpt>
      <trkpt lat="46.52069" lon="5.67115">
        <ele>443.8</ele>
        <time>2022-06-07T07:49:10Z</time>
      </trkpt>
      <trkpt lat="46.52068" lon="5.67122">
        <ele>443.8</ele>
        <time>2022-06-07T07:49:14Z</time>
      </trkpt>
      <trkpt lat="46.52067" lon="5.6713">
        <ele>443.1</ele>
        <time>2022-06-07T07:49:21Z</time>
      </trkpt>
      <trkpt lat="46.52067" lon="5.67137">
        <ele>442.5</ele>
        <time>2022-06-07T07:49:26Z</time>
      </trkpt>
      <trkpt lat="46.52068" lon="5.67144">
        <ele>441.9</ele>
        <time>2022-06-07T07:49:30Z</time>
      </trkpt>
      <trkpt lat="46.52068" lon="5.67152">
        <ele>441.4</ele>
        <time>2022-06-07T07:49:34Z</time>
      </trkpt>
      <trkpt lat="46.52065" lon="5.67159">
        <ele>441.3</ele>
        <time>2022-06-07T07:49:39Z</time>
      </trkpt>
      <trkpt lat="46.52064" lon="5.67166">
        <ele>441.6</ele>
        <time>2022-06-07T07:49:45Z</time>
      </trkpt>
      <trkpt lat="46.52064" lon="5.67173">
        <ele>442.7</ele>
        <time>2022-06-07T07:50:00Z</time>
      </trkpt>
      <trkpt lat="46.52063" lon="5.67179">
        <ele>442.4</ele>
        <time>2022-06-07T07:50:05Z</time>
      </trkpt>
      <trkpt lat="46.52061" lon="5.67185">
        <ele>442.4</ele>
        <time>2022-06-07T07:50:09Z</time>
      </trkpt>
      <trkpt lat="46.5206" lon="5.67192">
        <ele>442.6</ele>
        <time>2022-06-07T07:50:13Z</time>
      </trkpt>
      <trkpt lat="46.5206" lon="5.672">
        <ele>442.1</ele>
        <time>2022-06-07T07:50:18Z</time>
      </trkpt>
      <trkpt lat="46.5206" lon="5.67207">
        <ele>441.5</ele>
        <time>2022-06-07T07:50:23Z</time>
      </trkpt>
      <trkpt lat="46.52059" lon="5.67213">
        <ele>440.8</ele>
        <time>2022-06-07T07:50:28Z</time>
      </trkpt>
      <trkpt lat="46.52056" lon="5.67219">
        <ele>440.2</ele>
        <time>2022-06-07T07:50:33Z</time>
      </trkpt>
      <trkpt lat="46.52053" lon="5.67223">
        <ele>439.1</ele>
        <time>2022-06-07T07:50:39Z</time>
      </trkpt>
      <trkpt lat="46.52047" lon="5.67225">
        <ele>437.7</ele>
        <time>2022-06-07T07:50:45Z</time>
      </trkpt>
      <trkpt lat="46.52043" lon="5.67228">
        <ele>436.3</ele>
        <time>2022-06-07T07:50:51Z</time>
      </trkpt>
      <trkpt lat="46.52038" lon="5.67225">
        <ele>435.5</ele>
        <time>2022-06-07T07:50:57Z</time>
      </trkpt>
      <trkpt lat="46.52034" lon="5.67221">
        <ele>435.2</ele>
        <time>2022-06-07T07:51:01Z</time>
      </trkpt>
      <trkpt lat="46.5203" lon="5.67219">
        <ele>435.2</ele>
        <time>2022-06-07T07:51:06Z</time>
      </trkpt>
      <trkpt lat="46.52025" lon="5.67216">
        <ele>435.2</ele>
        <time>2022-06-07T07:51:12Z</time>
      </trkpt>
      <trkpt lat="46.5202" lon="5.67213">
        <ele>434.8</ele>
        <time>2022-06-07T07:51:16Z</time>
      </trkpt>
      <trkpt lat="46.52016" lon="5.67208">
        <ele>434.5</ele>
        <time>2022-06-07T07:51:20Z</time>
      </trkpt>
      <trkpt lat="46.52015" lon="5.67201">
        <ele>434.2</ele>
        <time>2022-06-07T07:51:24Z</time>
      </trkpt>
      <trkpt lat="46.52012" lon="5.67195">
        <ele>433.9</ele>
        <time>2022-06-07T07:51:34Z</time>
      </trkpt>
      <trkpt lat="46.52008" lon="5.67191">
        <ele>434</ele>
        <time>2022-06-07T07:51:38Z</time>
      </trkpt>
      <trkpt lat="46.52003" lon="5.6719">
        <ele>434.2</ele>
        <time>2022-06-07T07:51:42Z</time>
      </trkpt>
      <trkpt lat="46.51998" lon="5.6719">
        <ele>433.5</ele>
        <time>2022-06-07T07:51:47Z</time>
      </trkpt>
      <trkpt lat="46.51994" lon="5.67186">
        <ele>432.4</ele>
        <time>2022-06-07T07:51:53Z</time>
      </trkpt>
      <trkpt lat="46.5199" lon="5.67183">
        <ele>431.2</ele>
        <time>2022-06-07T07:51:58Z</time>
      </trkpt>
      <trkpt lat="46.51985" lon="5.67181">
        <ele>428.4</ele>
        <time>2022-06-07T07:52:06Z</time>
      </trkpt>
      <trkpt lat="46.5198" lon="5.67181">
        <ele>426.7</ele>
        <time>2022-06-07T07:52:13Z</time>
      </trkpt>
      <trkpt lat="46.51976" lon="5.67178">
        <ele>425.8</ele>
        <time>2022-06-07T07:52:17Z</time>
      </trkpt>
      <trkpt lat="46.51971" lon="5.67178">
        <ele>424.7</ele>
        <time>2022-06-07T07:52:21Z</time>
      </trkpt>
      <trkpt lat="46.51966" lon="5.67181">
        <ele>423.9</ele>
        <time>2022-06-07T07:52:24Z</time>
      </trkpt>
      <trkpt lat="46.51961" lon="5.67185">
        <ele>423</ele>
        <time>2022-06-07T07:52:28Z</time>
      </trkpt>
      <trkpt lat="46.51956" lon="5.67188">
        <ele>421.8</ele>
        <time>2022-06-07T07:52:33Z</time>
      </trkpt>
      <trkpt lat="46.51953" lon="5.67193">
        <ele>421.1</ele>
        <time>2022-06-07T07:52:36Z</time>
      </trkpt>
      <trkpt lat="46.51949" lon="5.67197">
        <ele>420.6</ele>
        <time>2022-06-07T07:52:39Z</time>
      </trkpt>
      <trkpt lat="46.51944" lon="5.67198">
        <ele>420.3</ele>
        <time>2022-06-07T07:52:45Z</time>
      </trkpt>
      <trkpt lat="46.51938" lon="5.67196">
        <ele>420.1</ele>
        <time>2022-06-07T07:52:50Z</time>
      </trkpt>
      <trkpt lat="46.51934" lon="5.67194">
        <ele>419.8</ele>
        <time>2022-06-07T07:52:55Z</time>
      </trkpt>
      <trkpt lat="46.5193" lon="5.67197">
        <ele>419.7</ele>
        <time>2022-06-07T07:53:01Z</time>
      </trkpt>
      <trkpt lat="46.51926" lon="5.67201">
        <ele>420.4</ele>
        <time>2022-06-07T07:53:06Z</time>
      </trkpt>
      <trkpt lat="46.51921" lon="5.67203">
        <ele>422.9</ele>
        <time>2022-06-07T07:53:24Z</time>
      </trkpt>
      <trkpt lat="46.5192" lon="5.6721">
        <ele>423.8</ele>
        <time>2022-06-07T07:53:29Z</time>
      </trkpt>
      <trkpt lat="46.51921" lon="5.67217">
        <ele>424.9</ele>
        <time>2022-06-07T07:53:34Z</time>
      </trkpt>
      <trkpt lat="46.51916" lon="5.67218">
        <ele>427.2</ele>
        <time>2022-06-07T07:53:44Z</time>
      </trkpt>
      <trkpt lat="46.51911" lon="5.67217">
        <ele>427.2</ele>
        <time>2022-06-07T07:53:49Z</time>
      </trkpt>
      <trkpt lat="46.51907" lon="5.67215">
        <ele>426.8</ele>
        <time>2022-06-07T07:53:54Z</time>
      </trkpt>
      <trkpt lat="46.51902" lon="5.67217">
        <ele>426.8</ele>
        <time>2022-06-07T07:54:00Z</time>
      </trkpt>
      <trkpt lat="46.51898" lon="5.6722">
        <ele>427.1</ele>
        <time>2022-06-07T07:54:06Z</time>
      </trkpt>
      <trkpt lat="46.51894" lon="5.67221">
        <ele>427.9</ele>
        <time>2022-06-07T07:54:13Z</time>
      </trkpt>
      <trkpt lat="46.51889" lon="5.6722">
        <ele>428.3</ele>
        <time>2022-06-07T07:54:21Z</time>
      </trkpt>
      <trkpt lat="46.51884" lon="5.67223">
        <ele>428.6</ele>
        <time>2022-06-07T07:54:27Z</time>
      </trkpt>
      <trkpt lat="46.51879" lon="5.67223">
        <ele>428</ele>
        <time>2022-06-07T07:54:35Z</time>
      </trkpt>
      <trkpt lat="46.51875" lon="5.67225">
        <ele>427.7</ele>
        <time>2022-06-07T07:54:40Z</time>
      </trkpt>
      <trkpt lat="46.5187" lon="5.67227">
        <ele>427.6</ele>
        <time>2022-06-07T07:54:45Z</time>
      </trkpt>
      <trkpt lat="46.51865" lon="5.67232">
        <ele>427.5</ele>
        <time>2022-06-07T07:54:49Z</time>
      </trkpt>
      <trkpt lat="46.51862" lon="5.67238">
        <ele>427.5</ele>
        <time>2022-06-07T07:54:52Z</time>
      </trkpt>
      <trkpt lat="46.51858" lon="5.67243">
        <ele>427.6</ele>
        <time>2022-06-07T07:54:56Z</time>
      </trkpt>
      <trkpt lat="46.51854" lon="5.67246">
        <ele>427.7</ele>
        <time>2022-06-07T07:55:01Z</time>
      </trkpt>
      <trkpt lat="46.51849" lon="5.6725">
        <ele>427.7</ele>
        <time>2022-06-07T07:55:06Z</time>
      </trkpt>
      <trkpt lat="46.51844" lon="5.67253">
        <ele>427.7</ele>
        <time>2022-06-07T07:55:12Z</time>
      </trkpt>
      <trkpt lat="46.5184" lon="5.67256">
        <ele>428.8</ele>
        <time>2022-06-07T07:55:18Z</time>
      </trkpt>
      <trkpt lat="46.51835" lon="5.67259">
        <ele>430.4</ele>
        <time>2022-06-07T07:55:23Z</time>
      </trkpt>
      <trkpt lat="46.5183" lon="5.67261">
        <ele>431.6</ele>
        <time>2022-06-07T07:55:29Z</time>
      </trkpt>
      <trkpt lat="46.51826" lon="5.67264">
        <ele>432.4</ele>
        <time>2022-06-07T07:55:33Z</time>
      </trkpt>
      <trkpt lat="46.51822" lon="5.67269">
        <ele>432.8</ele>
        <time>2022-06-07T07:55:37Z</time>
      </trkpt>
      <trkpt lat="46.51817" lon="5.67273">
        <ele>433</ele>
        <time>2022-06-07T07:55:42Z</time>
      </trkpt>
      <trkpt lat="46.51813" lon="5.67276">
        <ele>432.9</ele>
        <time>2022-06-07T07:55:47Z</time>
      </trkpt>
      <trkpt lat="46.51808" lon="5.6728">
        <ele>432.1</ele>
        <time>2022-06-07T07:55:53Z</time>
      </trkpt>
      <trkpt lat="46.51803" lon="5.67281">
        <ele>431.5</ele>
        <time>2022-06-07T07:55:58Z</time>
      </trkpt>
      <trkpt lat="46.51799" lon="5.67286">
        <ele>431.1</ele>
        <time>2022-06-07T07:56:04Z</time>
      </trkpt>
      <trkpt lat="46.51795" lon="5.67291">
        <ele>430.8</ele>
        <time>2022-06-07T07:56:09Z</time>
      </trkpt>
      <trkpt lat="46.51791" lon="5.67294">
        <ele>430.5</ele>
        <time>2022-06-07T07:56:16Z</time>
      </trkpt>
      <trkpt lat="46.51786" lon="5.67297">
        <ele>430.4</ele>
        <time>2022-06-07T07:56:21Z</time>
      </trkpt>
      <trkpt lat="46.51782" lon="5.67302">
        <ele>430.6</ele>
        <time>2022-06-07T07:56:26Z</time>
      </trkpt>
      <trkpt lat="46.51779" lon="5.67307">
        <ele>430.8</ele>
        <time>2022-06-07T07:56:31Z</time>
      </trkpt>
      <trkpt lat="46.51775" lon="5.67311">
        <ele>430.9</ele>
        <time>2022-06-07T07:56:35Z</time>
      </trkpt>
      <trkpt lat="46.5177" lon="5.67312">
        <ele>430.7</ele>
        <time>2022-06-07T07:56:41Z</time>
      </trkpt>
      <trkpt lat="46.51766" lon="5.67313">
        <ele>429.5</ele>
        <time>2022-06-07T07:56:46Z</time>
      </trkpt>
      <trkpt lat="46.51761" lon="5.67317">
        <ele>428.2</ele>
        <time>2022-06-07T07:56:55Z</time>
      </trkpt>
      <trkpt lat="46.51758" lon="5.67321">
        <ele>429.3</ele>
        <time>2022-06-07T07:57:02Z</time>
      </trkpt>
      <trkpt lat="46.51755" lon="5.67328">
        <ele>431.1</ele>
        <time>2022-06-07T07:57:07Z</time>
      </trkpt>
      <trkpt lat="46.51752" lon="5.67333">
        <ele>432.6</ele>
        <time>2022-06-07T07:57:11Z</time>
      </trkpt>
      <trkpt lat="46.51748" lon="5.67338">
        <ele>434.1</ele>
        <time>2022-06-07T07:57:17Z</time>
      </trkpt>
      <trkpt lat="46.51744" lon="5.67342">
        <ele>436.9</ele>
        <time>2022-06-07T07:57:24Z</time>
      </trkpt>
      <trkpt lat="46.5174" lon="5.67341">
        <ele>439.2</ele>
        <time>2022-06-07T07:57:31Z</time>
      </trkpt>
      <trkpt lat="46.51737" lon="5.67346">
        <ele>445.1</ele>
        <time>2022-06-07T07:59:47Z</time>
      </trkpt>
      <trkpt lat="46.51734" lon="5.67352">
        <ele>448.3</ele>
        <time>2022-06-07T07:59:52Z</time>
      </trkpt>
      <trkpt lat="46.51738" lon="5.67349">
        <ele>449.9</ele>
        <time>2022-06-07T08:00:46Z</time>
      </trkpt>
      <trkpt lat="46.51741" lon="5.67343">
        <ele>450</ele>
        <time>2022-06-07T08:00:55Z</time>
      </trkpt>
      <trkpt lat="46.51744" lon="5.67337">
        <ele>450.1</ele>
        <time>2022-06-07T08:01:01Z</time>
      </trkpt>
      <trkpt lat="46.51749" lon="5.67333">
        <ele>450.1</ele>
        <time>2022-06-07T08:01:05Z</time>
      </trkpt>
      <trkpt lat="46.51754" lon="5.67329">
        <ele>450.1</ele>
        <time>2022-06-07T08:01:08Z</time>
      </trkpt>
      <trkpt lat="46.51759" lon="5.67324">
        <ele>450</ele>
        <time>2022-06-07T08:01:11Z</time>
      </trkpt>
      <trkpt lat="46.51764" lon="5.67319">
        <ele>449.9</ele>
        <time>2022-06-07T08:01:14Z</time>
      </trkpt>
      <trkpt lat="46.51769" lon="5.67316">
        <ele>449.8</ele>
        <time>2022-06-07T08:01:17Z</time>
      </trkpt>
      <trkpt lat="46.51773" lon="5.67311">
        <ele>449.5</ele>
        <time>2022-06-07T08:01:20Z</time>
      </trkpt>
      <trkpt lat="46.51778" lon="5.67306">
        <ele>449.2</ele>
        <time>2022-06-07T08:01:23Z</time>
      </trkpt>
      <trkpt lat="46.51782" lon="5.67302">
        <ele>448.6</ele>
        <time>2022-06-07T08:01:26Z</time>
      </trkpt>
      <trkpt lat="46.51787" lon="5.67298">
        <ele>447.8</ele>
        <time>2022-06-07T08:01:30Z</time>
      </trkpt>
      <trkpt lat="46.51792" lon="5.67294">
        <ele>446.9</ele>
        <time>2022-06-07T08:01:34Z</time>
      </trkpt>
      <trkpt lat="46.51797" lon="5.6729">
        <ele>446.2</ele>
        <time>2022-06-07T08:01:37Z</time>
      </trkpt>
      <trkpt lat="46.51803" lon="5.67288">
        <ele>445.6</ele>
        <time>2022-06-07T08:01:40Z</time>
      </trkpt>
      <trkpt lat="46.5181" lon="5.67286">
        <ele>445.4</ele>
        <time>2022-06-07T08:01:43Z</time>
      </trkpt>
      <trkpt lat="46.51817" lon="5.67282">
        <ele>445.7</ele>
        <time>2022-06-07T08:01:46Z</time>
      </trkpt>
      <trkpt lat="46.51823" lon="5.67279">
        <ele>446.4</ele>
        <time>2022-06-07T08:01:49Z</time>
      </trkpt>
      <trkpt lat="46.51828" lon="5.67275">
        <ele>447</ele>
        <time>2022-06-07T08:01:52Z</time>
      </trkpt>
      <trkpt lat="46.51832" lon="5.6727">
        <ele>447.3</ele>
        <time>2022-06-07T08:01:56Z</time>
      </trkpt>
      <trkpt lat="46.51836" lon="5.67267">
        <ele>447</ele>
        <time>2022-06-07T08:01:59Z</time>
      </trkpt>
      <trkpt lat="46.51842" lon="5.67262">
        <ele>446.8</ele>
        <time>2022-06-07T08:02:02Z</time>
      </trkpt>
      <trkpt lat="46.51847" lon="5.67258">
        <ele>446.5</ele>
        <time>2022-06-07T08:02:05Z</time>
      </trkpt>
      <trkpt lat="46.51851" lon="5.67255">
        <ele>445.3</ele>
        <time>2022-06-07T08:02:10Z</time>
      </trkpt>
      <trkpt lat="46.51855" lon="5.6725">
        <ele>443.2</ele>
        <time>2022-06-07T08:02:15Z</time>
      </trkpt>
      <trkpt lat="46.51859" lon="5.67246">
        <ele>441</ele>
        <time>2022-06-07T08:02:19Z</time>
      </trkpt>
      <trkpt lat="46.51863" lon="5.67241">
        <ele>438.6</ele>
        <time>2022-06-07T08:02:23Z</time>
      </trkpt>
      <trkpt lat="46.51868" lon="5.67237">
        <ele>436.3</ele>
        <time>2022-06-07T08:02:27Z</time>
      </trkpt>
      <trkpt lat="46.51872" lon="5.67233">
        <ele>433.9</ele>
        <time>2022-06-07T08:02:31Z</time>
      </trkpt>
      <trkpt lat="46.51876" lon="5.67229">
        <ele>431.5</ele>
        <time>2022-06-07T08:02:35Z</time>
      </trkpt>
      <trkpt lat="46.51881" lon="5.67227">
        <ele>429.7</ele>
        <time>2022-06-07T08:02:38Z</time>
      </trkpt>
      <trkpt lat="46.51885" lon="5.67226">
        <ele>428.1</ele>
        <time>2022-06-07T08:02:41Z</time>
      </trkpt>
      <trkpt lat="46.5189" lon="5.67222">
        <ele>426.2</ele>
        <time>2022-06-07T08:02:45Z</time>
      </trkpt>
      <trkpt lat="46.51895" lon="5.67219">
        <ele>424.8</ele>
        <time>2022-06-07T08:02:49Z</time>
      </trkpt>
      <trkpt lat="46.519" lon="5.67216">
        <ele>424</ele>
        <time>2022-06-07T08:02:53Z</time>
      </trkpt>
      <trkpt lat="46.51903" lon="5.67213">
        <ele>423.3</ele>
        <time>2022-06-07T08:02:56Z</time>
      </trkpt>
      <trkpt lat="46.51907" lon="5.67209">
        <ele>422.7</ele>
        <time>2022-06-07T08:02:59Z</time>
      </trkpt>
      <trkpt lat="46.51913" lon="5.67208">
        <ele>421.6</ele>
        <time>2022-06-07T08:03:03Z</time>
      </trkpt>
      <trkpt lat="46.51918" lon="5.67207">
        <ele>420.8</ele>
        <time>2022-06-07T08:03:06Z</time>
      </trkpt>
      <trkpt lat="46.51922" lon="5.67205">
        <ele>420.4</ele>
        <time>2022-06-07T08:03:09Z</time>
      </trkpt>
      <trkpt lat="46.51926" lon="5.67201">
        <ele>420.3</ele>
        <time>2022-06-07T08:03:12Z</time>
      </trkpt>
      <trkpt lat="46.51931" lon="5.67199">
        <ele>420.5</ele>
        <time>2022-06-07T08:03:15Z</time>
      </trkpt>
      <trkpt lat="46.51936" lon="5.67197">
        <ele>420.9</ele>
        <time>2022-06-07T08:03:18Z</time>
      </trkpt>
      <trkpt lat="46.51941" lon="5.67195">
        <ele>421.2</ele>
        <time>2022-06-07T08:03:21Z</time>
      </trkpt>
      <trkpt lat="46.51945" lon="5.67193">
        <ele>421.6</ele>
        <time>2022-06-07T08:03:24Z</time>
      </trkpt>
      <trkpt lat="46.5195" lon="5.67192">
        <ele>421.8</ele>
        <time>2022-06-07T08:03:27Z</time>
      </trkpt>
      <trkpt lat="46.51955" lon="5.67191">
        <ele>421.5</ele>
        <time>2022-06-07T08:03:31Z</time>
      </trkpt>
      <trkpt lat="46.51959" lon="5.67189">
        <ele>421.2</ele>
        <time>2022-06-07T08:03:34Z</time>
      </trkpt>
      <trkpt lat="46.51965" lon="5.67186">
        <ele>421.2</ele>
        <time>2022-06-07T08:03:37Z</time>
      </trkpt>
      <trkpt lat="46.51969" lon="5.67185">
        <ele>421.2</ele>
        <time>2022-06-07T08:03:40Z</time>
      </trkpt>
      <trkpt lat="46.51974" lon="5.67184">
        <ele>421.3</ele>
        <time>2022-06-07T08:03:43Z</time>
      </trkpt>
      <trkpt lat="46.51979" lon="5.67185">
        <ele>421.4</ele>
        <time>2022-06-07T08:03:46Z</time>
      </trkpt>
      <trkpt lat="46.51984" lon="5.67186">
        <ele>421.5</ele>
        <time>2022-06-07T08:03:50Z</time>
      </trkpt>
      <trkpt lat="46.5199" lon="5.67185">
        <ele>421.7</ele>
        <time>2022-06-07T08:03:54Z</time>
      </trkpt>
      <trkpt lat="46.51995" lon="5.67188">
        <ele>422</ele>
        <time>2022-06-07T08:03:58Z</time>
      </trkpt>
      <trkpt lat="46.52" lon="5.67189">
        <ele>422.4</ele>
        <time>2022-06-07T08:04:01Z</time>
      </trkpt>
      <trkpt lat="46.52005" lon="5.67191">
        <ele>423</ele>
        <time>2022-06-07T08:04:04Z</time>
      </trkpt>
      <trkpt lat="46.52009" lon="5.67192">
        <ele>423.7</ele>
        <time>2022-06-07T08:04:07Z</time>
      </trkpt>
      <trkpt lat="46.52014" lon="5.67194">
        <ele>424.7</ele>
        <time>2022-06-07T08:04:10Z</time>
      </trkpt>
      <trkpt lat="46.52018" lon="5.67197">
        <ele>425.8</ele>
        <time>2022-06-07T08:04:13Z</time>
      </trkpt>
      <trkpt lat="46.52022" lon="5.67203">
        <ele>426.7</ele>
        <time>2022-06-07T08:04:16Z</time>
      </trkpt>
      <trkpt lat="46.52026" lon="5.67208">
        <ele>428</ele>
        <time>2022-06-07T08:04:20Z</time>
      </trkpt>
      <trkpt lat="46.5203" lon="5.67211">
        <ele>428.9</ele>
        <time>2022-06-07T08:04:23Z</time>
      </trkpt>
      <trkpt lat="46.52034" lon="5.67214">
        <ele>429.8</ele>
        <time>2022-06-07T08:04:26Z</time>
      </trkpt>
      <trkpt lat="46.52038" lon="5.67219">
        <ele>430.9</ele>
        <time>2022-06-07T08:04:29Z</time>
      </trkpt>
      <trkpt lat="46.52042" lon="5.67222">
        <ele>432.4</ele>
        <time>2022-06-07T08:04:35Z</time>
      </trkpt>
      <trkpt lat="46.52047" lon="5.6722">
        <ele>433.3</ele>
        <time>2022-06-07T08:04:39Z</time>
      </trkpt>
      <trkpt lat="46.52052" lon="5.67217">
        <ele>434.5</ele>
        <time>2022-06-07T08:04:43Z</time>
      </trkpt>
      <trkpt lat="46.52055" lon="5.67213">
        <ele>436.3</ele>
        <time>2022-06-07T08:04:48Z</time>
      </trkpt>
      <trkpt lat="46.52056" lon="5.67206">
        <ele>437.9</ele>
        <time>2022-06-07T08:04:53Z</time>
      </trkpt>
      <trkpt lat="46.52058" lon="5.67199">
        <ele>439.6</ele>
        <time>2022-06-07T08:04:58Z</time>
      </trkpt>
      <trkpt lat="46.52063" lon="5.67196">
        <ele>441</ele>
        <time>2022-06-07T08:05:02Z</time>
      </trkpt>
      <trkpt lat="46.52068" lon="5.67192">
        <ele>442.5</ele>
        <time>2022-06-07T08:05:06Z</time>
      </trkpt>
      <trkpt lat="46.52073" lon="5.67189">
        <ele>443.1</ele>
        <time>2022-06-07T08:05:09Z</time>
      </trkpt>
      <trkpt lat="46.52077" lon="5.67185">
        <ele>443.6</ele>
        <time>2022-06-07T08:05:12Z</time>
      </trkpt>
      <trkpt lat="46.52081" lon="5.6718">
        <ele>444.1</ele>
        <time>2022-06-07T08:05:16Z</time>
      </trkpt>
      <trkpt lat="46.52085" lon="5.67174">
        <ele>444.2</ele>
        <time>2022-06-07T08:05:20Z</time>
      </trkpt>
      <trkpt lat="46.52089" lon="5.67169">
        <ele>444.1</ele>
        <time>2022-06-07T08:05:24Z</time>
      </trkpt>
      <trkpt lat="46.52093" lon="5.67165">
        <ele>444.4</ele>
        <time>2022-06-07T08:05:28Z</time>
      </trkpt>
      <trkpt lat="46.52096" lon="5.67159">
        <ele>445</ele>
        <time>2022-06-07T08:05:32Z</time>
      </trkpt>
      <trkpt lat="46.52102" lon="5.67157">
        <ele>445.6</ele>
        <time>2022-06-07T08:05:36Z</time>
      </trkpt>
      <trkpt lat="46.52106" lon="5.67157">
        <ele>446</ele>
        <time>2022-06-07T08:05:39Z</time>
      </trkpt>
      <trkpt lat="46.52111" lon="5.67157">
        <ele>446.6</ele>
        <time>2022-06-07T08:05:42Z</time>
      </trkpt>
      <trkpt lat="46.52115" lon="5.67155">
        <ele>447.2</ele>
        <time>2022-06-07T08:05:45Z</time>
      </trkpt>
      <trkpt lat="46.5212" lon="5.67153">
        <ele>447.9</ele>
        <time>2022-06-07T08:05:48Z</time>
      </trkpt>
      <trkpt lat="46.52126" lon="5.67149">
        <ele>448.8</ele>
        <time>2022-06-07T08:05:52Z</time>
      </trkpt>
      <trkpt lat="46.5213" lon="5.67147">
        <ele>449.4</ele>
        <time>2022-06-07T08:05:55Z</time>
      </trkpt>
      <trkpt lat="46.52138" lon="5.67146">
        <ele>449.9</ele>
        <time>2022-06-07T08:05:58Z</time>
      </trkpt>
      <trkpt lat="46.52145" lon="5.67145">
        <ele>450.5</ele>
        <time>2022-06-07T08:06:01Z</time>
      </trkpt>
      <trkpt lat="46.5215" lon="5.67143">
        <ele>450.7</ele>
        <time>2022-06-07T08:06:04Z</time>
      </trkpt>
      <trkpt lat="46.52155" lon="5.67142">
        <ele>451.3</ele>
        <time>2022-06-07T08:06:07Z</time>
      </trkpt>
      <trkpt lat="46.52161" lon="5.67141">
        <ele>452</ele>
        <time>2022-06-07T08:06:10Z</time>
      </trkpt>
      <trkpt lat="46.52166" lon="5.67141">
        <ele>452.6</ele>
        <time>2022-06-07T08:06:13Z</time>
      </trkpt>
      <trkpt lat="46.52171" lon="5.67141">
        <ele>453</ele>
        <time>2022-06-07T08:06:17Z</time>
      </trkpt>
      <trkpt lat="46.52165" lon="5.67142">
        <ele>450.9</ele>
        <time>2022-06-07T08:06:37Z</time>
      </trkpt>
      <trkpt lat="46.5216" lon="5.67143">
        <ele>449.6</ele>
        <time>2022-06-07T08:06:41Z</time>
      </trkpt>
      <trkpt lat="46.52155" lon="5.67142">
        <ele>448.3</ele>
        <time>2022-06-07T08:06:44Z</time>
      </trkpt>
      <trkpt lat="46.52149" lon="5.67143">
        <ele>446.6</ele>
        <time>2022-06-07T08:06:48Z</time>
      </trkpt>
      <trkpt lat="46.52144" lon="5.67143">
        <ele>445.6</ele>
        <time>2022-06-07T08:06:51Z</time>
      </trkpt>
      <trkpt lat="46.52138" lon="5.67144">
        <ele>444.2</ele>
        <time>2022-06-07T08:06:55Z</time>
      </trkpt>
      <trkpt lat="46.52133" lon="5.67144">
        <ele>442.6</ele>
        <time>2022-06-07T08:07:00Z</time>
      </trkpt>
      <trkpt lat="46.52128" lon="5.67146">
        <ele>441.3</ele>
        <time>2022-06-07T08:07:04Z</time>
      </trkpt>
      <trkpt lat="46.52123" lon="5.67146">
        <ele>439.8</ele>
        <time>2022-06-07T08:07:08Z</time>
      </trkpt>
      <trkpt lat="46.52118" lon="5.67148">
        <ele>438.7</ele>
        <time>2022-06-07T08:07:11Z</time>
      </trkpt>
      <trkpt lat="46.52113" lon="5.6715">
        <ele>438</ele>
        <time>2022-06-07T08:07:14Z</time>
      </trkpt>
      <trkpt lat="46.52108" lon="5.67152">
        <ele>437.4</ele>
        <time>2022-06-07T08:07:17Z</time>
      </trkpt>
      <trkpt lat="46.52103" lon="5.67154">
        <ele>437.2</ele>
        <time>2022-06-07T08:07:20Z</time>
      </trkpt>
      <trkpt lat="46.52099" lon="5.67156">
        <ele>437.3</ele>
        <time>2022-06-07T08:07:23Z</time>
      </trkpt>
      <trkpt lat="46.52094" lon="5.6716">
        <ele>437.7</ele>
        <time>2022-06-07T08:07:26Z</time>
      </trkpt>
      <trkpt lat="46.5209" lon="5.67163">
        <ele>437.7</ele>
        <time>2022-06-07T08:07:29Z</time>
      </trkpt>
      <trkpt lat="46.52085" lon="5.67164">
        <ele>437.6</ele>
        <time>2022-06-07T08:07:33Z</time>
      </trkpt>
      <trkpt lat="46.5208" lon="5.67166">
        <ele>437.9</ele>
        <time>2022-06-07T08:07:37Z</time>
      </trkpt>
      <trkpt lat="46.52075" lon="5.67168">
        <ele>438.2</ele>
        <time>2022-06-07T08:07:41Z</time>
      </trkpt>
      <trkpt lat="46.52071" lon="5.67172">
        <ele>438.3</ele>
        <time>2022-06-07T08:07:44Z</time>
      </trkpt>
      <trkpt lat="46.52068" lon="5.67177">
        <ele>438.3</ele>
        <time>2022-06-07T08:07:47Z</time>
      </trkpt>
      <trkpt lat="46.52065" lon="5.67183">
        <ele>438.3</ele>
        <time>2022-06-07T08:07:50Z</time>
      </trkpt>
      <trkpt lat="46.52063" lon="5.6719">
        <ele>438.3</ele>
        <time>2022-06-07T08:07:54Z</time>
      </trkpt>
      <trkpt lat="46.52062" lon="5.67198">
        <ele>438</ele>
        <time>2022-06-07T08:07:58Z</time>
      </trkpt>
      <trkpt lat="46.5206" lon="5.67206">
        <ele>438.1</ele>
        <time>2022-06-07T08:08:01Z</time>
      </trkpt>
      <trkpt lat="46.52057" lon="5.67213">
        <ele>438.1</ele>
        <time>2022-06-07T08:08:04Z</time>
      </trkpt>
      <trkpt lat="46.52054" lon="5.67219">
        <ele>437.9</ele>
        <time>2022-06-07T08:08:07Z</time>
      </trkpt>
      <trkpt lat="46.52049" lon="5.6722">
        <ele>438</ele>
        <time>2022-06-07T08:08:10Z</time>
      </trkpt>
      <trkpt lat="46.52044" lon="5.67222">
        <ele>438.3</ele>
        <time>2022-06-07T08:08:14Z</time>
      </trkpt>
      <trkpt lat="46.52039" lon="5.67222">
        <ele>438.6</ele>
        <time>2022-06-07T08:08:19Z</time>
      </trkpt>
      <trkpt lat="46.52033" lon="5.67219">
        <ele>438.6</ele>
        <time>2022-06-07T08:08:24Z</time>
      </trkpt>
      <trkpt lat="46.52028" lon="5.67217">
        <ele>438.5</ele>
        <time>2022-06-07T08:08:28Z</time>
      </trkpt>
      <trkpt lat="46.52023" lon="5.67213">
        <ele>438.3</ele>
        <time>2022-06-07T08:08:31Z</time>
      </trkpt>
      <trkpt lat="46.52018" lon="5.67211">
        <ele>438.2</ele>
        <time>2022-06-07T08:08:34Z</time>
      </trkpt>
      <trkpt lat="46.52014" lon="5.67209">
        <ele>437.7</ele>
        <time>2022-06-07T08:08:37Z</time>
      </trkpt>
      <trkpt lat="46.52008" lon="5.67206">
        <ele>437</ele>
        <time>2022-06-07T08:08:41Z</time>
      </trkpt>
      <trkpt lat="46.52004" lon="5.67202">
        <ele>436.3</ele>
        <time>2022-06-07T08:08:44Z</time>
      </trkpt>
      <trkpt lat="46.52" lon="5.672">
        <ele>435.8</ele>
        <time>2022-06-07T08:08:47Z</time>
      </trkpt>
      <trkpt lat="46.51994" lon="5.67199">
        <ele>435.2</ele>
        <time>2022-06-07T08:08:50Z</time>
      </trkpt>
      <trkpt lat="46.51989" lon="5.67198">
        <ele>434.3</ele>
        <time>2022-06-07T08:08:54Z</time>
      </trkpt>
      <trkpt lat="46.51984" lon="5.672">
        <ele>433.3</ele>
        <time>2022-06-07T08:09:04Z</time>
      </trkpt>
      <trkpt lat="46.51979" lon="5.67199">
        <ele>433.8</ele>
        <time>2022-06-07T08:09:08Z</time>
      </trkpt>
      <trkpt lat="46.51974" lon="5.67197">
        <ele>434.4</ele>
        <time>2022-06-07T08:09:11Z</time>
      </trkpt>
      <trkpt lat="46.51969" lon="5.67197">
        <ele>434.6</ele>
        <time>2022-06-07T08:09:14Z</time>
      </trkpt>
      <trkpt lat="46.51963" lon="5.67198">
        <ele>434.8</ele>
        <time>2022-06-07T08:09:17Z</time>
      </trkpt>
      <trkpt lat="46.51958" lon="5.67198">
        <ele>434.1</ele>
        <time>2022-06-07T08:09:20Z</time>
      </trkpt>
      <trkpt lat="46.51953" lon="5.67201">
        <ele>432.9</ele>
        <time>2022-06-07T08:09:24Z</time>
      </trkpt>
      <trkpt lat="46.51949" lon="5.67203">
        <ele>432.1</ele>
        <time>2022-06-07T08:09:27Z</time>
      </trkpt>
      <trkpt lat="46.51944" lon="5.67204">
        <ele>431.5</ele>
        <time>2022-06-07T08:09:30Z</time>
      </trkpt>
      <trkpt lat="46.51939" lon="5.67204">
        <ele>430.8</ele>
        <time>2022-06-07T08:09:33Z</time>
      </trkpt>
      <trkpt lat="46.51933" lon="5.67203">
        <ele>429.7</ele>
        <time>2022-06-07T08:09:37Z</time>
      </trkpt>
      <trkpt lat="46.51928" lon="5.67204">
        <ele>428.4</ele>
        <time>2022-06-07T08:09:41Z</time>
      </trkpt>
      <trkpt lat="46.51924" lon="5.67203">
        <ele>427.5</ele>
        <time>2022-06-07T08:09:45Z</time>
      </trkpt>
      <trkpt lat="46.51919" lon="5.67202">
        <ele>426.1</ele>
        <time>2022-06-07T08:09:51Z</time>
      </trkpt>
      <trkpt lat="46.51914" lon="5.67203">
        <ele>424.5</ele>
        <time>2022-06-07T08:09:57Z</time>
      </trkpt>
      <trkpt lat="46.5191" lon="5.67206">
        <ele>423.8</ele>
        <time>2022-06-07T08:10:01Z</time>
      </trkpt>
      <trkpt lat="46.51905" lon="5.67207">
        <ele>423.2</ele>
        <time>2022-06-07T08:10:05Z</time>
      </trkpt>
      <trkpt lat="46.519" lon="5.67209">
        <ele>422.9</ele>
        <time>2022-06-07T08:10:08Z</time>
      </trkpt>
      <trkpt lat="46.51896" lon="5.67212">
        <ele>423</ele>
        <time>2022-06-07T08:10:11Z</time>
      </trkpt>
      <trkpt lat="46.51891" lon="5.67215">
        <ele>423.3</ele>
        <time>2022-06-07T08:10:14Z</time>
      </trkpt>
      <trkpt lat="46.51887" lon="5.67218">
        <ele>424.2</ele>
        <time>2022-06-07T08:10:18Z</time>
      </trkpt>
      <trkpt lat="46.51883" lon="5.67221">
        <ele>425.5</ele>
        <time>2022-06-07T08:10:23Z</time>
      </trkpt>
      <trkpt lat="46.51878" lon="5.67226">
        <ele>426.2</ele>
        <time>2022-06-07T08:10:27Z</time>
      </trkpt>
      <trkpt lat="46.51874" lon="5.6723">
        <ele>426.6</ele>
        <time>2022-06-07T08:10:30Z</time>
      </trkpt>
      <trkpt lat="46.5187" lon="5.67233">
        <ele>426.6</ele>
        <time>2022-06-07T08:10:34Z</time>
      </trkpt>
      <trkpt lat="46.51865" lon="5.67236">
        <ele>426.4</ele>
        <time>2022-06-07T08:10:38Z</time>
      </trkpt>
      <trkpt lat="46.5186" lon="5.67239">
        <ele>425.9</ele>
        <time>2022-06-07T08:10:42Z</time>
      </trkpt>
      <trkpt lat="46.51855" lon="5.67242">
        <ele>425.4</ele>
        <time>2022-06-07T08:10:46Z</time>
      </trkpt>
      <trkpt lat="46.51851" lon="5.67245">
        <ele>425.1</ele>
        <time>2022-06-07T08:10:50Z</time>
      </trkpt>
      <trkpt lat="46.51846" lon="5.67247">
        <ele>425.1</ele>
        <time>2022-06-07T08:10:55Z</time>
      </trkpt>
      <trkpt lat="46.51841" lon="5.67251">
        <ele>425.7</ele>
        <time>2022-06-07T08:10:59Z</time>
      </trkpt>
      <trkpt lat="46.51837" lon="5.67254">
        <ele>426.1</ele>
        <time>2022-06-07T08:11:02Z</time>
      </trkpt>
      <trkpt lat="46.51832" lon="5.67257">
        <ele>426.7</ele>
        <time>2022-06-07T08:11:05Z</time>
      </trkpt>
      <trkpt lat="46.51827" lon="5.67261">
        <ele>427.5</ele>
        <time>2022-06-07T08:11:08Z</time>
      </trkpt>
      <trkpt lat="46.51823" lon="5.67266">
        <ele>428.2</ele>
        <time>2022-06-07T08:11:11Z</time>
      </trkpt>
      <trkpt lat="46.51818" lon="5.67271">
        <ele>429</ele>
        <time>2022-06-07T08:11:15Z</time>
      </trkpt>
      <trkpt lat="46.51813" lon="5.67273">
        <ele>429.3</ele>
        <time>2022-06-07T08:11:19Z</time>
      </trkpt>
      <trkpt lat="46.51808" lon="5.67276">
        <ele>429.7</ele>
        <time>2022-06-07T08:11:24Z</time>
      </trkpt>
      <trkpt lat="46.51803" lon="5.67279">
        <ele>430.2</ele>
        <time>2022-06-07T08:11:28Z</time>
      </trkpt>
      <trkpt lat="46.518" lon="5.67282">
        <ele>430.6</ele>
        <time>2022-06-07T08:11:32Z</time>
      </trkpt>
      <trkpt lat="46.51796" lon="5.67287">
        <ele>430.6</ele>
        <time>2022-06-07T08:11:36Z</time>
      </trkpt>
      <trkpt lat="46.51792" lon="5.67292">
        <ele>430.4</ele>
        <time>2022-06-07T08:11:39Z</time>
      </trkpt>
      <trkpt lat="46.51786" lon="5.67297">
        <ele>430.1</ele>
        <time>2022-06-07T08:11:42Z</time>
      </trkpt>
      <trkpt lat="46.51782" lon="5.67301">
        <ele>429.9</ele>
        <time>2022-06-07T08:11:45Z</time>
      </trkpt>
      <trkpt lat="46.51778" lon="5.67306">
        <ele>429.8</ele>
        <time>2022-06-07T08:11:48Z</time>
      </trkpt>
      <trkpt lat="46.51773" lon="5.67309">
        <ele>429.6</ele>
        <time>2022-06-07T08:11:51Z</time>
      </trkpt>
      <trkpt lat="46.51768" lon="5.67311">
        <ele>429.3</ele>
        <time>2022-06-07T08:11:55Z</time>
      </trkpt>
      <trkpt lat="46.51763" lon="5.67312">
        <ele>429.3</ele>
        <time>2022-06-07T08:12:00Z</time>
      </trkpt>
      <trkpt lat="46.51759" lon="5.67317">
        <ele>429</ele>
        <time>2022-06-07T08:12:08Z</time>
      </trkpt>
      <trkpt lat="46.51754" lon="5.67323">
        <ele>429.5</ele>
        <time>2022-06-07T08:12:12Z</time>
      </trkpt>
      <trkpt lat="46.51751" lon="5.67327">
        <ele>430.4</ele>
        <time>2022-06-07T08:12:15Z</time>
      </trkpt>
      <trkpt lat="46.51747" lon="5.67332">
        <ele>431.4</ele>
        <time>2022-06-07T08:12:18Z</time>
      </trkpt>
      <trkpt lat="46.51742" lon="5.67335">
        <ele>433.3</ele>
        <time>2022-06-07T08:12:22Z</time>
      </trkpt>
      <trkpt lat="46.51738" lon="5.6734">
        <ele>435.4</ele>
        <time>2022-06-07T08:12:26Z</time>
      </trkpt>
      <trkpt lat="46.51734" lon="5.67345">
        <ele>439</ele>
        <time>2022-06-07T08:12:33Z</time>
      </trkpt>
      <trkpt lat="46.51732" lon="5.67351">
        <ele>442.2</ele>
        <time>2022-06-07T08:12:54Z</time>
      </trkpt>
      <trkpt lat="46.51728" lon="5.67354">
        <ele>443.1</ele>
        <time>2022-06-07T08:13:03Z</time>
      </trkpt>
      <trkpt lat="46.51723" lon="5.67355">
        <ele>443</ele>
        <time>2022-06-07T08:13:07Z</time>
      </trkpt>
      <trkpt lat="46.51717" lon="5.67356">
        <ele>442.8</ele>
        <time>2022-06-07T08:13:11Z</time>
      </trkpt>
      <trkpt lat="46.51712" lon="5.67356">
        <ele>442.7</ele>
        <time>2022-06-07T08:13:15Z</time>
      </trkpt>
      <trkpt lat="46.51706" lon="5.67357">
        <ele>443.1</ele>
        <time>2022-06-07T08:13:20Z</time>
      </trkpt>
      <trkpt lat="46.51702" lon="5.67358">
        <ele>443.3</ele>
        <time>2022-06-07T08:13:25Z</time>
      </trkpt>
      <trkpt lat="46.51697" lon="5.67358">
        <ele>443.1</ele>
        <time>2022-06-07T08:13:33Z</time>
      </trkpt>
      <trkpt lat="46.51692" lon="5.67361">
        <ele>443.5</ele>
        <time>2022-06-07T08:13:39Z</time>
      </trkpt>
      <trkpt lat="46.51687" lon="5.67363">
        <ele>443.9</ele>
        <time>2022-06-07T08:13:45Z</time>
      </trkpt>
      <trkpt lat="46.51683" lon="5.67365">
        <ele>443.8</ele>
        <time>2022-06-07T08:13:50Z</time>
      </trkpt>
      <trkpt lat="46.51678" lon="5.67367">
        <ele>443.4</ele>
        <time>2022-06-07T08:13:54Z</time>
      </trkpt>
      <trkpt lat="46.51674" lon="5.67367">
        <ele>442.8</ele>
        <time>2022-06-07T08:13:58Z</time>
      </trkpt>
      <trkpt lat="46.51669" lon="5.67369">
        <ele>442.1</ele>
        <time>2022-06-07T08:14:03Z</time>
      </trkpt>
      <trkpt lat="46.51664" lon="5.6737">
        <ele>442.1</ele>
        <time>2022-06-07T08:14:11Z</time>
      </trkpt>
      <trkpt lat="46.51661" lon="5.67365">
        <ele>442.5</ele>
        <time>2022-06-07T08:14:17Z</time>
      </trkpt>
      <trkpt lat="46.51656" lon="5.67363">
        <ele>443.1</ele>
        <time>2022-06-07T08:14:46Z</time>
      </trkpt>
      <trkpt lat="46.51651" lon="5.67363">
        <ele>443.6</ele>
        <time>2022-06-07T08:14:51Z</time>
      </trkpt>
      <trkpt lat="46.51646" lon="5.67362">
        <ele>445.7</ele>
        <time>2022-06-07T08:15:05Z</time>
      </trkpt>
      <trkpt lat="46.51641" lon="5.67364">
        <ele>445.7</ele>
        <time>2022-06-07T08:15:10Z</time>
      </trkpt>
      <trkpt lat="46.51636" lon="5.67364">
        <ele>445.5</ele>
        <time>2022-06-07T08:15:14Z</time>
      </trkpt>
      <trkpt lat="46.51631" lon="5.67364">
        <ele>445.2</ele>
        <time>2022-06-07T08:15:18Z</time>
      </trkpt>
      <trkpt lat="46.51625" lon="5.6736">
        <ele>445</ele>
        <time>2022-06-07T08:15:22Z</time>
      </trkpt>
      <trkpt lat="46.5162" lon="5.67357">
        <ele>444.9</ele>
        <time>2022-06-07T08:15:26Z</time>
      </trkpt>
      <trkpt lat="46.51616" lon="5.67354">
        <ele>444.7</ele>
        <time>2022-06-07T08:15:32Z</time>
      </trkpt>
      <trkpt lat="46.51612" lon="5.6735">
        <ele>444.4</ele>
        <time>2022-06-07T08:15:37Z</time>
      </trkpt>
      <trkpt lat="46.51608" lon="5.67346">
        <ele>443.8</ele>
        <time>2022-06-07T08:15:43Z</time>
      </trkpt>
      <trkpt lat="46.51603" lon="5.67343">
        <ele>443.2</ele>
        <time>2022-06-07T08:15:48Z</time>
      </trkpt>
      <trkpt lat="46.51599" lon="5.6734">
        <ele>442.4</ele>
        <time>2022-06-07T08:15:55Z</time>
      </trkpt>
      <trkpt lat="46.51595" lon="5.67333">
        <ele>442.3</ele>
        <time>2022-06-07T08:16:00Z</time>
      </trkpt>
      <trkpt lat="46.51592" lon="5.67329">
        <ele>442.1</ele>
        <time>2022-06-07T08:16:03Z</time>
      </trkpt>
      <trkpt lat="46.51588" lon="5.67323">
        <ele>442</ele>
        <time>2022-06-07T08:16:07Z</time>
      </trkpt>
      <trkpt lat="46.51584" lon="5.67319">
        <ele>442.3</ele>
        <time>2022-06-07T08:16:10Z</time>
      </trkpt>
      <trkpt lat="46.5158" lon="5.67315">
        <ele>442.6</ele>
        <time>2022-06-07T08:16:13Z</time>
      </trkpt>
      <trkpt lat="46.51577" lon="5.6731">
        <ele>443.1</ele>
        <time>2022-06-07T08:16:16Z</time>
      </trkpt>
      <trkpt lat="46.51574" lon="5.67304">
        <ele>443.5</ele>
        <time>2022-06-07T08:16:20Z</time>
      </trkpt>
      <trkpt lat="46.51571" lon="5.67298">
        <ele>444</ele>
        <time>2022-06-07T08:16:25Z</time>
      </trkpt>
      <trkpt lat="46.51566" lon="5.67295">
        <ele>444.6</ele>
        <time>2022-06-07T08:16:29Z</time>
      </trkpt>
      <trkpt lat="46.51561" lon="5.67291">
        <ele>445.2</ele>
        <time>2022-06-07T08:16:34Z</time>
      </trkpt>
      <trkpt lat="46.51558" lon="5.67287">
        <ele>445.7</ele>
        <time>2022-06-07T08:16:38Z</time>
      </trkpt>
      <trkpt lat="46.51555" lon="5.67282">
        <ele>445.8</ele>
        <time>2022-06-07T08:16:42Z</time>
      </trkpt>
      <trkpt lat="46.51555" lon="5.67275">
        <ele>446</ele>
        <time>2022-06-07T08:16:47Z</time>
      </trkpt>
      <trkpt lat="46.51553" lon="5.67269">
        <ele>446.3</ele>
        <time>2022-06-07T08:16:53Z</time>
      </trkpt>
      <trkpt lat="46.5155" lon="5.67263">
        <ele>446.4</ele>
        <time>2022-06-07T08:16:57Z</time>
      </trkpt>
      <trkpt lat="46.51547" lon="5.67257">
        <ele>446.6</ele>
        <time>2022-06-07T08:17:00Z</time>
      </trkpt>
      <trkpt lat="46.51544" lon="5.67251">
        <ele>446.7</ele>
        <time>2022-06-07T08:17:04Z</time>
      </trkpt>
      <trkpt lat="46.51541" lon="5.67246">
        <ele>446.3</ele>
        <time>2022-06-07T08:17:09Z</time>
      </trkpt>
      <trkpt lat="46.51536" lon="5.67241">
        <ele>446.1</ele>
        <time>2022-06-07T08:17:13Z</time>
      </trkpt>
      <trkpt lat="46.51533" lon="5.67236">
        <ele>445.8</ele>
        <time>2022-06-07T08:17:16Z</time>
      </trkpt>
      <trkpt lat="46.5153" lon="5.67231">
        <ele>445.5</ele>
        <time>2022-06-07T08:17:19Z</time>
      </trkpt>
      <trkpt lat="46.51526" lon="5.67226">
        <ele>445.1</ele>
        <time>2022-06-07T08:17:24Z</time>
      </trkpt>
      <trkpt lat="46.51524" lon="5.6722">
        <ele>444.6</ele>
        <time>2022-06-07T08:17:31Z</time>
      </trkpt>
      <trkpt lat="46.51522" lon="5.67213">
        <ele>443.7</ele>
        <time>2022-06-07T08:17:37Z</time>
      </trkpt>
      <trkpt lat="46.51518" lon="5.67209">
        <ele>443.2</ele>
        <time>2022-06-07T08:17:41Z</time>
      </trkpt>
      <trkpt lat="46.51516" lon="5.67201">
        <ele>442</ele>
        <time>2022-06-07T08:17:46Z</time>
      </trkpt>
      <trkpt lat="46.51513" lon="5.67194">
        <ele>440.8</ele>
        <time>2022-06-07T08:17:50Z</time>
      </trkpt>
      <trkpt lat="46.51511" lon="5.67188">
        <ele>439.6</ele>
        <time>2022-06-07T08:17:56Z</time>
      </trkpt>
      <trkpt lat="46.51507" lon="5.67181">
        <ele>438.5</ele>
        <time>2022-06-07T08:18:01Z</time>
      </trkpt>
      <trkpt lat="46.51504" lon="5.67177">
        <ele>437.9</ele>
        <time>2022-06-07T08:18:04Z</time>
      </trkpt>
      <trkpt lat="46.515" lon="5.67171">
        <ele>436.8</ele>
        <time>2022-06-07T08:18:09Z</time>
      </trkpt>
      <trkpt lat="46.51496" lon="5.67166">
        <ele>436.3</ele>
        <time>2022-06-07T08:18:13Z</time>
      </trkpt>
      <trkpt lat="46.51492" lon="5.6716">
        <ele>435.9</ele>
        <time>2022-06-07T08:18:16Z</time>
      </trkpt>
      <trkpt lat="46.51489" lon="5.67153">
        <ele>435.6</ele>
        <time>2022-06-07T08:18:19Z</time>
      </trkpt>
      <trkpt lat="46.51486" lon="5.67146">
        <ele>435.3</ele>
        <time>2022-06-07T08:18:23Z</time>
      </trkpt>
      <trkpt lat="46.51483" lon="5.6714">
        <ele>435.1</ele>
        <time>2022-06-07T08:18:27Z</time>
      </trkpt>
      <trkpt lat="46.51481" lon="5.67134">
        <ele>434.8</ele>
        <time>2022-06-07T08:18:31Z</time>
      </trkpt>
      <trkpt lat="46.51477" lon="5.67129">
        <ele>434.3</ele>
        <time>2022-06-07T08:18:36Z</time>
      </trkpt>
      <trkpt lat="46.51473" lon="5.67126">
        <ele>434.1</ele>
        <time>2022-06-07T08:18:40Z</time>
      </trkpt>
      <trkpt lat="46.51468" lon="5.67122">
        <ele>433.9</ele>
        <time>2022-06-07T08:18:45Z</time>
      </trkpt>
      <trkpt lat="46.51464" lon="5.67118">
        <ele>433.3</ele>
        <time>2022-06-07T08:18:49Z</time>
      </trkpt>
      <trkpt lat="46.51461" lon="5.67113">
        <ele>432.6</ele>
        <time>2022-06-07T08:18:54Z</time>
      </trkpt>
      <trkpt lat="46.51458" lon="5.67107">
        <ele>431.8</ele>
        <time>2022-06-07T08:18:59Z</time>
      </trkpt>
      <trkpt lat="46.51454" lon="5.671">
        <ele>431</ele>
        <time>2022-06-07T08:19:03Z</time>
      </trkpt>
      <trkpt lat="46.51451" lon="5.67096">
        <ele>430.5</ele>
        <time>2022-06-07T08:19:07Z</time>
      </trkpt>
      <trkpt lat="46.51448" lon="5.67089">
        <ele>429.8</ele>
        <time>2022-06-07T08:19:13Z</time>
      </trkpt>
      <trkpt lat="46.51445" lon="5.67084">
        <ele>429.4</ele>
        <time>2022-06-07T08:19:18Z</time>
      </trkpt>
      <trkpt lat="46.51441" lon="5.67079">
        <ele>428.9</ele>
        <time>2022-06-07T08:19:24Z</time>
      </trkpt>
      <trkpt lat="46.51437" lon="5.67076">
        <ele>428.5</ele>
        <time>2022-06-07T08:19:28Z</time>
      </trkpt>
      <trkpt lat="46.51433" lon="5.67074">
        <ele>428</ele>
        <time>2022-06-07T08:19:32Z</time>
      </trkpt>
      <trkpt lat="46.51428" lon="5.67071">
        <ele>427.6</ele>
        <time>2022-06-07T08:19:36Z</time>
      </trkpt>
      <trkpt lat="46.51424" lon="5.67066">
        <ele>427.4</ele>
        <time>2022-06-07T08:19:40Z</time>
      </trkpt>
      <trkpt lat="46.5142" lon="5.6706">
        <ele>427</ele>
        <time>2022-06-07T08:19:44Z</time>
      </trkpt>
      <trkpt lat="46.51416" lon="5.67053">
        <ele>426.6</ele>
        <time>2022-06-07T08:19:48Z</time>
      </trkpt>
      <trkpt lat="46.51413" lon="5.67047">
        <ele>426.1</ele>
        <time>2022-06-07T08:19:52Z</time>
      </trkpt>
      <trkpt lat="46.51409" lon="5.67041">
        <ele>425.7</ele>
        <time>2022-06-07T08:19:56Z</time>
      </trkpt>
      <trkpt lat="46.51404" lon="5.67036">
        <ele>425.6</ele>
        <time>2022-06-07T08:20:00Z</time>
      </trkpt>
      <trkpt lat="46.514" lon="5.67032">
        <ele>425.3</ele>
        <time>2022-06-07T08:20:05Z</time>
      </trkpt>
      <trkpt lat="46.51395" lon="5.67027">
        <ele>425.2</ele>
        <time>2022-06-07T08:20:11Z</time>
      </trkpt>
      <trkpt lat="46.51392" lon="5.67022">
        <ele>425.4</ele>
        <time>2022-06-07T08:20:14Z</time>
      </trkpt>
      <trkpt lat="46.51387" lon="5.67016">
        <ele>425.9</ele>
        <time>2022-06-07T08:20:17Z</time>
      </trkpt>
      <trkpt lat="46.51384" lon="5.6701">
        <ele>426.6</ele>
        <time>2022-06-07T08:20:21Z</time>
      </trkpt>
      <trkpt lat="46.5138" lon="5.67006">
        <ele>427.2</ele>
        <time>2022-06-07T08:20:24Z</time>
      </trkpt>
      <trkpt lat="46.51375" lon="5.67002">
        <ele>427.9</ele>
        <time>2022-06-07T08:20:28Z</time>
      </trkpt>
      <trkpt lat="46.5137" lon="5.66999">
        <ele>428.6</ele>
        <time>2022-06-07T08:20:32Z</time>
      </trkpt>
      <trkpt lat="46.51366" lon="5.66996">
        <ele>429.7</ele>
        <time>2022-06-07T08:20:41Z</time>
      </trkpt>
      <trkpt lat="46.51362" lon="5.66992">
        <ele>430.6</ele>
        <time>2022-06-07T08:20:46Z</time>
      </trkpt>
      <trkpt lat="46.51357" lon="5.66987">
        <ele>431.6</ele>
        <time>2022-06-07T08:20:51Z</time>
      </trkpt>
      <trkpt lat="46.51353" lon="5.66984">
        <ele>432.5</ele>
        <time>2022-06-07T08:20:55Z</time>
      </trkpt>
      <trkpt lat="46.51348" lon="5.66983">
        <ele>433.3</ele>
        <time>2022-06-07T08:20:59Z</time>
      </trkpt>
      <trkpt lat="46.51343" lon="5.66981">
        <ele>434.1</ele>
        <time>2022-06-07T08:21:03Z</time>
      </trkpt>
      <trkpt lat="46.51338" lon="5.66979">
        <ele>435.8</ele>
        <time>2022-06-07T08:21:10Z</time>
      </trkpt>
      <trkpt lat="46.51333" lon="5.66976">
        <ele>436.6</ele>
        <time>2022-06-07T08:21:15Z</time>
      </trkpt>
      <trkpt lat="46.51329" lon="5.66974">
        <ele>436.8</ele>
        <time>2022-06-07T08:21:18Z</time>
      </trkpt>
      <trkpt lat="46.51323" lon="5.66971">
        <ele>437.1</ele>
        <time>2022-06-07T08:21:22Z</time>
      </trkpt>
      <trkpt lat="46.51318" lon="5.66969">
        <ele>437.4</ele>
        <time>2022-06-07T08:21:25Z</time>
      </trkpt>
      <trkpt lat="46.51313" lon="5.66967">
        <ele>437.9</ele>
        <time>2022-06-07T08:21:30Z</time>
      </trkpt>
      <trkpt lat="46.51309" lon="5.66964">
        <ele>438.2</ele>
        <time>2022-06-07T08:21:34Z</time>
      </trkpt>
      <trkpt lat="46.51304" lon="5.66962">
        <ele>438.4</ele>
        <time>2022-06-07T08:21:39Z</time>
      </trkpt>
      <trkpt lat="46.51299" lon="5.66962">
        <ele>438.5</ele>
        <time>2022-06-07T08:21:43Z</time>
      </trkpt>
      <trkpt lat="46.51294" lon="5.66961">
        <ele>438.7</ele>
        <time>2022-06-07T08:21:47Z</time>
      </trkpt>
      <trkpt lat="46.5129" lon="5.6696">
        <ele>438.9</ele>
        <time>2022-06-07T08:21:51Z</time>
      </trkpt>
      <trkpt lat="46.51285" lon="5.66957">
        <ele>439.4</ele>
        <time>2022-06-07T08:21:55Z</time>
      </trkpt>
      <trkpt lat="46.51281" lon="5.66954">
        <ele>440.2</ele>
        <time>2022-06-07T08:21:59Z</time>
      </trkpt>
      <trkpt lat="46.51276" lon="5.6695">
        <ele>441.1</ele>
        <time>2022-06-07T08:22:04Z</time>
      </trkpt>
      <trkpt lat="46.51272" lon="5.66946">
        <ele>441.7</ele>
        <time>2022-06-07T08:22:09Z</time>
      </trkpt>
      <trkpt lat="46.51268" lon="5.66943">
        <ele>442</ele>
        <time>2022-06-07T08:22:15Z</time>
      </trkpt>
      <trkpt lat="46.51263" lon="5.6694">
        <ele>442.1</ele>
        <time>2022-06-07T08:22:20Z</time>
      </trkpt>
      <trkpt lat="46.51259" lon="5.66936">
        <ele>442.3</ele>
        <time>2022-06-07T08:22:24Z</time>
      </trkpt>
      <trkpt lat="46.51254" lon="5.66932">
        <ele>442.4</ele>
        <time>2022-06-07T08:22:29Z</time>
      </trkpt>
      <trkpt lat="46.5125" lon="5.66929">
        <ele>442.4</ele>
        <time>2022-06-07T08:22:34Z</time>
      </trkpt>
      <trkpt lat="46.51247" lon="5.66925">
        <ele>442.1</ele>
        <time>2022-06-07T08:22:38Z</time>
      </trkpt>
      <trkpt lat="46.51244" lon="5.66919">
        <ele>442</ele>
        <time>2022-06-07T08:22:43Z</time>
      </trkpt>
      <trkpt lat="46.5124" lon="5.66914">
        <ele>442</ele>
        <time>2022-06-07T08:22:48Z</time>
      </trkpt>
      <trkpt lat="46.51236" lon="5.66911">
        <ele>442.2</ele>
        <time>2022-06-07T08:22:54Z</time>
      </trkpt>
      <trkpt lat="46.51232" lon="5.66905">
        <ele>441.9</ele>
        <time>2022-06-07T08:23:00Z</time>
      </trkpt>
      <trkpt lat="46.51228" lon="5.66902">
        <ele>441.9</ele>
        <time>2022-06-07T08:23:04Z</time>
      </trkpt>
      <trkpt lat="46.51223" lon="5.669">
        <ele>441.4</ele>
        <time>2022-06-07T08:23:11Z</time>
      </trkpt>
      <trkpt lat="46.51219" lon="5.66896">
        <ele>441.2</ele>
        <time>2022-06-07T08:23:16Z</time>
      </trkpt>
      <trkpt lat="46.51216" lon="5.6689">
        <ele>441</ele>
        <time>2022-06-07T08:23:22Z</time>
      </trkpt>
      <trkpt lat="46.51212" lon="5.66886">
        <ele>441</ele>
        <time>2022-06-07T08:23:28Z</time>
      </trkpt>
      <trkpt lat="46.51207" lon="5.66885">
        <ele>441.7</ele>
        <time>2022-06-07T08:23:34Z</time>
      </trkpt>
      <trkpt lat="46.51203" lon="5.66882">
        <ele>442.3</ele>
        <time>2022-06-07T08:23:38Z</time>
      </trkpt>
      <trkpt lat="46.51199" lon="5.66878">
        <ele>442.7</ele>
        <time>2022-06-07T08:23:42Z</time>
      </trkpt>
      <trkpt lat="46.51194" lon="5.66873">
        <ele>443.3</ele>
        <time>2022-06-07T08:23:47Z</time>
      </trkpt>
      <trkpt lat="46.5119" lon="5.6687">
        <ele>444</ele>
        <time>2022-06-07T08:23:51Z</time>
      </trkpt>
      <trkpt lat="46.51185" lon="5.66871">
        <ele>445.2</ele>
        <time>2022-06-07T08:23:56Z</time>
      </trkpt>
      <trkpt lat="46.5118" lon="5.6687">
        <ele>445.9</ele>
        <time>2022-06-07T08:24:01Z</time>
      </trkpt>
      <trkpt lat="46.51175" lon="5.66869">
        <ele>446.9</ele>
        <time>2022-06-07T08:24:07Z</time>
      </trkpt>
      <trkpt lat="46.51169" lon="5.6687">
        <ele>448.9</ele>
        <time>2022-06-07T08:24:14Z</time>
      </trkpt>
      <trkpt lat="46.51164" lon="5.66869">
        <ele>450.3</ele>
        <time>2022-06-07T08:24:19Z</time>
      </trkpt>
      <trkpt lat="46.51159" lon="5.6687">
        <ele>451.3</ele>
        <time>2022-06-07T08:24:24Z</time>
      </trkpt>
      <trkpt lat="46.51155" lon="5.66872">
        <ele>452.1</ele>
        <time>2022-06-07T08:24:28Z</time>
      </trkpt>
      <trkpt lat="46.5115" lon="5.66869">
        <ele>453.2</ele>
        <time>2022-06-07T08:24:34Z</time>
      </trkpt>
      <trkpt lat="46.51145" lon="5.66868">
        <ele>453.7</ele>
        <time>2022-06-07T08:24:39Z</time>
      </trkpt>
      <trkpt lat="46.5114" lon="5.6687">
        <ele>454.4</ele>
        <time>2022-06-07T08:24:47Z</time>
      </trkpt>
      <trkpt lat="46.51136" lon="5.6687">
        <ele>454.6</ele>
        <time>2022-06-07T08:24:53Z</time>
      </trkpt>
      <trkpt lat="46.51131" lon="5.6687">
        <ele>454.9</ele>
        <time>2022-06-07T08:25:01Z</time>
      </trkpt>
      <trkpt lat="46.51126" lon="5.66871">
        <ele>455</ele>
        <time>2022-06-07T08:25:06Z</time>
      </trkpt>
      <trkpt lat="46.51122" lon="5.66868">
        <ele>455</ele>
        <time>2022-06-07T08:25:12Z</time>
      </trkpt>
      <trkpt lat="46.51117" lon="5.66867">
        <ele>454.9</ele>
        <time>2022-06-07T08:25:18Z</time>
      </trkpt>
      <trkpt lat="46.51112" lon="5.66865">
        <ele>455.3</ele>
        <time>2022-06-07T08:25:23Z</time>
      </trkpt>
      <trkpt lat="46.51107" lon="5.66862">
        <ele>455.3</ele>
        <time>2022-06-07T08:25:28Z</time>
      </trkpt>
      <trkpt lat="46.51104" lon="5.66857">
        <ele>454.9</ele>
        <time>2022-06-07T08:25:34Z</time>
      </trkpt>
      <trkpt lat="46.511" lon="5.66852">
        <ele>454.6</ele>
        <time>2022-06-07T08:25:39Z</time>
      </trkpt>
      <trkpt lat="46.51095" lon="5.66854">
        <ele>454.8</ele>
        <time>2022-06-07T08:25:43Z</time>
      </trkpt>
      <trkpt lat="46.5109" lon="5.66856">
        <ele>455.5</ele>
        <time>2022-06-07T08:25:46Z</time>
      </trkpt>
      <trkpt lat="46.51084" lon="5.66857">
        <ele>456.2</ele>
        <time>2022-06-07T08:25:49Z</time>
      </trkpt>
      <trkpt lat="46.5108" lon="5.66859">
        <ele>457</ele>
        <time>2022-06-07T08:25:52Z</time>
      </trkpt>
      <trkpt lat="46.51076" lon="5.66862">
        <ele>458.1</ele>
        <time>2022-06-07T08:25:56Z</time>
      </trkpt>
      <trkpt lat="46.51071" lon="5.66863">
        <ele>459.7</ele>
        <time>2022-06-07T08:26:05Z</time>
      </trkpt>
      <trkpt lat="46.51065" lon="5.66865">
        <ele>459.7</ele>
        <time>2022-06-07T08:26:10Z</time>
      </trkpt>
      <trkpt lat="46.5106" lon="5.66865">
        <ele>459.7</ele>
        <time>2022-06-07T08:26:15Z</time>
      </trkpt>
      <trkpt lat="46.51055" lon="5.66864">
        <ele>459.6</ele>
        <time>2022-06-07T08:26:21Z</time>
      </trkpt>
      <trkpt lat="46.5105" lon="5.66866">
        <ele>459.9</ele>
        <time>2022-06-07T08:26:25Z</time>
      </trkpt>
      <trkpt lat="46.51045" lon="5.66866">
        <ele>460.7</ele>
        <time>2022-06-07T08:26:33Z</time>
      </trkpt>
      <trkpt lat="46.51041" lon="5.66868">
        <ele>461.6</ele>
        <time>2022-06-07T08:26:39Z</time>
      </trkpt>
      <trkpt lat="46.51036" lon="5.6687">
        <ele>462.1</ele>
        <time>2022-06-07T08:26:43Z</time>
      </trkpt>
      <trkpt lat="46.51031" lon="5.66871">
        <ele>462.4</ele>
        <time>2022-06-07T08:26:47Z</time>
      </trkpt>
      <trkpt lat="46.51026" lon="5.66872">
        <ele>462.5</ele>
        <time>2022-06-07T08:26:52Z</time>
      </trkpt>
      <trkpt lat="46.51022" lon="5.66875">
        <ele>462.4</ele>
        <time>2022-06-07T08:26:57Z</time>
      </trkpt>
      <trkpt lat="46.51017" lon="5.66874">
        <ele>462.4</ele>
        <time>2022-06-07T08:27:03Z</time>
      </trkpt>
      <trkpt lat="46.51012" lon="5.66874">
        <ele>462.4</ele>
        <time>2022-06-07T08:27:07Z</time>
      </trkpt>
      <trkpt lat="46.51006" lon="5.66875">
        <ele>461.9</ele>
        <time>2022-06-07T08:27:12Z</time>
      </trkpt>
      <trkpt lat="46.51" lon="5.66874">
        <ele>461</ele>
        <time>2022-06-07T08:27:17Z</time>
      </trkpt>
      <trkpt lat="46.50995" lon="5.66875">
        <ele>460.1</ele>
        <time>2022-06-07T08:27:23Z</time>
      </trkpt>
      <trkpt lat="46.5099" lon="5.66875">
        <ele>460</ele>
        <time>2022-06-07T08:27:28Z</time>
      </trkpt>
      <trkpt lat="46.50985" lon="5.66877">
        <ele>460.3</ele>
        <time>2022-06-07T08:27:32Z</time>
      </trkpt>
      <trkpt lat="46.5098" lon="5.66878">
        <ele>461.3</ele>
        <time>2022-06-07T08:27:38Z</time>
      </trkpt>
      <trkpt lat="46.50976" lon="5.66882">
        <ele>462.6</ele>
        <time>2022-06-07T08:27:44Z</time>
      </trkpt>
      <trkpt lat="46.50971" lon="5.66883">
        <ele>463.9</ele>
        <time>2022-06-07T08:27:52Z</time>
      </trkpt>
      <trkpt lat="46.50966" lon="5.66882">
        <ele>464.8</ele>
        <time>2022-06-07T08:27:58Z</time>
      </trkpt>
      <trkpt lat="46.50961" lon="5.66884">
        <ele>465.4</ele>
        <time>2022-06-07T08:28:04Z</time>
      </trkpt>
      <trkpt lat="46.50957" lon="5.66887">
        <ele>465.6</ele>
        <time>2022-06-07T08:28:08Z</time>
      </trkpt>
      <trkpt lat="46.50953" lon="5.66883">
        <ele>465.4</ele>
        <time>2022-06-07T08:28:16Z</time>
      </trkpt>
      <trkpt lat="46.50948" lon="5.66886">
        <ele>465.5</ele>
        <time>2022-06-07T08:28:21Z</time>
      </trkpt>
      <trkpt lat="46.50943" lon="5.66889">
        <ele>465.3</ele>
        <time>2022-06-07T08:28:24Z</time>
      </trkpt>
      <trkpt lat="46.50938" lon="5.66892">
        <ele>464.8</ele>
        <time>2022-06-07T08:28:27Z</time>
      </trkpt>
      <trkpt lat="46.50933" lon="5.66894">
        <ele>464.2</ele>
        <time>2022-06-07T08:28:30Z</time>
      </trkpt>
      <trkpt lat="46.50929" lon="5.66899">
        <ele>463.5</ele>
        <time>2022-06-07T08:28:34Z</time>
      </trkpt>
      <trkpt lat="46.50925" lon="5.66906">
        <ele>462.9</ele>
        <time>2022-06-07T08:28:38Z</time>
      </trkpt>
      <trkpt lat="46.50922" lon="5.66912">
        <ele>462.6</ele>
        <time>2022-06-07T08:28:41Z</time>
      </trkpt>
      <trkpt lat="46.50919" lon="5.66917">
        <ele>462.5</ele>
        <time>2022-06-07T08:28:45Z</time>
      </trkpt>
      <trkpt lat="46.50914" lon="5.66921">
        <ele>462.8</ele>
        <time>2022-06-07T08:28:49Z</time>
      </trkpt>
      <trkpt lat="46.5091" lon="5.66924">
        <ele>463.3</ele>
        <time>2022-06-07T08:28:54Z</time>
      </trkpt>
      <trkpt lat="46.50905" lon="5.66922">
        <ele>463.8</ele>
        <time>2022-06-07T08:29:00Z</time>
      </trkpt>
      <trkpt lat="46.50901" lon="5.66924">
        <ele>464.2</ele>
        <time>2022-06-07T08:29:06Z</time>
      </trkpt>
      <trkpt lat="46.50896" lon="5.66926">
        <ele>466.2</ele>
        <time>2022-06-07T08:29:16Z</time>
      </trkpt>
      <trkpt lat="46.50891" lon="5.66929">
        <ele>467.5</ele>
        <time>2022-06-07T08:29:25Z</time>
      </trkpt>
      <trkpt lat="46.50886" lon="5.66931">
        <ele>467.5</ele>
        <time>2022-06-07T08:29:29Z</time>
      </trkpt>
      <trkpt lat="46.50881" lon="5.66934">
        <ele>467.3</ele>
        <time>2022-06-07T08:29:32Z</time>
      </trkpt>
      <trkpt lat="46.50876" lon="5.66932">
        <ele>467</ele>
        <time>2022-06-07T08:29:37Z</time>
      </trkpt>
      <trkpt lat="46.50871" lon="5.6693">
        <ele>467.1</ele>
        <time>2022-06-07T08:29:45Z</time>
      </trkpt>
      <trkpt lat="46.50866" lon="5.66932">
        <ele>467.9</ele>
        <time>2022-06-07T08:29:54Z</time>
      </trkpt>
      <trkpt lat="46.50861" lon="5.66937">
        <ele>467.6</ele>
        <time>2022-06-07T08:29:58Z</time>
      </trkpt>
      <trkpt lat="46.50857" lon="5.66941">
        <ele>467.2</ele>
        <time>2022-06-07T08:30:01Z</time>
      </trkpt>
      <trkpt lat="46.50852" lon="5.66947">
        <ele>466.8</ele>
        <time>2022-06-07T08:30:05Z</time>
      </trkpt>
      <trkpt lat="46.50848" lon="5.66949">
        <ele>466.3</ele>
        <time>2022-06-07T08:30:10Z</time>
      </trkpt>
      <trkpt lat="46.50843" lon="5.66952">
        <ele>465.4</ele>
        <time>2022-06-07T08:30:15Z</time>
      </trkpt>
      <trkpt lat="46.5084" lon="5.66957">
        <ele>464.5</ele>
        <time>2022-06-07T08:30:19Z</time>
      </trkpt>
      <trkpt lat="46.50835" lon="5.66962">
        <ele>464.5</ele>
        <time>2022-06-07T08:30:23Z</time>
      </trkpt>
      <trkpt lat="46.50831" lon="5.66966">
        <ele>465.2</ele>
        <time>2022-06-07T08:30:27Z</time>
      </trkpt>
      <trkpt lat="46.50827" lon="5.66971">
        <ele>466.5</ele>
        <time>2022-06-07T08:30:32Z</time>
      </trkpt>
      <trkpt lat="46.50823" lon="5.66976">
        <ele>468.1</ele>
        <time>2022-06-07T08:30:37Z</time>
      </trkpt>
      <trkpt lat="46.50818" lon="5.66979">
        <ele>468.8</ele>
        <time>2022-06-07T08:30:42Z</time>
      </trkpt>
      <trkpt lat="46.50814" lon="5.66982">
        <ele>468.8</ele>
        <time>2022-06-07T08:30:45Z</time>
      </trkpt>
      <trkpt lat="46.5081" lon="5.66984">
        <ele>468.9</ele>
        <time>2022-06-07T08:30:50Z</time>
      </trkpt>
      <trkpt lat="46.50806" lon="5.66989">
        <ele>468.8</ele>
        <time>2022-06-07T08:30:55Z</time>
      </trkpt>
      <trkpt lat="46.50802" lon="5.66995">
        <ele>468.7</ele>
        <time>2022-06-07T08:31:01Z</time>
      </trkpt>
      <trkpt lat="46.508" lon="5.67001">
        <ele>468.7</ele>
        <time>2022-06-07T08:31:05Z</time>
      </trkpt>
      <trkpt lat="46.50796" lon="5.67005">
        <ele>469</ele>
        <time>2022-06-07T08:31:10Z</time>
      </trkpt>
      <trkpt lat="46.50791" lon="5.67004">
        <ele>469.7</ele>
        <time>2022-06-07T08:31:19Z</time>
      </trkpt>
      <trkpt lat="46.50787" lon="5.6701">
        <ele>470</ele>
        <time>2022-06-07T08:31:25Z</time>
      </trkpt>
      <trkpt lat="46.50786" lon="5.67017">
        <ele>470.6</ele>
        <time>2022-06-07T08:31:29Z</time>
      </trkpt>
      <trkpt lat="46.50783" lon="5.67024">
        <ele>471.4</ele>
        <time>2022-06-07T08:31:34Z</time>
      </trkpt>
      <trkpt lat="46.50778" lon="5.67025">
        <ele>472.3</ele>
        <time>2022-06-07T08:31:41Z</time>
      </trkpt>
      <trkpt lat="46.50776" lon="5.67032">
        <ele>474.7</ele>
        <time>2022-06-07T08:31:49Z</time>
      </trkpt>
      <trkpt lat="46.50774" lon="5.67038">
        <ele>475.7</ele>
        <time>2022-06-07T08:31:52Z</time>
      </trkpt>
      <trkpt lat="46.50772" lon="5.67045">
        <ele>477</ele>
        <time>2022-06-07T08:31:57Z</time>
      </trkpt>
      <trkpt lat="46.5077" lon="5.67052">
        <ele>478.1</ele>
        <time>2022-06-07T08:32:02Z</time>
      </trkpt>
      <trkpt lat="46.50769" lon="5.67058">
        <ele>478.8</ele>
        <time>2022-06-07T08:32:07Z</time>
      </trkpt>
      <trkpt lat="46.50766" lon="5.67063">
        <ele>480.7</ele>
        <time>2022-06-07T08:32:20Z</time>
      </trkpt>
      <trkpt lat="46.50762" lon="5.67066">
        <ele>480.4</ele>
        <time>2022-06-07T08:32:24Z</time>
      </trkpt>
      <trkpt lat="46.50758" lon="5.6707">
        <ele>480</ele>
        <time>2022-06-07T08:32:28Z</time>
      </trkpt>
      <trkpt lat="46.50753" lon="5.67074">
        <ele>479.8</ele>
        <time>2022-06-07T08:32:33Z</time>
      </trkpt>
      <trkpt lat="46.50749" lon="5.67076">
        <ele>479.9</ele>
        <time>2022-06-07T08:32:38Z</time>
      </trkpt>
      <trkpt lat="46.50744" lon="5.6708">
        <ele>480</ele>
        <time>2022-06-07T08:32:47Z</time>
      </trkpt>
      <trkpt lat="46.50742" lon="5.67085">
        <ele>480.2</ele>
        <time>2022-06-07T08:32:53Z</time>
      </trkpt>
      <trkpt lat="46.5074" lon="5.67093">
        <ele>480.3</ele>
        <time>2022-06-07T08:32:57Z</time>
      </trkpt>
      <trkpt lat="46.50738" lon="5.67101">
        <ele>480.1</ele>
        <time>2022-06-07T08:33:01Z</time>
      </trkpt>
      <trkpt lat="46.50736" lon="5.67109">
        <ele>480</ele>
        <time>2022-06-07T08:33:04Z</time>
      </trkpt>
      <trkpt lat="46.50734" lon="5.67115">
        <ele>479.9</ele>
        <time>2022-06-07T08:33:09Z</time>
      </trkpt>
      <trkpt lat="46.5073" lon="5.6712">
        <ele>479.8</ele>
        <time>2022-06-07T08:33:13Z</time>
      </trkpt>
      <trkpt lat="46.50726" lon="5.67123">
        <ele>479.5</ele>
        <time>2022-06-07T08:33:17Z</time>
      </trkpt>
      <trkpt lat="46.50722" lon="5.67128">
        <ele>478.8</ele>
        <time>2022-06-07T08:33:24Z</time>
      </trkpt>
      <trkpt lat="46.50721" lon="5.67134">
        <ele>477.5</ele>
        <time>2022-06-07T08:33:33Z</time>
      </trkpt>
      <trkpt lat="46.50719" lon="5.67141">
        <ele>476.5</ele>
        <time>2022-06-07T08:33:38Z</time>
      </trkpt>
      <trkpt lat="46.50718" lon="5.67148">
        <ele>476.2</ele>
        <time>2022-06-07T08:33:41Z</time>
      </trkpt>
      <trkpt lat="46.50715" lon="5.67156">
        <ele>476.3</ele>
        <time>2022-06-07T08:33:44Z</time>
      </trkpt>
      <trkpt lat="46.50713" lon="5.67164">
        <ele>476.5</ele>
        <time>2022-06-07T08:33:47Z</time>
      </trkpt>
      <trkpt lat="46.50711" lon="5.67172">
        <ele>477.1</ele>
        <time>2022-06-07T08:33:51Z</time>
      </trkpt>
      <trkpt lat="46.50709" lon="5.67178">
        <ele>478</ele>
        <time>2022-06-07T08:33:54Z</time>
      </trkpt>
      <trkpt lat="46.50707" lon="5.67186">
        <ele>479.3</ele>
        <time>2022-06-07T08:33:58Z</time>
      </trkpt>
      <trkpt lat="46.50705" lon="5.67194">
        <ele>480.7</ele>
        <time>2022-06-07T08:34:02Z</time>
      </trkpt>
      <trkpt lat="46.50702" lon="5.67198">
        <ele>482.2</ele>
        <time>2022-06-07T08:34:09Z</time>
      </trkpt>
      <trkpt lat="46.50697" lon="5.67203">
        <ele>482.4</ele>
        <time>2022-06-07T08:34:14Z</time>
      </trkpt>
      <trkpt lat="46.50694" lon="5.67209">
        <ele>482.5</ele>
        <time>2022-06-07T08:34:19Z</time>
      </trkpt>
      <trkpt lat="46.50693" lon="5.67216">
        <ele>482.7</ele>
        <time>2022-06-07T08:34:24Z</time>
      </trkpt>
      <trkpt lat="46.50692" lon="5.67224">
        <ele>483.2</ele>
        <time>2022-06-07T08:34:28Z</time>
      </trkpt>
      <trkpt lat="46.5069" lon="5.6723">
        <ele>483.3</ele>
        <time>2022-06-07T08:34:35Z</time>
      </trkpt>
      <trkpt lat="46.50686" lon="5.67236">
        <ele>482.3</ele>
        <time>2022-06-07T08:34:40Z</time>
      </trkpt>
      <trkpt lat="46.50684" lon="5.67242">
        <ele>481.3</ele>
        <time>2022-06-07T08:34:43Z</time>
      </trkpt>
      <trkpt lat="46.50682" lon="5.67249">
        <ele>480.4</ele>
        <time>2022-06-07T08:34:47Z</time>
      </trkpt>
      <trkpt lat="46.50681" lon="5.67256">
        <ele>480</ele>
        <time>2022-06-07T08:34:52Z</time>
      </trkpt>
      <trkpt lat="46.50682" lon="5.67263">
        <ele>480.3</ele>
        <time>2022-06-07T08:34:57Z</time>
      </trkpt>
      <trkpt lat="46.50681" lon="5.6727">
        <ele>480.8</ele>
        <time>2022-06-07T08:35:02Z</time>
      </trkpt>
      <trkpt lat="46.50679" lon="5.67277">
        <ele>480.7</ele>
        <time>2022-06-07T08:35:09Z</time>
      </trkpt>
      <trkpt lat="46.50679" lon="5.67284">
        <ele>480.8</ele>
        <time>2022-06-07T08:35:13Z</time>
      </trkpt>
      <trkpt lat="46.50679" lon="5.67291">
        <ele>480.9</ele>
        <time>2022-06-07T08:35:16Z</time>
      </trkpt>
      <trkpt lat="46.50677" lon="5.67298">
        <ele>481.4</ele>
        <time>2022-06-07T08:35:20Z</time>
      </trkpt>
      <trkpt lat="46.50675" lon="5.67305">
        <ele>481.6</ele>
        <time>2022-06-07T08:35:24Z</time>
      </trkpt>
      <trkpt lat="46.50677" lon="5.67311">
        <ele>481.9</ele>
        <time>2022-06-07T08:35:30Z</time>
      </trkpt>
      <trkpt lat="46.50674" lon="5.67318">
        <ele>482.5</ele>
        <time>2022-06-07T08:35:35Z</time>
      </trkpt>
      <trkpt lat="46.50673" lon="5.67325">
        <ele>482.8</ele>
        <time>2022-06-07T08:35:39Z</time>
      </trkpt>
      <trkpt lat="46.50672" lon="5.67332">
        <ele>483.1</ele>
        <time>2022-06-07T08:35:43Z</time>
      </trkpt>
      <trkpt lat="46.50673" lon="5.67339">
        <ele>483.6</ele>
        <time>2022-06-07T08:35:47Z</time>
      </trkpt>
      <trkpt lat="46.50674" lon="5.67345">
        <ele>484.1</ele>
        <time>2022-06-07T08:35:52Z</time>
      </trkpt>
      <trkpt lat="46.50675" lon="5.67352">
        <ele>484.5</ele>
        <time>2022-06-07T08:35:57Z</time>
      </trkpt>
      <trkpt lat="46.50678" lon="5.67357">
        <ele>484.7</ele>
        <time>2022-06-07T08:36:02Z</time>
      </trkpt>
      <trkpt lat="46.50678" lon="5.67364">
        <ele>485.1</ele>
        <time>2022-06-07T08:36:06Z</time>
      </trkpt>
      <trkpt lat="46.50676" lon="5.67371">
        <ele>485.4</ele>
        <time>2022-06-07T08:36:11Z</time>
      </trkpt>
      <trkpt lat="46.50674" lon="5.67377">
        <ele>486</ele>
        <time>2022-06-07T08:36:15Z</time>
      </trkpt>
      <trkpt lat="46.50677" lon="5.67384">
        <ele>486.2</ele>
        <time>2022-06-07T08:36:20Z</time>
      </trkpt>
      <trkpt lat="46.50677" lon="5.67392">
        <ele>486.2</ele>
        <time>2022-06-07T08:36:25Z</time>
      </trkpt>
      <trkpt lat="46.50678" lon="5.67399">
        <ele>487</ele>
        <time>2022-06-07T08:36:30Z</time>
      </trkpt>
      <trkpt lat="46.50681" lon="5.67405">
        <ele>488.4</ele>
        <time>2022-06-07T08:36:36Z</time>
      </trkpt>
      <trkpt lat="46.50683" lon="5.67411">
        <ele>490</ele>
        <time>2022-06-07T08:36:43Z</time>
      </trkpt>
      <trkpt lat="46.50681" lon="5.67417">
        <ele>490.2</ele>
        <time>2022-06-07T08:36:48Z</time>
      </trkpt>
      <trkpt lat="46.5068" lon="5.67424">
        <ele>489.7</ele>
        <time>2022-06-07T08:36:54Z</time>
      </trkpt>
      <trkpt lat="46.50678" lon="5.67431">
        <ele>488.7</ele>
        <time>2022-06-07T08:37:01Z</time>
      </trkpt>
      <trkpt lat="46.50678" lon="5.67438">
        <ele>488.1</ele>
        <time>2022-06-07T08:37:05Z</time>
      </trkpt>
      <trkpt lat="46.5068" lon="5.67446">
        <ele>487.6</ele>
        <time>2022-06-07T08:37:10Z</time>
      </trkpt>
      <trkpt lat="46.5068" lon="5.67453">
        <ele>487.8</ele>
        <time>2022-06-07T08:37:19Z</time>
      </trkpt>
      <trkpt lat="46.50678" lon="5.67459">
        <ele>488.5</ele>
        <time>2022-06-07T08:37:25Z</time>
      </trkpt>
      <trkpt lat="46.50676" lon="5.67467">
        <ele>489.3</ele>
        <time>2022-06-07T08:37:30Z</time>
      </trkpt>
      <trkpt lat="46.50673" lon="5.67472">
        <ele>489.8</ele>
        <time>2022-06-07T08:37:35Z</time>
      </trkpt>
      <trkpt lat="46.50671" lon="5.67479">
        <ele>490.3</ele>
        <time>2022-06-07T08:37:40Z</time>
      </trkpt>
      <trkpt lat="46.5067" lon="5.67487">
        <ele>490.4</ele>
        <time>2022-06-07T08:37:44Z</time>
      </trkpt>
      <trkpt lat="46.50671" lon="5.67494">
        <ele>490.5</ele>
        <time>2022-06-07T08:37:48Z</time>
      </trkpt>
      <trkpt lat="46.50673" lon="5.67501">
        <ele>490.1</ele>
        <time>2022-06-07T08:37:54Z</time>
      </trkpt>
      <trkpt lat="46.50675" lon="5.67507">
        <ele>490.7</ele>
        <time>2022-06-07T08:37:58Z</time>
      </trkpt>
      <trkpt lat="46.50676" lon="5.67514">
        <ele>491.7</ele>
        <time>2022-06-07T08:38:03Z</time>
      </trkpt>
      <trkpt lat="46.50679" lon="5.6752">
        <ele>492.9</ele>
        <time>2022-06-07T08:38:08Z</time>
      </trkpt>
      <trkpt lat="46.50681" lon="5.67528">
        <ele>493.9</ele>
        <time>2022-06-07T08:38:15Z</time>
      </trkpt>
      <trkpt lat="46.50684" lon="5.67533">
        <ele>494.6</ele>
        <time>2022-06-07T08:38:19Z</time>
      </trkpt>
      <trkpt lat="46.50686" lon="5.67539">
        <ele>495.4</ele>
        <time>2022-06-07T08:38:23Z</time>
      </trkpt>
      <trkpt lat="46.50687" lon="5.67546">
        <ele>495.8</ele>
        <time>2022-06-07T08:38:28Z</time>
      </trkpt>
      <trkpt lat="46.5069" lon="5.67551">
        <ele>495.9</ele>
        <time>2022-06-07T08:38:35Z</time>
      </trkpt>
      <trkpt lat="46.50695" lon="5.67554">
        <ele>495.8</ele>
        <time>2022-06-07T08:38:41Z</time>
      </trkpt>
      <trkpt lat="46.50694" lon="5.6756">
        <ele>495</ele>
        <time>2022-06-07T08:38:46Z</time>
      </trkpt>
      <trkpt lat="46.50695" lon="5.67567">
        <ele>493.2</ele>
        <time>2022-06-07T08:38:54Z</time>
      </trkpt>
      <trkpt lat="46.50699" lon="5.67572">
        <ele>492</ele>
        <time>2022-06-07T08:39:00Z</time>
      </trkpt>
      <trkpt lat="46.50702" lon="5.67578">
        <ele>489.6</ele>
        <time>2022-06-07T08:39:09Z</time>
      </trkpt>
      <trkpt lat="46.507" lon="5.67584">
        <ele>488.1</ele>
        <time>2022-06-07T08:39:14Z</time>
      </trkpt>
      <trkpt lat="46.50702" lon="5.6759">
        <ele>487.4</ele>
        <time>2022-06-07T08:39:19Z</time>
      </trkpt>
      <trkpt lat="46.50706" lon="5.67595">
        <ele>487</ele>
        <time>2022-06-07T08:39:26Z</time>
      </trkpt>
      <trkpt lat="46.50705" lon="5.67602">
        <ele>486.9</ele>
        <time>2022-06-07T08:39:32Z</time>
      </trkpt>
      <trkpt lat="46.50702" lon="5.67608">
        <ele>487.2</ele>
        <time>2022-06-07T08:39:36Z</time>
      </trkpt>
      <trkpt lat="46.50701" lon="5.67615">
        <ele>487.6</ele>
        <time>2022-06-07T08:39:40Z</time>
      </trkpt>
      <trkpt lat="46.50701" lon="5.67622">
        <ele>488.3</ele>
        <time>2022-06-07T08:39:44Z</time>
      </trkpt>
      <trkpt lat="46.50703" lon="5.67628">
        <ele>490.3</ele>
        <time>2022-06-07T08:39:48Z</time>
      </trkpt>
      <trkpt lat="46.50707" lon="5.67633">
        <ele>492.3</ele>
        <time>2022-06-07T08:39:52Z</time>
      </trkpt>
      <trkpt lat="46.50708" lon="5.67639">
        <ele>494.1</ele>
        <time>2022-06-07T08:39:56Z</time>
      </trkpt>
      <trkpt lat="46.50711" lon="5.67645">
        <ele>495.4</ele>
        <time>2022-06-07T08:40:01Z</time>
      </trkpt>
      <trkpt lat="46.50713" lon="5.6765">
        <ele>496.5</ele>
        <time>2022-06-07T08:40:06Z</time>
      </trkpt>
      <trkpt lat="46.50716" lon="5.67656">
        <ele>497.7</ele>
        <time>2022-06-07T08:40:12Z</time>
      </trkpt>
      <trkpt lat="46.50719" lon="5.67662">
        <ele>498.8</ele>
        <time>2022-06-07T08:40:19Z</time>
      </trkpt>
      <trkpt lat="46.50719" lon="5.67669">
        <ele>499.4</ele>
        <time>2022-06-07T08:40:23Z</time>
      </trkpt>
      <trkpt lat="46.50719" lon="5.67676">
        <ele>500.4</ele>
        <time>2022-06-07T08:40:28Z</time>
      </trkpt>
      <trkpt lat="46.50722" lon="5.67682">
        <ele>501.2</ele>
        <time>2022-06-07T08:40:32Z</time>
      </trkpt>
      <trkpt lat="46.50721" lon="5.6769">
        <ele>501.6</ele>
        <time>2022-06-07T08:40:35Z</time>
      </trkpt>
      <trkpt lat="46.50719" lon="5.67697">
        <ele>502</ele>
        <time>2022-06-07T08:40:38Z</time>
      </trkpt>
      <trkpt lat="46.50718" lon="5.67703">
        <ele>502.1</ele>
        <time>2022-06-07T08:40:42Z</time>
      </trkpt>
      <trkpt lat="46.50719" lon="5.6771">
        <ele>503.5</ele>
        <time>2022-06-07T08:40:51Z</time>
      </trkpt>
      <trkpt lat="46.50718" lon="5.67717">
        <ele>505.1</ele>
        <time>2022-06-07T08:40:57Z</time>
      </trkpt>
      <trkpt lat="46.50716" lon="5.67724">
        <ele>506.3</ele>
        <time>2022-06-07T08:41:02Z</time>
      </trkpt>
      <trkpt lat="46.50714" lon="5.6773">
        <ele>507.5</ele>
        <time>2022-06-07T08:41:07Z</time>
      </trkpt>
      <trkpt lat="46.5071" lon="5.67733">
        <ele>508.5</ele>
        <time>2022-06-07T08:41:14Z</time>
      </trkpt>
      <trkpt lat="46.50706" lon="5.67737">
        <ele>508.6</ele>
        <time>2022-06-07T08:41:19Z</time>
      </trkpt>
      <trkpt lat="46.50701" lon="5.67741">
        <ele>508.1</ele>
        <time>2022-06-07T08:41:23Z</time>
      </trkpt>
      <trkpt lat="46.50696" lon="5.67744">
        <ele>507.2</ele>
        <time>2022-06-07T08:41:27Z</time>
      </trkpt>
      <trkpt lat="46.50692" lon="5.6774">
        <ele>505.9</ele>
        <time>2022-06-07T08:41:35Z</time>
      </trkpt>
      <trkpt lat="46.50686" lon="5.67738">
        <ele>505.8</ele>
        <time>2022-06-07T08:41:38Z</time>
      </trkpt>
      <trkpt lat="46.50682" lon="5.67734">
        <ele>505.5</ele>
        <time>2022-06-07T08:41:43Z</time>
      </trkpt>
      <trkpt lat="46.50678" lon="5.6773">
        <ele>504.4</ele>
        <time>2022-06-07T08:41:49Z</time>
      </trkpt>
      <trkpt lat="46.50673" lon="5.67726">
        <ele>503.7</ele>
        <time>2022-06-07T08:41:55Z</time>
      </trkpt>
      <trkpt lat="46.50669" lon="5.67725">
        <ele>503.5</ele>
        <time>2022-06-07T08:41:59Z</time>
      </trkpt>
      <trkpt lat="46.50664" lon="5.67722">
        <ele>503.8</ele>
        <time>2022-06-07T08:42:03Z</time>
      </trkpt>
      <trkpt lat="46.5066" lon="5.67718">
        <ele>504.2</ele>
        <time>2022-06-07T08:42:07Z</time>
      </trkpt>
      <trkpt lat="46.50657" lon="5.67712">
        <ele>504.7</ele>
        <time>2022-06-07T08:42:11Z</time>
      </trkpt>
      <trkpt lat="46.50654" lon="5.67706">
        <ele>505</ele>
        <time>2022-06-07T08:42:16Z</time>
      </trkpt>
      <trkpt lat="46.50654" lon="5.67699">
        <ele>503.8</ele>
        <time>2022-06-07T08:42:23Z</time>
      </trkpt>
      <trkpt lat="46.50651" lon="5.67694">
        <ele>503</ele>
        <time>2022-06-07T08:42:26Z</time>
      </trkpt>
      <trkpt lat="46.50646" lon="5.67691">
        <ele>501.9</ele>
        <time>2022-06-07T08:42:30Z</time>
      </trkpt>
      <trkpt lat="46.50642" lon="5.67685">
        <ele>500.5</ele>
        <time>2022-06-07T08:42:36Z</time>
      </trkpt>
      <trkpt lat="46.50639" lon="5.6768">
        <ele>500</ele>
        <time>2022-06-07T08:42:40Z</time>
      </trkpt>
      <trkpt lat="46.50635" lon="5.67675">
        <ele>500</ele>
        <time>2022-06-07T08:42:44Z</time>
      </trkpt>
      <trkpt lat="46.5063" lon="5.67672">
        <ele>500.3</ele>
        <time>2022-06-07T08:42:48Z</time>
      </trkpt>
      <trkpt lat="46.50625" lon="5.67671">
        <ele>501</ele>
        <time>2022-06-07T08:42:53Z</time>
      </trkpt>
      <trkpt lat="46.5062" lon="5.67668">
        <ele>501.4</ele>
        <time>2022-06-07T08:42:58Z</time>
      </trkpt>
      <trkpt lat="46.50618" lon="5.67662">
        <ele>502</ele>
        <time>2022-06-07T08:43:04Z</time>
      </trkpt>
      <trkpt lat="46.50617" lon="5.67655">
        <ele>504.3</ele>
        <time>2022-06-07T08:43:14Z</time>
      </trkpt>
      <trkpt lat="46.50612" lon="5.67652">
        <ele>505</ele>
        <time>2022-06-07T08:43:20Z</time>
      </trkpt>
      <trkpt lat="46.5061" lon="5.67646">
        <ele>505</ele>
        <time>2022-06-07T08:43:26Z</time>
      </trkpt>
      <trkpt lat="46.50605" lon="5.67642">
        <ele>504.5</ele>
        <time>2022-06-07T08:43:31Z</time>
      </trkpt>
      <trkpt lat="46.50601" lon="5.67638">
        <ele>503.7</ele>
        <time>2022-06-07T08:43:36Z</time>
      </trkpt>
      <trkpt lat="46.50596" lon="5.67638">
        <ele>503.3</ele>
        <time>2022-06-07T08:43:41Z</time>
      </trkpt>
      <trkpt lat="46.50591" lon="5.67635">
        <ele>503.7</ele>
        <time>2022-06-07T08:43:46Z</time>
      </trkpt>
      <trkpt lat="46.50587" lon="5.67631">
        <ele>505.7</ele>
        <time>2022-06-07T08:43:58Z</time>
      </trkpt>
      <trkpt lat="46.50582" lon="5.67631">
        <ele>515.7</ele>
        <time>2022-06-07T08:45:51Z</time>
      </trkpt>
      <trkpt lat="46.5058" lon="5.67624">
        <ele>508.6</ele>
        <time>2022-06-07T08:49:41Z</time>
      </trkpt>
      <trkpt lat="46.5058" lon="5.67631">
        <ele>512</ele>
        <time>2022-06-07T08:51:12Z</time>
      </trkpt>
      <trkpt lat="46.50579" lon="5.67624">
        <ele>514.4</ele>
        <time>2022-06-07T08:52:18Z</time>
      </trkpt>
      <trkpt lat="46.50577" lon="5.67618">
        <ele>515.4</ele>
        <time>2022-06-07T08:52:26Z</time>
      </trkpt>
      <trkpt lat="46.50577" lon="5.67611">
        <ele>515.8</ele>
        <time>2022-06-07T08:52:31Z</time>
      </trkpt>
      <trkpt lat="46.50577" lon="5.67604">
        <ele>516.3</ele>
        <time>2022-06-07T08:52:36Z</time>
      </trkpt>
      <trkpt lat="46.50578" lon="5.67596">
        <ele>516.9</ele>
        <time>2022-06-07T08:52:41Z</time>
      </trkpt>
      <trkpt lat="46.5058" lon="5.67588">
        <ele>517.5</ele>
        <time>2022-06-07T08:52:45Z</time>
      </trkpt>
      <trkpt lat="46.50582" lon="5.67582">
        <ele>518.2</ele>
        <time>2022-06-07T08:52:48Z</time>
      </trkpt>
      <trkpt lat="46.50585" lon="5.67576">
        <ele>519.1</ele>
        <time>2022-06-07T08:52:51Z</time>
      </trkpt>
      <trkpt lat="46.50586" lon="5.6757">
        <ele>520</ele>
        <time>2022-06-07T08:52:55Z</time>
      </trkpt>
      <trkpt lat="46.50587" lon="5.67564">
        <ele>520.6</ele>
        <time>2022-06-07T08:52:59Z</time>
      </trkpt>
      <trkpt lat="46.50587" lon="5.67556">
        <ele>521.9</ele>
        <time>2022-06-07T08:53:04Z</time>
      </trkpt>
      <trkpt lat="46.50586" lon="5.67549">
        <ele>522.6</ele>
        <time>2022-06-07T08:53:10Z</time>
      </trkpt>
      <trkpt lat="46.50584" lon="5.67542">
        <ele>522.6</ele>
        <time>2022-06-07T08:53:15Z</time>
      </trkpt>
      <trkpt lat="46.50581" lon="5.67536">
        <ele>522.5</ele>
        <time>2022-06-07T08:53:19Z</time>
      </trkpt>
      <trkpt lat="46.50578" lon="5.67531">
        <ele>522.1</ele>
        <time>2022-06-07T08:53:28Z</time>
      </trkpt>
      <trkpt lat="46.50573" lon="5.67526">
        <ele>524.7</ele>
        <time>2022-06-07T08:53:34Z</time>
      </trkpt>
      <trkpt lat="46.50569" lon="5.6752">
        <ele>526.2</ele>
        <time>2022-06-07T08:53:38Z</time>
      </trkpt>
      <trkpt lat="46.50572" lon="5.67511">
        <ele>527.9</ele>
        <time>2022-06-07T08:53:42Z</time>
      </trkpt>
      <trkpt lat="46.50572" lon="5.67503">
        <ele>529.4</ele>
        <time>2022-06-07T08:53:45Z</time>
      </trkpt>
      <trkpt lat="46.5057" lon="5.67496">
        <ele>530.8</ele>
        <time>2022-06-07T08:53:48Z</time>
      </trkpt>
      <trkpt lat="46.50569" lon="5.67489">
        <ele>531.6</ele>
        <time>2022-06-07T08:53:51Z</time>
      </trkpt>
      <trkpt lat="46.50568" lon="5.67481">
        <ele>532.8</ele>
        <time>2022-06-07T08:53:57Z</time>
      </trkpt>
      <trkpt lat="46.50569" lon="5.67474">
        <ele>533.2</ele>
        <time>2022-06-07T08:54:03Z</time>
      </trkpt>
      <trkpt lat="46.5057" lon="5.67467">
        <ele>532.9</ele>
        <time>2022-06-07T08:54:08Z</time>
      </trkpt>
      <trkpt lat="46.5057" lon="5.6746">
        <ele>532.7</ele>
        <time>2022-06-07T08:54:13Z</time>
      </trkpt>
      <trkpt lat="46.50569" lon="5.67452">
        <ele>531.4</ele>
        <time>2022-06-07T08:54:17Z</time>
      </trkpt>
      <trkpt lat="46.50569" lon="5.67443">
        <ele>530.4</ele>
        <time>2022-06-07T08:54:21Z</time>
      </trkpt>
      <trkpt lat="46.50569" lon="5.67437">
        <ele>529.5</ele>
        <time>2022-06-07T08:54:24Z</time>
      </trkpt>
      <trkpt lat="46.50569" lon="5.6743">
        <ele>528.3</ele>
        <time>2022-06-07T08:54:28Z</time>
      </trkpt>
      <trkpt lat="46.50567" lon="5.67423">
        <ele>527.3</ele>
        <time>2022-06-07T08:54:32Z</time>
      </trkpt>
      <trkpt lat="46.50566" lon="5.6743">
        <ele>521.1</ele>
        <time>2022-06-07T08:55:16Z</time>
      </trkpt>
      <trkpt lat="46.50568" lon="5.67424">
        <ele>521.4</ele>
        <time>2022-06-07T08:55:24Z</time>
      </trkpt>
      <trkpt lat="46.5057" lon="5.67416">
        <ele>521.2</ele>
        <time>2022-06-07T08:55:28Z</time>
      </trkpt>
      <trkpt lat="46.5057" lon="5.67409">
        <ele>521.4</ele>
        <time>2022-06-07T08:55:31Z</time>
      </trkpt>
      <trkpt lat="46.50569" lon="5.674">
        <ele>521.4</ele>
        <time>2022-06-07T08:55:34Z</time>
      </trkpt>
      <trkpt lat="46.50568" lon="5.67392">
        <ele>521.4</ele>
        <time>2022-06-07T08:55:37Z</time>
      </trkpt>
      <trkpt lat="46.50567" lon="5.67383">
        <ele>521.3</ele>
        <time>2022-06-07T08:55:40Z</time>
      </trkpt>
      <trkpt lat="46.50567" lon="5.67376">
        <ele>520.8</ele>
        <time>2022-06-07T08:55:45Z</time>
      </trkpt>
      <trkpt lat="46.50566" lon="5.67368">
        <ele>520.6</ele>
        <time>2022-06-07T08:55:49Z</time>
      </trkpt>
      <trkpt lat="46.50564" lon="5.67361">
        <ele>520.7</ele>
        <time>2022-06-07T08:55:52Z</time>
      </trkpt>
      <trkpt lat="46.50563" lon="5.67352">
        <ele>520.9</ele>
        <time>2022-06-07T08:55:56Z</time>
      </trkpt>
      <trkpt lat="46.50563" lon="5.67346">
        <ele>521</ele>
        <time>2022-06-07T08:55:59Z</time>
      </trkpt>
      <trkpt lat="46.50562" lon="5.67338">
        <ele>521.3</ele>
        <time>2022-06-07T08:56:03Z</time>
      </trkpt>
      <trkpt lat="46.5056" lon="5.67331">
        <ele>521.3</ele>
        <time>2022-06-07T08:56:06Z</time>
      </trkpt>
      <trkpt lat="46.5056" lon="5.67324">
        <ele>521.3</ele>
        <time>2022-06-07T08:56:11Z</time>
      </trkpt>
      <trkpt lat="46.50559" lon="5.67317">
        <ele>520.9</ele>
        <time>2022-06-07T08:56:17Z</time>
      </trkpt>
      <trkpt lat="46.50557" lon="5.67311">
        <ele>520.6</ele>
        <time>2022-06-07T08:56:20Z</time>
      </trkpt>
      <trkpt lat="46.50557" lon="5.67303">
        <ele>520.3</ele>
        <time>2022-06-07T08:56:23Z</time>
      </trkpt>
      <trkpt lat="46.50558" lon="5.67295">
        <ele>519.9</ele>
        <time>2022-06-07T08:56:27Z</time>
      </trkpt>
      <trkpt lat="46.50559" lon="5.67288">
        <ele>520.3</ele>
        <time>2022-06-07T08:56:32Z</time>
      </trkpt>
      <trkpt lat="46.50558" lon="5.67281">
        <ele>521</ele>
        <time>2022-06-07T08:56:36Z</time>
      </trkpt>
      <trkpt lat="46.50561" lon="5.67275">
        <ele>521.9</ele>
        <time>2022-06-07T08:56:56Z</time>
      </trkpt>
      <trkpt lat="46.50564" lon="5.67268">
        <ele>520.9</ele>
        <time>2022-06-07T08:57:04Z</time>
      </trkpt>
      <trkpt lat="46.50567" lon="5.67263">
        <ele>520.1</ele>
        <time>2022-06-07T08:57:10Z</time>
      </trkpt>
      <trkpt lat="46.5057" lon="5.67258">
        <ele>519.8</ele>
        <time>2022-06-07T08:57:19Z</time>
      </trkpt>
      <trkpt lat="46.50572" lon="5.67251">
        <ele>519.4</ele>
        <time>2022-06-07T08:57:25Z</time>
      </trkpt>
      <trkpt lat="46.50573" lon="5.67243">
        <ele>518.8</ele>
        <time>2022-06-07T08:57:29Z</time>
      </trkpt>
      <trkpt lat="46.50574" lon="5.67236">
        <ele>518.3</ele>
        <time>2022-06-07T08:57:32Z</time>
      </trkpt>
      <trkpt lat="46.50574" lon="5.6723">
        <ele>517.7</ele>
        <time>2022-06-07T08:57:36Z</time>
      </trkpt>
      <trkpt lat="46.50575" lon="5.67223">
        <ele>517.3</ele>
        <time>2022-06-07T08:57:41Z</time>
      </trkpt>
      <trkpt lat="46.50576" lon="5.67215">
        <ele>517.6</ele>
        <time>2022-06-07T08:57:45Z</time>
      </trkpt>
      <trkpt lat="46.5058" lon="5.67211">
        <ele>517.9</ele>
        <time>2022-06-07T08:57:49Z</time>
      </trkpt>
      <trkpt lat="46.50584" lon="5.67209">
        <ele>518.4</ele>
        <time>2022-06-07T08:57:54Z</time>
      </trkpt>
      <trkpt lat="46.50589" lon="5.67206">
        <ele>518.6</ele>
        <time>2022-06-07T08:57:58Z</time>
      </trkpt>
      <trkpt lat="46.50594" lon="5.67202">
        <ele>518.8</ele>
        <time>2022-06-07T08:58:03Z</time>
      </trkpt>
      <trkpt lat="46.50598" lon="5.672">
        <ele>518.7</ele>
        <time>2022-06-07T08:58:07Z</time>
      </trkpt>
      <trkpt lat="46.50603" lon="5.67197">
        <ele>518.7</ele>
        <time>2022-06-07T08:58:10Z</time>
      </trkpt>
      <trkpt lat="46.50608" lon="5.67194">
        <ele>518.6</ele>
        <time>2022-06-07T08:58:14Z</time>
      </trkpt>
      <trkpt lat="46.50612" lon="5.67192">
        <ele>518.4</ele>
        <time>2022-06-07T08:58:17Z</time>
      </trkpt>
      <trkpt lat="46.50618" lon="5.67189">
        <ele>518.4</ele>
        <time>2022-06-07T08:58:21Z</time>
      </trkpt>
      <trkpt lat="46.50623" lon="5.67186">
        <ele>518.3</ele>
        <time>2022-06-07T08:58:26Z</time>
      </trkpt>
      <trkpt lat="46.50628" lon="5.67186">
        <ele>518</ele>
        <time>2022-06-07T08:58:31Z</time>
      </trkpt>
      <trkpt lat="46.50634" lon="5.67185">
        <ele>517.8</ele>
        <time>2022-06-07T08:58:35Z</time>
      </trkpt>
      <trkpt lat="46.50639" lon="5.67185">
        <ele>517.4</ele>
        <time>2022-06-07T08:58:39Z</time>
      </trkpt>
      <trkpt lat="46.50643" lon="5.67182">
        <ele>517.3</ele>
        <time>2022-06-07T08:58:45Z</time>
      </trkpt>
      <trkpt lat="46.50647" lon="5.67177">
        <ele>517.2</ele>
        <time>2022-06-07T08:58:50Z</time>
      </trkpt>
      <trkpt lat="46.5065" lon="5.67171">
        <ele>517.1</ele>
        <time>2022-06-07T08:58:56Z</time>
      </trkpt>
      <trkpt lat="46.50654" lon="5.67166">
        <ele>516.7</ele>
        <time>2022-06-07T08:59:00Z</time>
      </trkpt>
      <trkpt lat="46.50658" lon="5.6716">
        <ele>516.3</ele>
        <time>2022-06-07T08:59:05Z</time>
      </trkpt>
      <trkpt lat="46.5066" lon="5.67154">
        <ele>516.2</ele>
        <time>2022-06-07T08:59:09Z</time>
      </trkpt>
      <trkpt lat="46.50663" lon="5.67148">
        <ele>516.1</ele>
        <time>2022-06-07T08:59:13Z</time>
      </trkpt>
      <trkpt lat="46.50666" lon="5.67142">
        <ele>515.4</ele>
        <time>2022-06-07T08:59:19Z</time>
      </trkpt>
      <trkpt lat="46.5067" lon="5.67138">
        <ele>512.8</ele>
        <time>2022-06-07T08:59:31Z</time>
      </trkpt>
      <trkpt lat="46.50674" lon="5.67136">
        <ele>510.8</ele>
        <time>2022-06-07T09:00:02Z</time>
      </trkpt>
      <trkpt lat="46.50673" lon="5.67129">
        <ele>511.1</ele>
        <time>2022-06-07T09:00:11Z</time>
      </trkpt>
      <trkpt lat="46.50673" lon="5.67137">
        <ele>512.5</ele>
        <time>2022-06-07T09:00:17Z</time>
      </trkpt>
      <trkpt lat="46.50673" lon="5.67143">
        <ele>513.4</ele>
        <time>2022-06-07T09:00:21Z</time>
      </trkpt>
      <trkpt lat="46.5067" lon="5.67138">
        <ele>514</ele>
        <time>2022-06-07T09:00:47Z</time>
      </trkpt>
      <trkpt lat="46.50673" lon="5.67133">
        <ele>513.9</ele>
        <time>2022-06-07T09:01:57Z</time>
      </trkpt>
      <trkpt lat="46.50672" lon="5.67126">
        <ele>513.9</ele>
        <time>2022-06-07T09:02:01Z</time>
      </trkpt>
      <trkpt lat="46.50672" lon="5.67119">
        <ele>513.6</ele>
        <time>2022-06-07T09:02:13Z</time>
      </trkpt>
      <trkpt lat="46.50671" lon="5.67111">
        <ele>512.9</ele>
        <time>2022-06-07T09:02:31Z</time>
      </trkpt>
      <trkpt lat="46.5067" lon="5.67104">
        <ele>512.9</ele>
        <time>2022-06-07T09:02:36Z</time>
      </trkpt>
      <trkpt lat="46.50669" lon="5.67098">
        <ele>513.1</ele>
        <time>2022-06-07T09:02:43Z</time>
      </trkpt>
      <trkpt lat="46.50667" lon="5.67092">
        <ele>513</ele>
        <time>2022-06-07T09:02:50Z</time>
      </trkpt>
      <trkpt lat="46.50672" lon="5.67099">
        <ele>513.9</ele>
        <time>2022-06-07T09:03:43Z</time>
      </trkpt>
      <trkpt lat="46.50671" lon="5.67093">
        <ele>516.5</ele>
        <time>2022-06-07T09:04:04Z</time>
      </trkpt>
      <trkpt lat="46.50674" lon="5.67088">
        <ele>515.6</ele>
        <time>2022-06-07T09:04:36Z</time>
      </trkpt>
      <trkpt lat="46.50678" lon="5.67085">
        <ele>515.6</ele>
        <time>2022-06-07T09:05:35Z</time>
      </trkpt>
      <trkpt lat="46.50677" lon="5.67079">
        <ele>514.8</ele>
        <time>2022-06-07T09:05:41Z</time>
      </trkpt>
      <trkpt lat="46.50682" lon="5.67075">
        <ele>514.2</ele>
        <time>2022-06-07T09:05:54Z</time>
      </trkpt>
      <trkpt lat="46.50686" lon="5.67073">
        <ele>515.4</ele>
        <time>2022-06-07T09:06:04Z</time>
      </trkpt>
      <trkpt lat="46.50689" lon="5.67068">
        <ele>517.3</ele>
        <time>2022-06-07T09:06:16Z</time>
      </trkpt>
      <trkpt lat="46.50692" lon="5.67063">
        <ele>517.8</ele>
        <time>2022-06-07T09:06:23Z</time>
      </trkpt>
      <trkpt lat="46.50695" lon="5.67057">
        <ele>517.5</ele>
        <time>2022-06-07T09:06:30Z</time>
      </trkpt>
      <trkpt lat="46.50698" lon="5.67052">
        <ele>517.7</ele>
        <time>2022-06-07T09:06:36Z</time>
      </trkpt>
      <trkpt lat="46.50701" lon="5.67047">
        <ele>517.8</ele>
        <time>2022-06-07T09:06:41Z</time>
      </trkpt>
      <trkpt lat="46.50704" lon="5.67042">
        <ele>517.3</ele>
        <time>2022-06-07T09:06:48Z</time>
      </trkpt>
      <trkpt lat="46.50706" lon="5.67036">
        <ele>516.5</ele>
        <time>2022-06-07T09:06:54Z</time>
      </trkpt>
      <trkpt lat="46.50705" lon="5.67028">
        <ele>516</ele>
        <time>2022-06-07T09:06:59Z</time>
      </trkpt>
      <trkpt lat="46.50706" lon="5.6702">
        <ele>515.6</ele>
        <time>2022-06-07T09:07:04Z</time>
      </trkpt>
      <trkpt lat="46.50706" lon="5.67013">
        <ele>515.4</ele>
        <time>2022-06-07T09:07:10Z</time>
      </trkpt>
      <trkpt lat="46.50708" lon="5.67007">
        <ele>515.6</ele>
        <time>2022-06-07T09:07:16Z</time>
      </trkpt>
      <trkpt lat="46.5071" lon="5.67">
        <ele>515.4</ele>
        <time>2022-06-07T09:07:22Z</time>
      </trkpt>
      <trkpt lat="46.50709" lon="5.66992">
        <ele>514</ele>
        <time>2022-06-07T09:07:28Z</time>
      </trkpt>
      <trkpt lat="46.5071" lon="5.66984">
        <ele>512.7</ele>
        <time>2022-06-07T09:07:33Z</time>
      </trkpt>
      <trkpt lat="46.50712" lon="5.66977">
        <ele>511.8</ele>
        <time>2022-06-07T09:07:38Z</time>
      </trkpt>
      <trkpt lat="46.50715" lon="5.66971">
        <ele>511.1</ele>
        <time>2022-06-07T09:07:43Z</time>
      </trkpt>
      <trkpt lat="46.50718" lon="5.66965">
        <ele>510.5</ele>
        <time>2022-06-07T09:07:48Z</time>
      </trkpt>
      <trkpt lat="46.50719" lon="5.66958">
        <ele>510</ele>
        <time>2022-06-07T09:07:54Z</time>
      </trkpt>
      <trkpt lat="46.50721" lon="5.66952">
        <ele>509.7</ele>
        <time>2022-06-07T09:08:00Z</time>
      </trkpt>
      <trkpt lat="46.50724" lon="5.66946">
        <ele>509.6</ele>
        <time>2022-06-07T09:08:05Z</time>
      </trkpt>
      <trkpt lat="46.50728" lon="5.66941">
        <ele>509.7</ele>
        <time>2022-06-07T09:08:09Z</time>
      </trkpt>
      <trkpt lat="46.50732" lon="5.66935">
        <ele>509.9</ele>
        <time>2022-06-07T09:08:13Z</time>
      </trkpt>
      <trkpt lat="46.50736" lon="5.6693">
        <ele>509.8</ele>
        <time>2022-06-07T09:08:19Z</time>
      </trkpt>
      <trkpt lat="46.50738" lon="5.66923">
        <ele>509.1</ele>
        <time>2022-06-07T09:08:24Z</time>
      </trkpt>
      <trkpt lat="46.5074" lon="5.66915">
        <ele>508.6</ele>
        <time>2022-06-07T09:08:29Z</time>
      </trkpt>
      <trkpt lat="46.50741" lon="5.66908">
        <ele>508.5</ele>
        <time>2022-06-07T09:08:33Z</time>
      </trkpt>
      <trkpt lat="46.50743" lon="5.66901">
        <ele>508.3</ele>
        <time>2022-06-07T09:08:37Z</time>
      </trkpt>
      <trkpt lat="46.50745" lon="5.66895">
        <ele>508.5</ele>
        <time>2022-06-07T09:08:41Z</time>
      </trkpt>
      <trkpt lat="46.50747" lon="5.66889">
        <ele>508.8</ele>
        <time>2022-06-07T09:08:44Z</time>
      </trkpt>
      <trkpt lat="46.50749" lon="5.66882">
        <ele>509.2</ele>
        <time>2022-06-07T09:08:47Z</time>
      </trkpt>
      <trkpt lat="46.50753" lon="5.66878">
        <ele>509.3</ele>
        <time>2022-06-07T09:08:51Z</time>
      </trkpt>
      <trkpt lat="46.50757" lon="5.66875">
        <ele>509.4</ele>
        <time>2022-06-07T09:08:55Z</time>
      </trkpt>
      <trkpt lat="46.50761" lon="5.66869">
        <ele>510.3</ele>
        <time>2022-06-07T09:09:00Z</time>
      </trkpt>
      <trkpt lat="46.50765" lon="5.66865">
        <ele>511.5</ele>
        <time>2022-06-07T09:09:05Z</time>
      </trkpt>
      <trkpt lat="46.50768" lon="5.66861">
        <ele>512.1</ele>
        <time>2022-06-07T09:09:09Z</time>
      </trkpt>
      <trkpt lat="46.50773" lon="5.66855">
        <ele>512.5</ele>
        <time>2022-06-07T09:09:13Z</time>
      </trkpt>
      <trkpt lat="46.50777" lon="5.66851">
        <ele>512.7</ele>
        <time>2022-06-07T09:09:17Z</time>
      </trkpt>
      <trkpt lat="46.50779" lon="5.66844">
        <ele>512.1</ele>
        <time>2022-06-07T09:09:24Z</time>
      </trkpt>
      <trkpt lat="46.50781" lon="5.66838">
        <ele>511.5</ele>
        <time>2022-06-07T09:09:29Z</time>
      </trkpt>
      <trkpt lat="46.50783" lon="5.6683">
        <ele>511.2</ele>
        <time>2022-06-07T09:09:34Z</time>
      </trkpt>
      <trkpt lat="46.50786" lon="5.66824">
        <ele>511.2</ele>
        <time>2022-06-07T09:09:38Z</time>
      </trkpt>
      <trkpt lat="46.50789" lon="5.66816">
        <ele>510.8</ele>
        <time>2022-06-07T09:09:43Z</time>
      </trkpt>
      <trkpt lat="46.50791" lon="5.66809">
        <ele>510.9</ele>
        <time>2022-06-07T09:09:47Z</time>
      </trkpt>
      <trkpt lat="46.50794" lon="5.66804">
        <ele>510.7</ele>
        <time>2022-06-07T09:09:51Z</time>
      </trkpt>
      <trkpt lat="46.50797" lon="5.66797">
        <ele>510.4</ele>
        <time>2022-06-07T09:09:55Z</time>
      </trkpt>
      <trkpt lat="46.50801" lon="5.66791">
        <ele>509.7</ele>
        <time>2022-06-07T09:09:59Z</time>
      </trkpt>
      <trkpt lat="46.50803" lon="5.66785">
        <ele>509</ele>
        <time>2022-06-07T09:10:04Z</time>
      </trkpt>
      <trkpt lat="46.50805" lon="5.6678">
        <ele>508.2</ele>
        <time>2022-06-07T09:10:08Z</time>
      </trkpt>
      <trkpt lat="46.50808" lon="5.66772">
        <ele>507.4</ele>
        <time>2022-06-07T09:10:12Z</time>
      </trkpt>
      <trkpt lat="46.5081" lon="5.66766">
        <ele>506.8</ele>
        <time>2022-06-07T09:10:16Z</time>
      </trkpt>
      <trkpt lat="46.50813" lon="5.66761">
        <ele>505.9</ele>
        <time>2022-06-07T09:10:21Z</time>
      </trkpt>
      <trkpt lat="46.50814" lon="5.66754">
        <ele>505</ele>
        <time>2022-06-07T09:10:26Z</time>
      </trkpt>
      <trkpt lat="46.50814" lon="5.66746">
        <ele>504.6</ele>
        <time>2022-06-07T09:10:30Z</time>
      </trkpt>
      <trkpt lat="46.50815" lon="5.66739">
        <ele>504.7</ele>
        <time>2022-06-07T09:10:34Z</time>
      </trkpt>
      <trkpt lat="46.50815" lon="5.66731">
        <ele>504.9</ele>
        <time>2022-06-07T09:10:38Z</time>
      </trkpt>
      <trkpt lat="46.50815" lon="5.66724">
        <ele>505.6</ele>
        <time>2022-06-07T09:10:42Z</time>
      </trkpt>
      <trkpt lat="46.50816" lon="5.66717">
        <ele>506.6</ele>
        <time>2022-06-07T09:10:45Z</time>
      </trkpt>
      <trkpt lat="46.50816" lon="5.66709">
        <ele>507.6</ele>
        <time>2022-06-07T09:10:48Z</time>
      </trkpt>
      <trkpt lat="46.50817" lon="5.66702">
        <ele>508.4</ele>
        <time>2022-06-07T09:10:52Z</time>
      </trkpt>
      <trkpt lat="46.50817" lon="5.66696">
        <ele>509.1</ele>
        <time>2022-06-07T09:10:59Z</time>
      </trkpt>
      <trkpt lat="46.50813" lon="5.66699">
        <ele>515.6</ele>
        <time>2022-06-07T09:12:08Z</time>
      </trkpt>
      <trkpt lat="46.50807" lon="5.667">
        <ele>515.1</ele>
        <time>2022-06-07T09:12:14Z</time>
      </trkpt>
      <trkpt lat="46.50803" lon="5.667">
        <ele>514.7</ele>
        <time>2022-06-07T09:12:17Z</time>
      </trkpt>
      <trkpt lat="46.50798" lon="5.66701">
        <ele>514.2</ele>
        <time>2022-06-07T09:12:20Z</time>
      </trkpt>
      <trkpt lat="46.50794" lon="5.66701">
        <ele>513</ele>
        <time>2022-06-07T09:12:26Z</time>
      </trkpt>
      <trkpt lat="46.50789" lon="5.66699">
        <ele>511.8</ele>
        <time>2022-06-07T09:12:32Z</time>
      </trkpt>
      <trkpt lat="46.50783" lon="5.66697">
        <ele>511.4</ele>
        <time>2022-06-07T09:12:35Z</time>
      </trkpt>
      <trkpt lat="46.50779" lon="5.66695">
        <ele>511.1</ele>
        <time>2022-06-07T09:12:38Z</time>
      </trkpt>
      <trkpt lat="46.50774" lon="5.66691">
        <ele>510.9</ele>
        <time>2022-06-07T09:12:41Z</time>
      </trkpt>
      <trkpt lat="46.50769" lon="5.66687">
        <ele>510.5</ele>
        <time>2022-06-07T09:12:45Z</time>
      </trkpt>
      <trkpt lat="46.50764" lon="5.66686">
        <ele>510.1</ele>
        <time>2022-06-07T09:12:48Z</time>
      </trkpt>
      <trkpt lat="46.5076" lon="5.6669">
        <ele>509.8</ele>
        <time>2022-06-07T09:12:53Z</time>
      </trkpt>
      <trkpt lat="46.50754" lon="5.6669">
        <ele>509.4</ele>
        <time>2022-06-07T09:12:59Z</time>
      </trkpt>
      <trkpt lat="46.5075" lon="5.66693">
        <ele>510.4</ele>
        <time>2022-06-07T09:13:03Z</time>
      </trkpt>
      <trkpt lat="46.50745" lon="5.66695">
        <ele>511.1</ele>
        <time>2022-06-07T09:13:08Z</time>
      </trkpt>
      <trkpt lat="46.5074" lon="5.66692">
        <ele>510.7</ele>
        <time>2022-06-07T09:13:15Z</time>
      </trkpt>
      <trkpt lat="46.50736" lon="5.66688">
        <ele>510.7</ele>
        <time>2022-06-07T09:13:20Z</time>
      </trkpt>
      <trkpt lat="46.50731" lon="5.66686">
        <ele>510.4</ele>
        <time>2022-06-07T09:13:24Z</time>
      </trkpt>
      <trkpt lat="46.50727" lon="5.66682">
        <ele>510.3</ele>
        <time>2022-06-07T09:13:29Z</time>
      </trkpt>
      <trkpt lat="46.50723" lon="5.66678">
        <ele>510.4</ele>
        <time>2022-06-07T09:13:36Z</time>
      </trkpt>
      <trkpt lat="46.50719" lon="5.66676">
        <ele>510.6</ele>
        <time>2022-06-07T09:13:46Z</time>
      </trkpt>
      <trkpt lat="46.50714" lon="5.66675">
        <ele>510.4</ele>
        <time>2022-06-07T09:13:54Z</time>
      </trkpt>
      <trkpt lat="46.50709" lon="5.66674">
        <ele>510.2</ele>
        <time>2022-06-07T09:14:00Z</time>
      </trkpt>
      <trkpt lat="46.50702" lon="5.66676">
        <ele>510.3</ele>
        <time>2022-06-07T09:14:03Z</time>
      </trkpt>
      <trkpt lat="46.50696" lon="5.66677">
        <ele>510.6</ele>
        <time>2022-06-07T09:14:06Z</time>
      </trkpt>
      <trkpt lat="46.5069" lon="5.66679">
        <ele>511</ele>
        <time>2022-06-07T09:14:09Z</time>
      </trkpt>
      <trkpt lat="46.50686" lon="5.66681">
        <ele>511</ele>
        <time>2022-06-07T09:14:13Z</time>
      </trkpt>
      <trkpt lat="46.5068" lon="5.66685">
        <ele>511.2</ele>
        <time>2022-06-07T09:14:17Z</time>
      </trkpt>
      <trkpt lat="46.50675" lon="5.66686">
        <ele>511.2</ele>
        <time>2022-06-07T09:14:21Z</time>
      </trkpt>
      <trkpt lat="46.50669" lon="5.66688">
        <ele>511.4</ele>
        <time>2022-06-07T09:14:24Z</time>
      </trkpt>
      <trkpt lat="46.50664" lon="5.6669">
        <ele>512.1</ele>
        <time>2022-06-07T09:14:27Z</time>
      </trkpt>
      <trkpt lat="46.50659" lon="5.66691">
        <ele>513.1</ele>
        <time>2022-06-07T09:14:31Z</time>
      </trkpt>
      <trkpt lat="46.50654" lon="5.66695">
        <ele>514.8</ele>
        <time>2022-06-07T09:14:36Z</time>
      </trkpt>
      <trkpt lat="46.50649" lon="5.66696">
        <ele>515.7</ele>
        <time>2022-06-07T09:14:40Z</time>
      </trkpt>
      <trkpt lat="46.50646" lon="5.66692">
        <ele>515.5</ele>
        <time>2022-06-07T09:14:46Z</time>
      </trkpt>
      <trkpt lat="46.50643" lon="5.66698">
        <ele>516.3</ele>
        <time>2022-06-07T09:15:01Z</time>
      </trkpt>
      <trkpt lat="46.50639" lon="5.66696">
        <ele>516.6</ele>
        <time>2022-06-07T09:15:06Z</time>
      </trkpt>
      <trkpt lat="46.50639" lon="5.66689">
        <ele>516.3</ele>
        <time>2022-06-07T09:15:13Z</time>
      </trkpt>
      <trkpt lat="46.50641" lon="5.66681">
        <ele>516.2</ele>
        <time>2022-06-07T09:15:17Z</time>
      </trkpt>
      <trkpt lat="46.50643" lon="5.66676">
        <ele>516.4</ele>
        <time>2022-06-07T09:15:20Z</time>
      </trkpt>
      <trkpt lat="46.50648" lon="5.66674">
        <ele>516.6</ele>
        <time>2022-06-07T09:15:23Z</time>
      </trkpt>
      <trkpt lat="46.50653" lon="5.66675">
        <ele>516.7</ele>
        <time>2022-06-07T09:15:27Z</time>
      </trkpt>
      <trkpt lat="46.50657" lon="5.66679">
        <ele>516.5</ele>
        <time>2022-06-07T09:15:30Z</time>
      </trkpt>
      <trkpt lat="46.50661" lon="5.66684">
        <ele>516.5</ele>
        <time>2022-06-07T09:15:33Z</time>
      </trkpt>
      <trkpt lat="46.50663" lon="5.66691">
        <ele>516.4</ele>
        <time>2022-06-07T09:15:38Z</time>
      </trkpt>
      <trkpt lat="46.5067" lon="5.66689">
        <ele>516.4</ele>
        <time>2022-06-07T09:15:41Z</time>
      </trkpt>
      <trkpt lat="46.50676" lon="5.66685">
        <ele>517</ele>
        <time>2022-06-07T09:15:44Z</time>
      </trkpt>
      <trkpt lat="46.50679" lon="5.6668">
        <ele>517.4</ele>
        <time>2022-06-07T09:15:49Z</time>
      </trkpt>
      <trkpt lat="46.50684" lon="5.6668">
        <ele>517.1</ele>
        <time>2022-06-07T09:15:55Z</time>
      </trkpt>
      <trkpt lat="46.5069" lon="5.6668">
        <ele>517.1</ele>
        <time>2022-06-07T09:15:59Z</time>
      </trkpt>
      <trkpt lat="46.50695" lon="5.66676">
        <ele>516.9</ele>
        <time>2022-06-07T09:16:07Z</time>
      </trkpt>
      <trkpt lat="46.50699" lon="5.66672">
        <ele>516.9</ele>
        <time>2022-06-07T09:16:12Z</time>
      </trkpt>
      <trkpt lat="46.50704" lon="5.66673">
        <ele>516.5</ele>
        <time>2022-06-07T09:16:17Z</time>
      </trkpt>
      <trkpt lat="46.50708" lon="5.66675">
        <ele>515.9</ele>
        <time>2022-06-07T09:16:21Z</time>
      </trkpt>
      <trkpt lat="46.50714" lon="5.66679">
        <ele>515.7</ele>
        <time>2022-06-07T09:16:25Z</time>
      </trkpt>
      <trkpt lat="46.50719" lon="5.6668">
        <ele>516.3</ele>
        <time>2022-06-07T09:16:30Z</time>
      </trkpt>
      <trkpt lat="46.50723" lon="5.66683">
        <ele>517.9</ele>
        <time>2022-06-07T09:16:36Z</time>
      </trkpt>
      <trkpt lat="46.50728" lon="5.66687">
        <ele>519</ele>
        <time>2022-06-07T09:16:39Z</time>
      </trkpt>
      <trkpt lat="46.50733" lon="5.6669">
        <ele>519.9</ele>
        <time>2022-06-07T09:16:42Z</time>
      </trkpt>
      <trkpt lat="46.50738" lon="5.66692">
        <ele>520.8</ele>
        <time>2022-06-07T09:16:46Z</time>
      </trkpt>
      <trkpt lat="46.50742" lon="5.66691">
        <ele>521.5</ele>
        <time>2022-06-07T09:16:54Z</time>
      </trkpt>
      <trkpt lat="46.50748" lon="5.66691">
        <ele>520.9</ele>
        <time>2022-06-07T09:17:00Z</time>
      </trkpt>
      <trkpt lat="46.50753" lon="5.66692">
        <ele>520</ele>
        <time>2022-06-07T09:17:04Z</time>
      </trkpt>
      <trkpt lat="46.50759" lon="5.66692">
        <ele>519.9</ele>
        <time>2022-06-07T09:17:07Z</time>
      </trkpt>
      <trkpt lat="46.50765" lon="5.66691">
        <ele>520.2</ele>
        <time>2022-06-07T09:17:10Z</time>
      </trkpt>
      <trkpt lat="46.5077" lon="5.6669">
        <ele>520.5</ele>
        <time>2022-06-07T09:17:13Z</time>
      </trkpt>
      <trkpt lat="46.50776" lon="5.6669">
        <ele>520.2</ele>
        <time>2022-06-07T09:17:17Z</time>
      </trkpt>
      <trkpt lat="46.50782" lon="5.66689">
        <ele>519.3</ele>
        <time>2022-06-07T09:17:21Z</time>
      </trkpt>
      <trkpt lat="46.50787" lon="5.66692">
        <ele>518.5</ele>
        <time>2022-06-07T09:17:25Z</time>
      </trkpt>
      <trkpt lat="46.50792" lon="5.66692">
        <ele>517.9</ele>
        <time>2022-06-07T09:17:29Z</time>
      </trkpt>
      <trkpt lat="46.50797" lon="5.66693">
        <ele>516.9</ele>
        <time>2022-06-07T09:17:34Z</time>
      </trkpt>
      <trkpt lat="46.50801" lon="5.66694">
        <ele>515.3</ele>
        <time>2022-06-07T09:17:41Z</time>
      </trkpt>
      <trkpt lat="46.50806" lon="5.66696">
        <ele>513.1</ele>
        <time>2022-06-07T09:17:48Z</time>
      </trkpt>
      <trkpt lat="46.50811" lon="5.66698">
        <ele>512.3</ele>
        <time>2022-06-07T09:17:53Z</time>
      </trkpt>
      <trkpt lat="46.50816" lon="5.66698">
        <ele>512.3</ele>
        <time>2022-06-07T09:17:56Z</time>
      </trkpt>
      <trkpt lat="46.50823" lon="5.66696">
        <ele>512.5</ele>
        <time>2022-06-07T09:17:59Z</time>
      </trkpt>
      <trkpt lat="46.50828" lon="5.66693">
        <ele>512.4</ele>
        <time>2022-06-07T09:18:02Z</time>
      </trkpt>
      <trkpt lat="46.50831" lon="5.66688">
        <ele>511.8</ele>
        <time>2022-06-07T09:18:06Z</time>
      </trkpt>
      <trkpt lat="46.50835" lon="5.66685">
        <ele>509.1</ele>
        <time>2022-06-07T09:18:12Z</time>
      </trkpt>
      <trkpt lat="46.50838" lon="5.66678">
        <ele>507.3</ele>
        <time>2022-06-07T09:18:18Z</time>
      </trkpt>
      <trkpt lat="46.50839" lon="5.66672">
        <ele>506.3</ele>
        <time>2022-06-07T09:18:26Z</time>
      </trkpt>
      <trkpt lat="46.50837" lon="5.66665">
        <ele>510.1</ele>
        <time>2022-06-07T09:19:04Z</time>
      </trkpt>
      <trkpt lat="46.50842" lon="5.66661">
        <ele>512.6</ele>
        <time>2022-06-07T09:19:10Z</time>
      </trkpt>
      <trkpt lat="46.50847" lon="5.66659">
        <ele>513.2</ele>
        <time>2022-06-07T09:19:13Z</time>
      </trkpt>
      <trkpt lat="46.50853" lon="5.66658">
        <ele>513.6</ele>
        <time>2022-06-07T09:19:16Z</time>
      </trkpt>
      <trkpt lat="46.50857" lon="5.66656">
        <ele>514.2</ele>
        <time>2022-06-07T09:19:19Z</time>
      </trkpt>
      <trkpt lat="46.50862" lon="5.66653">
        <ele>515.8</ele>
        <time>2022-06-07T09:19:25Z</time>
      </trkpt>
      <trkpt lat="46.50866" lon="5.66651">
        <ele>517</ele>
        <time>2022-06-07T09:19:30Z</time>
      </trkpt>
      <trkpt lat="46.50871" lon="5.66648">
        <ele>517.6</ele>
        <time>2022-06-07T09:19:34Z</time>
      </trkpt>
      <trkpt lat="46.50876" lon="5.66645">
        <ele>517.6</ele>
        <time>2022-06-07T09:19:39Z</time>
      </trkpt>
      <trkpt lat="46.50881" lon="5.66645">
        <ele>517.7</ele>
        <time>2022-06-07T09:19:44Z</time>
      </trkpt>
      <trkpt lat="46.50885" lon="5.66644">
        <ele>516.7</ele>
        <time>2022-06-07T09:19:53Z</time>
      </trkpt>
      <trkpt lat="46.5089" lon="5.66642">
        <ele>515.6</ele>
        <time>2022-06-07T09:19:59Z</time>
      </trkpt>
      <trkpt lat="46.50895" lon="5.6664">
        <ele>514.4</ele>
        <time>2022-06-07T09:20:04Z</time>
      </trkpt>
      <trkpt lat="46.50901" lon="5.66639">
        <ele>513.1</ele>
        <time>2022-06-07T09:20:09Z</time>
      </trkpt>
      <trkpt lat="46.50906" lon="5.66639">
        <ele>512.3</ele>
        <time>2022-06-07T09:20:13Z</time>
      </trkpt>
      <trkpt lat="46.5091" lon="5.66638">
        <ele>511.5</ele>
        <time>2022-06-07T09:20:17Z</time>
      </trkpt>
      <trkpt lat="46.50915" lon="5.66633">
        <ele>510.4</ele>
        <time>2022-06-07T09:20:21Z</time>
      </trkpt>
      <trkpt lat="46.5092" lon="5.6663">
        <ele>509.7</ele>
        <time>2022-06-07T09:20:25Z</time>
      </trkpt>
      <trkpt lat="46.50924" lon="5.66628">
        <ele>509.2</ele>
        <time>2022-06-07T09:20:29Z</time>
      </trkpt>
      <trkpt lat="46.50929" lon="5.66627">
        <ele>508.3</ele>
        <time>2022-06-07T09:20:34Z</time>
      </trkpt>
      <trkpt lat="46.50934" lon="5.66626">
        <ele>507</ele>
        <time>2022-06-07T09:20:40Z</time>
      </trkpt>
      <trkpt lat="46.50938" lon="5.6662">
        <ele>506.2</ele>
        <time>2022-06-07T09:20:45Z</time>
      </trkpt>
      <trkpt lat="46.50943" lon="5.66616">
        <ele>506.2</ele>
        <time>2022-06-07T09:20:48Z</time>
      </trkpt>
      <trkpt lat="46.50948" lon="5.66613">
        <ele>506</ele>
        <time>2022-06-07T09:20:51Z</time>
      </trkpt>
      <trkpt lat="46.50953" lon="5.66613">
        <ele>506</ele>
        <time>2022-06-07T09:20:55Z</time>
      </trkpt>
      <trkpt lat="46.50957" lon="5.66608">
        <ele>506.5</ele>
        <time>2022-06-07T09:21:01Z</time>
      </trkpt>
      <trkpt lat="46.50962" lon="5.66609">
        <ele>506.9</ele>
        <time>2022-06-07T09:21:07Z</time>
      </trkpt>
      <trkpt lat="46.50966" lon="5.66607">
        <ele>507.6</ele>
        <time>2022-06-07T09:21:12Z</time>
      </trkpt>
      <trkpt lat="46.50972" lon="5.66607">
        <ele>508.1</ele>
        <time>2022-06-07T09:21:16Z</time>
      </trkpt>
      <trkpt lat="46.50977" lon="5.66605">
        <ele>508.6</ele>
        <time>2022-06-07T09:21:20Z</time>
      </trkpt>
      <trkpt lat="46.50982" lon="5.66609">
        <ele>508.8</ele>
        <time>2022-06-07T09:21:25Z</time>
      </trkpt>
      <trkpt lat="46.50984" lon="5.66615">
        <ele>508.6</ele>
        <time>2022-06-07T09:21:28Z</time>
      </trkpt>
      <trkpt lat="46.50987" lon="5.66621">
        <ele>507.5</ele>
        <time>2022-06-07T09:21:37Z</time>
      </trkpt>
      <trkpt lat="46.50993" lon="5.66622">
        <ele>506.9</ele>
        <time>2022-06-07T09:21:42Z</time>
      </trkpt>
      <trkpt lat="46.50997" lon="5.66623">
        <ele>507</ele>
        <time>2022-06-07T09:21:47Z</time>
      </trkpt>
      <trkpt lat="46.51003" lon="5.66624">
        <ele>507.4</ele>
        <time>2022-06-07T09:21:52Z</time>
      </trkpt>
      <trkpt lat="46.51008" lon="5.66625">
        <ele>507.4</ele>
        <time>2022-06-07T09:21:55Z</time>
      </trkpt>
      <trkpt lat="46.51012" lon="5.66624">
        <ele>507.2</ele>
        <time>2022-06-07T09:21:58Z</time>
      </trkpt>
      <trkpt lat="46.51017" lon="5.66623">
        <ele>506.9</ele>
        <time>2022-06-07T09:22:01Z</time>
      </trkpt>
      <trkpt lat="46.51022" lon="5.66624">
        <ele>506.8</ele>
        <time>2022-06-07T09:22:04Z</time>
      </trkpt>
      <trkpt lat="46.51027" lon="5.66623">
        <ele>506.6</ele>
        <time>2022-06-07T09:22:09Z</time>
      </trkpt>
      <trkpt lat="46.51032" lon="5.66624">
        <ele>506.5</ele>
        <time>2022-06-07T09:22:14Z</time>
      </trkpt>
      <trkpt lat="46.51037" lon="5.66625">
        <ele>506.4</ele>
        <time>2022-06-07T09:22:18Z</time>
      </trkpt>
      <trkpt lat="46.51043" lon="5.66626">
        <ele>506.5</ele>
        <time>2022-06-07T09:22:24Z</time>
      </trkpt>
      <trkpt lat="46.51048" lon="5.66627">
        <ele>505.9</ele>
        <time>2022-06-07T09:22:29Z</time>
      </trkpt>
      <trkpt lat="46.51052" lon="5.66624">
        <ele>505.7</ele>
        <time>2022-06-07T09:22:34Z</time>
      </trkpt>
      <trkpt lat="46.51054" lon="5.66618">
        <ele>506.8</ele>
        <time>2022-06-07T09:22:43Z</time>
      </trkpt>
      <trkpt lat="46.51057" lon="5.66612">
        <ele>507.6</ele>
        <time>2022-06-07T09:22:48Z</time>
      </trkpt>
      <trkpt lat="46.5106" lon="5.66608">
        <ele>508.7</ele>
        <time>2022-06-07T09:22:53Z</time>
      </trkpt>
      <trkpt lat="46.51058" lon="5.66602">
        <ele>508.7</ele>
        <time>2022-06-07T09:22:58Z</time>
      </trkpt>
      <trkpt lat="46.51057" lon="5.66595">
        <ele>509.7</ele>
        <time>2022-06-07T09:23:06Z</time>
      </trkpt>
      <trkpt lat="46.51059" lon="5.66588">
        <ele>509.6</ele>
        <time>2022-06-07T09:23:14Z</time>
      </trkpt>
      <trkpt lat="46.5106" lon="5.66582">
        <ele>509.1</ele>
        <time>2022-06-07T09:23:18Z</time>
      </trkpt>
      <trkpt lat="46.51061" lon="5.66575">
        <ele>509.7</ele>
        <time>2022-06-07T09:23:23Z</time>
      </trkpt>
      <trkpt lat="46.51061" lon="5.66569">
        <ele>510.3</ele>
        <time>2022-06-07T09:23:27Z</time>
      </trkpt>
      <trkpt lat="46.5106" lon="5.66562">
        <ele>510.5</ele>
        <time>2022-06-07T09:23:34Z</time>
      </trkpt>
      <trkpt lat="46.51059" lon="5.66555">
        <ele>511.4</ele>
        <time>2022-06-07T09:23:42Z</time>
      </trkpt>
      <trkpt lat="46.51058" lon="5.66548">
        <ele>511.6</ele>
        <time>2022-06-07T09:23:45Z</time>
      </trkpt>
      <trkpt lat="46.51058" lon="5.66541">
        <ele>511.9</ele>
        <time>2022-06-07T09:23:48Z</time>
      </trkpt>
      <trkpt lat="46.51061" lon="5.66534">
        <ele>512.5</ele>
        <time>2022-06-07T09:23:52Z</time>
      </trkpt>
      <trkpt lat="46.51064" lon="5.66528">
        <ele>512.7</ele>
        <time>2022-06-07T09:23:56Z</time>
      </trkpt>
      <trkpt lat="46.51067" lon="5.66523">
        <ele>512.9</ele>
        <time>2022-06-07T09:24:00Z</time>
      </trkpt>
      <trkpt lat="46.5107" lon="5.66517">
        <ele>512.9</ele>
        <time>2022-06-07T09:24:04Z</time>
      </trkpt>
      <trkpt lat="46.51072" lon="5.6651">
        <ele>513</ele>
        <time>2022-06-07T09:24:10Z</time>
      </trkpt>
      <trkpt lat="46.51075" lon="5.66504">
        <ele>513.7</ele>
        <time>2022-06-07T09:24:15Z</time>
      </trkpt>
      <trkpt lat="46.51076" lon="5.66497">
        <ele>514.8</ele>
        <time>2022-06-07T09:24:19Z</time>
      </trkpt>
      <trkpt lat="46.51079" lon="5.66491">
        <ele>515.9</ele>
        <time>2022-06-07T09:24:24Z</time>
      </trkpt>
      <trkpt lat="46.5108" lon="5.66483">
        <ele>516.9</ele>
        <time>2022-06-07T09:24:29Z</time>
      </trkpt>
      <trkpt lat="46.51084" lon="5.66478">
        <ele>518.1</ele>
        <time>2022-06-07T09:24:35Z</time>
      </trkpt>
      <trkpt lat="46.51089" lon="5.66477">
        <ele>519</ele>
        <time>2022-06-07T09:24:42Z</time>
      </trkpt>
      <trkpt lat="46.51094" lon="5.6648">
        <ele>519.9</ele>
        <time>2022-06-07T09:24:50Z</time>
      </trkpt>
      <trkpt lat="46.51099" lon="5.66479">
        <ele>520.3</ele>
        <time>2022-06-07T09:24:55Z</time>
      </trkpt>
      <trkpt lat="46.51103" lon="5.66475">
        <ele>520.6</ele>
        <time>2022-06-07T09:24:59Z</time>
      </trkpt>
      <trkpt lat="46.51107" lon="5.66472">
        <ele>521.6</ele>
        <time>2022-06-07T09:25:05Z</time>
      </trkpt>
      <trkpt lat="46.51111" lon="5.66469">
        <ele>522.3</ele>
        <time>2022-06-07T09:25:09Z</time>
      </trkpt>
      <trkpt lat="46.51115" lon="5.66464">
        <ele>523</ele>
        <time>2022-06-07T09:25:13Z</time>
      </trkpt>
      <trkpt lat="46.51119" lon="5.66463">
        <ele>524.7</ele>
        <time>2022-06-07T09:25:20Z</time>
      </trkpt>
      <trkpt lat="46.51125" lon="5.66461">
        <ele>525.6</ele>
        <time>2022-06-07T09:25:25Z</time>
      </trkpt>
      <trkpt lat="46.51129" lon="5.66459">
        <ele>526.5</ele>
        <time>2022-06-07T09:25:31Z</time>
      </trkpt>
      <trkpt lat="46.51133" lon="5.66454">
        <ele>526.6</ele>
        <time>2022-06-07T09:25:37Z</time>
      </trkpt>
      <trkpt lat="46.51134" lon="5.66448">
        <ele>525.9</ele>
        <time>2022-06-07T09:25:44Z</time>
      </trkpt>
      <trkpt lat="46.5114" lon="5.66449">
        <ele>524.7</ele>
        <time>2022-06-07T09:25:52Z</time>
      </trkpt>
      <trkpt lat="46.51144" lon="5.66449">
        <ele>522.3</ele>
        <time>2022-06-07T09:26:03Z</time>
      </trkpt>
      <trkpt lat="46.51149" lon="5.66445">
        <ele>521.3</ele>
        <time>2022-06-07T09:26:08Z</time>
      </trkpt>
      <trkpt lat="46.51152" lon="5.6644">
        <ele>520.1</ele>
        <time>2022-06-07T09:26:14Z</time>
      </trkpt>
      <trkpt lat="46.51158" lon="5.66437">
        <ele>518.6</ele>
        <time>2022-06-07T09:26:19Z</time>
      </trkpt>
      <trkpt lat="46.51162" lon="5.66434">
        <ele>517.8</ele>
        <time>2022-06-07T09:26:22Z</time>
      </trkpt>
      <trkpt lat="46.51166" lon="5.66431">
        <ele>516.2</ele>
        <time>2022-06-07T09:26:27Z</time>
      </trkpt>
      <trkpt lat="46.51171" lon="5.66427">
        <ele>514.3</ele>
        <time>2022-06-07T09:26:34Z</time>
      </trkpt>
      <trkpt lat="46.51175" lon="5.66423">
        <ele>513.5</ele>
        <time>2022-06-07T09:26:37Z</time>
      </trkpt>
      <trkpt lat="46.51179" lon="5.66419">
        <ele>513.1</ele>
        <time>2022-06-07T09:26:40Z</time>
      </trkpt>
      <trkpt lat="46.51183" lon="5.66415">
        <ele>512.6</ele>
        <time>2022-06-07T09:26:44Z</time>
      </trkpt>
      <trkpt lat="46.51187" lon="5.66413">
        <ele>512.4</ele>
        <time>2022-06-07T09:26:50Z</time>
      </trkpt>
      <trkpt lat="46.51192" lon="5.66411">
        <ele>513</ele>
        <time>2022-06-07T09:26:57Z</time>
      </trkpt>
      <trkpt lat="46.51197" lon="5.66409">
        <ele>513.4</ele>
        <time>2022-06-07T09:27:02Z</time>
      </trkpt>
      <trkpt lat="46.51202" lon="5.6641">
        <ele>513.1</ele>
        <time>2022-06-07T09:27:09Z</time>
      </trkpt>
      <trkpt lat="46.51205" lon="5.66406">
        <ele>512.4</ele>
        <time>2022-06-07T09:27:16Z</time>
      </trkpt>
      <trkpt lat="46.51205" lon="5.66398">
        <ele>512.2</ele>
        <time>2022-06-07T09:27:21Z</time>
      </trkpt>
      <trkpt lat="46.51205" lon="5.66392">
        <ele>513.9</ele>
        <time>2022-06-07T09:27:31Z</time>
      </trkpt>
      <trkpt lat="46.51209" lon="5.66382">
        <ele>513.4</ele>
        <time>2022-06-07T09:27:48Z</time>
      </trkpt>
      <trkpt lat="46.51211" lon="5.66375">
        <ele>512.7</ele>
        <time>2022-06-07T09:27:51Z</time>
      </trkpt>
      <trkpt lat="46.51214" lon="5.66369">
        <ele>510.9</ele>
        <time>2022-06-07T09:27:57Z</time>
      </trkpt>
      <trkpt lat="46.51219" lon="5.66368">
        <ele>509.2</ele>
        <time>2022-06-07T09:28:03Z</time>
      </trkpt>
      <trkpt lat="46.51222" lon="5.66364">
        <ele>507.6</ele>
        <time>2022-06-07T09:28:09Z</time>
      </trkpt>
      <trkpt lat="46.51225" lon="5.66358">
        <ele>506.9</ele>
        <time>2022-06-07T09:28:14Z</time>
      </trkpt>
      <trkpt lat="46.5123" lon="5.66356">
        <ele>506.6</ele>
        <time>2022-06-07T09:28:21Z</time>
      </trkpt>
      <trkpt lat="46.51235" lon="5.66353">
        <ele>507.1</ele>
        <time>2022-06-07T09:28:26Z</time>
      </trkpt>
      <trkpt lat="46.51241" lon="5.6635">
        <ele>507.6</ele>
        <time>2022-06-07T09:28:30Z</time>
      </trkpt>
      <trkpt lat="46.51246" lon="5.66348">
        <ele>507.9</ele>
        <time>2022-06-07T09:28:34Z</time>
      </trkpt>
      <trkpt lat="46.51251" lon="5.66346">
        <ele>507.9</ele>
        <time>2022-06-07T09:28:37Z</time>
      </trkpt>
      <trkpt lat="46.51256" lon="5.66345">
        <ele>507.3</ele>
        <time>2022-06-07T09:28:41Z</time>
      </trkpt>
      <trkpt lat="46.51262" lon="5.66343">
        <ele>506.3</ele>
        <time>2022-06-07T09:28:46Z</time>
      </trkpt>
      <trkpt lat="46.51266" lon="5.66341">
        <ele>505.2</ele>
        <time>2022-06-07T09:28:50Z</time>
      </trkpt>
      <trkpt lat="46.5127" lon="5.66338">
        <ele>503.8</ele>
        <time>2022-06-07T09:29:01Z</time>
      </trkpt>
      <trkpt lat="46.51274" lon="5.66335">
        <ele>503.3</ele>
        <time>2022-06-07T09:29:06Z</time>
      </trkpt>
      <trkpt lat="46.51279" lon="5.66332">
        <ele>502.5</ele>
        <time>2022-06-07T09:29:13Z</time>
      </trkpt>
      <trkpt lat="46.51283" lon="5.66328">
        <ele>502.2</ele>
        <time>2022-06-07T09:29:18Z</time>
      </trkpt>
      <trkpt lat="46.51287" lon="5.66325">
        <ele>502.4</ele>
        <time>2022-06-07T09:29:22Z</time>
      </trkpt>
      <trkpt lat="46.51292" lon="5.66323">
        <ele>502.4</ele>
        <time>2022-06-07T09:29:26Z</time>
      </trkpt>
      <trkpt lat="46.51296" lon="5.66321">
        <ele>501.8</ele>
        <time>2022-06-07T09:29:32Z</time>
      </trkpt>
      <trkpt lat="46.51301" lon="5.66318">
        <ele>501.5</ele>
        <time>2022-06-07T09:29:36Z</time>
      </trkpt>
      <trkpt lat="46.51305" lon="5.66314">
        <ele>501.5</ele>
        <time>2022-06-07T09:29:40Z</time>
      </trkpt>
      <trkpt lat="46.51308" lon="5.66309">
        <ele>501.3</ele>
        <time>2022-06-07T09:29:44Z</time>
      </trkpt>
      <trkpt lat="46.51312" lon="5.66304">
        <ele>500.7</ele>
        <time>2022-06-07T09:29:48Z</time>
      </trkpt>
      <trkpt lat="46.51315" lon="5.66298">
        <ele>499.4</ele>
        <time>2022-06-07T09:29:53Z</time>
      </trkpt>
      <trkpt lat="46.51319" lon="5.66293">
        <ele>498.3</ele>
        <time>2022-06-07T09:29:57Z</time>
      </trkpt>
      <trkpt lat="46.51323" lon="5.66294">
        <ele>495.2</ele>
        <time>2022-06-07T09:30:09Z</time>
      </trkpt>
      <trkpt lat="46.51327" lon="5.663">
        <ele>495.2</ele>
        <time>2022-06-07T09:30:17Z</time>
      </trkpt>
      <trkpt lat="46.51332" lon="5.66302">
        <ele>495.7</ele>
        <time>2022-06-07T09:30:22Z</time>
      </trkpt>
      <trkpt lat="46.51337" lon="5.66301">
        <ele>496.3</ele>
        <time>2022-06-07T09:30:26Z</time>
      </trkpt>
      <trkpt lat="46.51341" lon="5.66301">
        <ele>497.1</ele>
        <time>2022-06-07T09:30:30Z</time>
      </trkpt>
      <trkpt lat="46.51346" lon="5.66303">
        <ele>497.8</ele>
        <time>2022-06-07T09:30:39Z</time>
      </trkpt>
      <trkpt lat="46.51351" lon="5.66306">
        <ele>498.1</ele>
        <time>2022-06-07T09:30:43Z</time>
      </trkpt>
      <trkpt lat="46.51356" lon="5.66308">
        <ele>498.5</ele>
        <time>2022-06-07T09:30:46Z</time>
      </trkpt>
      <trkpt lat="46.5136" lon="5.6631">
        <ele>498.6</ele>
        <time>2022-06-07T09:30:49Z</time>
      </trkpt>
      <trkpt lat="46.51366" lon="5.6631">
        <ele>498.1</ele>
        <time>2022-06-07T09:30:53Z</time>
      </trkpt>
      <trkpt lat="46.51371" lon="5.66312">
        <ele>497.3</ele>
        <time>2022-06-07T09:30:58Z</time>
      </trkpt>
      <trkpt lat="46.51376" lon="5.66314">
        <ele>496.3</ele>
        <time>2022-06-07T09:31:03Z</time>
      </trkpt>
      <trkpt lat="46.5138" lon="5.66317">
        <ele>495.3</ele>
        <time>2022-06-07T09:31:08Z</time>
      </trkpt>
      <trkpt lat="46.51384" lon="5.66323">
        <ele>494.3</ele>
        <time>2022-06-07T09:31:13Z</time>
      </trkpt>
      <trkpt lat="46.51387" lon="5.6633">
        <ele>493.7</ele>
        <time>2022-06-07T09:31:18Z</time>
      </trkpt>
      <trkpt lat="46.5139" lon="5.66336">
        <ele>493.5</ele>
        <time>2022-06-07T09:31:23Z</time>
      </trkpt>
      <trkpt lat="46.51392" lon="5.66342">
        <ele>493.7</ele>
        <time>2022-06-07T09:31:29Z</time>
      </trkpt>
      <trkpt lat="46.51394" lon="5.6635">
        <ele>493.8</ele>
        <time>2022-06-07T09:31:35Z</time>
      </trkpt>
      <trkpt lat="46.51394" lon="5.66357">
        <ele>493.6</ele>
        <time>2022-06-07T09:31:40Z</time>
      </trkpt>
      <trkpt lat="46.51393" lon="5.66365">
        <ele>493.4</ele>
        <time>2022-06-07T09:31:44Z</time>
      </trkpt>
      <trkpt lat="46.51393" lon="5.66373">
        <ele>493</ele>
        <time>2022-06-07T09:31:48Z</time>
      </trkpt>
      <trkpt lat="46.51395" lon="5.66379">
        <ele>492.4</ele>
        <time>2022-06-07T09:31:53Z</time>
      </trkpt>
      <trkpt lat="46.51397" lon="5.66386">
        <ele>492.2</ele>
        <time>2022-06-07T09:31:59Z</time>
      </trkpt>
      <trkpt lat="46.51402" lon="5.66388">
        <ele>492.5</ele>
        <time>2022-06-07T09:32:04Z</time>
      </trkpt>
      <trkpt lat="46.51407" lon="5.66391">
        <ele>492.7</ele>
        <time>2022-06-07T09:32:09Z</time>
      </trkpt>
      <trkpt lat="46.51412" lon="5.66391">
        <ele>491.8</ele>
        <time>2022-06-07T09:32:15Z</time>
      </trkpt>
      <trkpt lat="46.51417" lon="5.6639">
        <ele>490.4</ele>
        <time>2022-06-07T09:32:20Z</time>
      </trkpt>
      <trkpt lat="46.51422" lon="5.6639">
        <ele>489.9</ele>
        <time>2022-06-07T09:32:25Z</time>
      </trkpt>
      <trkpt lat="46.51428" lon="5.66391">
        <ele>489.8</ele>
        <time>2022-06-07T09:32:29Z</time>
      </trkpt>
      <trkpt lat="46.51433" lon="5.6639">
        <ele>490.1</ele>
        <time>2022-06-07T09:32:33Z</time>
      </trkpt>
      <trkpt lat="46.51438" lon="5.66391">
        <ele>490.3</ele>
        <time>2022-06-07T09:32:37Z</time>
      </trkpt>
      <trkpt lat="46.51443" lon="5.66391">
        <ele>490.2</ele>
        <time>2022-06-07T09:32:41Z</time>
      </trkpt>
      <trkpt lat="46.51448" lon="5.66389">
        <ele>489.5</ele>
        <time>2022-06-07T09:32:46Z</time>
      </trkpt>
      <trkpt lat="46.51453" lon="5.66387">
        <ele>489</ele>
        <time>2022-06-07T09:32:51Z</time>
      </trkpt>
      <trkpt lat="46.51458" lon="5.66386">
        <ele>488.7</ele>
        <time>2022-06-07T09:32:55Z</time>
      </trkpt>
      <trkpt lat="46.51462" lon="5.66385">
        <ele>488.5</ele>
        <time>2022-06-07T09:32:59Z</time>
      </trkpt>
      <trkpt lat="46.51467" lon="5.66383">
        <ele>488.5</ele>
        <time>2022-06-07T09:33:05Z</time>
      </trkpt>
      <trkpt lat="46.51472" lon="5.6638">
        <ele>488.4</ele>
        <time>2022-06-07T09:33:09Z</time>
      </trkpt>
      <trkpt lat="46.51477" lon="5.6638">
        <ele>488.3</ele>
        <time>2022-06-07T09:33:15Z</time>
      </trkpt>
      <trkpt lat="46.51483" lon="5.6638">
        <ele>488</ele>
        <time>2022-06-07T09:33:18Z</time>
      </trkpt>
      <trkpt lat="46.51488" lon="5.6638">
        <ele>488</ele>
        <time>2022-06-07T09:33:21Z</time>
      </trkpt>
      <trkpt lat="46.51492" lon="5.66379">
        <ele>488.2</ele>
        <time>2022-06-07T09:33:25Z</time>
      </trkpt>
      <trkpt lat="46.51497" lon="5.66378">
        <ele>488.1</ele>
        <time>2022-06-07T09:33:31Z</time>
      </trkpt>
      <trkpt lat="46.51502" lon="5.66378">
        <ele>487.9</ele>
        <time>2022-06-07T09:33:37Z</time>
      </trkpt>
      <trkpt lat="46.51507" lon="5.66378">
        <ele>487.9</ele>
        <time>2022-06-07T09:33:42Z</time>
      </trkpt>
      <trkpt lat="46.51512" lon="5.66379">
        <ele>488.2</ele>
        <time>2022-06-07T09:33:47Z</time>
      </trkpt>
      <trkpt lat="46.51516" lon="5.66382">
        <ele>488.1</ele>
        <time>2022-06-07T09:33:51Z</time>
      </trkpt>
      <trkpt lat="46.5152" lon="5.66385">
        <ele>488.2</ele>
        <time>2022-06-07T09:33:55Z</time>
      </trkpt>
      <trkpt lat="46.51525" lon="5.66388">
        <ele>488.6</ele>
        <time>2022-06-07T09:34:00Z</time>
      </trkpt>
      <trkpt lat="46.51531" lon="5.6639">
        <ele>489.1</ele>
        <time>2022-06-07T09:34:05Z</time>
      </trkpt>
      <trkpt lat="46.51535" lon="5.66393">
        <ele>489</ele>
        <time>2022-06-07T09:34:11Z</time>
      </trkpt>
      <trkpt lat="46.5154" lon="5.66396">
        <ele>488.6</ele>
        <time>2022-06-07T09:34:16Z</time>
      </trkpt>
      <trkpt lat="46.51544" lon="5.66399">
        <ele>488.6</ele>
        <time>2022-06-07T09:34:20Z</time>
      </trkpt>
      <trkpt lat="46.51548" lon="5.66402">
        <ele>488.6</ele>
        <time>2022-06-07T09:34:24Z</time>
      </trkpt>
      <trkpt lat="46.51553" lon="5.66405">
        <ele>489</ele>
        <time>2022-06-07T09:34:28Z</time>
      </trkpt>
      <trkpt lat="46.51557" lon="5.66408">
        <ele>489.4</ele>
        <time>2022-06-07T09:34:31Z</time>
      </trkpt>
      <trkpt lat="46.51562" lon="5.6641">
        <ele>490.3</ele>
        <time>2022-06-07T09:34:35Z</time>
      </trkpt>
      <trkpt lat="46.51565" lon="5.66416">
        <ele>491</ele>
        <time>2022-06-07T09:34:47Z</time>
      </trkpt>
      <trkpt lat="46.5157" lon="5.66417">
        <ele>491</ele>
        <time>2022-06-07T09:34:51Z</time>
      </trkpt>
      <trkpt lat="46.51575" lon="5.6642">
        <ele>491</ele>
        <time>2022-06-07T09:34:57Z</time>
      </trkpt>
      <trkpt lat="46.51579" lon="5.66422">
        <ele>491.4</ele>
        <time>2022-06-07T09:35:02Z</time>
      </trkpt>
      <trkpt lat="46.51584" lon="5.66424">
        <ele>491.8</ele>
        <time>2022-06-07T09:35:08Z</time>
      </trkpt>
      <trkpt lat="46.51589" lon="5.66425">
        <ele>492.1</ele>
        <time>2022-06-07T09:35:11Z</time>
      </trkpt>
      <trkpt lat="46.51595" lon="5.66427">
        <ele>492.5</ele>
        <time>2022-06-07T09:35:14Z</time>
      </trkpt>
      <trkpt lat="46.516" lon="5.66427">
        <ele>492.9</ele>
        <time>2022-06-07T09:35:17Z</time>
      </trkpt>
      <trkpt lat="46.51605" lon="5.66427">
        <ele>493.1</ele>
        <time>2022-06-07T09:35:20Z</time>
      </trkpt>
      <trkpt lat="46.51609" lon="5.66429">
        <ele>493.3</ele>
        <time>2022-06-07T09:35:24Z</time>
      </trkpt>
      <trkpt lat="46.51614" lon="5.66429">
        <ele>493.3</ele>
        <time>2022-06-07T09:35:30Z</time>
      </trkpt>
      <trkpt lat="46.51619" lon="5.6643">
        <ele>493.1</ele>
        <time>2022-06-07T09:35:34Z</time>
      </trkpt>
      <trkpt lat="46.51623" lon="5.66431">
        <ele>492.4</ele>
        <time>2022-06-07T09:35:41Z</time>
      </trkpt>
      <trkpt lat="46.51628" lon="5.66432">
        <ele>491.1</ele>
        <time>2022-06-07T09:35:47Z</time>
      </trkpt>
      <trkpt lat="46.51632" lon="5.66432">
        <ele>490.3</ele>
        <time>2022-06-07T09:35:51Z</time>
      </trkpt>
      <trkpt lat="46.51638" lon="5.66431">
        <ele>489.5</ele>
        <time>2022-06-07T09:35:55Z</time>
      </trkpt>
      <trkpt lat="46.51644" lon="5.6643">
        <ele>488.1</ele>
        <time>2022-06-07T09:36:01Z</time>
      </trkpt>
      <trkpt lat="46.51649" lon="5.66429">
        <ele>487.2</ele>
        <time>2022-06-07T09:36:05Z</time>
      </trkpt>
      <trkpt lat="46.51655" lon="5.66425">
        <ele>486.1</ele>
        <time>2022-06-07T09:36:10Z</time>
      </trkpt>
      <trkpt lat="46.5166" lon="5.66422">
        <ele>485.3</ele>
        <time>2022-06-07T09:36:14Z</time>
      </trkpt>
      <trkpt lat="46.51664" lon="5.66419">
        <ele>483.9</ele>
        <time>2022-06-07T09:36:19Z</time>
      </trkpt>
      <trkpt lat="46.51668" lon="5.66417">
        <ele>483.1</ele>
        <time>2022-06-07T09:36:25Z</time>
      </trkpt>
      <trkpt lat="46.51673" lon="5.66417">
        <ele>482.6</ele>
        <time>2022-06-07T09:36:29Z</time>
      </trkpt>
      <trkpt lat="46.51678" lon="5.66416">
        <ele>481.6</ele>
        <time>2022-06-07T09:36:33Z</time>
      </trkpt>
      <trkpt lat="46.51682" lon="5.66417">
        <ele>480.2</ele>
        <time>2022-06-07T09:36:40Z</time>
      </trkpt>
      <trkpt lat="46.51687" lon="5.66419">
        <ele>479.1</ele>
        <time>2022-06-07T09:36:46Z</time>
      </trkpt>
      <trkpt lat="46.51692" lon="5.66416">
        <ele>478.3</ele>
        <time>2022-06-07T09:36:51Z</time>
      </trkpt>
      <trkpt lat="46.51697" lon="5.66415">
        <ele>477.4</ele>
        <time>2022-06-07T09:36:57Z</time>
      </trkpt>
      <trkpt lat="46.51703" lon="5.66413">
        <ele>477.1</ele>
        <time>2022-06-07T09:37:01Z</time>
      </trkpt>
      <trkpt lat="46.51709" lon="5.66411">
        <ele>477.2</ele>
        <time>2022-06-07T09:37:04Z</time>
      </trkpt>
      <trkpt lat="46.51714" lon="5.66409">
        <ele>477.5</ele>
        <time>2022-06-07T09:37:07Z</time>
      </trkpt>
      <trkpt lat="46.51718" lon="5.66406">
        <ele>478</ele>
        <time>2022-06-07T09:37:11Z</time>
      </trkpt>
      <trkpt lat="46.51722" lon="5.66409">
        <ele>477.8</ele>
        <time>2022-06-07T09:37:17Z</time>
      </trkpt>
      <trkpt lat="46.51727" lon="5.66411">
        <ele>477.5</ele>
        <time>2022-06-07T09:37:23Z</time>
      </trkpt>
      <trkpt lat="46.51731" lon="5.66413">
        <ele>477.2</ele>
        <time>2022-06-07T09:37:30Z</time>
      </trkpt>
      <trkpt lat="46.51737" lon="5.66414">
        <ele>477.2</ele>
        <time>2022-06-07T09:37:34Z</time>
      </trkpt>
      <trkpt lat="46.51742" lon="5.66414">
        <ele>477.6</ele>
        <time>2022-06-07T09:37:38Z</time>
      </trkpt>
      <trkpt lat="46.51747" lon="5.66415">
        <ele>477.6</ele>
        <time>2022-06-07T09:37:43Z</time>
      </trkpt>
      <trkpt lat="46.51752" lon="5.66417">
        <ele>478</ele>
        <time>2022-06-07T09:37:49Z</time>
      </trkpt>
      <trkpt lat="46.51757" lon="5.66418">
        <ele>478.3</ele>
        <time>2022-06-07T09:37:55Z</time>
      </trkpt>
      <trkpt lat="46.51762" lon="5.66419">
        <ele>478.5</ele>
        <time>2022-06-07T09:37:58Z</time>
      </trkpt>
      <trkpt lat="46.51768" lon="5.6642">
        <ele>478.7</ele>
        <time>2022-06-07T09:38:01Z</time>
      </trkpt>
      <trkpt lat="46.51775" lon="5.66421">
        <ele>479.1</ele>
        <time>2022-06-07T09:38:04Z</time>
      </trkpt>
      <trkpt lat="46.51781" lon="5.66422">
        <ele>479.7</ele>
        <time>2022-06-07T09:38:07Z</time>
      </trkpt>
      <trkpt lat="46.51785" lon="5.6642">
        <ele>480.4</ele>
        <time>2022-06-07T09:38:11Z</time>
      </trkpt>
      <trkpt lat="46.5179" lon="5.66418">
        <ele>480.9</ele>
        <time>2022-06-07T09:38:16Z</time>
      </trkpt>
      <trkpt lat="46.51795" lon="5.66418">
        <ele>480.9</ele>
        <time>2022-06-07T09:38:21Z</time>
      </trkpt>
      <trkpt lat="46.518" lon="5.66416">
        <ele>481.1</ele>
        <time>2022-06-07T09:38:26Z</time>
      </trkpt>
      <trkpt lat="46.51805" lon="5.66415">
        <ele>481.2</ele>
        <time>2022-06-07T09:38:31Z</time>
      </trkpt>
      <trkpt lat="46.5181" lon="5.66413">
        <ele>481</ele>
        <time>2022-06-07T09:38:35Z</time>
      </trkpt>
      <trkpt lat="46.51815" lon="5.66412">
        <ele>480.1</ele>
        <time>2022-06-07T09:38:41Z</time>
      </trkpt>
      <trkpt lat="46.51821" lon="5.66413">
        <ele>479.3</ele>
        <time>2022-06-07T09:38:46Z</time>
      </trkpt>
      <trkpt lat="46.51827" lon="5.66412">
        <ele>478.8</ele>
        <time>2022-06-07T09:38:50Z</time>
      </trkpt>
      <trkpt lat="46.51831" lon="5.66414">
        <ele>478.3</ele>
        <time>2022-06-07T09:38:55Z</time>
      </trkpt>
      <trkpt lat="46.51835" lon="5.66409">
        <ele>477</ele>
        <time>2022-06-07T09:39:08Z</time>
      </trkpt>
      <trkpt lat="46.51839" lon="5.66404">
        <ele>477.2</ele>
        <time>2022-06-07T09:39:18Z</time>
      </trkpt>
      <trkpt lat="46.51844" lon="5.66406">
        <ele>476.9</ele>
        <time>2022-06-07T09:39:23Z</time>
      </trkpt>
      <trkpt lat="46.51849" lon="5.66406">
        <ele>476.9</ele>
        <time>2022-06-07T09:39:27Z</time>
      </trkpt>
      <trkpt lat="46.51854" lon="5.66404">
        <ele>477.4</ele>
        <time>2022-06-07T09:39:31Z</time>
      </trkpt>
      <trkpt lat="46.51859" lon="5.66402">
        <ele>477.9</ele>
        <time>2022-06-07T09:39:34Z</time>
      </trkpt>
      <trkpt lat="46.51865" lon="5.664">
        <ele>478.2</ele>
        <time>2022-06-07T09:39:37Z</time>
      </trkpt>
      <trkpt lat="46.51869" lon="5.664">
        <ele>477.8</ele>
        <time>2022-06-07T09:39:44Z</time>
      </trkpt>
      <trkpt lat="46.51874" lon="5.66401">
        <ele>477.3</ele>
        <time>2022-06-07T09:39:49Z</time>
      </trkpt>
      <trkpt lat="46.51879" lon="5.66403">
        <ele>477.3</ele>
        <time>2022-06-07T09:39:54Z</time>
      </trkpt>
      <trkpt lat="46.51883" lon="5.66402">
        <ele>477.9</ele>
        <time>2022-06-07T09:39:59Z</time>
      </trkpt>
      <trkpt lat="46.51884" lon="5.66396">
        <ele>481.7</ele>
        <time>2022-06-07T09:40:30Z</time>
      </trkpt>
      <trkpt lat="46.51882" lon="5.66402">
        <ele>482.5</ele>
        <time>2022-06-07T09:40:42Z</time>
      </trkpt>
      <trkpt lat="46.51888" lon="5.664">
        <ele>482.5</ele>
        <time>2022-06-07T09:40:49Z</time>
      </trkpt>
      <trkpt lat="46.51883" lon="5.664">
        <ele>480.7</ele>
        <time>2022-06-07T09:41:22Z</time>
      </trkpt>
      <trkpt lat="46.51878" lon="5.66399">
        <ele>478.1</ele>
        <time>2022-06-07T09:41:31Z</time>
      </trkpt>
      <trkpt lat="46.51883" lon="5.66402">
        <ele>474.9</ele>
        <time>2022-06-07T09:42:04Z</time>
      </trkpt>
      <trkpt lat="46.51879" lon="5.66405">
        <ele>474.1</ele>
        <time>2022-06-07T09:42:40Z</time>
      </trkpt>
      <trkpt lat="46.51877" lon="5.66412">
        <ele>473.7</ele>
        <time>2022-06-07T09:42:45Z</time>
      </trkpt>
      <trkpt lat="46.51877" lon="5.66403">
        <ele>473.9</ele>
        <time>2022-06-07T09:43:09Z</time>
      </trkpt>
      <trkpt lat="46.5188" lon="5.66397">
        <ele>475</ele>
        <time>2022-06-07T09:43:14Z</time>
      </trkpt>
      <trkpt lat="46.51882" lon="5.66403">
        <ele>475.1</ele>
        <time>2022-06-07T09:43:22Z</time>
      </trkpt>
      <trkpt lat="46.51882" lon="5.6641">
        <ele>474.6</ele>
        <time>2022-06-07T09:43:31Z</time>
      </trkpt>
      <trkpt lat="46.51886" lon="5.66404">
        <ele>474.6</ele>
        <time>2022-06-07T09:43:52Z</time>
      </trkpt>
      <trkpt lat="46.51888" lon="5.66398">
        <ele>475.6</ele>
        <time>2022-06-07T09:43:56Z</time>
      </trkpt>
      <trkpt lat="46.51894" lon="5.66401">
        <ele>476.3</ele>
        <time>2022-06-07T09:44:55Z</time>
      </trkpt>
      <trkpt lat="46.51898" lon="5.66403">
        <ele>475.6</ele>
        <time>2022-06-07T09:44:58Z</time>
      </trkpt>
      <trkpt lat="46.51903" lon="5.66406">
        <ele>473.9</ele>
        <time>2022-06-07T09:46:11Z</time>
      </trkpt>
      <trkpt lat="46.51906" lon="5.66412">
        <ele>473.6</ele>
        <time>2022-06-07T09:46:15Z</time>
      </trkpt>
      <trkpt lat="46.5191" lon="5.66415">
        <ele>473.4</ele>
        <time>2022-06-07T09:46:19Z</time>
      </trkpt>
      <trkpt lat="46.51915" lon="5.66417">
        <ele>473.1</ele>
        <time>2022-06-07T09:46:24Z</time>
      </trkpt>
      <trkpt lat="46.5192" lon="5.66419">
        <ele>472.6</ele>
        <time>2022-06-07T09:46:29Z</time>
      </trkpt>
      <trkpt lat="46.51925" lon="5.66422">
        <ele>472.4</ele>
        <time>2022-06-07T09:46:34Z</time>
      </trkpt>
      <trkpt lat="46.51929" lon="5.66426">
        <ele>472.4</ele>
        <time>2022-06-07T09:46:39Z</time>
      </trkpt>
      <trkpt lat="46.51934" lon="5.66429">
        <ele>472.2</ele>
        <time>2022-06-07T09:46:45Z</time>
      </trkpt>
      <trkpt lat="46.51939" lon="5.66428">
        <ele>472.3</ele>
        <time>2022-06-07T09:46:49Z</time>
      </trkpt>
      <trkpt lat="46.51945" lon="5.66429">
        <ele>472.1</ele>
        <time>2022-06-07T09:46:53Z</time>
      </trkpt>
      <trkpt lat="46.5195" lon="5.66428">
        <ele>471.3</ele>
        <time>2022-06-07T09:46:58Z</time>
      </trkpt>
      <trkpt lat="46.51954" lon="5.6643">
        <ele>469.1</ele>
        <time>2022-06-07T09:47:07Z</time>
      </trkpt>
      <trkpt lat="46.51959" lon="5.6643">
        <ele>467.3</ele>
        <time>2022-06-07T09:47:13Z</time>
      </trkpt>
      <trkpt lat="46.51964" lon="5.66432">
        <ele>464.2</ele>
        <time>2022-06-07T09:47:20Z</time>
      </trkpt>
      <trkpt lat="46.51968" lon="5.66433">
        <ele>462.4</ele>
        <time>2022-06-07T09:47:24Z</time>
      </trkpt>
      <trkpt lat="46.51974" lon="5.66434">
        <ele>461.3</ele>
        <time>2022-06-07T09:47:28Z</time>
      </trkpt>
      <trkpt lat="46.51978" lon="5.66435">
        <ele>460.4</ele>
        <time>2022-06-07T09:47:32Z</time>
      </trkpt>
      <trkpt lat="46.51983" lon="5.66437">
        <ele>459.8</ele>
        <time>2022-06-07T09:47:36Z</time>
      </trkpt>
      <trkpt lat="46.51988" lon="5.66438">
        <ele>459.3</ele>
        <time>2022-06-07T09:47:41Z</time>
      </trkpt>
      <trkpt lat="46.51993" lon="5.6644">
        <ele>459.2</ele>
        <time>2022-06-07T09:47:45Z</time>
      </trkpt>
      <trkpt lat="46.51998" lon="5.66443">
        <ele>459.3</ele>
        <time>2022-06-07T09:47:49Z</time>
      </trkpt>
      <trkpt lat="46.52003" lon="5.66446">
        <ele>459.5</ele>
        <time>2022-06-07T09:47:53Z</time>
      </trkpt>
      <trkpt lat="46.52008" lon="5.6645">
        <ele>458.8</ele>
        <time>2022-06-07T09:47:58Z</time>
      </trkpt>
      <trkpt lat="46.52013" lon="5.66453">
        <ele>457.8</ele>
        <time>2022-06-07T09:48:03Z</time>
      </trkpt>
      <trkpt lat="46.52017" lon="5.66456">
        <ele>457.1</ele>
        <time>2022-06-07T09:48:07Z</time>
      </trkpt>
      <trkpt lat="46.52022" lon="5.66459">
        <ele>456.3</ele>
        <time>2022-06-07T09:48:12Z</time>
      </trkpt>
      <trkpt lat="46.52028" lon="5.66461">
        <ele>456.5</ele>
        <time>2022-06-07T09:48:15Z</time>
      </trkpt>
      <trkpt lat="46.52034" lon="5.66463">
        <ele>457.2</ele>
        <time>2022-06-07T09:48:19Z</time>
      </trkpt>
      <trkpt lat="46.52039" lon="5.66466">
        <ele>457.6</ele>
        <time>2022-06-07T09:48:24Z</time>
      </trkpt>
      <trkpt lat="46.52044" lon="5.66469">
        <ele>457.4</ele>
        <time>2022-06-07T09:48:29Z</time>
      </trkpt>
      <trkpt lat="46.52048" lon="5.66472">
        <ele>457.3</ele>
        <time>2022-06-07T09:48:32Z</time>
      </trkpt>
      <trkpt lat="46.52054" lon="5.66475">
        <ele>457.4</ele>
        <time>2022-06-07T09:48:36Z</time>
      </trkpt>
      <trkpt lat="46.52058" lon="5.66477">
        <ele>457.4</ele>
        <time>2022-06-07T09:48:40Z</time>
      </trkpt>
      <trkpt lat="46.52062" lon="5.66481">
        <ele>457.3</ele>
        <time>2022-06-07T09:48:44Z</time>
      </trkpt>
      <trkpt lat="46.52067" lon="5.66485">
        <ele>456.5</ele>
        <time>2022-06-07T09:48:49Z</time>
      </trkpt>
      <trkpt lat="46.52071" lon="5.66488">
        <ele>456</ele>
        <time>2022-06-07T09:48:53Z</time>
      </trkpt>
      <trkpt lat="46.52076" lon="5.66491">
        <ele>455.7</ele>
        <time>2022-06-07T09:48:57Z</time>
      </trkpt>
      <trkpt lat="46.52082" lon="5.66492">
        <ele>455.5</ele>
        <time>2022-06-07T09:49:01Z</time>
      </trkpt>
      <trkpt lat="46.52087" lon="5.66493">
        <ele>454.8</ele>
        <time>2022-06-07T09:49:05Z</time>
      </trkpt>
      <trkpt lat="46.52092" lon="5.66495">
        <ele>454.6</ele>
        <time>2022-06-07T09:49:09Z</time>
      </trkpt>
      <trkpt lat="46.52097" lon="5.66496">
        <ele>454.5</ele>
        <time>2022-06-07T09:49:13Z</time>
      </trkpt>
      <trkpt lat="46.52103" lon="5.66498">
        <ele>454.4</ele>
        <time>2022-06-07T09:49:17Z</time>
      </trkpt>
      <trkpt lat="46.52107" lon="5.66498">
        <ele>454.1</ele>
        <time>2022-06-07T09:49:21Z</time>
      </trkpt>
      <trkpt lat="46.52113" lon="5.66499">
        <ele>453.8</ele>
        <time>2022-06-07T09:49:26Z</time>
      </trkpt>
      <trkpt lat="46.52118" lon="5.66499">
        <ele>453.7</ele>
        <time>2022-06-07T09:49:30Z</time>
      </trkpt>
      <trkpt lat="46.52122" lon="5.66499">
        <ele>453.6</ele>
        <time>2022-06-07T09:49:33Z</time>
      </trkpt>
      <trkpt lat="46.52128" lon="5.66499">
        <ele>453.8</ele>
        <time>2022-06-07T09:49:36Z</time>
      </trkpt>
      <trkpt lat="46.52133" lon="5.665">
        <ele>454.5</ele>
        <time>2022-06-07T09:49:40Z</time>
      </trkpt>
      <trkpt lat="46.52138" lon="5.66499">
        <ele>455</ele>
        <time>2022-06-07T09:49:44Z</time>
      </trkpt>
      <trkpt lat="46.52143" lon="5.66498">
        <ele>455.4</ele>
        <time>2022-06-07T09:49:49Z</time>
      </trkpt>
      <trkpt lat="46.52149" lon="5.66497">
        <ele>455.6</ele>
        <time>2022-06-07T09:49:54Z</time>
      </trkpt>
      <trkpt lat="46.52154" lon="5.66496">
        <ele>455.8</ele>
        <time>2022-06-07T09:49:58Z</time>
      </trkpt>
      <trkpt lat="46.52159" lon="5.66496">
        <ele>456</ele>
        <time>2022-06-07T09:50:03Z</time>
      </trkpt>
      <trkpt lat="46.52164" lon="5.66497">
        <ele>456</ele>
        <time>2022-06-07T09:50:07Z</time>
      </trkpt>
      <trkpt lat="46.52169" lon="5.66497">
        <ele>455.8</ele>
        <time>2022-06-07T09:50:11Z</time>
      </trkpt>
      <trkpt lat="46.52173" lon="5.66497">
        <ele>455.8</ele>
        <time>2022-06-07T09:50:15Z</time>
      </trkpt>
      <trkpt lat="46.52179" lon="5.66497">
        <ele>455.9</ele>
        <time>2022-06-07T09:50:19Z</time>
      </trkpt>
      <trkpt lat="46.52184" lon="5.66497">
        <ele>455.7</ele>
        <time>2022-06-07T09:50:25Z</time>
      </trkpt>
      <trkpt lat="46.52189" lon="5.66496">
        <ele>455.5</ele>
        <time>2022-06-07T09:50:29Z</time>
      </trkpt>
      <trkpt lat="46.52194" lon="5.66496">
        <ele>455.2</ele>
        <time>2022-06-07T09:50:33Z</time>
      </trkpt>
      <trkpt lat="46.52199" lon="5.66495">
        <ele>455.2</ele>
        <time>2022-06-07T09:50:37Z</time>
      </trkpt>
      <trkpt lat="46.52204" lon="5.66495">
        <ele>455.9</ele>
        <time>2022-06-07T09:50:41Z</time>
      </trkpt>
      <trkpt lat="46.52209" lon="5.66495">
        <ele>456.8</ele>
        <time>2022-06-07T09:50:45Z</time>
      </trkpt>
      <trkpt lat="46.52214" lon="5.66495">
        <ele>457.9</ele>
        <time>2022-06-07T09:50:49Z</time>
      </trkpt>
      <trkpt lat="46.52219" lon="5.66494">
        <ele>458.8</ele>
        <time>2022-06-07T09:50:54Z</time>
      </trkpt>
      <trkpt lat="46.52224" lon="5.66494">
        <ele>459.4</ele>
        <time>2022-06-07T09:50:59Z</time>
      </trkpt>
      <trkpt lat="46.52229" lon="5.66496">
        <ele>459.6</ele>
        <time>2022-06-07T09:51:04Z</time>
      </trkpt>
      <trkpt lat="46.52233" lon="5.66498">
        <ele>459.2</ele>
        <time>2022-06-07T09:51:09Z</time>
      </trkpt>
      <trkpt lat="46.52237" lon="5.66502">
        <ele>457.5</ele>
        <time>2022-06-07T09:51:15Z</time>
      </trkpt>
      <trkpt lat="46.52242" lon="5.66506">
        <ele>456.9</ele>
        <time>2022-06-07T09:51:19Z</time>
      </trkpt>
      <trkpt lat="46.52246" lon="5.66511">
        <ele>457.1</ele>
        <time>2022-06-07T09:51:23Z</time>
      </trkpt>
      <trkpt lat="46.5225" lon="5.66516">
        <ele>457.6</ele>
        <time>2022-06-07T09:51:26Z</time>
      </trkpt>
      <trkpt lat="46.52254" lon="5.66523">
        <ele>458.5</ele>
        <time>2022-06-07T09:51:30Z</time>
      </trkpt>
      <trkpt lat="46.52258" lon="5.66527">
        <ele>459.3</ele>
        <time>2022-06-07T09:51:34Z</time>
      </trkpt>
      <trkpt lat="46.52259" lon="5.66534">
        <ele>462.6</ele>
        <time>2022-06-07T09:51:47Z</time>
      </trkpt>
      <trkpt lat="46.52264" lon="5.66539">
        <ele>463.9</ele>
        <time>2022-06-07T09:51:51Z</time>
      </trkpt>
      <trkpt lat="46.52269" lon="5.6654">
        <ele>465.4</ele>
        <time>2022-06-07T09:52:02Z</time>
      </trkpt>
      <trkpt lat="46.52273" lon="5.66536">
        <ele>466</ele>
        <time>2022-06-07T09:52:12Z</time>
      </trkpt>
      <trkpt lat="46.52275" lon="5.6653">
        <ele>466</ele>
        <time>2022-06-07T09:52:17Z</time>
      </trkpt>
      <trkpt lat="46.52279" lon="5.66527">
        <ele>466.1</ele>
        <time>2022-06-07T09:52:22Z</time>
      </trkpt>
      <trkpt lat="46.52283" lon="5.66524">
        <ele>466.1</ele>
        <time>2022-06-07T09:52:27Z</time>
      </trkpt>
      <trkpt lat="46.52287" lon="5.66519">
        <ele>466</ele>
        <time>2022-06-07T09:52:33Z</time>
      </trkpt>
      <trkpt lat="46.52291" lon="5.66514">
        <ele>466</ele>
        <time>2022-06-07T09:52:38Z</time>
      </trkpt>
      <trkpt lat="46.52295" lon="5.6651">
        <ele>466.1</ele>
        <time>2022-06-07T09:52:42Z</time>
      </trkpt>
      <trkpt lat="46.52298" lon="5.66505">
        <ele>466.1</ele>
        <time>2022-06-07T09:52:46Z</time>
      </trkpt>
      <trkpt lat="46.52302" lon="5.66501">
        <ele>466.3</ele>
        <time>2022-06-07T09:52:50Z</time>
      </trkpt>
      <trkpt lat="46.52304" lon="5.66494">
        <ele>466.8</ele>
        <time>2022-06-07T09:52:55Z</time>
      </trkpt>
      <trkpt lat="46.52307" lon="5.66487">
        <ele>467.2</ele>
        <time>2022-06-07T09:52:59Z</time>
      </trkpt>
      <trkpt lat="46.5231" lon="5.66483">
        <ele>467.4</ele>
        <time>2022-06-07T09:53:05Z</time>
      </trkpt>
      <trkpt lat="46.52315" lon="5.6648">
        <ele>467.5</ele>
        <time>2022-06-07T09:53:11Z</time>
      </trkpt>
      <trkpt lat="46.52319" lon="5.66476">
        <ele>467.4</ele>
        <time>2022-06-07T09:53:16Z</time>
      </trkpt>
      <trkpt lat="46.52323" lon="5.66473">
        <ele>467</ele>
        <time>2022-06-07T09:53:21Z</time>
      </trkpt>
      <trkpt lat="46.52328" lon="5.66471">
        <ele>466.1</ele>
        <time>2022-06-07T09:53:26Z</time>
      </trkpt>
      <trkpt lat="46.52331" lon="5.66467">
        <ele>465.7</ele>
        <time>2022-06-07T09:53:30Z</time>
      </trkpt>
      <trkpt lat="46.52334" lon="5.66461">
        <ele>465.7</ele>
        <time>2022-06-07T09:53:33Z</time>
      </trkpt>
      <trkpt lat="46.52336" lon="5.66455">
        <ele>465.9</ele>
        <time>2022-06-07T09:53:36Z</time>
      </trkpt>
      <trkpt lat="46.52339" lon="5.66449">
        <ele>466.2</ele>
        <time>2022-06-07T09:53:40Z</time>
      </trkpt>
      <trkpt lat="46.52341" lon="5.66443">
        <ele>466.5</ele>
        <time>2022-06-07T09:53:44Z</time>
      </trkpt>
      <trkpt lat="46.52345" lon="5.66438">
        <ele>467.2</ele>
        <time>2022-06-07T09:53:48Z</time>
      </trkpt>
      <trkpt lat="46.52349" lon="5.66433">
        <ele>468.1</ele>
        <time>2022-06-07T09:53:54Z</time>
      </trkpt>
      <trkpt lat="46.52352" lon="5.66429">
        <ele>468.6</ele>
        <time>2022-06-07T09:53:58Z</time>
      </trkpt>
      <trkpt lat="46.52355" lon="5.66422">
        <ele>469.1</ele>
        <time>2022-06-07T09:54:02Z</time>
      </trkpt>
      <trkpt lat="46.52359" lon="5.66419">
        <ele>469.5</ele>
        <time>2022-06-07T09:54:08Z</time>
      </trkpt>
      <trkpt lat="46.52363" lon="5.66414">
        <ele>469.3</ele>
        <time>2022-06-07T09:54:14Z</time>
      </trkpt>
      <trkpt lat="46.52367" lon="5.6641">
        <ele>468.9</ele>
        <time>2022-06-07T09:54:19Z</time>
      </trkpt>
      <trkpt lat="46.5237" lon="5.66404">
        <ele>468.9</ele>
        <time>2022-06-07T09:54:22Z</time>
      </trkpt>
      <trkpt lat="46.52372" lon="5.66398">
        <ele>469.2</ele>
        <time>2022-06-07T09:54:26Z</time>
      </trkpt>
      <trkpt lat="46.52373" lon="5.66392">
        <ele>469.6</ele>
        <time>2022-06-07T09:54:30Z</time>
      </trkpt>
      <trkpt lat="46.52376" lon="5.66387">
        <ele>470.4</ele>
        <time>2022-06-07T09:54:39Z</time>
      </trkpt>
      <trkpt lat="46.52379" lon="5.66383">
        <ele>470.8</ele>
        <time>2022-06-07T09:54:43Z</time>
      </trkpt>
      <trkpt lat="46.52384" lon="5.66382">
        <ele>471.4</ele>
        <time>2022-06-07T09:54:50Z</time>
      </trkpt>
      <trkpt lat="46.52389" lon="5.66381">
        <ele>472.1</ele>
        <time>2022-06-07T09:54:57Z</time>
      </trkpt>
      <trkpt lat="46.52393" lon="5.66376">
        <ele>473.3</ele>
        <time>2022-06-07T09:55:02Z</time>
      </trkpt>
      <trkpt lat="46.52397" lon="5.66379">
        <ele>476.2</ele>
        <time>2022-06-07T09:55:10Z</time>
      </trkpt>
      <trkpt lat="46.524" lon="5.66386">
        <ele>476.5</ele>
        <time>2022-06-07T09:55:18Z</time>
      </trkpt>
      <trkpt lat="46.52405" lon="5.66387">
        <ele>476.2</ele>
        <time>2022-06-07T09:55:22Z</time>
      </trkpt>
      <trkpt lat="46.5241" lon="5.66389">
        <ele>476.3</ele>
        <time>2022-06-07T09:55:25Z</time>
      </trkpt>
      <trkpt lat="46.52415" lon="5.6639">
        <ele>476.5</ele>
        <time>2022-06-07T09:55:28Z</time>
      </trkpt>
      <trkpt lat="46.52419" lon="5.66389">
        <ele>476.9</ele>
        <time>2022-06-07T09:55:31Z</time>
      </trkpt>
      <trkpt lat="46.52425" lon="5.66391">
        <ele>477.8</ele>
        <time>2022-06-07T09:55:35Z</time>
      </trkpt>
      <trkpt lat="46.5243" lon="5.66393">
        <ele>478.3</ele>
        <time>2022-06-07T09:55:39Z</time>
      </trkpt>
      <trkpt lat="46.52436" lon="5.66392">
        <ele>478.8</ele>
        <time>2022-06-07T09:55:44Z</time>
      </trkpt>
      <trkpt lat="46.5244" lon="5.66386">
        <ele>479.8</ele>
        <time>2022-06-07T09:55:48Z</time>
      </trkpt>
      <trkpt lat="46.52444" lon="5.66386">
        <ele>480.2</ele>
        <time>2022-06-07T09:55:54Z</time>
      </trkpt>
      <trkpt lat="46.5245" lon="5.66386">
        <ele>480.5</ele>
        <time>2022-06-07T09:55:59Z</time>
      </trkpt>
      <trkpt lat="46.52454" lon="5.66389">
        <ele>481.8</ele>
        <time>2022-06-07T09:56:05Z</time>
      </trkpt>
      <trkpt lat="46.5246" lon="5.6639">
        <ele>482.2</ele>
        <time>2022-06-07T09:56:10Z</time>
      </trkpt>
      <trkpt lat="46.52465" lon="5.66392">
        <ele>482.4</ele>
        <time>2022-06-07T09:56:15Z</time>
      </trkpt>
      <trkpt lat="46.5247" lon="5.66393">
        <ele>482.3</ele>
        <time>2022-06-07T09:56:20Z</time>
      </trkpt>
      <trkpt lat="46.52475" lon="5.66394">
        <ele>482.4</ele>
        <time>2022-06-07T09:56:25Z</time>
      </trkpt>
      <trkpt lat="46.5248" lon="5.66394">
        <ele>482.4</ele>
        <time>2022-06-07T09:56:29Z</time>
      </trkpt>
      <trkpt lat="46.52485" lon="5.66395">
        <ele>482.5</ele>
        <time>2022-06-07T09:56:33Z</time>
      </trkpt>
      <trkpt lat="46.5249" lon="5.66396">
        <ele>482.5</ele>
        <time>2022-06-07T09:56:39Z</time>
      </trkpt>
      <trkpt lat="46.52495" lon="5.66397">
        <ele>482.7</ele>
        <time>2022-06-07T09:56:44Z</time>
      </trkpt>
      <trkpt lat="46.52499" lon="5.664">
        <ele>482.9</ele>
        <time>2022-06-07T09:56:50Z</time>
      </trkpt>
      <trkpt lat="46.52504" lon="5.66398">
        <ele>483.4</ele>
        <time>2022-06-07T09:56:54Z</time>
      </trkpt>
      <trkpt lat="46.52508" lon="5.66396">
        <ele>483.7</ele>
        <time>2022-06-07T09:56:58Z</time>
      </trkpt>
      <trkpt lat="46.52513" lon="5.66396">
        <ele>483.8</ele>
        <time>2022-06-07T09:57:01Z</time>
      </trkpt>
      <trkpt lat="46.52519" lon="5.66395">
        <ele>483.9</ele>
        <time>2022-06-07T09:57:05Z</time>
      </trkpt>
      <trkpt lat="46.52524" lon="5.66396">
        <ele>483.9</ele>
        <time>2022-06-07T09:57:11Z</time>
      </trkpt>
      <trkpt lat="46.52528" lon="5.66397">
        <ele>483.2</ele>
        <time>2022-06-07T09:57:15Z</time>
      </trkpt>
      <trkpt lat="46.52534" lon="5.66399">
        <ele>482.7</ele>
        <time>2022-06-07T09:57:19Z</time>
      </trkpt>
      <trkpt lat="46.5254" lon="5.664">
        <ele>482.8</ele>
        <time>2022-06-07T09:57:25Z</time>
      </trkpt>
      <trkpt lat="46.52544" lon="5.66401">
        <ele>482.9</ele>
        <time>2022-06-07T09:57:28Z</time>
      </trkpt>
      <trkpt lat="46.52549" lon="5.66402">
        <ele>483.2</ele>
        <time>2022-06-07T09:57:32Z</time>
      </trkpt>
      <trkpt lat="46.52555" lon="5.66404">
        <ele>483.6</ele>
        <time>2022-06-07T09:57:36Z</time>
      </trkpt>
      <trkpt lat="46.52559" lon="5.66408">
        <ele>484</ele>
        <time>2022-06-07T09:57:41Z</time>
      </trkpt>
      <trkpt lat="46.52564" lon="5.66409">
        <ele>484.1</ele>
        <time>2022-06-07T09:57:46Z</time>
      </trkpt>
      <trkpt lat="46.52569" lon="5.66407">
        <ele>484.1</ele>
        <time>2022-06-07T09:57:49Z</time>
      </trkpt>
      <trkpt lat="46.52573" lon="5.66402">
        <ele>484.1</ele>
        <time>2022-06-07T09:57:53Z</time>
      </trkpt>
      <trkpt lat="46.52578" lon="5.66405">
        <ele>483.9</ele>
        <time>2022-06-07T09:57:59Z</time>
      </trkpt>
      <trkpt lat="46.52581" lon="5.66411">
        <ele>483.9</ele>
        <time>2022-06-07T09:58:03Z</time>
      </trkpt>
      <trkpt lat="46.52584" lon="5.66417">
        <ele>484.4</ele>
        <time>2022-06-07T09:58:08Z</time>
      </trkpt>
      <trkpt lat="46.52587" lon="5.66422">
        <ele>485.4</ele>
        <time>2022-06-07T09:58:12Z</time>
      </trkpt>
      <trkpt lat="46.52591" lon="5.66426">
        <ele>486.8</ele>
        <time>2022-06-07T09:58:16Z</time>
      </trkpt>
      <trkpt lat="46.52596" lon="5.66429">
        <ele>488.9</ele>
        <time>2022-06-07T09:58:23Z</time>
      </trkpt>
      <trkpt lat="46.52596" lon="5.66436">
        <ele>490.1</ele>
        <time>2022-06-07T09:58:30Z</time>
      </trkpt>
      <trkpt lat="46.52593" lon="5.66441">
        <ele>490.5</ele>
        <time>2022-06-07T09:58:36Z</time>
      </trkpt>
      <trkpt lat="46.52592" lon="5.66448">
        <ele>490.8</ele>
        <time>2022-06-07T09:58:44Z</time>
      </trkpt>
      <trkpt lat="46.52589" lon="5.66454">
        <ele>490.9</ele>
        <time>2022-06-07T09:58:48Z</time>
      </trkpt>
      <trkpt lat="46.52585" lon="5.6646">
        <ele>490.8</ele>
        <time>2022-06-07T09:58:52Z</time>
      </trkpt>
      <trkpt lat="46.52582" lon="5.66465">
        <ele>491</ele>
        <time>2022-06-07T09:58:56Z</time>
      </trkpt>
      <trkpt lat="46.52582" lon="5.66472">
        <ele>490.6</ele>
        <time>2022-06-07T09:59:12Z</time>
      </trkpt>
      <trkpt lat="46.5258" lon="5.6648">
        <ele>491.2</ele>
        <time>2022-06-07T09:59:17Z</time>
      </trkpt>
      <trkpt lat="46.52579" lon="5.66486">
        <ele>491.3</ele>
        <time>2022-06-07T09:59:21Z</time>
      </trkpt>
      <trkpt lat="46.52575" lon="5.66492">
        <ele>490.9</ele>
        <time>2022-06-07T09:59:26Z</time>
      </trkpt>
      <trkpt lat="46.52574" lon="5.665">
        <ele>490.6</ele>
        <time>2022-06-07T09:59:35Z</time>
      </trkpt>
      <trkpt lat="46.52574" lon="5.66507">
        <ele>490.6</ele>
        <time>2022-06-07T09:59:39Z</time>
      </trkpt>
      <trkpt lat="46.52576" lon="5.66514">
        <ele>490.9</ele>
        <time>2022-06-07T09:59:44Z</time>
      </trkpt>
      <trkpt lat="46.5258" lon="5.66519">
        <ele>492</ele>
        <time>2022-06-07T09:59:49Z</time>
      </trkpt>
      <trkpt lat="46.52584" lon="5.66522">
        <ele>492.8</ele>
        <time>2022-06-07T09:59:53Z</time>
      </trkpt>
      <trkpt lat="46.52589" lon="5.66526">
        <ele>493</ele>
        <time>2022-06-07T09:59:57Z</time>
      </trkpt>
      <trkpt lat="46.52594" lon="5.66527">
        <ele>493</ele>
        <time>2022-06-07T10:00:00Z</time>
      </trkpt>
      <trkpt lat="46.52599" lon="5.66528">
        <ele>493.2</ele>
        <time>2022-06-07T10:00:03Z</time>
      </trkpt>
      <trkpt lat="46.52604" lon="5.66528">
        <ele>493.6</ele>
        <time>2022-06-07T10:00:06Z</time>
      </trkpt>
      <trkpt lat="46.52607" lon="5.66532">
        <ele>495.7</ele>
        <time>2022-06-07T10:00:18Z</time>
      </trkpt>
      <trkpt lat="46.52611" lon="5.66537">
        <ele>496.3</ele>
        <time>2022-06-07T10:00:25Z</time>
      </trkpt>
      <trkpt lat="46.52609" lon="5.66543">
        <ele>496</ele>
        <time>2022-06-07T10:00:29Z</time>
      </trkpt>
      <trkpt lat="46.52606" lon="5.66549">
        <ele>495.8</ele>
        <time>2022-06-07T10:00:37Z</time>
      </trkpt>
      <trkpt lat="46.52602" lon="5.66553">
        <ele>496.1</ele>
        <time>2022-06-07T10:00:40Z</time>
      </trkpt>
      <trkpt lat="46.52598" lon="5.66557">
        <ele>496.5</ele>
        <time>2022-06-07T10:00:43Z</time>
      </trkpt>
      <trkpt lat="46.52595" lon="5.66563">
        <ele>498.2</ele>
        <time>2022-06-07T10:00:53Z</time>
      </trkpt>
      <trkpt lat="46.52598" lon="5.66568">
        <ele>500.1</ele>
        <time>2022-06-07T10:01:04Z</time>
      </trkpt>
      <trkpt lat="46.52595" lon="5.66574">
        <ele>501.6</ele>
        <time>2022-06-07T10:01:12Z</time>
      </trkpt>
      <trkpt lat="46.52592" lon="5.6658">
        <ele>502.8</ele>
        <time>2022-06-07T10:01:17Z</time>
      </trkpt>
      <trkpt lat="46.52595" lon="5.66588">
        <ele>506.8</ele>
        <time>2022-06-07T10:01:32Z</time>
      </trkpt>
      <trkpt lat="46.52592" lon="5.66594">
        <ele>507.3</ele>
        <time>2022-06-07T10:01:37Z</time>
      </trkpt>
      <trkpt lat="46.52596" lon="5.666">
        <ele>507.4</ele>
        <time>2022-06-07T10:01:45Z</time>
      </trkpt>
      <trkpt lat="46.52601" lon="5.66599">
        <ele>507.7</ele>
        <time>2022-06-07T10:01:48Z</time>
      </trkpt>
      <trkpt lat="46.52606" lon="5.66598">
        <ele>508.1</ele>
        <time>2022-06-07T10:01:51Z</time>
      </trkpt>
      <trkpt lat="46.52611" lon="5.66597">
        <ele>508.7</ele>
        <time>2022-06-07T10:01:54Z</time>
      </trkpt>
      <trkpt lat="46.52617" lon="5.66597">
        <ele>509.7</ele>
        <time>2022-06-07T10:01:57Z</time>
      </trkpt>
      <trkpt lat="46.52621" lon="5.66597">
        <ele>511.4</ele>
        <time>2022-06-07T10:02:01Z</time>
      </trkpt>
      <trkpt lat="46.52626" lon="5.666">
        <ele>513</ele>
        <time>2022-06-07T10:02:06Z</time>
      </trkpt>
      <trkpt lat="46.52631" lon="5.66603">
        <ele>514</ele>
        <time>2022-06-07T10:02:13Z</time>
      </trkpt>
      <trkpt lat="46.52635" lon="5.66606">
        <ele>515.2</ele>
        <time>2022-06-07T10:02:22Z</time>
      </trkpt>
      <trkpt lat="46.5264" lon="5.66605">
        <ele>516</ele>
        <time>2022-06-07T10:02:26Z</time>
      </trkpt>
      <trkpt lat="46.52645" lon="5.66603">
        <ele>517</ele>
        <time>2022-06-07T10:02:36Z</time>
      </trkpt>
      <trkpt lat="46.5265" lon="5.66606">
        <ele>516.8</ele>
        <time>2022-06-07T10:02:42Z</time>
      </trkpt>
      <trkpt lat="46.52655" lon="5.6661">
        <ele>516.7</ele>
        <time>2022-06-07T10:02:47Z</time>
      </trkpt>
      <trkpt lat="46.52658" lon="5.66615">
        <ele>516.6</ele>
        <time>2022-06-07T10:02:54Z</time>
      </trkpt>
      <trkpt lat="46.52663" lon="5.66613">
        <ele>516.6</ele>
        <time>2022-06-07T10:02:57Z</time>
      </trkpt>
      <trkpt lat="46.52667" lon="5.6661">
        <ele>516.9</ele>
        <time>2022-06-07T10:03:00Z</time>
      </trkpt>
      <trkpt lat="46.52672" lon="5.66613">
        <ele>518.1</ele>
        <time>2022-06-07T10:03:09Z</time>
      </trkpt>
      <trkpt lat="46.52676" lon="5.66616">
        <ele>520.2</ele>
        <time>2022-06-07T10:03:19Z</time>
      </trkpt>
      <trkpt lat="46.52681" lon="5.66617">
        <ele>521.5</ele>
        <time>2022-06-07T10:03:24Z</time>
      </trkpt>
      <trkpt lat="46.52686" lon="5.6662">
        <ele>524.1</ele>
        <time>2022-06-07T10:03:43Z</time>
      </trkpt>
      <trkpt lat="46.5269" lon="5.66619">
        <ele>523.6</ele>
        <time>2022-06-07T10:04:09Z</time>
      </trkpt>
      <trkpt lat="46.5269" lon="5.66625">
        <ele>523.1</ele>
        <time>2022-06-07T10:04:19Z</time>
      </trkpt>
      <trkpt lat="46.52689" lon="5.66632">
        <ele>522.8</ele>
        <time>2022-06-07T10:04:23Z</time>
      </trkpt>
      <trkpt lat="46.52686" lon="5.66639">
        <ele>522.7</ele>
        <time>2022-06-07T10:04:27Z</time>
      </trkpt>
      <trkpt lat="46.52685" lon="5.66646">
        <ele>522</ele>
        <time>2022-06-07T10:04:33Z</time>
      </trkpt>
      <trkpt lat="46.52685" lon="5.66654">
        <ele>521.5</ele>
        <time>2022-06-07T10:04:41Z</time>
      </trkpt>
      <trkpt lat="46.5269" lon="5.66651">
        <ele>524.2</ele>
        <time>2022-06-07T10:05:02Z</time>
      </trkpt>
      <trkpt lat="46.52688" lon="5.66645">
        <ele>524</ele>
        <time>2022-06-07T10:05:09Z</time>
      </trkpt>
      <trkpt lat="46.52688" lon="5.66638">
        <ele>521.5</ele>
        <time>2022-06-07T10:05:21Z</time>
      </trkpt>
      <trkpt lat="46.52685" lon="5.66632">
        <ele>521</ele>
        <time>2022-06-07T10:05:30Z</time>
      </trkpt>
      <trkpt lat="46.52681" lon="5.66628">
        <ele>521.6</ele>
        <time>2022-06-07T10:05:36Z</time>
      </trkpt>
      <trkpt lat="46.52679" lon="5.6662">
        <ele>521.9</ele>
        <time>2022-06-07T10:05:42Z</time>
      </trkpt>
      <trkpt lat="46.5268" lon="5.66614">
        <ele>521.6</ele>
        <time>2022-06-07T10:05:47Z</time>
      </trkpt>
      <trkpt lat="46.52685" lon="5.6661">
        <ele>522.4</ele>
        <time>2022-06-07T10:06:06Z</time>
      </trkpt>
      <trkpt lat="46.52689" lon="5.66606">
        <ele>523.2</ele>
        <time>2022-06-07T10:06:10Z</time>
      </trkpt>
      <trkpt lat="46.52693" lon="5.66601">
        <ele>523.4</ele>
        <time>2022-06-07T10:06:26Z</time>
      </trkpt>
      <trkpt lat="46.52698" lon="5.66598">
        <ele>523.3</ele>
        <time>2022-06-07T10:06:31Z</time>
      </trkpt>
      <trkpt lat="46.52702" lon="5.66598">
        <ele>522.7</ele>
        <time>2022-06-07T10:06:35Z</time>
      </trkpt>
      <trkpt lat="46.52707" lon="5.66598">
        <ele>522.5</ele>
        <time>2022-06-07T10:06:41Z</time>
      </trkpt>
      <trkpt lat="46.52712" lon="5.66597">
        <ele>524.3</ele>
        <time>2022-06-07T10:06:48Z</time>
      </trkpt>
      <trkpt lat="46.52716" lon="5.66599">
        <ele>527.1</ele>
        <time>2022-06-07T10:06:56Z</time>
      </trkpt>
      <trkpt lat="46.52724" lon="5.66601">
        <ele>528.6</ele>
        <time>2022-06-07T10:07:24Z</time>
      </trkpt>
      <trkpt lat="46.52729" lon="5.66599">
        <ele>528.5</ele>
        <time>2022-06-07T10:07:29Z</time>
      </trkpt>
      <trkpt lat="46.52732" lon="5.66594">
        <ele>528.7</ele>
        <time>2022-06-07T10:07:35Z</time>
      </trkpt>
      <trkpt lat="46.52728" lon="5.66592">
        <ele>529.9</ele>
        <time>2022-06-07T10:07:44Z</time>
      </trkpt>
      <trkpt lat="46.52723" lon="5.66593">
        <ele>529.2</ele>
        <time>2022-06-07T10:07:48Z</time>
      </trkpt>
      <trkpt lat="46.52719" lon="5.66595">
        <ele>528.2</ele>
        <time>2022-06-07T10:07:54Z</time>
      </trkpt>
      <trkpt lat="46.5272" lon="5.66589">
        <ele>527</ele>
        <time>2022-06-07T10:08:02Z</time>
      </trkpt>
      <trkpt lat="46.52715" lon="5.66588">
        <ele>526.1</ele>
        <time>2022-06-07T10:08:09Z</time>
      </trkpt>
      <trkpt lat="46.52718" lon="5.66585">
        <ele>527.8</ele>
        <time>2022-06-07T10:08:25Z</time>
      </trkpt>
      <trkpt lat="46.52724" lon="5.66586">
        <ele>528.2</ele>
        <time>2022-06-07T10:08:28Z</time>
      </trkpt>
      <trkpt lat="46.52727" lon="5.66579">
        <ele>531.4</ele>
        <time>2022-06-07T10:08:34Z</time>
      </trkpt>
      <trkpt lat="46.52728" lon="5.66573">
        <ele>534.9</ele>
        <time>2022-06-07T10:08:39Z</time>
      </trkpt>
      <trkpt lat="46.52731" lon="5.66567">
        <ele>539.3</ele>
        <time>2022-06-07T10:08:53Z</time>
      </trkpt>
      <trkpt lat="46.52729" lon="5.66561">
        <ele>541.4</ele>
        <time>2022-06-07T10:09:03Z</time>
      </trkpt>
      <trkpt lat="46.52726" lon="5.66557">
        <ele>544.4</ele>
        <time>2022-06-07T10:09:22Z</time>
      </trkpt>
      <trkpt lat="46.52732" lon="5.66559">
        <ele>546.6</ele>
        <time>2022-06-07T10:11:40Z</time>
      </trkpt>
      <trkpt lat="46.52736" lon="5.66562">
        <ele>547.2</ele>
        <time>2022-06-07T10:11:46Z</time>
      </trkpt>
      <trkpt lat="46.52741" lon="5.66563">
        <ele>546.4</ele>
        <time>2022-06-07T10:12:35Z</time>
      </trkpt>
      <trkpt lat="46.52746" lon="5.66563">
        <ele>545.5</ele>
        <time>2022-06-07T10:12:42Z</time>
      </trkpt>
      <trkpt lat="46.52751" lon="5.66564">
        <ele>545.2</ele>
        <time>2022-06-07T10:12:45Z</time>
      </trkpt>
      <trkpt lat="46.52756" lon="5.66563">
        <ele>544.8</ele>
        <time>2022-06-07T10:12:49Z</time>
      </trkpt>
      <trkpt lat="46.52761" lon="5.66564">
        <ele>544.5</ele>
        <time>2022-06-07T10:12:56Z</time>
      </trkpt>
      <trkpt lat="46.52766" lon="5.66564">
        <ele>545.7</ele>
        <time>2022-06-07T10:13:03Z</time>
      </trkpt>
      <trkpt lat="46.52762" lon="5.66567">
        <ele>546.5</ele>
        <time>2022-06-07T10:13:14Z</time>
      </trkpt>
      <trkpt lat="46.52757" lon="5.66568">
        <ele>545.4</ele>
        <time>2022-06-07T10:13:23Z</time>
      </trkpt>
      <trkpt lat="46.52753" lon="5.66564">
        <ele>544.7</ele>
        <time>2022-06-07T10:13:29Z</time>
      </trkpt>
      <trkpt lat="46.52749" lon="5.66567">
        <ele>544.4</ele>
        <time>2022-06-07T10:13:38Z</time>
      </trkpt>
      <trkpt lat="46.52745" lon="5.66572">
        <ele>545</ele>
        <time>2022-06-07T10:13:45Z</time>
      </trkpt>
      <trkpt lat="46.52741" lon="5.66578">
        <ele>545.9</ele>
        <time>2022-06-07T10:13:50Z</time>
      </trkpt>
      <trkpt lat="46.52737" lon="5.66581">
        <ele>548</ele>
        <time>2022-06-07T10:14:19Z</time>
      </trkpt>
      <trkpt lat="46.52738" lon="5.66573">
        <ele>547.1</ele>
        <time>2022-06-07T10:14:28Z</time>
      </trkpt>
      <trkpt lat="46.52743" lon="5.66573">
        <ele>548.6</ele>
        <time>2022-06-07T10:14:56Z</time>
      </trkpt>
      <trkpt lat="46.52741" lon="5.66584">
        <ele>535.8</ele>
        <time>2022-06-07T10:36:19Z</time>
      </trkpt>
      <trkpt lat="46.52745" lon="5.66578">
        <ele>531</ele>
        <time>2022-06-07T10:36:33Z</time>
      </trkpt>
      <trkpt lat="46.52744" lon="5.66579">
        <ele>543.6</ele>
        <time>2022-06-07T10:39:48Z</time>
      </trkpt>
      <trkpt lat="46.52752" lon="5.66562">
        <ele>520.9</ele>
        <time>2022-06-07T10:49:16Z</time>
      </trkpt>
      <trkpt lat="46.52747" lon="5.66572">
        <ele>527.8</ele>
        <time>2022-06-07T10:49:19Z</time>
      </trkpt>
      <trkpt lat="46.52743" lon="5.66576">
        <ele>543.6</ele>
        <time>2022-06-07T10:57:20Z</time>
      </trkpt>
      <trkpt lat="46.52739" lon="5.66579">
        <ele>544.4</ele>
        <time>2022-06-07T10:57:27Z</time>
      </trkpt>
      <trkpt lat="46.52743" lon="5.66575">
        <ele>545.6</ele>
        <time>2022-06-07T10:57:36Z</time>
      </trkpt>
      <trkpt lat="46.52744" lon="5.66568">
        <ele>544.9</ele>
        <time>2022-06-07T10:57:55Z</time>
      </trkpt>
      <trkpt lat="46.52744" lon="5.66561">
        <ele>543.6</ele>
        <time>2022-06-07T10:58:37Z</time>
      </trkpt>
      <trkpt lat="46.52749" lon="5.6656">
        <ele>544.9</ele>
        <time>2022-06-07T10:58:59Z</time>
      </trkpt>
      <trkpt lat="46.52754" lon="5.66557">
        <ele>546</ele>
        <time>2022-06-07T10:59:08Z</time>
      </trkpt>
      <trkpt lat="46.52757" lon="5.66552">
        <ele>543.1</ele>
        <time>2022-06-07T10:59:39Z</time>
      </trkpt>
      <trkpt lat="46.52762" lon="5.6655">
        <ele>542.5</ele>
        <time>2022-06-07T10:59:45Z</time>
      </trkpt>
      <trkpt lat="46.52765" lon="5.66545">
        <ele>542.4</ele>
        <time>2022-06-07T10:59:53Z</time>
      </trkpt>
      <trkpt lat="46.52767" lon="5.66539">
        <ele>543.2</ele>
        <time>2022-06-07T11:00:00Z</time>
      </trkpt>
      <trkpt lat="46.52767" lon="5.66532">
        <ele>543.9</ele>
        <time>2022-06-07T11:00:08Z</time>
      </trkpt>
      <trkpt lat="46.52767" lon="5.66525">
        <ele>544.8</ele>
        <time>2022-06-07T11:00:18Z</time>
      </trkpt>
      <trkpt lat="46.52763" lon="5.66523">
        <ele>546</ele>
        <time>2022-06-07T11:00:41Z</time>
      </trkpt>
      <trkpt lat="46.52758" lon="5.66526">
        <ele>547.2</ele>
        <time>2022-06-07T11:00:48Z</time>
      </trkpt>
      <trkpt lat="46.52756" lon="5.66532">
        <ele>549</ele>
        <time>2022-06-07T11:00:53Z</time>
      </trkpt>
      <trkpt lat="46.52755" lon="5.66542">
        <ele>552.5</ele>
        <time>2022-06-07T11:01:19Z</time>
      </trkpt>
      <trkpt lat="46.52759" lon="5.66536">
        <ele>552.3</ele>
        <time>2022-06-07T11:01:27Z</time>
      </trkpt>
      <trkpt lat="46.52763" lon="5.66531">
        <ele>551.7</ele>
        <time>2022-06-07T11:01:32Z</time>
      </trkpt>
      <trkpt lat="46.52768" lon="5.66526">
        <ele>550.5</ele>
        <time>2022-06-07T11:01:36Z</time>
      </trkpt>
      <trkpt lat="46.52773" lon="5.66525">
        <ele>549.5</ele>
        <time>2022-06-07T11:01:40Z</time>
      </trkpt>
      <trkpt lat="46.5277" lon="5.6652">
        <ele>547.4</ele>
        <time>2022-06-07T11:01:50Z</time>
      </trkpt>
      <trkpt lat="46.52772" lon="5.66526">
        <ele>547.3</ele>
        <time>2022-06-07T11:02:09Z</time>
      </trkpt>
      <trkpt lat="46.52772" lon="5.66533">
        <ele>550</ele>
        <time>2022-06-07T11:03:01Z</time>
      </trkpt>
      <trkpt lat="46.5277" lon="5.6654">
        <ele>550.6</ele>
        <time>2022-06-07T11:03:06Z</time>
      </trkpt>
      <trkpt lat="46.5277" lon="5.66547">
        <ele>551.1</ele>
        <time>2022-06-07T11:03:11Z</time>
      </trkpt>
      <trkpt lat="46.52773" lon="5.66553">
        <ele>551.3</ele>
        <time>2022-06-07T11:03:18Z</time>
      </trkpt>
      <trkpt lat="46.52768" lon="5.66553">
        <ele>552</ele>
        <time>2022-06-07T11:05:08Z</time>
      </trkpt>
      <trkpt lat="46.52764" lon="5.66558">
        <ele>552.8</ele>
        <time>2022-06-07T11:05:11Z</time>
      </trkpt>
      <trkpt lat="46.52768" lon="5.66553">
        <ele>548.2</ele>
        <time>2022-06-07T11:10:12Z</time>
      </trkpt>
      <trkpt lat="46.52772" lon="5.66558">
        <ele>548</ele>
        <time>2022-06-07T11:10:28Z</time>
      </trkpt>
      <trkpt lat="46.52777" lon="5.66557">
        <ele>549.6</ele>
        <time>2022-06-07T11:12:10Z</time>
      </trkpt>
      <trkpt lat="46.52781" lon="5.66558">
        <ele>549.8</ele>
        <time>2022-06-07T11:12:16Z</time>
      </trkpt>
      <trkpt lat="46.52786" lon="5.66558">
        <ele>549.8</ele>
        <time>2022-06-07T11:12:21Z</time>
      </trkpt>
      <trkpt lat="46.52792" lon="5.66559">
        <ele>550.3</ele>
        <time>2022-06-07T11:12:28Z</time>
      </trkpt>
      <trkpt lat="46.52797" lon="5.66559">
        <ele>550.8</ele>
        <time>2022-06-07T11:12:34Z</time>
      </trkpt>
      <trkpt lat="46.52802" lon="5.6656">
        <ele>550.9</ele>
        <time>2022-06-07T11:12:38Z</time>
      </trkpt>
      <trkpt lat="46.52806" lon="5.66561">
        <ele>551</ele>
        <time>2022-06-07T11:12:42Z</time>
      </trkpt>
      <trkpt lat="46.52811" lon="5.6656">
        <ele>551.3</ele>
        <time>2022-06-07T11:12:48Z</time>
      </trkpt>
      <trkpt lat="46.52816" lon="5.66561">
        <ele>551.1</ele>
        <time>2022-06-07T11:12:53Z</time>
      </trkpt>
      <trkpt lat="46.5282" lon="5.66564">
        <ele>551.1</ele>
        <time>2022-06-07T11:12:59Z</time>
      </trkpt>
      <trkpt lat="46.52825" lon="5.66566">
        <ele>551.2</ele>
        <time>2022-06-07T11:13:06Z</time>
      </trkpt>
      <trkpt lat="46.5283" lon="5.66569">
        <ele>550.8</ele>
        <time>2022-06-07T11:13:10Z</time>
      </trkpt>
      <trkpt lat="46.52836" lon="5.66569">
        <ele>550.2</ele>
        <time>2022-06-07T11:13:14Z</time>
      </trkpt>
      <trkpt lat="46.52841" lon="5.6657">
        <ele>549.3</ele>
        <time>2022-06-07T11:13:19Z</time>
      </trkpt>
      <trkpt lat="46.52846" lon="5.66571">
        <ele>548</ele>
        <time>2022-06-07T11:13:25Z</time>
      </trkpt>
      <trkpt lat="46.52851" lon="5.6657">
        <ele>547.1</ele>
        <time>2022-06-07T11:13:29Z</time>
      </trkpt>
      <trkpt lat="46.52856" lon="5.66568">
        <ele>546.3</ele>
        <time>2022-06-07T11:13:33Z</time>
      </trkpt>
      <trkpt lat="46.5286" lon="5.66566">
        <ele>545.2</ele>
        <time>2022-06-07T11:13:38Z</time>
      </trkpt>
      <trkpt lat="46.52865" lon="5.66562">
        <ele>544.1</ele>
        <time>2022-06-07T11:13:43Z</time>
      </trkpt>
      <trkpt lat="46.52869" lon="5.66558">
        <ele>543</ele>
        <time>2022-06-07T11:13:49Z</time>
      </trkpt>
      <trkpt lat="46.52873" lon="5.66556">
        <ele>542.1</ele>
        <time>2022-06-07T11:13:54Z</time>
      </trkpt>
      <trkpt lat="46.52878" lon="5.66553">
        <ele>540.7</ele>
        <time>2022-06-07T11:14:01Z</time>
      </trkpt>
      <trkpt lat="46.52882" lon="5.66552">
        <ele>539.9</ele>
        <time>2022-06-07T11:14:06Z</time>
      </trkpt>
      <trkpt lat="46.52888" lon="5.66551">
        <ele>539.4</ele>
        <time>2022-06-07T11:14:12Z</time>
      </trkpt>
      <trkpt lat="46.52893" lon="5.66553">
        <ele>539.1</ele>
        <time>2022-06-07T11:14:19Z</time>
      </trkpt>
      <trkpt lat="46.52898" lon="5.66553">
        <ele>538.9</ele>
        <time>2022-06-07T11:14:25Z</time>
      </trkpt>
      <trkpt lat="46.52902" lon="5.66552">
        <ele>539</ele>
        <time>2022-06-07T11:14:30Z</time>
      </trkpt>
      <trkpt lat="46.52907" lon="5.66552">
        <ele>538.4</ele>
        <time>2022-06-07T11:14:35Z</time>
      </trkpt>
      <trkpt lat="46.52912" lon="5.6655">
        <ele>538.1</ele>
        <time>2022-06-07T11:14:41Z</time>
      </trkpt>
      <trkpt lat="46.52916" lon="5.66549">
        <ele>538.1</ele>
        <time>2022-06-07T11:14:48Z</time>
      </trkpt>
      <trkpt lat="46.52921" lon="5.66548">
        <ele>537.6</ele>
        <time>2022-06-07T11:14:54Z</time>
      </trkpt>
      <trkpt lat="46.52926" lon="5.66546">
        <ele>537.8</ele>
        <time>2022-06-07T11:14:58Z</time>
      </trkpt>
      <trkpt lat="46.52931" lon="5.66544">
        <ele>537.7</ele>
        <time>2022-06-07T11:15:03Z</time>
      </trkpt>
      <trkpt lat="46.52936" lon="5.66542">
        <ele>537.7</ele>
        <time>2022-06-07T11:15:07Z</time>
      </trkpt>
      <trkpt lat="46.52941" lon="5.66541">
        <ele>538</ele>
        <time>2022-06-07T11:15:12Z</time>
      </trkpt>
      <trkpt lat="46.52946" lon="5.66539">
        <ele>538.5</ele>
        <time>2022-06-07T11:15:16Z</time>
      </trkpt>
      <trkpt lat="46.52951" lon="5.66537">
        <ele>539.8</ele>
        <time>2022-06-07T11:15:20Z</time>
      </trkpt>
      <trkpt lat="46.52956" lon="5.66536">
        <ele>541.3</ele>
        <time>2022-06-07T11:15:27Z</time>
      </trkpt>
      <trkpt lat="46.52961" lon="5.66535">
        <ele>541.8</ele>
        <time>2022-06-07T11:15:31Z</time>
      </trkpt>
      <trkpt lat="46.52966" lon="5.66536">
        <ele>542.2</ele>
        <time>2022-06-07T11:15:36Z</time>
      </trkpt>
      <trkpt lat="46.5297" lon="5.66538">
        <ele>542.5</ele>
        <time>2022-06-07T11:15:40Z</time>
      </trkpt>
      <trkpt lat="46.52975" lon="5.66537">
        <ele>542.8</ele>
        <time>2022-06-07T11:15:45Z</time>
      </trkpt>
      <trkpt lat="46.5298" lon="5.66539">
        <ele>543.3</ele>
        <time>2022-06-07T11:15:52Z</time>
      </trkpt>
      <trkpt lat="46.52984" lon="5.66543">
        <ele>543.6</ele>
        <time>2022-06-07T11:15:57Z</time>
      </trkpt>
      <trkpt lat="46.52989" lon="5.66545">
        <ele>543.9</ele>
        <time>2022-06-07T11:16:01Z</time>
      </trkpt>
      <trkpt lat="46.52994" lon="5.66547">
        <ele>544</ele>
        <time>2022-06-07T11:16:05Z</time>
      </trkpt>
      <trkpt lat="46.52999" lon="5.66547">
        <ele>544.1</ele>
        <time>2022-06-07T11:16:09Z</time>
      </trkpt>
      <trkpt lat="46.53003" lon="5.66549">
        <ele>544.2</ele>
        <time>2022-06-07T11:16:13Z</time>
      </trkpt>
      <trkpt lat="46.53009" lon="5.6655">
        <ele>544.2</ele>
        <time>2022-06-07T11:16:18Z</time>
      </trkpt>
      <trkpt lat="46.53014" lon="5.6655">
        <ele>544.3</ele>
        <time>2022-06-07T11:16:22Z</time>
      </trkpt>
      <trkpt lat="46.53019" lon="5.66552">
        <ele>545.1</ele>
        <time>2022-06-07T11:16:27Z</time>
      </trkpt>
      <trkpt lat="46.53024" lon="5.66554">
        <ele>546.5</ele>
        <time>2022-06-07T11:16:32Z</time>
      </trkpt>
      <trkpt lat="46.53029" lon="5.66554">
        <ele>547.3</ele>
        <time>2022-06-07T11:16:36Z</time>
      </trkpt>
      <trkpt lat="46.53034" lon="5.66552">
        <ele>547.8</ele>
        <time>2022-06-07T11:16:42Z</time>
      </trkpt>
      <trkpt lat="46.53038" lon="5.66549">
        <ele>547.5</ele>
        <time>2022-06-07T11:16:46Z</time>
      </trkpt>
      <trkpt lat="46.53042" lon="5.66545">
        <ele>547.1</ele>
        <time>2022-06-07T11:16:50Z</time>
      </trkpt>
      <trkpt lat="46.53046" lon="5.66541">
        <ele>546.5</ele>
        <time>2022-06-07T11:16:54Z</time>
      </trkpt>
      <trkpt lat="46.5305" lon="5.66536">
        <ele>546.6</ele>
        <time>2022-06-07T11:16:59Z</time>
      </trkpt>
      <trkpt lat="46.53053" lon="5.6653">
        <ele>547.7</ele>
        <time>2022-06-07T11:17:04Z</time>
      </trkpt>
      <trkpt lat="46.53055" lon="5.66524">
        <ele>548.5</ele>
        <time>2022-06-07T11:17:08Z</time>
      </trkpt>
      <trkpt lat="46.53055" lon="5.66517">
        <ele>548.7</ele>
        <time>2022-06-07T11:17:13Z</time>
      </trkpt>
      <trkpt lat="46.53055" lon="5.6651">
        <ele>548.7</ele>
        <time>2022-06-07T11:17:19Z</time>
      </trkpt>
      <trkpt lat="46.53058" lon="5.66502">
        <ele>548.2</ele>
        <time>2022-06-07T11:17:25Z</time>
      </trkpt>
      <trkpt lat="46.53061" lon="5.66494">
        <ele>547.4</ele>
        <time>2022-06-07T11:17:28Z</time>
      </trkpt>
      <trkpt lat="46.53063" lon="5.66488">
        <ele>546.7</ele>
        <time>2022-06-07T11:17:31Z</time>
      </trkpt>
      <trkpt lat="46.53066" lon="5.66481">
        <ele>545.9</ele>
        <time>2022-06-07T11:17:35Z</time>
      </trkpt>
      <trkpt lat="46.5307" lon="5.66477">
        <ele>545.2</ele>
        <time>2022-06-07T11:17:39Z</time>
      </trkpt>
      <trkpt lat="46.53074" lon="5.66473">
        <ele>544.6</ele>
        <time>2022-06-07T11:17:44Z</time>
      </trkpt>
      <trkpt lat="46.53078" lon="5.66469">
        <ele>544.3</ele>
        <time>2022-06-07T11:17:50Z</time>
      </trkpt>
      <trkpt lat="46.53083" lon="5.6647">
        <ele>544.3</ele>
        <time>2022-06-07T11:17:55Z</time>
      </trkpt>
      <trkpt lat="46.53088" lon="5.66469">
        <ele>544.4</ele>
        <time>2022-06-07T11:18:00Z</time>
      </trkpt>
      <trkpt lat="46.53093" lon="5.66467">
        <ele>544.6</ele>
        <time>2022-06-07T11:18:04Z</time>
      </trkpt>
      <trkpt lat="46.53098" lon="5.66467">
        <ele>544.3</ele>
        <time>2022-06-07T11:18:09Z</time>
      </trkpt>
      <trkpt lat="46.53103" lon="5.66466">
        <ele>543.8</ele>
        <time>2022-06-07T11:18:14Z</time>
      </trkpt>
      <trkpt lat="46.53108" lon="5.66466">
        <ele>543.5</ele>
        <time>2022-06-07T11:18:18Z</time>
      </trkpt>
      <trkpt lat="46.53113" lon="5.66466">
        <ele>542.8</ele>
        <time>2022-06-07T11:18:23Z</time>
      </trkpt>
      <trkpt lat="46.53118" lon="5.66467">
        <ele>542.3</ele>
        <time>2022-06-07T11:18:27Z</time>
      </trkpt>
      <trkpt lat="46.53123" lon="5.66468">
        <ele>542.2</ele>
        <time>2022-06-07T11:18:32Z</time>
      </trkpt>
      <trkpt lat="46.53128" lon="5.66471">
        <ele>542</ele>
        <time>2022-06-07T11:18:37Z</time>
      </trkpt>
      <trkpt lat="46.53133" lon="5.6647">
        <ele>541.7</ele>
        <time>2022-06-07T11:18:41Z</time>
      </trkpt>
      <trkpt lat="46.53137" lon="5.66467">
        <ele>541.4</ele>
        <time>2022-06-07T11:18:46Z</time>
      </trkpt>
      <trkpt lat="46.53141" lon="5.66464">
        <ele>540.9</ele>
        <time>2022-06-07T11:18:52Z</time>
      </trkpt>
      <trkpt lat="46.53145" lon="5.66462">
        <ele>540.4</ele>
        <time>2022-06-07T11:18:57Z</time>
      </trkpt>
      <trkpt lat="46.5315" lon="5.66458">
        <ele>540</ele>
        <time>2022-06-07T11:19:00Z</time>
      </trkpt>
      <trkpt lat="46.53153" lon="5.66453">
        <ele>539.4</ele>
        <time>2022-06-07T11:19:03Z</time>
      </trkpt>
      <trkpt lat="46.53156" lon="5.66448">
        <ele>538.6</ele>
        <time>2022-06-07T11:19:07Z</time>
      </trkpt>
      <trkpt lat="46.53161" lon="5.66444">
        <ele>537.3</ele>
        <time>2022-06-07T11:19:13Z</time>
      </trkpt>
      <trkpt lat="46.53166" lon="5.66442">
        <ele>536.5</ele>
        <time>2022-06-07T11:19:18Z</time>
      </trkpt>
      <trkpt lat="46.5317" lon="5.66443">
        <ele>535.8</ele>
        <time>2022-06-07T11:19:22Z</time>
      </trkpt>
      <trkpt lat="46.53176" lon="5.66442">
        <ele>535.2</ele>
        <time>2022-06-07T11:19:26Z</time>
      </trkpt>
      <trkpt lat="46.5318" lon="5.6644">
        <ele>534.6</ele>
        <time>2022-06-07T11:19:30Z</time>
      </trkpt>
      <trkpt lat="46.53184" lon="5.66436">
        <ele>533.7</ele>
        <time>2022-06-07T11:19:35Z</time>
      </trkpt>
      <trkpt lat="46.53187" lon="5.66431">
        <ele>532.1</ele>
        <time>2022-06-07T11:19:42Z</time>
      </trkpt>
      <trkpt lat="46.53192" lon="5.66429">
        <ele>531.1</ele>
        <time>2022-06-07T11:19:47Z</time>
      </trkpt>
      <trkpt lat="46.53197" lon="5.66428">
        <ele>530.4</ele>
        <time>2022-06-07T11:19:51Z</time>
      </trkpt>
      <trkpt lat="46.53201" lon="5.66424">
        <ele>529.6</ele>
        <time>2022-06-07T11:19:55Z</time>
      </trkpt>
      <trkpt lat="46.53205" lon="5.66426">
        <ele>528.1</ele>
        <time>2022-06-07T11:20:06Z</time>
      </trkpt>
      <trkpt lat="46.53208" lon="5.66431">
        <ele>527.4</ele>
        <time>2022-06-07T11:20:12Z</time>
      </trkpt>
      <trkpt lat="46.53211" lon="5.66437">
        <ele>527.1</ele>
        <time>2022-06-07T11:20:18Z</time>
      </trkpt>
      <trkpt lat="46.53216" lon="5.6644">
        <ele>526.9</ele>
        <time>2022-06-07T11:20:24Z</time>
      </trkpt>
      <trkpt lat="46.53221" lon="5.66435">
        <ele>526.9</ele>
        <time>2022-06-07T11:20:30Z</time>
      </trkpt>
      <trkpt lat="46.53225" lon="5.66431">
        <ele>527.1</ele>
        <time>2022-06-07T11:20:34Z</time>
      </trkpt>
      <trkpt lat="46.53229" lon="5.66434">
        <ele>527.6</ele>
        <time>2022-06-07T11:20:38Z</time>
      </trkpt>
      <trkpt lat="46.53234" lon="5.66437">
        <ele>528.1</ele>
        <time>2022-06-07T11:20:42Z</time>
      </trkpt>
      <trkpt lat="46.53239" lon="5.6644">
        <ele>528.7</ele>
        <time>2022-06-07T11:20:46Z</time>
      </trkpt>
      <trkpt lat="46.53243" lon="5.66444">
        <ele>529.4</ele>
        <time>2022-06-07T11:20:52Z</time>
      </trkpt>
      <trkpt lat="46.53247" lon="5.66447">
        <ele>530</ele>
        <time>2022-06-07T11:20:58Z</time>
      </trkpt>
      <trkpt lat="46.53252" lon="5.6645">
        <ele>531.1</ele>
        <time>2022-06-07T11:21:04Z</time>
      </trkpt>
      <trkpt lat="46.53256" lon="5.66452">
        <ele>532.7</ele>
        <time>2022-06-07T11:21:10Z</time>
      </trkpt>
      <trkpt lat="46.53261" lon="5.66456">
        <ele>534.6</ele>
        <time>2022-06-07T11:21:16Z</time>
      </trkpt>
      <trkpt lat="46.53265" lon="5.6646">
        <ele>537</ele>
        <time>2022-06-07T11:21:23Z</time>
      </trkpt>
      <trkpt lat="46.5327" lon="5.6646">
        <ele>539</ele>
        <time>2022-06-07T11:21:28Z</time>
      </trkpt>
      <trkpt lat="46.53274" lon="5.66464">
        <ele>541.3</ele>
        <time>2022-06-07T11:21:33Z</time>
      </trkpt>
      <trkpt lat="46.53277" lon="5.6647">
        <ele>544.2</ele>
        <time>2022-06-07T11:21:39Z</time>
      </trkpt>
      <trkpt lat="46.53282" lon="5.66474">
        <ele>547.1</ele>
        <time>2022-06-07T11:21:46Z</time>
      </trkpt>
      <trkpt lat="46.53286" lon="5.66476">
        <ele>549.1</ele>
        <time>2022-06-07T11:21:52Z</time>
      </trkpt>
      <trkpt lat="46.53291" lon="5.66479">
        <ele>551.8</ele>
        <time>2022-06-07T11:22:01Z</time>
      </trkpt>
      <trkpt lat="46.53295" lon="5.66483">
        <ele>553.1</ele>
        <time>2022-06-07T11:22:06Z</time>
      </trkpt>
      <trkpt lat="46.53299" lon="5.66488">
        <ele>554.4</ele>
        <time>2022-06-07T11:22:11Z</time>
      </trkpt>
      <trkpt lat="46.53302" lon="5.66493">
        <ele>555.8</ele>
        <time>2022-06-07T11:22:17Z</time>
      </trkpt>
      <trkpt lat="46.53305" lon="5.665">
        <ele>557.5</ele>
        <time>2022-06-07T11:22:24Z</time>
      </trkpt>
      <trkpt lat="46.53308" lon="5.66506">
        <ele>559.1</ele>
        <time>2022-06-07T11:22:30Z</time>
      </trkpt>
      <trkpt lat="46.53311" lon="5.66512">
        <ele>560.4</ele>
        <time>2022-06-07T11:22:36Z</time>
      </trkpt>
      <trkpt lat="46.53314" lon="5.66518">
        <ele>561.6</ele>
        <time>2022-06-07T11:22:42Z</time>
      </trkpt>
      <trkpt lat="46.53317" lon="5.66524">
        <ele>562.6</ele>
        <time>2022-06-07T11:22:47Z</time>
      </trkpt>
      <trkpt lat="46.5332" lon="5.66529">
        <ele>563.4</ele>
        <time>2022-06-07T11:22:52Z</time>
      </trkpt>
      <trkpt lat="46.53323" lon="5.66535">
        <ele>564.1</ele>
        <time>2022-06-07T11:22:57Z</time>
      </trkpt>
      <trkpt lat="46.53325" lon="5.66542">
        <ele>564.7</ele>
        <time>2022-06-07T11:23:31Z</time>
      </trkpt>
      <trkpt lat="46.5333" lon="5.66543">
        <ele>564.2</ele>
        <time>2022-06-07T11:23:37Z</time>
      </trkpt>
      <trkpt lat="46.53335" lon="5.66541">
        <ele>563.3</ele>
        <time>2022-06-07T11:23:42Z</time>
      </trkpt>
      <trkpt lat="46.5334" lon="5.66539">
        <ele>562</ele>
        <time>2022-06-07T11:23:47Z</time>
      </trkpt>
      <trkpt lat="46.53345" lon="5.66537">
        <ele>560.7</ele>
        <time>2022-06-07T11:23:51Z</time>
      </trkpt>
      <trkpt lat="46.5335" lon="5.66537">
        <ele>559.1</ele>
        <time>2022-06-07T11:23:56Z</time>
      </trkpt>
      <trkpt lat="46.53355" lon="5.66535">
        <ele>557.8</ele>
        <time>2022-06-07T11:24:01Z</time>
      </trkpt>
      <trkpt lat="46.53359" lon="5.66532">
        <ele>556.5</ele>
        <time>2022-06-07T11:24:05Z</time>
      </trkpt>
      <trkpt lat="46.53363" lon="5.66528">
        <ele>555.3</ele>
        <time>2022-06-07T11:24:09Z</time>
      </trkpt>
      <trkpt lat="46.53368" lon="5.66523">
        <ele>554.1</ele>
        <time>2022-06-07T11:24:14Z</time>
      </trkpt>
      <trkpt lat="46.53371" lon="5.66518">
        <ele>553.3</ele>
        <time>2022-06-07T11:24:18Z</time>
      </trkpt>
      <trkpt lat="46.53375" lon="5.66512">
        <ele>552.5</ele>
        <time>2022-06-07T11:24:23Z</time>
      </trkpt>
      <trkpt lat="46.53379" lon="5.66507">
        <ele>552</ele>
        <time>2022-06-07T11:24:28Z</time>
      </trkpt>
      <trkpt lat="46.53383" lon="5.66503">
        <ele>552</ele>
        <time>2022-06-07T11:24:34Z</time>
      </trkpt>
      <trkpt lat="46.53386" lon="5.66497">
        <ele>552.6</ele>
        <time>2022-06-07T11:24:39Z</time>
      </trkpt>
      <trkpt lat="46.53389" lon="5.66491">
        <ele>553.4</ele>
        <time>2022-06-07T11:24:43Z</time>
      </trkpt>
      <trkpt lat="46.53393" lon="5.66486">
        <ele>554.1</ele>
        <time>2022-06-07T11:24:47Z</time>
      </trkpt>
      <trkpt lat="46.53396" lon="5.66481">
        <ele>555</ele>
        <time>2022-06-07T11:24:54Z</time>
      </trkpt>
      <trkpt lat="46.534" lon="5.66477">
        <ele>555.4</ele>
        <time>2022-06-07T11:25:00Z</time>
      </trkpt>
      <trkpt lat="46.53404" lon="5.66473">
        <ele>556</ele>
        <time>2022-06-07T11:25:06Z</time>
      </trkpt>
      <trkpt lat="46.53409" lon="5.66472">
        <ele>556.8</ele>
        <time>2022-06-07T11:25:11Z</time>
      </trkpt>
      <trkpt lat="46.53414" lon="5.66473">
        <ele>557.6</ele>
        <time>2022-06-07T11:25:16Z</time>
      </trkpt>
      <trkpt lat="46.5342" lon="5.66474">
        <ele>558.4</ele>
        <time>2022-06-07T11:25:21Z</time>
      </trkpt>
      <trkpt lat="46.53424" lon="5.6647">
        <ele>559.3</ele>
        <time>2022-06-07T11:25:28Z</time>
      </trkpt>
      <trkpt lat="46.53426" lon="5.66464">
        <ele>560.1</ele>
        <time>2022-06-07T11:25:34Z</time>
      </trkpt>
      <trkpt lat="46.5343" lon="5.66461">
        <ele>560</ele>
        <time>2022-06-07T11:25:39Z</time>
      </trkpt>
      <trkpt lat="46.53435" lon="5.66458">
        <ele>559.5</ele>
        <time>2022-06-07T11:25:42Z</time>
      </trkpt>
      <trkpt lat="46.5344" lon="5.66456">
        <ele>558.9</ele>
        <time>2022-06-07T11:25:46Z</time>
      </trkpt>
      <trkpt lat="46.53445" lon="5.66453">
        <ele>558.3</ele>
        <time>2022-06-07T11:25:50Z</time>
      </trkpt>
      <trkpt lat="46.5345" lon="5.66452">
        <ele>558.5</ele>
        <time>2022-06-07T11:25:54Z</time>
      </trkpt>
      <trkpt lat="46.53455" lon="5.66452">
        <ele>559.8</ele>
        <time>2022-06-07T11:25:58Z</time>
      </trkpt>
      <trkpt lat="46.53459" lon="5.66449">
        <ele>562.1</ele>
        <time>2022-06-07T11:26:03Z</time>
      </trkpt>
      <trkpt lat="46.53463" lon="5.66446">
        <ele>563.9</ele>
        <time>2022-06-07T11:26:07Z</time>
      </trkpt>
      <trkpt lat="46.53466" lon="5.66441">
        <ele>565.8</ele>
        <time>2022-06-07T11:26:12Z</time>
      </trkpt>
      <trkpt lat="46.53471" lon="5.66442">
        <ele>568.3</ele>
        <time>2022-06-07T11:26:24Z</time>
      </trkpt>
      <trkpt lat="46.53476" lon="5.66439">
        <ele>568.5</ele>
        <time>2022-06-07T11:26:37Z</time>
      </trkpt>
      <trkpt lat="46.53479" lon="5.66434">
        <ele>569</ele>
        <time>2022-06-07T11:26:42Z</time>
      </trkpt>
      <trkpt lat="46.53482" lon="5.66428">
        <ele>569</ele>
        <time>2022-06-07T11:26:48Z</time>
      </trkpt>
      <trkpt lat="46.53484" lon="5.66421">
        <ele>568.2</ele>
        <time>2022-06-07T11:26:53Z</time>
      </trkpt>
      <trkpt lat="46.53488" lon="5.66416">
        <ele>566.8</ele>
        <time>2022-06-07T11:26:59Z</time>
      </trkpt>
      <trkpt lat="46.53492" lon="5.66413">
        <ele>565.6</ele>
        <time>2022-06-07T11:27:04Z</time>
      </trkpt>
      <trkpt lat="46.53498" lon="5.66412">
        <ele>565.1</ele>
        <time>2022-06-07T11:27:08Z</time>
      </trkpt>
      <trkpt lat="46.53503" lon="5.66411">
        <ele>564.9</ele>
        <time>2022-06-07T11:27:12Z</time>
      </trkpt>
      <trkpt lat="46.53508" lon="5.66409">
        <ele>565.8</ele>
        <time>2022-06-07T11:27:17Z</time>
      </trkpt>
      <trkpt lat="46.5351" lon="5.66403">
        <ele>567.5</ele>
        <time>2022-06-07T11:27:21Z</time>
      </trkpt>
      <trkpt lat="46.53509" lon="5.66396">
        <ele>570.2</ele>
        <time>2022-06-07T11:27:27Z</time>
      </trkpt>
      <trkpt lat="46.53508" lon="5.6639">
        <ele>576.7</ele>
        <time>2022-06-07T11:27:53Z</time>
      </trkpt>
      <trkpt lat="46.5351" lon="5.66383">
        <ele>578.1</ele>
        <time>2022-06-07T11:27:58Z</time>
      </trkpt>
      <trkpt lat="46.53514" lon="5.66378">
        <ele>578.8</ele>
        <time>2022-06-07T11:28:03Z</time>
      </trkpt>
      <trkpt lat="46.53517" lon="5.66373">
        <ele>578.9</ele>
        <time>2022-06-07T11:28:07Z</time>
      </trkpt>
      <trkpt lat="46.53519" lon="5.66366">
        <ele>578.6</ele>
        <time>2022-06-07T11:28:12Z</time>
      </trkpt>
      <trkpt lat="46.53521" lon="5.6636">
        <ele>578.4</ele>
        <time>2022-06-07T11:28:21Z</time>
      </trkpt>
      <trkpt lat="46.53524" lon="5.66354">
        <ele>578.5</ele>
        <time>2022-06-07T11:28:26Z</time>
      </trkpt>
      <trkpt lat="46.53528" lon="5.66349">
        <ele>579</ele>
        <time>2022-06-07T11:28:31Z</time>
      </trkpt>
      <trkpt lat="46.53533" lon="5.66346">
        <ele>579.3</ele>
        <time>2022-06-07T11:28:36Z</time>
      </trkpt>
      <trkpt lat="46.53536" lon="5.66339">
        <ele>579.2</ele>
        <time>2022-06-07T11:28:40Z</time>
      </trkpt>
      <trkpt lat="46.5354" lon="5.66334">
        <ele>578.3</ele>
        <time>2022-06-07T11:28:45Z</time>
      </trkpt>
      <trkpt lat="46.53543" lon="5.66329">
        <ele>577.4</ele>
        <time>2022-06-07T11:28:50Z</time>
      </trkpt>
      <trkpt lat="46.53546" lon="5.66324">
        <ele>577</ele>
        <time>2022-06-07T11:28:54Z</time>
      </trkpt>
      <trkpt lat="46.5355" lon="5.66318">
        <ele>576.7</ele>
        <time>2022-06-07T11:28:59Z</time>
      </trkpt>
      <trkpt lat="46.53552" lon="5.66311">
        <ele>576.6</ele>
        <time>2022-06-07T11:29:07Z</time>
      </trkpt>
      <trkpt lat="46.53553" lon="5.66305">
        <ele>576.9</ele>
        <time>2022-06-07T11:29:15Z</time>
      </trkpt>
      <trkpt lat="46.53552" lon="5.66298">
        <ele>577</ele>
        <time>2022-06-07T11:29:20Z</time>
      </trkpt>
      <trkpt lat="46.53551" lon="5.66291">
        <ele>576.5</ele>
        <time>2022-06-07T11:29:25Z</time>
      </trkpt>
      <trkpt lat="46.53547" lon="5.66285">
        <ele>575.6</ele>
        <time>2022-06-07T11:29:31Z</time>
      </trkpt>
      <trkpt lat="46.53542" lon="5.6628">
        <ele>574.6</ele>
        <time>2022-06-07T11:29:37Z</time>
      </trkpt>
      <trkpt lat="46.53538" lon="5.66277">
        <ele>573.7</ele>
        <time>2022-06-07T11:29:43Z</time>
      </trkpt>
      <trkpt lat="46.53534" lon="5.6628">
        <ele>572.7</ele>
        <time>2022-06-07T11:29:51Z</time>
      </trkpt>
      <trkpt lat="46.53537" lon="5.66286">
        <ele>569.4</ele>
        <time>2022-06-07T11:30:07Z</time>
      </trkpt>
      <trkpt lat="46.53542" lon="5.66287">
        <ele>567.7</ele>
        <time>2022-06-07T11:30:11Z</time>
      </trkpt>
      <trkpt lat="46.53547" lon="5.66287">
        <ele>567</ele>
        <time>2022-06-07T11:30:17Z</time>
      </trkpt>
      <trkpt lat="46.53551" lon="5.6629">
        <ele>575.7</ele>
        <time>2022-06-07T11:31:30Z</time>
      </trkpt>
      <trkpt lat="46.53553" lon="5.66296">
        <ele>577.3</ele>
        <time>2022-06-07T11:31:35Z</time>
      </trkpt>
      <trkpt lat="46.53553" lon="5.66303">
        <ele>578.2</ele>
        <time>2022-06-07T11:31:41Z</time>
      </trkpt>
      <trkpt lat="46.53556" lon="5.66309">
        <ele>579.1</ele>
        <time>2022-06-07T11:31:47Z</time>
      </trkpt>
      <trkpt lat="46.53554" lon="5.66315">
        <ele>579.5</ele>
        <time>2022-06-07T11:31:53Z</time>
      </trkpt>
      <trkpt lat="46.5355" lon="5.66319">
        <ele>579.9</ele>
        <time>2022-06-07T11:31:58Z</time>
      </trkpt>
      <trkpt lat="46.53547" lon="5.66323">
        <ele>580.4</ele>
        <time>2022-06-07T11:32:02Z</time>
      </trkpt>
      <trkpt lat="46.53544" lon="5.66329">
        <ele>581.3</ele>
        <time>2022-06-07T11:32:07Z</time>
      </trkpt>
      <trkpt lat="46.53539" lon="5.66333">
        <ele>581.3</ele>
        <time>2022-06-07T11:32:13Z</time>
      </trkpt>
      <trkpt lat="46.53535" lon="5.66336">
        <ele>580.8</ele>
        <time>2022-06-07T11:32:19Z</time>
      </trkpt>
      <trkpt lat="46.53531" lon="5.66338">
        <ele>579.5</ele>
        <time>2022-06-07T11:32:24Z</time>
      </trkpt>
      <trkpt lat="46.53526" lon="5.66339">
        <ele>577.8</ele>
        <time>2022-06-07T11:32:30Z</time>
      </trkpt>
      <trkpt lat="46.53521" lon="5.6634">
        <ele>576</ele>
        <time>2022-06-07T11:32:37Z</time>
      </trkpt>
      <trkpt lat="46.5352" lon="5.66347">
        <ele>575.4</ele>
        <time>2022-06-07T11:32:44Z</time>
      </trkpt>
      <trkpt lat="46.5352" lon="5.66355">
        <ele>575.8</ele>
        <time>2022-06-07T11:32:50Z</time>
      </trkpt>
      <trkpt lat="46.53516" lon="5.66353">
        <ele>573.2</ele>
        <time>2022-06-07T11:33:06Z</time>
      </trkpt>
      <trkpt lat="46.53511" lon="5.66351">
        <ele>571.7</ele>
        <time>2022-06-07T11:33:13Z</time>
      </trkpt>
      <trkpt lat="46.53506" lon="5.6635">
        <ele>569.5</ele>
        <time>2022-06-07T11:33:23Z</time>
      </trkpt>
      <trkpt lat="46.53501" lon="5.66352">
        <ele>568.7</ele>
        <time>2022-06-07T11:33:28Z</time>
      </trkpt>
      <trkpt lat="46.53498" lon="5.66358">
        <ele>567.7</ele>
        <time>2022-06-07T11:33:34Z</time>
      </trkpt>
      <trkpt lat="46.53496" lon="5.66364">
        <ele>566.9</ele>
        <time>2022-06-07T11:33:39Z</time>
      </trkpt>
      <trkpt lat="46.53495" lon="5.66371">
        <ele>566.3</ele>
        <time>2022-06-07T11:33:44Z</time>
      </trkpt>
      <trkpt lat="46.53493" lon="5.66378">
        <ele>565.8</ele>
        <time>2022-06-07T11:33:48Z</time>
      </trkpt>
      <trkpt lat="46.53489" lon="5.66382">
        <ele>564.7</ele>
        <time>2022-06-07T11:33:54Z</time>
      </trkpt>
      <trkpt lat="46.53485" lon="5.66385">
        <ele>562.8</ele>
        <time>2022-06-07T11:34:00Z</time>
      </trkpt>
      <trkpt lat="46.53484" lon="5.66392">
        <ele>561.1</ele>
        <time>2022-06-07T11:34:05Z</time>
      </trkpt>
      <trkpt lat="46.53482" lon="5.664">
        <ele>560.2</ele>
        <time>2022-06-07T11:34:09Z</time>
      </trkpt>
      <trkpt lat="46.53481" lon="5.66407">
        <ele>559.7</ele>
        <time>2022-06-07T11:34:15Z</time>
      </trkpt>
      <trkpt lat="46.53481" lon="5.66414">
        <ele>559.9</ele>
        <time>2022-06-07T11:34:19Z</time>
      </trkpt>
      <trkpt lat="46.5348" lon="5.6642">
        <ele>560.6</ele>
        <time>2022-06-07T11:34:23Z</time>
      </trkpt>
      <trkpt lat="46.53478" lon="5.66427">
        <ele>561.4</ele>
        <time>2022-06-07T11:34:30Z</time>
      </trkpt>
      <trkpt lat="46.53473" lon="5.66429">
        <ele>561.2</ele>
        <time>2022-06-07T11:34:36Z</time>
      </trkpt>
      <trkpt lat="46.53469" lon="5.6643">
        <ele>558.7</ele>
        <time>2022-06-07T11:34:43Z</time>
      </trkpt>
      <trkpt lat="46.53464" lon="5.66434">
        <ele>556.1</ele>
        <time>2022-06-07T11:34:49Z</time>
      </trkpt>
      <trkpt lat="46.5346" lon="5.66437">
        <ele>554.5</ele>
        <time>2022-06-07T11:34:53Z</time>
      </trkpt>
      <trkpt lat="46.53456" lon="5.66442">
        <ele>554</ele>
        <time>2022-06-07T11:34:57Z</time>
      </trkpt>
      <trkpt lat="46.53451" lon="5.66445">
        <ele>554.6</ele>
        <time>2022-06-07T11:35:01Z</time>
      </trkpt>
      <trkpt lat="46.53446" lon="5.66447">
        <ele>555.4</ele>
        <time>2022-06-07T11:35:05Z</time>
      </trkpt>
      <trkpt lat="46.53441" lon="5.6645">
        <ele>556.4</ele>
        <time>2022-06-07T11:35:09Z</time>
      </trkpt>
      <trkpt lat="46.53437" lon="5.66455">
        <ele>556.9</ele>
        <time>2022-06-07T11:35:13Z</time>
      </trkpt>
      <trkpt lat="46.53433" lon="5.66457">
        <ele>556.7</ele>
        <time>2022-06-07T11:35:18Z</time>
      </trkpt>
      <trkpt lat="46.53428" lon="5.66459">
        <ele>555.5</ele>
        <time>2022-06-07T11:35:22Z</time>
      </trkpt>
      <trkpt lat="46.53423" lon="5.66461">
        <ele>553.8</ele>
        <time>2022-06-07T11:35:26Z</time>
      </trkpt>
      <trkpt lat="46.53419" lon="5.66464">
        <ele>551.8</ele>
        <time>2022-06-07T11:35:31Z</time>
      </trkpt>
      <trkpt lat="46.53415" lon="5.66467">
        <ele>550.2</ele>
        <time>2022-06-07T11:35:36Z</time>
      </trkpt>
      <trkpt lat="46.5341" lon="5.66469">
        <ele>549.5</ele>
        <time>2022-06-07T11:35:39Z</time>
      </trkpt>
      <trkpt lat="46.53406" lon="5.66471">
        <ele>549.3</ele>
        <time>2022-06-07T11:35:43Z</time>
      </trkpt>
      <trkpt lat="46.53401" lon="5.66474">
        <ele>549.7</ele>
        <time>2022-06-07T11:35:47Z</time>
      </trkpt>
      <trkpt lat="46.53397" lon="5.66479">
        <ele>550.3</ele>
        <time>2022-06-07T11:35:51Z</time>
      </trkpt>
      <trkpt lat="46.53394" lon="5.66485">
        <ele>552</ele>
        <time>2022-06-07T11:35:57Z</time>
      </trkpt>
      <trkpt lat="46.5339" lon="5.66489">
        <ele>553.2</ele>
        <time>2022-06-07T11:36:02Z</time>
      </trkpt>
      <trkpt lat="46.53386" lon="5.66494">
        <ele>553.9</ele>
        <time>2022-06-07T11:36:07Z</time>
      </trkpt>
      <trkpt lat="46.53382" lon="5.665">
        <ele>554</ele>
        <time>2022-06-07T11:36:12Z</time>
      </trkpt>
      <trkpt lat="46.53378" lon="5.66504">
        <ele>553.7</ele>
        <time>2022-06-07T11:36:16Z</time>
      </trkpt>
      <trkpt lat="46.53375" lon="5.6651">
        <ele>553.2</ele>
        <time>2022-06-07T11:36:21Z</time>
      </trkpt>
      <trkpt lat="46.53372" lon="5.66518">
        <ele>553</ele>
        <time>2022-06-07T11:36:26Z</time>
      </trkpt>
      <trkpt lat="46.53371" lon="5.66525">
        <ele>552.5</ele>
        <time>2022-06-07T11:36:30Z</time>
      </trkpt>
      <trkpt lat="46.53369" lon="5.66532">
        <ele>551.7</ele>
        <time>2022-06-07T11:36:35Z</time>
      </trkpt>
      <trkpt lat="46.53368" lon="5.66539">
        <ele>551</ele>
        <time>2022-06-07T11:36:41Z</time>
      </trkpt>
      <trkpt lat="46.53367" lon="5.66545">
        <ele>550.7</ele>
        <time>2022-06-07T11:36:47Z</time>
      </trkpt>
      <trkpt lat="46.53365" lon="5.66552">
        <ele>550.9</ele>
        <time>2022-06-07T11:36:52Z</time>
      </trkpt>
      <trkpt lat="46.53364" lon="5.66558">
        <ele>551.1</ele>
        <time>2022-06-07T11:36:56Z</time>
      </trkpt>
      <trkpt lat="46.53362" lon="5.66565">
        <ele>551.8</ele>
        <time>2022-06-07T11:37:01Z</time>
      </trkpt>
      <trkpt lat="46.5336" lon="5.66571">
        <ele>552.4</ele>
        <time>2022-06-07T11:37:05Z</time>
      </trkpt>
      <trkpt lat="46.53358" lon="5.66578">
        <ele>552.8</ele>
        <time>2022-06-07T11:37:10Z</time>
      </trkpt>
      <trkpt lat="46.53358" lon="5.66585">
        <ele>552.8</ele>
        <time>2022-06-07T11:37:14Z</time>
      </trkpt>
      <trkpt lat="46.53355" lon="5.66591">
        <ele>552.3</ele>
        <time>2022-06-07T11:37:20Z</time>
      </trkpt>
      <trkpt lat="46.53352" lon="5.66596">
        <ele>551.8</ele>
        <time>2022-06-07T11:37:31Z</time>
      </trkpt>
      <trkpt lat="46.5335" lon="5.66602">
        <ele>549.6</ele>
        <time>2022-06-07T11:37:51Z</time>
      </trkpt>
      <trkpt lat="46.53354" lon="5.66606">
        <ele>548.4</ele>
        <time>2022-06-07T11:37:58Z</time>
      </trkpt>
      <trkpt lat="46.53359" lon="5.66609">
        <ele>547.5</ele>
        <time>2022-06-07T11:38:06Z</time>
      </trkpt>
      <trkpt lat="46.53362" lon="5.66614">
        <ele>546.9</ele>
        <time>2022-06-07T11:38:12Z</time>
      </trkpt>
      <trkpt lat="46.53367" lon="5.66615">
        <ele>547.1</ele>
        <time>2022-06-07T11:38:17Z</time>
      </trkpt>
      <trkpt lat="46.53372" lon="5.66616">
        <ele>547.4</ele>
        <time>2022-06-07T11:38:21Z</time>
      </trkpt>
      <trkpt lat="46.53376" lon="5.66618">
        <ele>548</ele>
        <time>2022-06-07T11:38:25Z</time>
      </trkpt>
      <trkpt lat="46.53381" lon="5.66621">
        <ele>548.8</ele>
        <time>2022-06-07T11:38:29Z</time>
      </trkpt>
      <trkpt lat="46.53386" lon="5.66621">
        <ele>550.1</ele>
        <time>2022-06-07T11:38:33Z</time>
      </trkpt>
      <trkpt lat="46.53392" lon="5.66622">
        <ele>550.8</ele>
        <time>2022-06-07T11:38:37Z</time>
      </trkpt>
      <trkpt lat="46.53398" lon="5.66624">
        <ele>551</ele>
        <time>2022-06-07T11:38:41Z</time>
      </trkpt>
      <trkpt lat="46.53403" lon="5.66624">
        <ele>551.1</ele>
        <time>2022-06-07T11:38:45Z</time>
      </trkpt>
      <trkpt lat="46.53408" lon="5.66626">
        <ele>551</ele>
        <time>2022-06-07T11:38:49Z</time>
      </trkpt>
      <trkpt lat="46.53413" lon="5.66626">
        <ele>550.7</ele>
        <time>2022-06-07T11:38:53Z</time>
      </trkpt>
      <trkpt lat="46.53419" lon="5.66628">
        <ele>550.7</ele>
        <time>2022-06-07T11:38:58Z</time>
      </trkpt>
      <trkpt lat="46.53424" lon="5.66629">
        <ele>550.8</ele>
        <time>2022-06-07T11:39:03Z</time>
      </trkpt>
      <trkpt lat="46.53428" lon="5.66631">
        <ele>550.6</ele>
        <time>2022-06-07T11:39:07Z</time>
      </trkpt>
      <trkpt lat="46.53433" lon="5.66632">
        <ele>550.7</ele>
        <time>2022-06-07T11:39:11Z</time>
      </trkpt>
      <trkpt lat="46.53439" lon="5.66633">
        <ele>550.7</ele>
        <time>2022-06-07T11:39:15Z</time>
      </trkpt>
      <trkpt lat="46.53443" lon="5.66633">
        <ele>549.7</ele>
        <time>2022-06-07T11:39:20Z</time>
      </trkpt>
      <trkpt lat="46.53448" lon="5.66636">
        <ele>549.1</ele>
        <time>2022-06-07T11:39:26Z</time>
      </trkpt>
      <trkpt lat="46.53451" lon="5.6664">
        <ele>547.9</ele>
        <time>2022-06-07T11:39:32Z</time>
      </trkpt>
      <trkpt lat="46.53454" lon="5.66647">
        <ele>546.4</ele>
        <time>2022-06-07T11:39:38Z</time>
      </trkpt>
      <trkpt lat="46.53454" lon="5.66653">
        <ele>547.4</ele>
        <time>2022-06-07T11:39:43Z</time>
      </trkpt>
      <trkpt lat="46.53455" lon="5.6666">
        <ele>548.7</ele>
        <time>2022-06-07T11:39:46Z</time>
      </trkpt>
      <trkpt lat="46.53458" lon="5.66666">
        <ele>550.2</ele>
        <time>2022-06-07T11:39:51Z</time>
      </trkpt>
      <trkpt lat="46.53462" lon="5.66671">
        <ele>549.8</ele>
        <time>2022-06-07T11:39:58Z</time>
      </trkpt>
      <trkpt lat="46.53465" lon="5.66676">
        <ele>548.9</ele>
        <time>2022-06-07T11:40:03Z</time>
      </trkpt>
      <trkpt lat="46.53469" lon="5.66682">
        <ele>548.4</ele>
        <time>2022-06-07T11:40:09Z</time>
      </trkpt>
      <trkpt lat="46.5347" lon="5.66689">
        <ele>548.4</ele>
        <time>2022-06-07T11:40:14Z</time>
      </trkpt>
      <trkpt lat="46.53472" lon="5.66696">
        <ele>548</ele>
        <time>2022-06-07T11:40:19Z</time>
      </trkpt>
      <trkpt lat="46.53475" lon="5.66702">
        <ele>547.4</ele>
        <time>2022-06-07T11:40:25Z</time>
      </trkpt>
      <trkpt lat="46.53479" lon="5.66707">
        <ele>546.6</ele>
        <time>2022-06-07T11:40:30Z</time>
      </trkpt>
      <trkpt lat="46.53482" lon="5.66712">
        <ele>546.1</ele>
        <time>2022-06-07T11:40:34Z</time>
      </trkpt>
      <trkpt lat="46.53486" lon="5.66717">
        <ele>545.8</ele>
        <time>2022-06-07T11:40:38Z</time>
      </trkpt>
      <trkpt lat="46.5349" lon="5.66721">
        <ele>545.6</ele>
        <time>2022-06-07T11:40:42Z</time>
      </trkpt>
      <trkpt lat="46.53494" lon="5.66726">
        <ele>545.2</ele>
        <time>2022-06-07T11:40:46Z</time>
      </trkpt>
      <trkpt lat="46.53497" lon="5.66731">
        <ele>544.8</ele>
        <time>2022-06-07T11:40:50Z</time>
      </trkpt>
      <trkpt lat="46.53502" lon="5.66735">
        <ele>544.2</ele>
        <time>2022-06-07T11:40:55Z</time>
      </trkpt>
      <trkpt lat="46.53507" lon="5.66738">
        <ele>544</ele>
        <time>2022-06-07T11:40:59Z</time>
      </trkpt>
      <trkpt lat="46.53511" lon="5.66741">
        <ele>544.3</ele>
        <time>2022-06-07T11:41:04Z</time>
      </trkpt>
      <trkpt lat="46.53517" lon="5.66743">
        <ele>544.2</ele>
        <time>2022-06-07T11:41:10Z</time>
      </trkpt>
      <trkpt lat="46.5352" lon="5.66746">
        <ele>544.2</ele>
        <time>2022-06-07T11:41:15Z</time>
      </trkpt>
      <trkpt lat="46.53522" lon="5.66754">
        <ele>542.9</ele>
        <time>2022-06-07T11:42:03Z</time>
      </trkpt>
      <trkpt lat="46.53526" lon="5.66757">
        <ele>543.1</ele>
        <time>2022-06-07T11:42:10Z</time>
      </trkpt>
      <trkpt lat="46.53529" lon="5.66751">
        <ele>542.8</ele>
        <time>2022-06-07T11:42:19Z</time>
      </trkpt>
      <trkpt lat="46.53533" lon="5.66753">
        <ele>544.7</ele>
        <time>2022-06-07T11:42:36Z</time>
      </trkpt>
      <trkpt lat="46.53537" lon="5.66758">
        <ele>547.6</ele>
        <time>2022-06-07T11:43:59Z</time>
      </trkpt>
      <trkpt lat="46.53541" lon="5.6676">
        <ele>546.3</ele>
        <time>2022-06-07T11:44:07Z</time>
      </trkpt>
      <trkpt lat="46.53547" lon="5.6676">
        <ele>542.6</ele>
        <time>2022-06-07T11:44:22Z</time>
      </trkpt>
      <trkpt lat="46.53551" lon="5.66762">
        <ele>542.1</ele>
        <time>2022-06-07T11:44:26Z</time>
      </trkpt>
      <trkpt lat="46.53555" lon="5.66763">
        <ele>541.4</ele>
        <time>2022-06-07T11:44:32Z</time>
      </trkpt>
      <trkpt lat="46.53559" lon="5.66768">
        <ele>540.3</ele>
        <time>2022-06-07T11:44:43Z</time>
      </trkpt>
      <trkpt lat="46.53564" lon="5.66771">
        <ele>540.7</ele>
        <time>2022-06-07T11:44:50Z</time>
      </trkpt>
      <trkpt lat="46.53569" lon="5.66772">
        <ele>541.1</ele>
        <time>2022-06-07T11:44:55Z</time>
      </trkpt>
      <trkpt lat="46.53573" lon="5.66776">
        <ele>541.1</ele>
        <time>2022-06-07T11:45:00Z</time>
      </trkpt>
      <trkpt lat="46.53578" lon="5.66779">
        <ele>541</ele>
        <time>2022-06-07T11:45:05Z</time>
      </trkpt>
      <trkpt lat="46.53581" lon="5.66785">
        <ele>540.6</ele>
        <time>2022-06-07T11:45:10Z</time>
      </trkpt>
      <trkpt lat="46.53584" lon="5.66791">
        <ele>540.7</ele>
        <time>2022-06-07T11:45:15Z</time>
      </trkpt>
      <trkpt lat="46.53589" lon="5.66792">
        <ele>540.8</ele>
        <time>2022-06-07T11:45:19Z</time>
      </trkpt>
      <trkpt lat="46.53594" lon="5.66792">
        <ele>540.9</ele>
        <time>2022-06-07T11:45:23Z</time>
      </trkpt>
      <trkpt lat="46.53598" lon="5.66795">
        <ele>540.8</ele>
        <time>2022-06-07T11:45:27Z</time>
      </trkpt>
      <trkpt lat="46.53603" lon="5.66797">
        <ele>540.3</ele>
        <time>2022-06-07T11:45:32Z</time>
      </trkpt>
      <trkpt lat="46.53608" lon="5.66798">
        <ele>539.6</ele>
        <time>2022-06-07T11:45:37Z</time>
      </trkpt>
      <trkpt lat="46.53613" lon="5.66798">
        <ele>538.7</ele>
        <time>2022-06-07T11:45:41Z</time>
      </trkpt>
      <trkpt lat="46.53618" lon="5.66798">
        <ele>537.8</ele>
        <time>2022-06-07T11:45:45Z</time>
      </trkpt>
      <trkpt lat="46.53623" lon="5.66799">
        <ele>536</ele>
        <time>2022-06-07T11:45:51Z</time>
      </trkpt>
      <trkpt lat="46.53629" lon="5.66801">
        <ele>535</ele>
        <time>2022-06-07T11:45:56Z</time>
      </trkpt>
      <trkpt lat="46.53634" lon="5.66805">
        <ele>534.6</ele>
        <time>2022-06-07T11:46:00Z</time>
      </trkpt>
      <trkpt lat="46.53639" lon="5.66809">
        <ele>534.5</ele>
        <time>2022-06-07T11:46:04Z</time>
      </trkpt>
      <trkpt lat="46.53643" lon="5.6681">
        <ele>534.6</ele>
        <time>2022-06-07T11:46:08Z</time>
      </trkpt>
      <trkpt lat="46.53648" lon="5.66813">
        <ele>534.6</ele>
        <time>2022-06-07T11:46:12Z</time>
      </trkpt>
      <trkpt lat="46.53654" lon="5.66816">
        <ele>534.6</ele>
        <time>2022-06-07T11:46:16Z</time>
      </trkpt>
      <trkpt lat="46.53659" lon="5.66818">
        <ele>534.4</ele>
        <time>2022-06-07T11:46:19Z</time>
      </trkpt>
      <trkpt lat="46.53665" lon="5.66821">
        <ele>534.2</ele>
        <time>2022-06-07T11:46:23Z</time>
      </trkpt>
      <trkpt lat="46.5367" lon="5.66824">
        <ele>534</ele>
        <time>2022-06-07T11:46:27Z</time>
      </trkpt>
      <trkpt lat="46.53675" lon="5.66828">
        <ele>534.6</ele>
        <time>2022-06-07T11:46:31Z</time>
      </trkpt>
      <trkpt lat="46.53679" lon="5.6683">
        <ele>535</ele>
        <time>2022-06-07T11:46:37Z</time>
      </trkpt>
      <trkpt lat="46.53683" lon="5.66835">
        <ele>534.8</ele>
        <time>2022-06-07T11:46:42Z</time>
      </trkpt>
      <trkpt lat="46.53688" lon="5.66837">
        <ele>534.9</ele>
        <time>2022-06-07T11:46:46Z</time>
      </trkpt>
      <trkpt lat="46.53692" lon="5.6684">
        <ele>534.8</ele>
        <time>2022-06-07T11:46:50Z</time>
      </trkpt>
      <trkpt lat="46.53697" lon="5.66845">
        <ele>534.7</ele>
        <time>2022-06-07T11:46:54Z</time>
      </trkpt>
      <trkpt lat="46.53701" lon="5.66851">
        <ele>534.6</ele>
        <time>2022-06-07T11:46:58Z</time>
      </trkpt>
      <trkpt lat="46.53704" lon="5.66857">
        <ele>534.5</ele>
        <time>2022-06-07T11:47:01Z</time>
      </trkpt>
      <trkpt lat="46.53706" lon="5.66864">
        <ele>534.3</ele>
        <time>2022-06-07T11:47:04Z</time>
      </trkpt>
      <trkpt lat="46.53709" lon="5.6687">
        <ele>534.2</ele>
        <time>2022-06-07T11:47:08Z</time>
      </trkpt>
      <trkpt lat="46.53712" lon="5.66876">
        <ele>534.1</ele>
        <time>2022-06-07T11:47:12Z</time>
      </trkpt>
      <trkpt lat="46.53715" lon="5.66881">
        <ele>534</ele>
        <time>2022-06-07T11:47:16Z</time>
      </trkpt>
      <trkpt lat="46.53719" lon="5.66885">
        <ele>533.7</ele>
        <time>2022-06-07T11:47:22Z</time>
      </trkpt>
      <trkpt lat="46.53724" lon="5.66889">
        <ele>533</ele>
        <time>2022-06-07T11:47:27Z</time>
      </trkpt>
      <trkpt lat="46.53729" lon="5.66894">
        <ele>532.2</ele>
        <time>2022-06-07T11:47:31Z</time>
      </trkpt>
      <trkpt lat="46.53733" lon="5.66899">
        <ele>531.3</ele>
        <time>2022-06-07T11:47:35Z</time>
      </trkpt>
      <trkpt lat="46.53737" lon="5.66903">
        <ele>530.4</ele>
        <time>2022-06-07T11:47:40Z</time>
      </trkpt>
      <trkpt lat="46.53742" lon="5.66907">
        <ele>529.6</ele>
        <time>2022-06-07T11:47:45Z</time>
      </trkpt>
      <trkpt lat="46.53746" lon="5.6691">
        <ele>529.5</ele>
        <time>2022-06-07T11:47:48Z</time>
      </trkpt>
      <trkpt lat="46.5375" lon="5.66913">
        <ele>529.8</ele>
        <time>2022-06-07T11:47:51Z</time>
      </trkpt>
      <trkpt lat="46.53755" lon="5.66916">
        <ele>530.2</ele>
        <time>2022-06-07T11:47:55Z</time>
      </trkpt>
      <trkpt lat="46.53759" lon="5.66918">
        <ele>530.7</ele>
        <time>2022-06-07T11:47:59Z</time>
      </trkpt>
      <trkpt lat="46.53763" lon="5.66922">
        <ele>531.4</ele>
        <time>2022-06-07T11:48:02Z</time>
      </trkpt>
      <trkpt lat="46.53768" lon="5.66928">
        <ele>532.4</ele>
        <time>2022-06-07T11:48:06Z</time>
      </trkpt>
      <trkpt lat="46.53771" lon="5.66931">
        <ele>533.2</ele>
        <time>2022-06-07T11:48:10Z</time>
      </trkpt>
      <trkpt lat="46.53775" lon="5.66935">
        <ele>533.3</ele>
        <time>2022-06-07T11:48:15Z</time>
      </trkpt>
      <trkpt lat="46.53779" lon="5.6694">
        <ele>533.2</ele>
        <time>2022-06-07T11:48:21Z</time>
      </trkpt>
      <trkpt lat="46.53783" lon="5.66946">
        <ele>532.9</ele>
        <time>2022-06-07T11:48:25Z</time>
      </trkpt>
      <trkpt lat="46.53787" lon="5.66951">
        <ele>533.2</ele>
        <time>2022-06-07T11:48:29Z</time>
      </trkpt>
      <trkpt lat="46.53792" lon="5.66954">
        <ele>534</ele>
        <time>2022-06-07T11:48:34Z</time>
      </trkpt>
      <trkpt lat="46.53798" lon="5.66958">
        <ele>533.9</ele>
        <time>2022-06-07T11:48:38Z</time>
      </trkpt>
      <trkpt lat="46.53803" lon="5.6696">
        <ele>533.3</ele>
        <time>2022-06-07T11:48:41Z</time>
      </trkpt>
      <trkpt lat="46.53807" lon="5.66961">
        <ele>532.8</ele>
        <time>2022-06-07T11:48:44Z</time>
      </trkpt>
      <trkpt lat="46.53812" lon="5.66964">
        <ele>532.1</ele>
        <time>2022-06-07T11:48:47Z</time>
      </trkpt>
      <trkpt lat="46.53816" lon="5.66967">
        <ele>531.6</ele>
        <time>2022-06-07T11:48:51Z</time>
      </trkpt>
      <trkpt lat="46.53819" lon="5.66972">
        <ele>532.2</ele>
        <time>2022-06-07T11:48:59Z</time>
      </trkpt>
      <trkpt lat="46.53823" lon="5.66975">
        <ele>532.9</ele>
        <time>2022-06-07T11:49:03Z</time>
      </trkpt>
      <trkpt lat="46.53828" lon="5.66979">
        <ele>532.8</ele>
        <time>2022-06-07T11:49:07Z</time>
      </trkpt>
      <trkpt lat="46.53832" lon="5.66982">
        <ele>532.5</ele>
        <time>2022-06-07T11:49:10Z</time>
      </trkpt>
      <trkpt lat="46.53837" lon="5.66985">
        <ele>532</ele>
        <time>2022-06-07T11:49:14Z</time>
      </trkpt>
      <trkpt lat="46.53841" lon="5.66987">
        <ele>531.4</ele>
        <time>2022-06-07T11:49:20Z</time>
      </trkpt>
      <trkpt lat="46.53846" lon="5.6699">
        <ele>531.2</ele>
        <time>2022-06-07T11:49:25Z</time>
      </trkpt>
      <trkpt lat="46.53851" lon="5.66993">
        <ele>531.1</ele>
        <time>2022-06-07T11:49:29Z</time>
      </trkpt>
      <trkpt lat="46.53856" lon="5.66995">
        <ele>531.3</ele>
        <time>2022-06-07T11:49:34Z</time>
      </trkpt>
      <trkpt lat="46.53861" lon="5.66999">
        <ele>531.9</ele>
        <time>2022-06-07T11:49:39Z</time>
      </trkpt>
      <trkpt lat="46.53865" lon="5.67003">
        <ele>532.6</ele>
        <time>2022-06-07T11:49:43Z</time>
      </trkpt>
      <trkpt lat="46.53869" lon="5.67009">
        <ele>533.5</ele>
        <time>2022-06-07T11:49:48Z</time>
      </trkpt>
      <trkpt lat="46.53873" lon="5.67013">
        <ele>534.3</ele>
        <time>2022-06-07T11:49:52Z</time>
      </trkpt>
      <trkpt lat="46.53877" lon="5.67015">
        <ele>535.3</ele>
        <time>2022-06-07T11:49:55Z</time>
      </trkpt>
      <trkpt lat="46.53882" lon="5.67018">
        <ele>537.3</ele>
        <time>2022-06-07T11:50:00Z</time>
      </trkpt>
      <trkpt lat="46.53887" lon="5.67022">
        <ele>538.2</ele>
        <time>2022-06-07T11:50:05Z</time>
      </trkpt>
      <trkpt lat="46.53891" lon="5.67027">
        <ele>538.7</ele>
        <time>2022-06-07T11:50:11Z</time>
      </trkpt>
      <trkpt lat="46.53895" lon="5.6703">
        <ele>537.7</ele>
        <time>2022-06-07T11:50:15Z</time>
      </trkpt>
      <trkpt lat="46.539" lon="5.67033">
        <ele>536.9</ele>
        <time>2022-06-07T11:50:21Z</time>
      </trkpt>
      <trkpt lat="46.53905" lon="5.67036">
        <ele>536.3</ele>
        <time>2022-06-07T11:50:25Z</time>
      </trkpt>
      <trkpt lat="46.53909" lon="5.6704">
        <ele>535.5</ele>
        <time>2022-06-07T11:50:28Z</time>
      </trkpt>
      <trkpt lat="46.53912" lon="5.67045">
        <ele>534.7</ele>
        <time>2022-06-07T11:50:32Z</time>
      </trkpt>
      <trkpt lat="46.53916" lon="5.67051">
        <ele>534.4</ele>
        <time>2022-06-07T11:50:37Z</time>
      </trkpt>
      <trkpt lat="46.53919" lon="5.67056">
        <ele>534.6</ele>
        <time>2022-06-07T11:51:02Z</time>
      </trkpt>
      <trkpt lat="46.53919" lon="5.67063">
        <ele>534.1</ele>
        <time>2022-06-07T11:51:09Z</time>
      </trkpt>
      <trkpt lat="46.53921" lon="5.67069">
        <ele>533.8</ele>
        <time>2022-06-07T11:51:15Z</time>
      </trkpt>
      <trkpt lat="46.53924" lon="5.67075">
        <ele>533.6</ele>
        <time>2022-06-07T11:51:20Z</time>
      </trkpt>
      <trkpt lat="46.53927" lon="5.67081">
        <ele>533.2</ele>
        <time>2022-06-07T11:51:25Z</time>
      </trkpt>
      <trkpt lat="46.5393" lon="5.67087">
        <ele>532.7</ele>
        <time>2022-06-07T11:51:30Z</time>
      </trkpt>
      <trkpt lat="46.53931" lon="5.67094">
        <ele>532.6</ele>
        <time>2022-06-07T11:51:35Z</time>
      </trkpt>
      <trkpt lat="46.53932" lon="5.67101">
        <ele>532.5</ele>
        <time>2022-06-07T11:51:40Z</time>
      </trkpt>
      <trkpt lat="46.53935" lon="5.67108">
        <ele>532.2</ele>
        <time>2022-06-07T11:51:45Z</time>
      </trkpt>
      <trkpt lat="46.53938" lon="5.67113">
        <ele>532.3</ele>
        <time>2022-06-07T11:51:50Z</time>
      </trkpt>
      <trkpt lat="46.53939" lon="5.6712">
        <ele>532.9</ele>
        <time>2022-06-07T11:51:55Z</time>
      </trkpt>
      <trkpt lat="46.53941" lon="5.67127">
        <ele>534</ele>
        <time>2022-06-07T11:52:01Z</time>
      </trkpt>
      <trkpt lat="46.53941" lon="5.67134">
        <ele>534.8</ele>
        <time>2022-06-07T11:52:06Z</time>
      </trkpt>
      <trkpt lat="46.53941" lon="5.67142">
        <ele>535.6</ele>
        <time>2022-06-07T11:52:11Z</time>
      </trkpt>
      <trkpt lat="46.53941" lon="5.67149">
        <ele>536.2</ele>
        <time>2022-06-07T11:52:15Z</time>
      </trkpt>
      <trkpt lat="46.53941" lon="5.67156">
        <ele>537</ele>
        <time>2022-06-07T11:52:20Z</time>
      </trkpt>
      <trkpt lat="46.53942" lon="5.67164">
        <ele>537.5</ele>
        <time>2022-06-07T11:52:25Z</time>
      </trkpt>
      <trkpt lat="46.53942" lon="5.67172">
        <ele>538</ele>
        <time>2022-06-07T11:52:30Z</time>
      </trkpt>
      <trkpt lat="46.53942" lon="5.6718">
        <ele>537.8</ele>
        <time>2022-06-07T11:52:35Z</time>
      </trkpt>
      <trkpt lat="46.53942" lon="5.67187">
        <ele>537.3</ele>
        <time>2022-06-07T11:52:40Z</time>
      </trkpt>
      <trkpt lat="46.53941" lon="5.67194">
        <ele>537.4</ele>
        <time>2022-06-07T11:52:45Z</time>
      </trkpt>
      <trkpt lat="46.5394" lon="5.672">
        <ele>537.4</ele>
        <time>2022-06-07T11:52:49Z</time>
      </trkpt>
      <trkpt lat="46.53939" lon="5.67207">
        <ele>537.3</ele>
        <time>2022-06-07T11:52:53Z</time>
      </trkpt>
      <trkpt lat="46.53938" lon="5.67215">
        <ele>537.3</ele>
        <time>2022-06-07T11:52:57Z</time>
      </trkpt>
      <trkpt lat="46.53938" lon="5.67223">
        <ele>537.5</ele>
        <time>2022-06-07T11:53:01Z</time>
      </trkpt>
      <trkpt lat="46.53941" lon="5.6723">
        <ele>537.7</ele>
        <time>2022-06-07T11:53:05Z</time>
      </trkpt>
      <trkpt lat="46.53945" lon="5.67235">
        <ele>537.2</ele>
        <time>2022-06-07T11:53:10Z</time>
      </trkpt>
      <trkpt lat="46.53949" lon="5.67239">
        <ele>537.4</ele>
        <time>2022-06-07T11:53:15Z</time>
      </trkpt>
      <trkpt lat="46.53954" lon="5.67241">
        <ele>538.2</ele>
        <time>2022-06-07T11:53:22Z</time>
      </trkpt>
      <trkpt lat="46.5396" lon="5.67242">
        <ele>537.5</ele>
        <time>2022-06-07T11:53:26Z</time>
      </trkpt>
      <trkpt lat="46.53965" lon="5.67241">
        <ele>535.3</ele>
        <time>2022-06-07T11:53:31Z</time>
      </trkpt>
      <trkpt lat="46.53969" lon="5.6724">
        <ele>533.5</ele>
        <time>2022-06-07T11:53:35Z</time>
      </trkpt>
      <trkpt lat="46.53975" lon="5.67239">
        <ele>532.3</ele>
        <time>2022-06-07T11:53:39Z</time>
      </trkpt>
      <trkpt lat="46.5398" lon="5.6724">
        <ele>531.2</ele>
        <time>2022-06-07T11:53:44Z</time>
      </trkpt>
      <trkpt lat="46.53985" lon="5.67241">
        <ele>530</ele>
        <time>2022-06-07T11:53:51Z</time>
      </trkpt>
      <trkpt lat="46.53989" lon="5.67243">
        <ele>529.6</ele>
        <time>2022-06-07T11:53:57Z</time>
      </trkpt>
      <trkpt lat="46.53994" lon="5.67244">
        <ele>529.9</ele>
        <time>2022-06-07T11:54:01Z</time>
      </trkpt>
      <trkpt lat="46.53999" lon="5.67244">
        <ele>530.1</ele>
        <time>2022-06-07T11:54:05Z</time>
      </trkpt>
      <trkpt lat="46.54004" lon="5.67244">
        <ele>530.4</ele>
        <time>2022-06-07T11:54:11Z</time>
      </trkpt>
      <trkpt lat="46.5401" lon="5.67245">
        <ele>530.6</ele>
        <time>2022-06-07T11:54:15Z</time>
      </trkpt>
      <trkpt lat="46.54015" lon="5.67246">
        <ele>530.9</ele>
        <time>2022-06-07T11:54:19Z</time>
      </trkpt>
      <trkpt lat="46.5402" lon="5.67244">
        <ele>530.9</ele>
        <time>2022-06-07T11:54:23Z</time>
      </trkpt>
      <trkpt lat="46.54025" lon="5.67245">
        <ele>531.3</ele>
        <time>2022-06-07T11:54:29Z</time>
      </trkpt>
      <trkpt lat="46.54029" lon="5.67245">
        <ele>531.8</ele>
        <time>2022-06-07T11:54:33Z</time>
      </trkpt>
      <trkpt lat="46.54034" lon="5.67246">
        <ele>532.5</ele>
        <time>2022-06-07T11:54:37Z</time>
      </trkpt>
      <trkpt lat="46.54039" lon="5.67247">
        <ele>533.7</ele>
        <time>2022-06-07T11:54:42Z</time>
      </trkpt>
      <trkpt lat="46.54044" lon="5.67249">
        <ele>534.5</ele>
        <time>2022-06-07T11:54:47Z</time>
      </trkpt>
      <trkpt lat="46.54048" lon="5.67251">
        <ele>534.2</ele>
        <time>2022-06-07T11:54:51Z</time>
      </trkpt>
      <trkpt lat="46.54052" lon="5.67256">
        <ele>533.2</ele>
        <time>2022-06-07T11:54:55Z</time>
      </trkpt>
      <trkpt lat="46.54055" lon="5.67261">
        <ele>532.2</ele>
        <time>2022-06-07T11:54:59Z</time>
      </trkpt>
      <trkpt lat="46.54058" lon="5.67266">
        <ele>531.3</ele>
        <time>2022-06-07T11:55:03Z</time>
      </trkpt>
      <trkpt lat="46.54062" lon="5.67271">
        <ele>530.8</ele>
        <time>2022-06-07T11:55:07Z</time>
      </trkpt>
      <trkpt lat="46.54065" lon="5.67275">
        <ele>531</ele>
        <time>2022-06-07T11:55:12Z</time>
      </trkpt>
      <trkpt lat="46.54069" lon="5.6728">
        <ele>531</ele>
        <time>2022-06-07T11:55:17Z</time>
      </trkpt>
      <trkpt lat="46.54071" lon="5.67287">
        <ele>531</ele>
        <time>2022-06-07T11:55:23Z</time>
      </trkpt>
      <trkpt lat="46.54072" lon="5.67293">
        <ele>531.1</ele>
        <time>2022-06-07T11:55:28Z</time>
      </trkpt>
      <trkpt lat="46.54073" lon="5.673">
        <ele>531.6</ele>
        <time>2022-06-07T11:55:32Z</time>
      </trkpt>
      <trkpt lat="46.54074" lon="5.67308">
        <ele>532.3</ele>
        <time>2022-06-07T11:55:37Z</time>
      </trkpt>
      <trkpt lat="46.54074" lon="5.67315">
        <ele>532.9</ele>
        <time>2022-06-07T11:55:41Z</time>
      </trkpt>
      <trkpt lat="46.54074" lon="5.67323">
        <ele>534.1</ele>
        <time>2022-06-07T11:55:47Z</time>
      </trkpt>
      <trkpt lat="46.54073" lon="5.67331">
        <ele>535.1</ele>
        <time>2022-06-07T11:55:53Z</time>
      </trkpt>
      <trkpt lat="46.54074" lon="5.67337">
        <ele>535.3</ele>
        <time>2022-06-07T11:55:58Z</time>
      </trkpt>
      <trkpt lat="46.54073" lon="5.67345">
        <ele>535</ele>
        <time>2022-06-07T11:56:03Z</time>
      </trkpt>
      <trkpt lat="46.5407" lon="5.67351">
        <ele>534.1</ele>
        <time>2022-06-07T11:56:08Z</time>
      </trkpt>
      <trkpt lat="46.54068" lon="5.67357">
        <ele>532.5</ele>
        <time>2022-06-07T11:56:14Z</time>
      </trkpt>
      <trkpt lat="46.54065" lon="5.67363">
        <ele>529.7</ele>
        <time>2022-06-07T11:56:21Z</time>
      </trkpt>
      <trkpt lat="46.54062" lon="5.67368">
        <ele>527.9</ele>
        <time>2022-06-07T11:56:26Z</time>
      </trkpt>
      <trkpt lat="46.54057" lon="5.67372">
        <ele>526.4</ele>
        <time>2022-06-07T11:56:31Z</time>
      </trkpt>
      <trkpt lat="46.54053" lon="5.67375">
        <ele>525.7</ele>
        <time>2022-06-07T11:56:34Z</time>
      </trkpt>
      <trkpt lat="46.54047" lon="5.67377">
        <ele>525.1</ele>
        <time>2022-06-07T11:56:37Z</time>
      </trkpt>
      <trkpt lat="46.54043" lon="5.67377">
        <ele>524.5</ele>
        <time>2022-06-07T11:56:41Z</time>
      </trkpt>
      <trkpt lat="46.54038" lon="5.67378">
        <ele>523.7</ele>
        <time>2022-06-07T11:56:47Z</time>
      </trkpt>
      <trkpt lat="46.54033" lon="5.6738">
        <ele>523.6</ele>
        <time>2022-06-07T11:56:51Z</time>
      </trkpt>
      <trkpt lat="46.54029" lon="5.67382">
        <ele>523.9</ele>
        <time>2022-06-07T11:56:55Z</time>
      </trkpt>
      <trkpt lat="46.54024" lon="5.67384">
        <ele>524.5</ele>
        <time>2022-06-07T11:57:00Z</time>
      </trkpt>
      <trkpt lat="46.54019" lon="5.67385">
        <ele>525</ele>
        <time>2022-06-07T11:57:07Z</time>
      </trkpt>
      <trkpt lat="46.54015" lon="5.67382">
        <ele>525</ele>
        <time>2022-06-07T11:57:16Z</time>
      </trkpt>
      <trkpt lat="46.5401" lon="5.67384">
        <ele>523.9</ele>
        <time>2022-06-07T11:57:22Z</time>
      </trkpt>
      <trkpt lat="46.54006" lon="5.67387">
        <ele>523.1</ele>
        <time>2022-06-07T11:57:25Z</time>
      </trkpt>
      <trkpt lat="46.54001" lon="5.6739">
        <ele>522</ele>
        <time>2022-06-07T11:57:28Z</time>
      </trkpt>
      <trkpt lat="46.53996" lon="5.67391">
        <ele>520.7</ele>
        <time>2022-06-07T11:57:32Z</time>
      </trkpt>
      <trkpt lat="46.53991" lon="5.67392">
        <ele>519.9</ele>
        <time>2022-06-07T11:57:36Z</time>
      </trkpt>
      <trkpt lat="46.53987" lon="5.67393">
        <ele>519.6</ele>
        <time>2022-06-07T11:57:40Z</time>
      </trkpt>
      <trkpt lat="46.53982" lon="5.67394">
        <ele>518.9</ele>
        <time>2022-06-07T11:57:45Z</time>
      </trkpt>
      <trkpt lat="46.53977" lon="5.67391">
        <ele>517.8</ele>
        <time>2022-06-07T11:57:51Z</time>
      </trkpt>
      <trkpt lat="46.53973" lon="5.67388">
        <ele>516.9</ele>
        <time>2022-06-07T11:57:55Z</time>
      </trkpt>
      <trkpt lat="46.53969" lon="5.67384">
        <ele>515.7</ele>
        <time>2022-06-07T11:58:01Z</time>
      </trkpt>
      <trkpt lat="46.53964" lon="5.67384">
        <ele>514.7</ele>
        <time>2022-06-07T11:58:06Z</time>
      </trkpt>
      <trkpt lat="46.5396" lon="5.67387">
        <ele>513.8</ele>
        <time>2022-06-07T11:58:10Z</time>
      </trkpt>
      <trkpt lat="46.53956" lon="5.67392">
        <ele>512.8</ele>
        <time>2022-06-07T11:58:14Z</time>
      </trkpt>
      <trkpt lat="46.53951" lon="5.67396">
        <ele>511.6</ele>
        <time>2022-06-07T11:58:18Z</time>
      </trkpt>
      <trkpt lat="46.53947" lon="5.67398">
        <ele>510.7</ele>
        <time>2022-06-07T11:58:22Z</time>
      </trkpt>
      <trkpt lat="46.53942" lon="5.67398">
        <ele>509.3</ele>
        <time>2022-06-07T11:58:28Z</time>
      </trkpt>
      <trkpt lat="46.53937" lon="5.674">
        <ele>508.7</ele>
        <time>2022-06-07T11:58:34Z</time>
      </trkpt>
      <trkpt lat="46.53932" lon="5.67404">
        <ele>509</ele>
        <time>2022-06-07T11:58:38Z</time>
      </trkpt>
      <trkpt lat="46.53928" lon="5.67408">
        <ele>509.2</ele>
        <time>2022-06-07T11:58:41Z</time>
      </trkpt>
      <trkpt lat="46.53923" lon="5.67411">
        <ele>509.2</ele>
        <time>2022-06-07T11:58:45Z</time>
      </trkpt>
      <trkpt lat="46.53918" lon="5.67412">
        <ele>508.9</ele>
        <time>2022-06-07T11:58:52Z</time>
      </trkpt>
      <trkpt lat="46.53914" lon="5.67415">
        <ele>508.5</ele>
        <time>2022-06-07T11:58:56Z</time>
      </trkpt>
      <trkpt lat="46.53909" lon="5.67416">
        <ele>508.3</ele>
        <time>2022-06-07T11:59:00Z</time>
      </trkpt>
      <trkpt lat="46.53905" lon="5.67413">
        <ele>507.9</ele>
        <time>2022-06-07T11:59:06Z</time>
      </trkpt>
      <trkpt lat="46.539" lon="5.67413">
        <ele>507.2</ele>
        <time>2022-06-07T11:59:13Z</time>
      </trkpt>
      <trkpt lat="46.53896" lon="5.67415">
        <ele>505.9</ele>
        <time>2022-06-07T11:59:20Z</time>
      </trkpt>
      <trkpt lat="46.53891" lon="5.6742">
        <ele>504.8</ele>
        <time>2022-06-07T11:59:25Z</time>
      </trkpt>
      <trkpt lat="46.53886" lon="5.67423">
        <ele>503.3</ele>
        <time>2022-06-07T11:59:30Z</time>
      </trkpt>
      <trkpt lat="46.53881" lon="5.67427">
        <ele>501.9</ele>
        <time>2022-06-07T11:59:34Z</time>
      </trkpt>
      <trkpt lat="46.53875" lon="5.67429">
        <ele>499.9</ele>
        <time>2022-06-07T11:59:38Z</time>
      </trkpt>
      <trkpt lat="46.53871" lon="5.67431">
        <ele>498.6</ele>
        <time>2022-06-07T11:59:41Z</time>
      </trkpt>
      <trkpt lat="46.53865" lon="5.67433">
        <ele>497.6</ele>
        <time>2022-06-07T11:59:45Z</time>
      </trkpt>
      <trkpt lat="46.5386" lon="5.67436">
        <ele>497.3</ele>
        <time>2022-06-07T11:59:48Z</time>
      </trkpt>
      <trkpt lat="46.53855" lon="5.67438">
        <ele>497.4</ele>
        <time>2022-06-07T11:59:53Z</time>
      </trkpt>
      <trkpt lat="46.5385" lon="5.67442">
        <ele>497.8</ele>
        <time>2022-06-07T11:59:57Z</time>
      </trkpt>
      <trkpt lat="46.53845" lon="5.67446">
        <ele>498.3</ele>
        <time>2022-06-07T12:00:01Z</time>
      </trkpt>
      <trkpt lat="46.53841" lon="5.67449">
        <ele>498.6</ele>
        <time>2022-06-07T12:00:04Z</time>
      </trkpt>
      <trkpt lat="46.53837" lon="5.67449">
        <ele>498.6</ele>
        <time>2022-06-07T12:00:08Z</time>
      </trkpt>
      <trkpt lat="46.53832" lon="5.67447">
        <ele>498.3</ele>
        <time>2022-06-07T12:00:13Z</time>
      </trkpt>
      <trkpt lat="46.53827" lon="5.67447">
        <ele>497.8</ele>
        <time>2022-06-07T12:00:19Z</time>
      </trkpt>
      <trkpt lat="46.53822" lon="5.67448">
        <ele>497</ele>
        <time>2022-06-07T12:00:23Z</time>
      </trkpt>
      <trkpt lat="46.53817" lon="5.6745">
        <ele>496.5</ele>
        <time>2022-06-07T12:00:28Z</time>
      </trkpt>
      <trkpt lat="46.53812" lon="5.67451">
        <ele>496.3</ele>
        <time>2022-06-07T12:00:33Z</time>
      </trkpt>
      <trkpt lat="46.53807" lon="5.67451">
        <ele>496.5</ele>
        <time>2022-06-07T12:00:37Z</time>
      </trkpt>
      <trkpt lat="46.53802" lon="5.67451">
        <ele>496.5</ele>
        <time>2022-06-07T12:00:43Z</time>
      </trkpt>
      <trkpt lat="46.53798" lon="5.67447">
        <ele>495.7</ele>
        <time>2022-06-07T12:00:52Z</time>
      </trkpt>
      <trkpt lat="46.53792" lon="5.6745">
        <ele>494.4</ele>
        <time>2022-06-07T12:01:02Z</time>
      </trkpt>
      <trkpt lat="46.53787" lon="5.67453">
        <ele>493.9</ele>
        <time>2022-06-07T12:01:05Z</time>
      </trkpt>
      <trkpt lat="46.53783" lon="5.67457">
        <ele>493.2</ele>
        <time>2022-06-07T12:01:08Z</time>
      </trkpt>
      <trkpt lat="46.53778" lon="5.6746">
        <ele>492.4</ele>
        <time>2022-06-07T12:01:11Z</time>
      </trkpt>
      <trkpt lat="46.53774" lon="5.67463">
        <ele>491.6</ele>
        <time>2022-06-07T12:01:14Z</time>
      </trkpt>
      <trkpt lat="46.53769" lon="5.67466">
        <ele>490.4</ele>
        <time>2022-06-07T12:01:18Z</time>
      </trkpt>
      <trkpt lat="46.53764" lon="5.67468">
        <ele>489.2</ele>
        <time>2022-06-07T12:01:22Z</time>
      </trkpt>
      <trkpt lat="46.53759" lon="5.6747">
        <ele>488.1</ele>
        <time>2022-06-07T12:01:27Z</time>
      </trkpt>
      <trkpt lat="46.53754" lon="5.67471">
        <ele>487.7</ele>
        <time>2022-06-07T12:01:31Z</time>
      </trkpt>
      <trkpt lat="46.53749" lon="5.67473">
        <ele>487.7</ele>
        <time>2022-06-07T12:01:35Z</time>
      </trkpt>
      <trkpt lat="46.53744" lon="5.67475">
        <ele>487.9</ele>
        <time>2022-06-07T12:01:40Z</time>
      </trkpt>
      <trkpt lat="46.53739" lon="5.67477">
        <ele>487.7</ele>
        <time>2022-06-07T12:01:46Z</time>
      </trkpt>
      <trkpt lat="46.53734" lon="5.67478">
        <ele>487.4</ele>
        <time>2022-06-07T12:01:52Z</time>
      </trkpt>
      <trkpt lat="46.53729" lon="5.67478">
        <ele>487.3</ele>
        <time>2022-06-07T12:01:58Z</time>
      </trkpt>
      <trkpt lat="46.53724" lon="5.67479">
        <ele>487.6</ele>
        <time>2022-06-07T12:02:02Z</time>
      </trkpt>
      <trkpt lat="46.53718" lon="5.67482">
        <ele>488.1</ele>
        <time>2022-06-07T12:02:07Z</time>
      </trkpt>
      <trkpt lat="46.53713" lon="5.67486">
        <ele>488.2</ele>
        <time>2022-06-07T12:02:11Z</time>
      </trkpt>
      <trkpt lat="46.53709" lon="5.67488">
        <ele>487.9</ele>
        <time>2022-06-07T12:02:16Z</time>
      </trkpt>
      <trkpt lat="46.53704" lon="5.67489">
        <ele>486.7</ele>
        <time>2022-06-07T12:02:22Z</time>
      </trkpt>
      <trkpt lat="46.53699" lon="5.67488">
        <ele>485.4</ele>
        <time>2022-06-07T12:02:29Z</time>
      </trkpt>
      <trkpt lat="46.53693" lon="5.67489">
        <ele>484</ele>
        <time>2022-06-07T12:02:34Z</time>
      </trkpt>
      <trkpt lat="46.53688" lon="5.67487">
        <ele>482.7</ele>
        <time>2022-06-07T12:02:39Z</time>
      </trkpt>
      <trkpt lat="46.53684" lon="5.67483">
        <ele>481.3</ele>
        <time>2022-06-07T12:02:44Z</time>
      </trkpt>
      <trkpt lat="46.5368" lon="5.67479">
        <ele>480.4</ele>
        <time>2022-06-07T12:02:49Z</time>
      </trkpt>
      <trkpt lat="46.53676" lon="5.67477">
        <ele>479.9</ele>
        <time>2022-06-07T12:02:53Z</time>
      </trkpt>
      <trkpt lat="46.53673" lon="5.67472">
        <ele>479.6</ele>
        <time>2022-06-07T12:02:57Z</time>
      </trkpt>
      <trkpt lat="46.53671" lon="5.67465">
        <ele>478.8</ele>
        <time>2022-06-07T12:03:02Z</time>
      </trkpt>
      <trkpt lat="46.53667" lon="5.67469">
        <ele>477.4</ele>
        <time>2022-06-07T12:03:08Z</time>
      </trkpt>
      <trkpt lat="46.53662" lon="5.67472">
        <ele>476.7</ele>
        <time>2022-06-07T12:03:13Z</time>
      </trkpt>
      <trkpt lat="46.53658" lon="5.67477">
        <ele>476.6</ele>
        <time>2022-06-07T12:03:19Z</time>
      </trkpt>
      <trkpt lat="46.5366" lon="5.67484">
        <ele>481.6</ele>
        <time>2022-06-07T12:03:36Z</time>
      </trkpt>
      <trkpt lat="46.5366" lon="5.67491">
        <ele>482.3</ele>
        <time>2022-06-07T12:03:43Z</time>
      </trkpt>
      <trkpt lat="46.53658" lon="5.67498">
        <ele>482.9</ele>
        <time>2022-06-07T12:03:46Z</time>
      </trkpt>
      <trkpt lat="46.53663" lon="5.675">
        <ele>487.1</ele>
        <time>2022-06-07T12:03:57Z</time>
      </trkpt>
      <trkpt lat="46.53659" lon="5.67499">
        <ele>489.9</ele>
        <time>2022-06-07T12:04:11Z</time>
      </trkpt>
      <trkpt lat="46.5366" lon="5.67492">
        <ele>489.3</ele>
        <time>2022-06-07T12:04:31Z</time>
      </trkpt>
      <trkpt lat="46.53665" lon="5.67494">
        <ele>489.2</ele>
        <time>2022-06-07T12:04:37Z</time>
      </trkpt>
      <trkpt lat="46.53662" lon="5.67488">
        <ele>488.8</ele>
        <time>2022-06-07T12:04:49Z</time>
      </trkpt>
      <trkpt lat="46.53657" lon="5.67485">
        <ele>488.5</ele>
        <time>2022-06-07T12:04:54Z</time>
      </trkpt>
      <trkpt lat="46.53654" lon="5.67481">
        <ele>487.5</ele>
        <time>2022-06-07T12:05:04Z</time>
      </trkpt>
      <trkpt lat="46.53655" lon="5.67471">
        <ele>486.8</ele>
        <time>2022-06-07T12:05:07Z</time>
      </trkpt>
      <trkpt lat="46.53659" lon="5.67475">
        <ele>484.2</ele>
        <time>2022-06-07T12:05:37Z</time>
      </trkpt>
      <trkpt lat="46.53655" lon="5.67471">
        <ele>483.5</ele>
        <time>2022-06-07T12:05:48Z</time>
      </trkpt>
      <trkpt lat="46.53659" lon="5.67474">
        <ele>482.6</ele>
        <time>2022-06-07T12:06:07Z</time>
      </trkpt>
      <trkpt lat="46.53662" lon="5.67479">
        <ele>482.6</ele>
        <time>2022-06-07T12:06:18Z</time>
      </trkpt>
      <trkpt lat="46.53658" lon="5.67484">
        <ele>482</ele>
        <time>2022-06-07T12:06:37Z</time>
      </trkpt>
      <trkpt lat="46.53656" lon="5.67491">
        <ele>483.4</ele>
        <time>2022-06-07T12:06:59Z</time>
      </trkpt>
      <trkpt lat="46.53655" lon="5.67498">
        <ele>483.3</ele>
        <time>2022-06-07T12:07:03Z</time>
      </trkpt>
      <trkpt lat="46.53652" lon="5.67492">
        <ele>482.2</ele>
        <time>2022-06-07T12:07:14Z</time>
      </trkpt>
      <trkpt lat="46.53653" lon="5.67485">
        <ele>480.7</ele>
        <time>2022-06-07T12:07:31Z</time>
      </trkpt>
      <trkpt lat="46.53651" lon="5.67491">
        <ele>479.8</ele>
        <time>2022-06-07T12:08:01Z</time>
      </trkpt>
      <trkpt lat="46.53649" lon="5.67497">
        <ele>480</ele>
        <time>2022-06-07T12:08:07Z</time>
      </trkpt>
      <trkpt lat="46.53644" lon="5.67498">
        <ele>480.5</ele>
        <time>2022-06-07T12:08:15Z</time>
      </trkpt>
      <trkpt lat="46.53641" lon="5.67505">
        <ele>480.6</ele>
        <time>2022-06-07T12:08:20Z</time>
      </trkpt>
      <trkpt lat="46.53637" lon="5.67507">
        <ele>479.8</ele>
        <time>2022-06-07T12:08:29Z</time>
      </trkpt>
      <trkpt lat="46.53634" lon="5.67513">
        <ele>479.2</ele>
        <time>2022-06-07T12:08:34Z</time>
      </trkpt>
      <trkpt lat="46.53631" lon="5.6752">
        <ele>479.1</ele>
        <time>2022-06-07T12:08:37Z</time>
      </trkpt>
      <trkpt lat="46.53627" lon="5.67524">
        <ele>478.6</ele>
        <time>2022-06-07T12:08:42Z</time>
      </trkpt>
      <trkpt lat="46.53623" lon="5.67527">
        <ele>477.6</ele>
        <time>2022-06-07T12:08:48Z</time>
      </trkpt>
      <trkpt lat="46.53619" lon="5.67533">
        <ele>476.9</ele>
        <time>2022-06-07T12:08:53Z</time>
      </trkpt>
      <trkpt lat="46.53615" lon="5.67538">
        <ele>476.3</ele>
        <time>2022-06-07T12:08:57Z</time>
      </trkpt>
      <trkpt lat="46.53611" lon="5.6754">
        <ele>475.2</ele>
        <time>2022-06-07T12:09:04Z</time>
      </trkpt>
      <trkpt lat="46.53606" lon="5.67539">
        <ele>473.1</ele>
        <time>2022-06-07T12:09:13Z</time>
      </trkpt>
      <trkpt lat="46.53602" lon="5.67538">
        <ele>472.4</ele>
        <time>2022-06-07T12:09:18Z</time>
      </trkpt>
      <trkpt lat="46.53596" lon="5.67538">
        <ele>471.7</ele>
        <time>2022-06-07T12:09:22Z</time>
      </trkpt>
      <trkpt lat="46.53592" lon="5.6754">
        <ele>470.6</ele>
        <time>2022-06-07T12:09:27Z</time>
      </trkpt>
      <trkpt lat="46.53589" lon="5.67545">
        <ele>469.6</ele>
        <time>2022-06-07T12:09:32Z</time>
      </trkpt>
      <trkpt lat="46.53585" lon="5.67549">
        <ele>468.8</ele>
        <time>2022-06-07T12:09:36Z</time>
      </trkpt>
      <trkpt lat="46.5358" lon="5.67552">
        <ele>468.5</ele>
        <time>2022-06-07T12:09:41Z</time>
      </trkpt>
      <trkpt lat="46.53576" lon="5.67554">
        <ele>468.9</ele>
        <time>2022-06-07T12:09:48Z</time>
      </trkpt>
      <trkpt lat="46.53571" lon="5.67557">
        <ele>468.8</ele>
        <time>2022-06-07T12:09:53Z</time>
      </trkpt>
      <trkpt lat="46.53566" lon="5.67559">
        <ele>467.7</ele>
        <time>2022-06-07T12:10:01Z</time>
      </trkpt>
      <trkpt lat="46.53562" lon="5.67561">
        <ele>467.2</ele>
        <time>2022-06-07T12:10:07Z</time>
      </trkpt>
      <trkpt lat="46.53557" lon="5.67562">
        <ele>466.7</ele>
        <time>2022-06-07T12:10:12Z</time>
      </trkpt>
      <trkpt lat="46.53552" lon="5.67563">
        <ele>465.8</ele>
        <time>2022-06-07T12:10:15Z</time>
      </trkpt>
      <trkpt lat="46.53547" lon="5.67563">
        <ele>464.7</ele>
        <time>2022-06-07T12:10:18Z</time>
      </trkpt>
      <trkpt lat="46.53543" lon="5.67567">
        <ele>463.5</ele>
        <time>2022-06-07T12:10:21Z</time>
      </trkpt>
      <trkpt lat="46.53539" lon="5.67572">
        <ele>461.2</ele>
        <time>2022-06-07T12:10:26Z</time>
      </trkpt>
      <trkpt lat="46.53535" lon="5.67578">
        <ele>459.9</ele>
        <time>2022-06-07T12:10:30Z</time>
      </trkpt>
      <trkpt lat="46.53532" lon="5.67583">
        <ele>459.2</ele>
        <time>2022-06-07T12:10:33Z</time>
      </trkpt>
      <trkpt lat="46.53528" lon="5.67588">
        <ele>458.8</ele>
        <time>2022-06-07T12:10:38Z</time>
      </trkpt>
      <trkpt lat="46.53523" lon="5.67591">
        <ele>458.9</ele>
        <time>2022-06-07T12:10:42Z</time>
      </trkpt>
      <trkpt lat="46.53518" lon="5.67594">
        <ele>460</ele>
        <time>2022-06-07T12:10:46Z</time>
      </trkpt>
      <trkpt lat="46.53513" lon="5.67594">
        <ele>461.2</ele>
        <time>2022-06-07T12:10:50Z</time>
      </trkpt>
      <trkpt lat="46.53508" lon="5.67597">
        <ele>463</ele>
        <time>2022-06-07T12:10:56Z</time>
      </trkpt>
      <trkpt lat="46.53504" lon="5.676">
        <ele>464.5</ele>
        <time>2022-06-07T12:11:02Z</time>
      </trkpt>
      <trkpt lat="46.53499" lon="5.67599">
        <ele>464.9</ele>
        <time>2022-06-07T12:11:08Z</time>
      </trkpt>
      <trkpt lat="46.53494" lon="5.67602">
        <ele>464.5</ele>
        <time>2022-06-07T12:11:13Z</time>
      </trkpt>
      <trkpt lat="46.53489" lon="5.67603">
        <ele>463.2</ele>
        <time>2022-06-07T12:11:19Z</time>
      </trkpt>
      <trkpt lat="46.53485" lon="5.676">
        <ele>461.5</ele>
        <time>2022-06-07T12:11:27Z</time>
      </trkpt>
      <trkpt lat="46.5348" lon="5.67602">
        <ele>459.2</ele>
        <time>2022-06-07T12:11:36Z</time>
      </trkpt>
      <trkpt lat="46.53476" lon="5.67607">
        <ele>458.5</ele>
        <time>2022-06-07T12:11:39Z</time>
      </trkpt>
      <trkpt lat="46.53471" lon="5.67612">
        <ele>457.1</ele>
        <time>2022-06-07T12:11:43Z</time>
      </trkpt>
      <trkpt lat="46.53466" lon="5.67616">
        <ele>455.4</ele>
        <time>2022-06-07T12:11:47Z</time>
      </trkpt>
      <trkpt lat="46.53462" lon="5.67617">
        <ele>453.8</ele>
        <time>2022-06-07T12:11:50Z</time>
      </trkpt>
      <trkpt lat="46.53457" lon="5.67619">
        <ele>451.4</ele>
        <time>2022-06-07T12:11:55Z</time>
      </trkpt>
      <trkpt lat="46.53453" lon="5.67622">
        <ele>449.4</ele>
        <time>2022-06-07T12:12:03Z</time>
      </trkpt>
      <trkpt lat="46.53448" lon="5.67623">
        <ele>448.6</ele>
        <time>2022-06-07T12:12:08Z</time>
      </trkpt>
      <trkpt lat="46.53443" lon="5.67624">
        <ele>448.3</ele>
        <time>2022-06-07T12:12:14Z</time>
      </trkpt>
      <trkpt lat="46.53439" lon="5.67629">
        <ele>448.1</ele>
        <time>2022-06-07T12:12:18Z</time>
      </trkpt>
      <trkpt lat="46.53436" lon="5.67633">
        <ele>447.8</ele>
        <time>2022-06-07T12:12:21Z</time>
      </trkpt>
      <trkpt lat="46.53431" lon="5.67636">
        <ele>447.3</ele>
        <time>2022-06-07T12:12:24Z</time>
      </trkpt>
      <trkpt lat="46.53427" lon="5.67638">
        <ele>446.6</ele>
        <time>2022-06-07T12:12:28Z</time>
      </trkpt>
      <trkpt lat="46.53422" lon="5.67641">
        <ele>445.9</ele>
        <time>2022-06-07T12:12:32Z</time>
      </trkpt>
      <trkpt lat="46.53418" lon="5.67644">
        <ele>445.3</ele>
        <time>2022-06-07T12:12:36Z</time>
      </trkpt>
      <trkpt lat="46.53415" lon="5.67651">
        <ele>445.3</ele>
        <time>2022-06-07T12:12:40Z</time>
      </trkpt>
      <trkpt lat="46.53411" lon="5.67655">
        <ele>445.2</ele>
        <time>2022-06-07T12:12:43Z</time>
      </trkpt>
      <trkpt lat="46.53406" lon="5.67657">
        <ele>444.8</ele>
        <time>2022-06-07T12:12:46Z</time>
      </trkpt>
      <trkpt lat="46.53401" lon="5.67659">
        <ele>443.8</ele>
        <time>2022-06-07T12:12:51Z</time>
      </trkpt>
      <trkpt lat="46.53397" lon="5.67664">
        <ele>442.7</ele>
        <time>2022-06-07T12:12:56Z</time>
      </trkpt>
      <trkpt lat="46.53395" lon="5.6767">
        <ele>441.7</ele>
        <time>2022-06-07T12:13:00Z</time>
      </trkpt>
      <trkpt lat="46.5339" lon="5.67676">
        <ele>441.5</ele>
        <time>2022-06-07T12:13:05Z</time>
      </trkpt>
      <trkpt lat="46.53386" lon="5.67678">
        <ele>440.9</ele>
        <time>2022-06-07T12:13:11Z</time>
      </trkpt>
      <trkpt lat="46.5338" lon="5.67679">
        <ele>440.3</ele>
        <time>2022-06-07T12:13:16Z</time>
      </trkpt>
      <trkpt lat="46.53375" lon="5.67678">
        <ele>439.8</ele>
        <time>2022-06-07T12:13:20Z</time>
      </trkpt>
      <trkpt lat="46.53371" lon="5.6768">
        <ele>439.5</ele>
        <time>2022-06-07T12:13:23Z</time>
      </trkpt>
      <trkpt lat="46.53366" lon="5.67683">
        <ele>439.2</ele>
        <time>2022-06-07T12:13:27Z</time>
      </trkpt>
      <trkpt lat="46.53362" lon="5.67687">
        <ele>439.1</ele>
        <time>2022-06-07T12:13:31Z</time>
      </trkpt>
      <trkpt lat="46.53357" lon="5.67691">
        <ele>438.9</ele>
        <time>2022-06-07T12:13:35Z</time>
      </trkpt>
      <trkpt lat="46.53353" lon="5.67695">
        <ele>439.3</ele>
        <time>2022-06-07T12:13:40Z</time>
      </trkpt>
      <trkpt lat="46.53348" lon="5.67697">
        <ele>440</ele>
        <time>2022-06-07T12:13:44Z</time>
      </trkpt>
      <trkpt lat="46.53344" lon="5.67699">
        <ele>440.6</ele>
        <time>2022-06-07T12:13:48Z</time>
      </trkpt>
      <trkpt lat="46.53339" lon="5.67699">
        <ele>441.8</ele>
        <time>2022-06-07T12:13:55Z</time>
      </trkpt>
      <trkpt lat="46.53335" lon="5.67702">
        <ele>442.4</ele>
        <time>2022-06-07T12:14:00Z</time>
      </trkpt>
      <trkpt lat="46.5333" lon="5.67704">
        <ele>442.6</ele>
        <time>2022-06-07T12:14:05Z</time>
      </trkpt>
      <trkpt lat="46.53325" lon="5.67706">
        <ele>442.6</ele>
        <time>2022-06-07T12:14:10Z</time>
      </trkpt>
      <trkpt lat="46.53322" lon="5.67702">
        <ele>441.8</ele>
        <time>2022-06-07T12:14:17Z</time>
      </trkpt>
      <trkpt lat="46.53316" lon="5.67705">
        <ele>440.8</ele>
        <time>2022-06-07T12:14:23Z</time>
      </trkpt>
      <trkpt lat="46.53311" lon="5.67711">
        <ele>440.1</ele>
        <time>2022-06-07T12:14:26Z</time>
      </trkpt>
      <trkpt lat="46.53306" lon="5.67716">
        <ele>439.4</ele>
        <time>2022-06-07T12:14:29Z</time>
      </trkpt>
      <trkpt lat="46.53301" lon="5.67722">
        <ele>438.6</ele>
        <time>2022-06-07T12:14:32Z</time>
      </trkpt>
      <trkpt lat="46.53296" lon="5.67727">
        <ele>437.8</ele>
        <time>2022-06-07T12:14:35Z</time>
      </trkpt>
      <trkpt lat="46.53292" lon="5.67731">
        <ele>436.8</ele>
        <time>2022-06-07T12:14:38Z</time>
      </trkpt>
      <trkpt lat="46.53288" lon="5.67735">
        <ele>436.2</ele>
        <time>2022-06-07T12:14:41Z</time>
      </trkpt>
      <trkpt lat="46.53283" lon="5.67739">
        <ele>435.7</ele>
        <time>2022-06-07T12:14:45Z</time>
      </trkpt>
      <trkpt lat="46.53279" lon="5.67737">
        <ele>435.1</ele>
        <time>2022-06-07T12:14:49Z</time>
      </trkpt>
      <trkpt lat="46.53274" lon="5.67735">
        <ele>434.8</ele>
        <time>2022-06-07T12:14:53Z</time>
      </trkpt>
      <trkpt lat="46.5327" lon="5.67737">
        <ele>434.7</ele>
        <time>2022-06-07T12:14:59Z</time>
      </trkpt>
      <trkpt lat="46.53267" lon="5.67742">
        <ele>434.3</ele>
        <time>2022-06-07T12:15:04Z</time>
      </trkpt>
      <trkpt lat="46.53264" lon="5.67747">
        <ele>433.5</ele>
        <time>2022-06-07T12:15:09Z</time>
      </trkpt>
      <trkpt lat="46.5326" lon="5.67751">
        <ele>432.4</ele>
        <time>2022-06-07T12:15:13Z</time>
      </trkpt>
      <trkpt lat="46.53257" lon="5.67757">
        <ele>431.4</ele>
        <time>2022-06-07T12:15:17Z</time>
      </trkpt>
      <trkpt lat="46.53252" lon="5.67761">
        <ele>430.2</ele>
        <time>2022-06-07T12:15:24Z</time>
      </trkpt>
      <trkpt lat="46.53247" lon="5.6776">
        <ele>429.6</ele>
        <time>2022-06-07T12:15:29Z</time>
      </trkpt>
      <trkpt lat="46.53242" lon="5.67761">
        <ele>428.8</ele>
        <time>2022-06-07T12:15:33Z</time>
      </trkpt>
      <trkpt lat="46.53237" lon="5.67764">
        <ele>428</ele>
        <time>2022-06-07T12:15:37Z</time>
      </trkpt>
      <trkpt lat="46.53233" lon="5.67766">
        <ele>427</ele>
        <time>2022-06-07T12:15:43Z</time>
      </trkpt>
      <trkpt lat="46.53229" lon="5.67771">
        <ele>426.8</ele>
        <time>2022-06-07T12:15:47Z</time>
      </trkpt>
      <trkpt lat="46.53224" lon="5.67776">
        <ele>426.9</ele>
        <time>2022-06-07T12:15:51Z</time>
      </trkpt>
      <trkpt lat="46.5322" lon="5.67781">
        <ele>427.2</ele>
        <time>2022-06-07T12:15:55Z</time>
      </trkpt>
      <trkpt lat="46.53215" lon="5.67784">
        <ele>427.3</ele>
        <time>2022-06-07T12:16:00Z</time>
      </trkpt>
      <trkpt lat="46.5321" lon="5.67783">
        <ele>427.2</ele>
        <time>2022-06-07T12:16:05Z</time>
      </trkpt>
      <trkpt lat="46.53206" lon="5.67781">
        <ele>427</ele>
        <time>2022-06-07T12:16:08Z</time>
      </trkpt>
      <trkpt lat="46.53201" lon="5.67782">
        <ele>426.4</ele>
        <time>2022-06-07T12:16:12Z</time>
      </trkpt>
      <trkpt lat="46.53196" lon="5.67787">
        <ele>425.9</ele>
        <time>2022-06-07T12:16:16Z</time>
      </trkpt>
      <trkpt lat="46.53193" lon="5.67793">
        <ele>425.7</ele>
        <time>2022-06-07T12:16:20Z</time>
      </trkpt>
      <trkpt lat="46.53189" lon="5.67797">
        <ele>425.9</ele>
        <time>2022-06-07T12:16:25Z</time>
      </trkpt>
      <trkpt lat="46.53185" lon="5.67799">
        <ele>425.9</ele>
        <time>2022-06-07T12:16:28Z</time>
      </trkpt>
      <trkpt lat="46.5318" lon="5.67802">
        <ele>426.1</ele>
        <time>2022-06-07T12:16:31Z</time>
      </trkpt>
      <trkpt lat="46.53175" lon="5.67805">
        <ele>426.6</ele>
        <time>2022-06-07T12:16:34Z</time>
      </trkpt>
      <trkpt lat="46.53171" lon="5.67808">
        <ele>427.8</ele>
        <time>2022-06-07T12:16:38Z</time>
      </trkpt>
      <trkpt lat="46.53166" lon="5.67809">
        <ele>428.8</ele>
        <time>2022-06-07T12:16:42Z</time>
      </trkpt>
      <trkpt lat="46.53161" lon="5.67811">
        <ele>429.8</ele>
        <time>2022-06-07T12:16:46Z</time>
      </trkpt>
      <trkpt lat="46.53156" lon="5.67813">
        <ele>430.6</ele>
        <time>2022-06-07T12:16:51Z</time>
      </trkpt>
      <trkpt lat="46.53153" lon="5.67816">
        <ele>430.7</ele>
        <time>2022-06-07T12:16:56Z</time>
      </trkpt>
      <trkpt lat="46.53148" lon="5.6782">
        <ele>430.7</ele>
        <time>2022-06-07T12:17:00Z</time>
      </trkpt>
      <trkpt lat="46.53144" lon="5.67825">
        <ele>430.6</ele>
        <time>2022-06-07T12:17:05Z</time>
      </trkpt>
      <trkpt lat="46.5314" lon="5.67829">
        <ele>430.5</ele>
        <time>2022-06-07T12:17:10Z</time>
      </trkpt>
      <trkpt lat="46.53136" lon="5.67834">
        <ele>430.1</ele>
        <time>2022-06-07T12:17:14Z</time>
      </trkpt>
      <trkpt lat="46.53134" lon="5.6784">
        <ele>429.8</ele>
        <time>2022-06-07T12:17:18Z</time>
      </trkpt>
      <trkpt lat="46.53133" lon="5.67847">
        <ele>429</ele>
        <time>2022-06-07T12:17:23Z</time>
      </trkpt>
      <trkpt lat="46.5313" lon="5.67852">
        <ele>429.2</ele>
        <time>2022-06-07T12:17:29Z</time>
      </trkpt>
      <trkpt lat="46.53127" lon="5.67857">
        <ele>429.6</ele>
        <time>2022-06-07T12:17:36Z</time>
      </trkpt>
      <trkpt lat="46.53123" lon="5.67862">
        <ele>428.9</ele>
        <time>2022-06-07T12:17:43Z</time>
      </trkpt>
      <trkpt lat="46.53122" lon="5.6787">
        <ele>428.8</ele>
        <time>2022-06-07T12:17:47Z</time>
      </trkpt>
      <trkpt lat="46.5312" lon="5.67876">
        <ele>428.7</ele>
        <time>2022-06-07T12:17:50Z</time>
      </trkpt>
      <trkpt lat="46.53115" lon="5.67877">
        <ele>428.4</ele>
        <time>2022-06-07T12:17:55Z</time>
      </trkpt>
      <trkpt lat="46.53111" lon="5.67878">
        <ele>427.8</ele>
        <time>2022-06-07T12:17:59Z</time>
      </trkpt>
      <trkpt lat="46.53106" lon="5.6788">
        <ele>426.6</ele>
        <time>2022-06-07T12:18:04Z</time>
      </trkpt>
      <trkpt lat="46.53101" lon="5.67883">
        <ele>425.4</ele>
        <time>2022-06-07T12:18:10Z</time>
      </trkpt>
      <trkpt lat="46.53096" lon="5.67888">
        <ele>425.1</ele>
        <time>2022-06-07T12:18:13Z</time>
      </trkpt>
      <trkpt lat="46.53092" lon="5.67892">
        <ele>425.1</ele>
        <time>2022-06-07T12:18:16Z</time>
      </trkpt>
      <trkpt lat="46.53088" lon="5.67895">
        <ele>425.1</ele>
        <time>2022-06-07T12:18:20Z</time>
      </trkpt>
      <trkpt lat="46.53084" lon="5.67899">
        <ele>424.8</ele>
        <time>2022-06-07T12:18:24Z</time>
      </trkpt>
      <trkpt lat="46.5308" lon="5.67903">
        <ele>424.1</ele>
        <time>2022-06-07T12:18:28Z</time>
      </trkpt>
      <trkpt lat="46.53075" lon="5.67908">
        <ele>423.5</ele>
        <time>2022-06-07T12:18:32Z</time>
      </trkpt>
      <trkpt lat="46.53071" lon="5.67911">
        <ele>423</ele>
        <time>2022-06-07T12:18:37Z</time>
      </trkpt>
      <trkpt lat="46.53067" lon="5.67915">
        <ele>422.1</ele>
        <time>2022-06-07T12:18:43Z</time>
      </trkpt>
      <trkpt lat="46.53061" lon="5.67918">
        <ele>421.1</ele>
        <time>2022-06-07T12:18:49Z</time>
      </trkpt>
      <trkpt lat="46.53057" lon="5.67921">
        <ele>420.6</ele>
        <time>2022-06-07T12:18:54Z</time>
      </trkpt>
      <trkpt lat="46.53053" lon="5.67928">
        <ele>420.7</ele>
        <time>2022-06-07T12:18:58Z</time>
      </trkpt>
      <trkpt lat="46.5305" lon="5.67933">
        <ele>421.1</ele>
        <time>2022-06-07T12:19:02Z</time>
      </trkpt>
      <trkpt lat="46.53045" lon="5.67933">
        <ele>421.7</ele>
        <time>2022-06-07T12:19:08Z</time>
      </trkpt>
      <trkpt lat="46.5304" lon="5.67935">
        <ele>422.1</ele>
        <time>2022-06-07T12:19:12Z</time>
      </trkpt>
      <trkpt lat="46.53036" lon="5.67939">
        <ele>422.2</ele>
        <time>2022-06-07T12:19:16Z</time>
      </trkpt>
      <trkpt lat="46.53033" lon="5.67945">
        <ele>422.3</ele>
        <time>2022-06-07T12:19:20Z</time>
      </trkpt>
      <trkpt lat="46.53029" lon="5.67949">
        <ele>422.3</ele>
        <time>2022-06-07T12:19:25Z</time>
      </trkpt>
      <trkpt lat="46.53025" lon="5.67954">
        <ele>422</ele>
        <time>2022-06-07T12:19:29Z</time>
      </trkpt>
      <trkpt lat="46.53021" lon="5.67957">
        <ele>421.4</ele>
        <time>2022-06-07T12:19:34Z</time>
      </trkpt>
      <trkpt lat="46.53016" lon="5.67958">
        <ele>419.5</ele>
        <time>2022-06-07T12:19:42Z</time>
      </trkpt>
      <trkpt lat="46.5301" lon="5.67959">
        <ele>418.4</ele>
        <time>2022-06-07T12:19:48Z</time>
      </trkpt>
      <trkpt lat="46.53005" lon="5.67961">
        <ele>418.1</ele>
        <time>2022-06-07T12:19:52Z</time>
      </trkpt>
      <trkpt lat="46.53001" lon="5.67965">
        <ele>418.1</ele>
        <time>2022-06-07T12:19:55Z</time>
      </trkpt>
      <trkpt lat="46.52997" lon="5.67969">
        <ele>418</ele>
        <time>2022-06-07T12:19:59Z</time>
      </trkpt>
      <trkpt lat="46.52991" lon="5.67971">
        <ele>418.3</ele>
        <time>2022-06-07T12:20:06Z</time>
      </trkpt>
      <trkpt lat="46.52986" lon="5.67974">
        <ele>418.7</ele>
        <time>2022-06-07T12:20:11Z</time>
      </trkpt>
      <trkpt lat="46.52982" lon="5.67978">
        <ele>419.3</ele>
        <time>2022-06-07T12:20:16Z</time>
      </trkpt>
      <trkpt lat="46.52978" lon="5.67981">
        <ele>419.6</ele>
        <time>2022-06-07T12:20:22Z</time>
      </trkpt>
      <trkpt lat="46.52973" lon="5.67985">
        <ele>419.4</ele>
        <time>2022-06-07T12:20:26Z</time>
      </trkpt>
      <trkpt lat="46.52968" lon="5.67989">
        <ele>419.1</ele>
        <time>2022-06-07T12:20:29Z</time>
      </trkpt>
      <trkpt lat="46.52964" lon="5.67994">
        <ele>418.9</ele>
        <time>2022-06-07T12:20:33Z</time>
      </trkpt>
      <trkpt lat="46.52961" lon="5.67999">
        <ele>419.2</ele>
        <time>2022-06-07T12:20:36Z</time>
      </trkpt>
      <trkpt lat="46.52959" lon="5.68005">
        <ele>419.8</ele>
        <time>2022-06-07T12:20:39Z</time>
      </trkpt>
      <trkpt lat="46.52955" lon="5.68009">
        <ele>420.7</ele>
        <time>2022-06-07T12:20:43Z</time>
      </trkpt>
      <trkpt lat="46.52952" lon="5.68016">
        <ele>421.7</ele>
        <time>2022-06-07T12:20:47Z</time>
      </trkpt>
      <trkpt lat="46.52948" lon="5.68019">
        <ele>422.5</ele>
        <time>2022-06-07T12:20:53Z</time>
      </trkpt>
      <trkpt lat="46.52944" lon="5.68025">
        <ele>422.4</ele>
        <time>2022-06-07T12:20:58Z</time>
      </trkpt>
      <trkpt lat="46.52939" lon="5.68027">
        <ele>421.9</ele>
        <time>2022-06-07T12:21:04Z</time>
      </trkpt>
      <trkpt lat="46.52937" lon="5.68033">
        <ele>422</ele>
        <time>2022-06-07T12:21:09Z</time>
      </trkpt>
      <trkpt lat="46.52934" lon="5.68041">
        <ele>422.5</ele>
        <time>2022-06-07T12:21:12Z</time>
      </trkpt>
      <trkpt lat="46.52932" lon="5.68048">
        <ele>423.2</ele>
        <time>2022-06-07T12:21:15Z</time>
      </trkpt>
      <trkpt lat="46.5293" lon="5.68054">
        <ele>424</ele>
        <time>2022-06-07T12:21:18Z</time>
      </trkpt>
      <trkpt lat="46.52926" lon="5.68059">
        <ele>425.1</ele>
        <time>2022-06-07T12:21:22Z</time>
      </trkpt>
      <trkpt lat="46.52922" lon="5.68063">
        <ele>426.3</ele>
        <time>2022-06-07T12:21:28Z</time>
      </trkpt>
      <trkpt lat="46.52919" lon="5.68068">
        <ele>427.2</ele>
        <time>2022-06-07T12:21:33Z</time>
      </trkpt>
      <trkpt lat="46.52916" lon="5.68074">
        <ele>428.1</ele>
        <time>2022-06-07T12:21:37Z</time>
      </trkpt>
      <trkpt lat="46.52913" lon="5.6808">
        <ele>429.1</ele>
        <time>2022-06-07T12:21:40Z</time>
      </trkpt>
      <trkpt lat="46.52909" lon="5.68086">
        <ele>430.7</ele>
        <time>2022-06-07T12:21:44Z</time>
      </trkpt>
      <trkpt lat="46.52906" lon="5.68091">
        <ele>432.6</ele>
        <time>2022-06-07T12:21:49Z</time>
      </trkpt>
      <trkpt lat="46.52902" lon="5.68095">
        <ele>433.7</ele>
        <time>2022-06-07T12:21:54Z</time>
      </trkpt>
      <trkpt lat="46.52898" lon="5.68099">
        <ele>434.2</ele>
        <time>2022-06-07T12:22:00Z</time>
      </trkpt>
      <trkpt lat="46.52894" lon="5.68104">
        <ele>434.3</ele>
        <time>2022-06-07T12:22:08Z</time>
      </trkpt>
      <trkpt lat="46.52889" lon="5.68109">
        <ele>434.2</ele>
        <time>2022-06-07T12:22:12Z</time>
      </trkpt>
      <trkpt lat="46.52885" lon="5.68115">
        <ele>433.9</ele>
        <time>2022-06-07T12:22:16Z</time>
      </trkpt>
      <trkpt lat="46.52881" lon="5.68119">
        <ele>433</ele>
        <time>2022-06-07T12:22:20Z</time>
      </trkpt>
      <trkpt lat="46.52877" lon="5.68122">
        <ele>432.3</ele>
        <time>2022-06-07T12:22:24Z</time>
      </trkpt>
      <trkpt lat="46.52873" lon="5.68126">
        <ele>431.9</ele>
        <time>2022-06-07T12:22:27Z</time>
      </trkpt>
      <trkpt lat="46.5287" lon="5.68131">
        <ele>431.6</ele>
        <time>2022-06-07T12:22:31Z</time>
      </trkpt>
      <trkpt lat="46.52866" lon="5.68136">
        <ele>431.1</ele>
        <time>2022-06-07T12:22:36Z</time>
      </trkpt>
      <trkpt lat="46.52865" lon="5.68144">
        <ele>430.5</ele>
        <time>2022-06-07T12:22:45Z</time>
      </trkpt>
      <trkpt lat="46.52862" lon="5.6815">
        <ele>431.2</ele>
        <time>2022-06-07T12:22:52Z</time>
      </trkpt>
      <trkpt lat="46.52859" lon="5.68155">
        <ele>431.8</ele>
        <time>2022-06-07T12:22:57Z</time>
      </trkpt>
      <trkpt lat="46.52854" lon="5.6816">
        <ele>431.5</ele>
        <time>2022-06-07T12:23:03Z</time>
      </trkpt>
      <trkpt lat="46.52851" lon="5.68165">
        <ele>431.1</ele>
        <time>2022-06-07T12:23:07Z</time>
      </trkpt>
      <trkpt lat="46.52847" lon="5.68172">
        <ele>430.9</ele>
        <time>2022-06-07T12:23:11Z</time>
      </trkpt>
      <trkpt lat="46.52844" lon="5.68178">
        <ele>430.9</ele>
        <time>2022-06-07T12:23:14Z</time>
      </trkpt>
      <trkpt lat="46.52842" lon="5.68184">
        <ele>431.1</ele>
        <time>2022-06-07T12:23:18Z</time>
      </trkpt>
      <trkpt lat="46.52839" lon="5.6819">
        <ele>430.6</ele>
        <time>2022-06-07T12:23:23Z</time>
      </trkpt>
      <trkpt lat="46.52836" lon="5.68196">
        <ele>430</ele>
        <time>2022-06-07T12:23:27Z</time>
      </trkpt>
      <trkpt lat="46.52833" lon="5.68202">
        <ele>429.8</ele>
        <time>2022-06-07T12:23:32Z</time>
      </trkpt>
      <trkpt lat="46.52829" lon="5.68207">
        <ele>430.3</ele>
        <time>2022-06-07T12:23:37Z</time>
      </trkpt>
      <trkpt lat="46.52826" lon="5.68213">
        <ele>430.5</ele>
        <time>2022-06-07T12:23:42Z</time>
      </trkpt>
      <trkpt lat="46.52823" lon="5.6822">
        <ele>430.6</ele>
        <time>2022-06-07T12:23:46Z</time>
      </trkpt>
      <trkpt lat="46.5282" lon="5.68226">
        <ele>430.8</ele>
        <time>2022-06-07T12:23:49Z</time>
      </trkpt>
      <trkpt lat="46.52819" lon="5.68233">
        <ele>431.2</ele>
        <time>2022-06-07T12:23:52Z</time>
      </trkpt>
      <trkpt lat="46.52817" lon="5.6824">
        <ele>431.6</ele>
        <time>2022-06-07T12:23:55Z</time>
      </trkpt>
      <trkpt lat="46.52814" lon="5.68246">
        <ele>431.7</ele>
        <time>2022-06-07T12:23:58Z</time>
      </trkpt>
      <trkpt lat="46.52812" lon="5.68252">
        <ele>431.9</ele>
        <time>2022-06-07T12:24:02Z</time>
      </trkpt>
      <trkpt lat="46.5281" lon="5.68258">
        <ele>432.4</ele>
        <time>2022-06-07T12:24:06Z</time>
      </trkpt>
      <trkpt lat="46.52807" lon="5.68264">
        <ele>433.5</ele>
        <time>2022-06-07T12:24:10Z</time>
      </trkpt>
      <trkpt lat="46.52803" lon="5.6827">
        <ele>435.4</ele>
        <time>2022-06-07T12:24:13Z</time>
      </trkpt>
      <trkpt lat="46.528" lon="5.68277">
        <ele>438.3</ele>
        <time>2022-06-07T12:24:17Z</time>
      </trkpt>
      <trkpt lat="46.52799" lon="5.68284">
        <ele>441.4</ele>
        <time>2022-06-07T12:24:23Z</time>
      </trkpt>
      <trkpt lat="46.52798" lon="5.68291">
        <ele>442.8</ele>
        <time>2022-06-07T12:24:30Z</time>
      </trkpt>
      <trkpt lat="46.52795" lon="5.68297">
        <ele>443</ele>
        <time>2022-06-07T12:24:35Z</time>
      </trkpt>
      <trkpt lat="46.52793" lon="5.68303">
        <ele>442.7</ele>
        <time>2022-06-07T12:24:40Z</time>
      </trkpt>
      <trkpt lat="46.52791" lon="5.68309">
        <ele>442</ele>
        <time>2022-06-07T12:24:47Z</time>
      </trkpt>
      <trkpt lat="46.52787" lon="5.68312">
        <ele>440.3</ele>
        <time>2022-06-07T12:24:54Z</time>
      </trkpt>
      <trkpt lat="46.52785" lon="5.68319">
        <ele>438.3</ele>
        <time>2022-06-07T12:25:00Z</time>
      </trkpt>
      <trkpt lat="46.52783" lon="5.68326">
        <ele>437.5</ele>
        <time>2022-06-07T12:25:04Z</time>
      </trkpt>
      <trkpt lat="46.52782" lon="5.68333">
        <ele>438</ele>
        <time>2022-06-07T12:25:09Z</time>
      </trkpt>
      <trkpt lat="46.5278" lon="5.6834">
        <ele>438.5</ele>
        <time>2022-06-07T12:25:13Z</time>
      </trkpt>
      <trkpt lat="46.52778" lon="5.68346">
        <ele>439</ele>
        <time>2022-06-07T12:25:17Z</time>
      </trkpt>
      <trkpt lat="46.52773" lon="5.68349">
        <ele>438.6</ele>
        <time>2022-06-07T12:25:22Z</time>
      </trkpt>
      <trkpt lat="46.5277" lon="5.68354">
        <ele>437.8</ele>
        <time>2022-06-07T12:25:27Z</time>
      </trkpt>
      <trkpt lat="46.52769" lon="5.68361">
        <ele>436.1</ele>
        <time>2022-06-07T12:25:33Z</time>
      </trkpt>
      <trkpt lat="46.52766" lon="5.68367">
        <ele>434.3</ele>
        <time>2022-06-07T12:25:38Z</time>
      </trkpt>
      <trkpt lat="46.52764" lon="5.68373">
        <ele>432.3</ele>
        <time>2022-06-07T12:25:44Z</time>
      </trkpt>
      <trkpt lat="46.52762" lon="5.68382">
        <ele>431.6</ele>
        <time>2022-06-07T12:25:47Z</time>
      </trkpt>
      <trkpt lat="46.52761" lon="5.68389">
        <ele>430.7</ele>
        <time>2022-06-07T12:25:50Z</time>
      </trkpt>
      <trkpt lat="46.5276" lon="5.68396">
        <ele>430</ele>
        <time>2022-06-07T12:25:56Z</time>
      </trkpt>
      <trkpt lat="46.52758" lon="5.68402">
        <ele>430</ele>
        <time>2022-06-07T12:25:59Z</time>
      </trkpt>
      <trkpt lat="46.52758" lon="5.68409">
        <ele>430.1</ele>
        <time>2022-06-07T12:26:02Z</time>
      </trkpt>
      <trkpt lat="46.52758" lon="5.68416">
        <ele>430.3</ele>
        <time>2022-06-07T12:26:06Z</time>
      </trkpt>
      <trkpt lat="46.52756" lon="5.68425">
        <ele>431.1</ele>
        <time>2022-06-07T12:26:10Z</time>
      </trkpt>
      <trkpt lat="46.52754" lon="5.68432">
        <ele>431.5</ele>
        <time>2022-06-07T12:26:14Z</time>
      </trkpt>
      <trkpt lat="46.52753" lon="5.68439">
        <ele>431.6</ele>
        <time>2022-06-07T12:26:18Z</time>
      </trkpt>
      <trkpt lat="46.52752" lon="5.68447">
        <ele>431.5</ele>
        <time>2022-06-07T12:26:23Z</time>
      </trkpt>
      <trkpt lat="46.52751" lon="5.68453">
        <ele>431.6</ele>
        <time>2022-06-07T12:26:27Z</time>
      </trkpt>
      <trkpt lat="46.52752" lon="5.6846">
        <ele>432.3</ele>
        <time>2022-06-07T12:26:31Z</time>
      </trkpt>
      <trkpt lat="46.52752" lon="5.68467">
        <ele>433.5</ele>
        <time>2022-06-07T12:26:35Z</time>
      </trkpt>
      <trkpt lat="46.52753" lon="5.68475">
        <ele>435.2</ele>
        <time>2022-06-07T12:26:40Z</time>
      </trkpt>
      <trkpt lat="46.52752" lon="5.68483">
        <ele>436.3</ele>
        <time>2022-06-07T12:26:43Z</time>
      </trkpt>
      <trkpt lat="46.52751" lon="5.6849">
        <ele>437.2</ele>
        <time>2022-06-07T12:26:46Z</time>
      </trkpt>
      <trkpt lat="46.52751" lon="5.68498">
        <ele>438.2</ele>
        <time>2022-06-07T12:26:50Z</time>
      </trkpt>
      <trkpt lat="46.52752" lon="5.68505">
        <ele>439.2</ele>
        <time>2022-06-07T12:26:54Z</time>
      </trkpt>
      <trkpt lat="46.52752" lon="5.68513">
        <ele>439.9</ele>
        <time>2022-06-07T12:26:58Z</time>
      </trkpt>
      <trkpt lat="46.52753" lon="5.6852">
        <ele>440.3</ele>
        <time>2022-06-07T12:27:03Z</time>
      </trkpt>
      <trkpt lat="46.52752" lon="5.68527">
        <ele>440.9</ele>
        <time>2022-06-07T12:27:08Z</time>
      </trkpt>
      <trkpt lat="46.52755" lon="5.68533">
        <ele>441.4</ele>
        <time>2022-06-07T12:27:12Z</time>
      </trkpt>
      <trkpt lat="46.52758" lon="5.68538">
        <ele>442.3</ele>
        <time>2022-06-07T12:27:16Z</time>
      </trkpt>
      <trkpt lat="46.52756" lon="5.68546">
        <ele>443.4</ele>
        <time>2022-06-07T12:27:21Z</time>
      </trkpt>
      <trkpt lat="46.52755" lon="5.68553">
        <ele>443.9</ele>
        <time>2022-06-07T12:27:26Z</time>
      </trkpt>
      <trkpt lat="46.52754" lon="5.6856">
        <ele>444.2</ele>
        <time>2022-06-07T12:27:30Z</time>
      </trkpt>
      <trkpt lat="46.52753" lon="5.68567">
        <ele>444.3</ele>
        <time>2022-06-07T12:27:35Z</time>
      </trkpt>
      <trkpt lat="46.52752" lon="5.68574">
        <ele>444.6</ele>
        <time>2022-06-07T12:27:40Z</time>
      </trkpt>
      <trkpt lat="46.52752" lon="5.68582">
        <ele>445.1</ele>
        <time>2022-06-07T12:27:45Z</time>
      </trkpt>
      <trkpt lat="46.52752" lon="5.68589">
        <ele>445.7</ele>
        <time>2022-06-07T12:27:50Z</time>
      </trkpt>
      <trkpt lat="46.52752" lon="5.68596">
        <ele>446.4</ele>
        <time>2022-06-07T12:27:56Z</time>
      </trkpt>
      <trkpt lat="46.52751" lon="5.68604">
        <ele>446.7</ele>
        <time>2022-06-07T12:28:02Z</time>
      </trkpt>
      <trkpt lat="46.52751" lon="5.6861">
        <ele>446.7</ele>
        <time>2022-06-07T12:28:06Z</time>
      </trkpt>
      <trkpt lat="46.52752" lon="5.68618">
        <ele>447.5</ele>
        <time>2022-06-07T12:28:10Z</time>
      </trkpt>
      <trkpt lat="46.52752" lon="5.68625">
        <ele>448.3</ele>
        <time>2022-06-07T12:28:14Z</time>
      </trkpt>
      <trkpt lat="46.5275" lon="5.68632">
        <ele>449.6</ele>
        <time>2022-06-07T12:28:21Z</time>
      </trkpt>
      <trkpt lat="46.52752" lon="5.68626">
        <ele>448.7</ele>
        <time>2022-06-07T12:28:38Z</time>
      </trkpt>
      <trkpt lat="46.52744" lon="5.68625">
        <ele>445.9</ele>
        <time>2022-06-07T12:29:07Z</time>
      </trkpt>
      <trkpt lat="46.52742" lon="5.68632">
        <ele>444.8</ele>
        <time>2022-06-07T12:29:12Z</time>
      </trkpt>
      <trkpt lat="46.52744" lon="5.6864">
        <ele>444.2</ele>
        <time>2022-06-07T12:29:17Z</time>
      </trkpt>
      <trkpt lat="46.52746" lon="5.68646">
        <ele>444</ele>
        <time>2022-06-07T12:29:21Z</time>
      </trkpt>
      <trkpt lat="46.52747" lon="5.68652">
        <ele>444.7</ele>
        <time>2022-06-07T12:29:26Z</time>
      </trkpt>
      <trkpt lat="46.5275" lon="5.68658">
        <ele>445.7</ele>
        <time>2022-06-07T12:29:30Z</time>
      </trkpt>
      <trkpt lat="46.52752" lon="5.68664">
        <ele>446.9</ele>
        <time>2022-06-07T12:29:36Z</time>
      </trkpt>
      <trkpt lat="46.52751" lon="5.68671">
        <ele>447.6</ele>
        <time>2022-06-07T12:29:42Z</time>
      </trkpt>
      <trkpt lat="46.52754" lon="5.68677">
        <ele>449</ele>
        <time>2022-06-07T12:29:48Z</time>
      </trkpt>
      <trkpt lat="46.52756" lon="5.68683">
        <ele>450</ele>
        <time>2022-06-07T12:29:53Z</time>
      </trkpt>
      <trkpt lat="46.52756" lon="5.6869">
        <ele>450.9</ele>
        <time>2022-06-07T12:29:57Z</time>
      </trkpt>
      <trkpt lat="46.52755" lon="5.68697">
        <ele>451.3</ele>
        <time>2022-06-07T12:30:00Z</time>
      </trkpt>
      <trkpt lat="46.52756" lon="5.68704">
        <ele>451.4</ele>
        <time>2022-06-07T12:30:04Z</time>
      </trkpt>
      <trkpt lat="46.52757" lon="5.68712">
        <ele>451.4</ele>
        <time>2022-06-07T12:30:09Z</time>
      </trkpt>
      <trkpt lat="46.5276" lon="5.68718">
        <ele>450.9</ele>
        <time>2022-06-07T12:30:14Z</time>
      </trkpt>
      <trkpt lat="46.52764" lon="5.68723">
        <ele>450.9</ele>
        <time>2022-06-07T12:30:18Z</time>
      </trkpt>
      <trkpt lat="46.52765" lon="5.68731">
        <ele>451.1</ele>
        <time>2022-06-07T12:30:25Z</time>
      </trkpt>
      <trkpt lat="46.52764" lon="5.68738">
        <ele>451.4</ele>
        <time>2022-06-07T12:30:30Z</time>
      </trkpt>
      <trkpt lat="46.52763" lon="5.68745">
        <ele>451.2</ele>
        <time>2022-06-07T12:30:34Z</time>
      </trkpt>
      <trkpt lat="46.52763" lon="5.68751">
        <ele>450.5</ele>
        <time>2022-06-07T12:30:38Z</time>
      </trkpt>
      <trkpt lat="46.52766" lon="5.68757">
        <ele>450</ele>
        <time>2022-06-07T12:30:43Z</time>
      </trkpt>
      <trkpt lat="46.52769" lon="5.68762">
        <ele>449.8</ele>
        <time>2022-06-07T12:30:48Z</time>
      </trkpt>
      <trkpt lat="46.52772" lon="5.68768">
        <ele>448.8</ele>
        <time>2022-06-07T12:30:53Z</time>
      </trkpt>
      <trkpt lat="46.52771" lon="5.68775">
        <ele>447.6</ele>
        <time>2022-06-07T12:30:58Z</time>
      </trkpt>
      <trkpt lat="46.52771" lon="5.68783">
        <ele>446.7</ele>
        <time>2022-06-07T12:31:03Z</time>
      </trkpt>
      <trkpt lat="46.52773" lon="5.68789">
        <ele>446.5</ele>
        <time>2022-06-07T12:31:07Z</time>
      </trkpt>
      <trkpt lat="46.52775" lon="5.68795">
        <ele>446.5</ele>
        <time>2022-06-07T12:31:11Z</time>
      </trkpt>
      <trkpt lat="46.52776" lon="5.68802">
        <ele>446.5</ele>
        <time>2022-06-07T12:31:16Z</time>
      </trkpt>
      <trkpt lat="46.52774" lon="5.68808">
        <ele>446.7</ele>
        <time>2022-06-07T12:31:22Z</time>
      </trkpt>
      <trkpt lat="46.52774" lon="5.68815">
        <ele>447.2</ele>
        <time>2022-06-07T12:31:27Z</time>
      </trkpt>
      <trkpt lat="46.52771" lon="5.68822">
        <ele>447.3</ele>
        <time>2022-06-07T12:31:32Z</time>
      </trkpt>
      <trkpt lat="46.5277" lon="5.68829">
        <ele>447</ele>
        <time>2022-06-07T12:31:36Z</time>
      </trkpt>
      <trkpt lat="46.52772" lon="5.68835">
        <ele>446.5</ele>
        <time>2022-06-07T12:31:40Z</time>
      </trkpt>
      <trkpt lat="46.52774" lon="5.68842">
        <ele>446.4</ele>
        <time>2022-06-07T12:31:44Z</time>
      </trkpt>
      <trkpt lat="46.52777" lon="5.68849">
        <ele>447</ele>
        <time>2022-06-07T12:31:48Z</time>
      </trkpt>
      <trkpt lat="46.5278" lon="5.68855">
        <ele>448.1</ele>
        <time>2022-06-07T12:31:52Z</time>
      </trkpt>
      <trkpt lat="46.52782" lon="5.68862">
        <ele>449.6</ele>
        <time>2022-06-07T12:31:57Z</time>
      </trkpt>
      <trkpt lat="46.52786" lon="5.68867">
        <ele>450.8</ele>
        <time>2022-06-07T12:32:02Z</time>
      </trkpt>
      <trkpt lat="46.52787" lon="5.68874">
        <ele>451.1</ele>
        <time>2022-06-07T12:32:07Z</time>
      </trkpt>
      <trkpt lat="46.52789" lon="5.68881">
        <ele>450.6</ele>
        <time>2022-06-07T12:32:11Z</time>
      </trkpt>
      <trkpt lat="46.5279" lon="5.68888">
        <ele>450.4</ele>
        <time>2022-06-07T12:32:16Z</time>
      </trkpt>
      <trkpt lat="46.52791" lon="5.68895">
        <ele>450.4</ele>
        <time>2022-06-07T12:32:22Z</time>
      </trkpt>
      <trkpt lat="46.52794" lon="5.68902">
        <ele>450.6</ele>
        <time>2022-06-07T12:32:27Z</time>
      </trkpt>
      <trkpt lat="46.52796" lon="5.68908">
        <ele>451</ele>
        <time>2022-06-07T12:32:31Z</time>
      </trkpt>
      <trkpt lat="46.52797" lon="5.68914">
        <ele>451.7</ele>
        <time>2022-06-07T12:32:35Z</time>
      </trkpt>
      <trkpt lat="46.52799" lon="5.6892">
        <ele>452.8</ele>
        <time>2022-06-07T12:32:40Z</time>
      </trkpt>
      <trkpt lat="46.52802" lon="5.68926">
        <ele>453.4</ele>
        <time>2022-06-07T12:32:44Z</time>
      </trkpt>
      <trkpt lat="46.52802" lon="5.68933">
        <ele>453.2</ele>
        <time>2022-06-07T12:32:49Z</time>
      </trkpt>
      <trkpt lat="46.52802" lon="5.6894">
        <ele>452.7</ele>
        <time>2022-06-07T12:32:53Z</time>
      </trkpt>
      <trkpt lat="46.52803" lon="5.68947">
        <ele>452.1</ele>
        <time>2022-06-07T12:32:57Z</time>
      </trkpt>
      <trkpt lat="46.52806" lon="5.68953">
        <ele>451.4</ele>
        <time>2022-06-07T12:33:02Z</time>
      </trkpt>
      <trkpt lat="46.52809" lon="5.68958">
        <ele>451.3</ele>
        <time>2022-06-07T12:33:05Z</time>
      </trkpt>
      <trkpt lat="46.52811" lon="5.68964">
        <ele>451.2</ele>
        <time>2022-06-07T12:33:09Z</time>
      </trkpt>
      <trkpt lat="46.52812" lon="5.68971">
        <ele>450.7</ele>
        <time>2022-06-07T12:33:16Z</time>
      </trkpt>
      <trkpt lat="46.52815" lon="5.68978">
        <ele>450.5</ele>
        <time>2022-06-07T12:33:21Z</time>
      </trkpt>
      <trkpt lat="46.52819" lon="5.68984">
        <ele>450.3</ele>
        <time>2022-06-07T12:33:25Z</time>
      </trkpt>
      <trkpt lat="46.52822" lon="5.68988">
        <ele>449.5</ele>
        <time>2022-06-07T12:33:29Z</time>
      </trkpt>
      <trkpt lat="46.52824" lon="5.68995">
        <ele>448.1</ele>
        <time>2022-06-07T12:33:34Z</time>
      </trkpt>
      <trkpt lat="46.52826" lon="5.69003">
        <ele>446.2</ele>
        <time>2022-06-07T12:33:41Z</time>
      </trkpt>
      <trkpt lat="46.52828" lon="5.69009">
        <ele>445.6</ele>
        <time>2022-06-07T12:33:46Z</time>
      </trkpt>
      <trkpt lat="46.52831" lon="5.69014">
        <ele>444.8</ele>
        <time>2022-06-07T12:33:50Z</time>
      </trkpt>
      <trkpt lat="46.52836" lon="5.69019">
        <ele>443.7</ele>
        <time>2022-06-07T12:33:54Z</time>
      </trkpt>
      <trkpt lat="46.52841" lon="5.69022">
        <ele>443.4</ele>
        <time>2022-06-07T12:33:57Z</time>
      </trkpt>
      <trkpt lat="46.52844" lon="5.69028">
        <ele>443.1</ele>
        <time>2022-06-07T12:34:02Z</time>
      </trkpt>
      <trkpt lat="46.52846" lon="5.69035">
        <ele>442.7</ele>
        <time>2022-06-07T12:34:07Z</time>
      </trkpt>
      <trkpt lat="46.52845" lon="5.69042">
        <ele>440.7</ele>
        <time>2022-06-07T12:34:16Z</time>
      </trkpt>
      <trkpt lat="46.5284" lon="5.69045">
        <ele>441.5</ele>
        <time>2022-06-07T12:34:34Z</time>
      </trkpt>
      <trkpt lat="46.52834" lon="5.69044">
        <ele>441.2</ele>
        <time>2022-06-07T12:34:38Z</time>
      </trkpt>
      <trkpt lat="46.52828" lon="5.69043">
        <ele>440.4</ele>
        <time>2022-06-07T12:34:41Z</time>
      </trkpt>
      <trkpt lat="46.52823" lon="5.69043">
        <ele>439.4</ele>
        <time>2022-06-07T12:34:44Z</time>
      </trkpt>
      <trkpt lat="46.52828" lon="5.69041">
        <ele>437.9</ele>
        <time>2022-06-07T12:34:55Z</time>
      </trkpt>
      <trkpt lat="46.52833" lon="5.6904">
        <ele>437.7</ele>
        <time>2022-06-07T12:34:59Z</time>
      </trkpt>
      <trkpt lat="46.52829" lon="5.69043">
        <ele>442.3</ele>
        <time>2022-06-07T12:35:23Z</time>
      </trkpt>
      <trkpt lat="46.52833" lon="5.69047">
        <ele>445.5</ele>
        <time>2022-06-07T12:35:40Z</time>
      </trkpt>
      <trkpt lat="46.52838" lon="5.69047">
        <ele>445.9</ele>
        <time>2022-06-07T12:35:44Z</time>
      </trkpt>
      <trkpt lat="46.52843" lon="5.69047">
        <ele>446.5</ele>
        <time>2022-06-07T12:36:16Z</time>
      </trkpt>
      <trkpt lat="46.52839" lon="5.69043">
        <ele>446.3</ele>
        <time>2022-06-07T12:36:24Z</time>
      </trkpt>
      <trkpt lat="46.52835" lon="5.69043">
        <ele>446.5</ele>
        <time>2022-06-07T12:36:43Z</time>
      </trkpt>
      <trkpt lat="46.52831" lon="5.69047">
        <ele>450.3</ele>
        <time>2022-06-07T12:36:51Z</time>
      </trkpt>
      <trkpt lat="46.52836" lon="5.69049">
        <ele>454</ele>
        <time>2022-06-07T12:37:01Z</time>
      </trkpt>
      <trkpt lat="46.52837" lon="5.69042">
        <ele>455.7</ele>
        <time>2022-06-07T12:37:08Z</time>
      </trkpt>
      <trkpt lat="46.52831" lon="5.69045">
        <ele>443.5</ele>
        <time>2022-06-07T12:37:53Z</time>
      </trkpt>
      <trkpt lat="46.52836" lon="5.69045">
        <ele>445.2</ele>
        <time>2022-06-07T12:38:19Z</time>
      </trkpt>
      <trkpt lat="46.52839" lon="5.6905">
        <ele>445.9</ele>
        <time>2022-06-07T12:38:25Z</time>
      </trkpt>
      <trkpt lat="46.5284" lon="5.69058">
        <ele>448.3</ele>
        <time>2022-06-07T12:38:51Z</time>
      </trkpt>
      <trkpt lat="46.52841" lon="5.69065">
        <ele>448.4</ele>
        <time>2022-06-07T12:38:56Z</time>
      </trkpt>
      <trkpt lat="46.52844" lon="5.69071">
        <ele>447.9</ele>
        <time>2022-06-07T12:39:01Z</time>
      </trkpt>
      <trkpt lat="46.5284" lon="5.69075">
        <ele>446.9</ele>
        <time>2022-06-07T12:39:09Z</time>
      </trkpt>
      <trkpt lat="46.52836" lon="5.69079">
        <ele>446.4</ele>
        <time>2022-06-07T12:39:12Z</time>
      </trkpt>
      <trkpt lat="46.52831" lon="5.69083">
        <ele>445.9</ele>
        <time>2022-06-07T12:39:16Z</time>
      </trkpt>
      <trkpt lat="46.52828" lon="5.69086">
        <ele>446</ele>
        <time>2022-06-07T12:39:20Z</time>
      </trkpt>
      <trkpt lat="46.52823" lon="5.69092">
        <ele>446.3</ele>
        <time>2022-06-07T12:39:24Z</time>
      </trkpt>
      <trkpt lat="46.52821" lon="5.69098">
        <ele>446</ele>
        <time>2022-06-07T12:39:28Z</time>
      </trkpt>
      <trkpt lat="46.52823" lon="5.69105">
        <ele>445.3</ele>
        <time>2022-06-07T12:39:32Z</time>
      </trkpt>
      <trkpt lat="46.52824" lon="5.69112">
        <ele>444.1</ele>
        <time>2022-06-07T12:39:36Z</time>
      </trkpt>
      <trkpt lat="46.52825" lon="5.6912">
        <ele>442.7</ele>
        <time>2022-06-07T12:39:41Z</time>
      </trkpt>
      <trkpt lat="46.52824" lon="5.69127">
        <ele>441.3</ele>
        <time>2022-06-07T12:39:47Z</time>
      </trkpt>
      <trkpt lat="46.52822" lon="5.69133">
        <ele>441.1</ele>
        <time>2022-06-07T12:39:50Z</time>
      </trkpt>
      <trkpt lat="46.5282" lon="5.69141">
        <ele>441.4</ele>
        <time>2022-06-07T12:39:54Z</time>
      </trkpt>
      <trkpt lat="46.52816" lon="5.6914">
        <ele>440.6</ele>
        <time>2022-06-07T12:40:05Z</time>
      </trkpt>
      <trkpt lat="46.52811" lon="5.6914">
        <ele>438.4</ele>
        <time>2022-06-07T12:40:14Z</time>
      </trkpt>
      <trkpt lat="46.52808" lon="5.69145">
        <ele>438.2</ele>
        <time>2022-06-07T12:40:18Z</time>
      </trkpt>
      <trkpt lat="46.52802" lon="5.69146">
        <ele>437.9</ele>
        <time>2022-06-07T12:40:22Z</time>
      </trkpt>
      <trkpt lat="46.52798" lon="5.69152">
        <ele>437.5</ele>
        <time>2022-06-07T12:40:26Z</time>
      </trkpt>
      <trkpt lat="46.52797" lon="5.69159">
        <ele>437.4</ele>
        <time>2022-06-07T12:40:29Z</time>
      </trkpt>
      <trkpt lat="46.52795" lon="5.69166">
        <ele>437</ele>
        <time>2022-06-07T12:40:32Z</time>
      </trkpt>
      <trkpt lat="46.52792" lon="5.69173">
        <ele>435.6</ele>
        <time>2022-06-07T12:40:37Z</time>
      </trkpt>
      <trkpt lat="46.52793" lon="5.6918">
        <ele>433.5</ele>
        <time>2022-06-07T12:40:44Z</time>
      </trkpt>
      <trkpt lat="46.52792" lon="5.69187">
        <ele>432.8</ele>
        <time>2022-06-07T12:40:48Z</time>
      </trkpt>
      <trkpt lat="46.52791" lon="5.69195">
        <ele>432.3</ele>
        <time>2022-06-07T12:40:52Z</time>
      </trkpt>
      <trkpt lat="46.52791" lon="5.69203">
        <ele>432.4</ele>
        <time>2022-06-07T12:40:55Z</time>
      </trkpt>
      <trkpt lat="46.52791" lon="5.69211">
        <ele>432.6</ele>
        <time>2022-06-07T12:40:58Z</time>
      </trkpt>
      <trkpt lat="46.52792" lon="5.69218">
        <ele>432.4</ele>
        <time>2022-06-07T12:41:01Z</time>
      </trkpt>
      <trkpt lat="46.52794" lon="5.69224">
        <ele>432.2</ele>
        <time>2022-06-07T12:41:04Z</time>
      </trkpt>
      <trkpt lat="46.52794" lon="5.69232">
        <ele>432</ele>
        <time>2022-06-07T12:41:08Z</time>
      </trkpt>
      <trkpt lat="46.52792" lon="5.69239">
        <ele>432.3</ele>
        <time>2022-06-07T12:41:12Z</time>
      </trkpt>
      <trkpt lat="46.52787" lon="5.69244">
        <ele>432.5</ele>
        <time>2022-06-07T12:41:15Z</time>
      </trkpt>
      <trkpt lat="46.52783" lon="5.69249">
        <ele>432.7</ele>
        <time>2022-06-07T12:41:19Z</time>
      </trkpt>
      <trkpt lat="46.52779" lon="5.69255">
        <ele>432.4</ele>
        <time>2022-06-07T12:41:23Z</time>
      </trkpt>
      <trkpt lat="46.52775" lon="5.69261">
        <ele>432.6</ele>
        <time>2022-06-07T12:41:26Z</time>
      </trkpt>
      <trkpt lat="46.52772" lon="5.69267">
        <ele>433.1</ele>
        <time>2022-06-07T12:41:30Z</time>
      </trkpt>
      <trkpt lat="46.52769" lon="5.69274">
        <ele>433</ele>
        <time>2022-06-07T12:41:35Z</time>
      </trkpt>
      <trkpt lat="46.52766" lon="5.6928">
        <ele>432.7</ele>
        <time>2022-06-07T12:41:39Z</time>
      </trkpt>
      <trkpt lat="46.52763" lon="5.69285">
        <ele>432.7</ele>
        <time>2022-06-07T12:41:45Z</time>
      </trkpt>
      <trkpt lat="46.52761" lon="5.69293">
        <ele>432.8</ele>
        <time>2022-06-07T12:41:49Z</time>
      </trkpt>
      <trkpt lat="46.52757" lon="5.69299">
        <ele>434</ele>
        <time>2022-06-07T12:41:54Z</time>
      </trkpt>
      <trkpt lat="46.52751" lon="5.69303">
        <ele>434.7</ele>
        <time>2022-06-07T12:41:57Z</time>
      </trkpt>
      <trkpt lat="46.52746" lon="5.69305">
        <ele>435.3</ele>
        <time>2022-06-07T12:42:00Z</time>
      </trkpt>
      <trkpt lat="46.52741" lon="5.69308">
        <ele>435.5</ele>
        <time>2022-06-07T12:42:07Z</time>
      </trkpt>
      <trkpt lat="46.52738" lon="5.69313">
        <ele>436</ele>
        <time>2022-06-07T12:42:14Z</time>
      </trkpt>
      <trkpt lat="46.52735" lon="5.6932">
        <ele>436</ele>
        <time>2022-06-07T12:42:20Z</time>
      </trkpt>
      <trkpt lat="46.52731" lon="5.69323">
        <ele>436</ele>
        <time>2022-06-07T12:42:25Z</time>
      </trkpt>
      <trkpt lat="46.52726" lon="5.69325">
        <ele>436.2</ele>
        <time>2022-06-07T12:42:30Z</time>
      </trkpt>
      <trkpt lat="46.52721" lon="5.69326">
        <ele>436.4</ele>
        <time>2022-06-07T12:42:34Z</time>
      </trkpt>
      <trkpt lat="46.52716" lon="5.69327">
        <ele>436.5</ele>
        <time>2022-06-07T12:42:37Z</time>
      </trkpt>
      <trkpt lat="46.52714" lon="5.69334">
        <ele>436.6</ele>
        <time>2022-06-07T12:42:43Z</time>
      </trkpt>
      <trkpt lat="46.52714" lon="5.69341">
        <ele>436.6</ele>
        <time>2022-06-07T12:42:48Z</time>
      </trkpt>
      <trkpt lat="46.52712" lon="5.69348">
        <ele>436.6</ele>
        <time>2022-06-07T12:42:52Z</time>
      </trkpt>
      <trkpt lat="46.52709" lon="5.69354">
        <ele>436.8</ele>
        <time>2022-06-07T12:42:56Z</time>
      </trkpt>
      <trkpt lat="46.52705" lon="5.69359">
        <ele>436.9</ele>
        <time>2022-06-07T12:43:00Z</time>
      </trkpt>
      <trkpt lat="46.52702" lon="5.69364">
        <ele>436.8</ele>
        <time>2022-06-07T12:43:03Z</time>
      </trkpt>
      <trkpt lat="46.52697" lon="5.69367">
        <ele>436.3</ele>
        <time>2022-06-07T12:43:07Z</time>
      </trkpt>
      <trkpt lat="46.52697" lon="5.69374">
        <ele>435.8</ele>
        <time>2022-06-07T12:43:14Z</time>
      </trkpt>
      <trkpt lat="46.52698" lon="5.69381">
        <ele>435.9</ele>
        <time>2022-06-07T12:43:17Z</time>
      </trkpt>
      <trkpt lat="46.52698" lon="5.69388">
        <ele>435.8</ele>
        <time>2022-06-07T12:43:20Z</time>
      </trkpt>
      <trkpt lat="46.52697" lon="5.69395">
        <ele>435.5</ele>
        <time>2022-06-07T12:43:24Z</time>
      </trkpt>
      <trkpt lat="46.52696" lon="5.69402">
        <ele>435.1</ele>
        <time>2022-06-07T12:43:29Z</time>
      </trkpt>
      <trkpt lat="46.52695" lon="5.69411">
        <ele>435</ele>
        <time>2022-06-07T12:43:33Z</time>
      </trkpt>
      <trkpt lat="46.52694" lon="5.69419">
        <ele>435</ele>
        <time>2022-06-07T12:43:36Z</time>
      </trkpt>
      <trkpt lat="46.52692" lon="5.69426">
        <ele>435.5</ele>
        <time>2022-06-07T12:43:40Z</time>
      </trkpt>
      <trkpt lat="46.52689" lon="5.69433">
        <ele>436.4</ele>
        <time>2022-06-07T12:43:44Z</time>
      </trkpt>
      <trkpt lat="46.52689" lon="5.6944">
        <ele>438.5</ele>
        <time>2022-06-07T12:43:51Z</time>
      </trkpt>
      <trkpt lat="46.52693" lon="5.6944">
        <ele>439.1</ele>
        <time>2022-06-07T12:43:56Z</time>
      </trkpt>
      <trkpt lat="46.52695" lon="5.69447">
        <ele>440.9</ele>
        <time>2022-06-07T12:44:06Z</time>
      </trkpt>
      <trkpt lat="46.527" lon="5.6945">
        <ele>440.7</ele>
        <time>2022-06-07T12:44:10Z</time>
      </trkpt>
      <trkpt lat="46.52705" lon="5.69452">
        <ele>440.5</ele>
        <time>2022-06-07T12:44:14Z</time>
      </trkpt>
      <trkpt lat="46.52709" lon="5.69456">
        <ele>440</ele>
        <time>2022-06-07T12:44:17Z</time>
      </trkpt>
      <trkpt lat="46.52714" lon="5.6946">
        <ele>439.6</ele>
        <time>2022-06-07T12:44:21Z</time>
      </trkpt>
      <trkpt lat="46.52719" lon="5.69459">
        <ele>438.5</ele>
        <time>2022-06-07T12:44:27Z</time>
      </trkpt>
      <trkpt lat="46.52724" lon="5.69457">
        <ele>436.6</ele>
        <time>2022-06-07T12:44:34Z</time>
      </trkpt>
      <trkpt lat="46.52728" lon="5.69457">
        <ele>432.3</ele>
        <time>2022-06-07T12:44:57Z</time>
      </trkpt>
      <trkpt lat="46.52729" lon="5.69464">
        <ele>432</ele>
        <time>2022-06-07T12:45:02Z</time>
      </trkpt>
      <trkpt lat="46.52725" lon="5.69469">
        <ele>433.1</ele>
        <time>2022-06-07T12:45:32Z</time>
      </trkpt>
      <trkpt lat="46.52721" lon="5.69474">
        <ele>433.4</ele>
        <time>2022-06-07T12:45:36Z</time>
      </trkpt>
      <trkpt lat="46.52726" lon="5.69477">
        <ele>434.7</ele>
        <time>2022-06-07T12:46:10Z</time>
      </trkpt>
      <trkpt lat="46.52728" lon="5.6947">
        <ele>436.8</ele>
        <time>2022-06-07T12:46:34Z</time>
      </trkpt>
      <trkpt lat="46.52729" lon="5.69463">
        <ele>437.3</ele>
        <time>2022-06-07T12:46:40Z</time>
      </trkpt>
      <trkpt lat="46.52725" lon="5.69468">
        <ele>438.6</ele>
        <time>2022-06-07T12:46:51Z</time>
      </trkpt>
      <trkpt lat="46.5272" lon="5.69469">
        <ele>439.2</ele>
        <time>2022-06-07T12:46:55Z</time>
      </trkpt>
      <trkpt lat="46.52724" lon="5.69463">
        <ele>440.4</ele>
        <time>2022-06-07T12:47:11Z</time>
      </trkpt>
      <trkpt lat="46.52723" lon="5.69469">
        <ele>440.5</ele>
        <time>2022-06-07T12:47:22Z</time>
      </trkpt>
      <trkpt lat="46.52717" lon="5.69468">
        <ele>441.8</ele>
        <time>2022-06-07T12:47:53Z</time>
      </trkpt>
      <trkpt lat="46.52713" lon="5.69465">
        <ele>442</ele>
        <time>2022-06-07T12:47:56Z</time>
      </trkpt>
      <trkpt lat="46.52708" lon="5.69462">
        <ele>441.3</ele>
        <time>2022-06-07T12:48:01Z</time>
      </trkpt>
      <trkpt lat="46.52714" lon="5.69463">
        <ele>440.7</ele>
        <time>2022-06-07T12:48:08Z</time>
      </trkpt>
      <trkpt lat="46.52719" lon="5.69463">
        <ele>440.5</ele>
        <time>2022-06-07T12:48:11Z</time>
      </trkpt>
      <trkpt lat="46.52724" lon="5.69461">
        <ele>440.5</ele>
        <time>2022-06-07T12:48:14Z</time>
      </trkpt>
      <trkpt lat="46.52729" lon="5.69458">
        <ele>440.7</ele>
        <time>2022-06-07T12:48:18Z</time>
      </trkpt>
      <trkpt lat="46.52733" lon="5.69461">
        <ele>441.1</ele>
        <time>2022-06-07T12:48:25Z</time>
      </trkpt>
      <trkpt lat="46.52733" lon="5.69469">
        <ele>441.8</ele>
        <time>2022-06-07T12:48:30Z</time>
      </trkpt>
      <trkpt lat="46.52721" lon="5.69466">
        <ele>444.3</ele>
        <time>2022-06-07T12:48:55Z</time>
      </trkpt>
      <trkpt lat="46.5272" lon="5.6946">
        <ele>444.7</ele>
        <time>2022-06-07T12:49:04Z</time>
      </trkpt>
      <trkpt lat="46.52718" lon="5.69454">
        <ele>444.6</ele>
        <time>2022-06-07T12:49:15Z</time>
      </trkpt>
      <trkpt lat="46.52712" lon="5.69454">
        <ele>443.5</ele>
        <time>2022-06-07T12:49:21Z</time>
      </trkpt>
      <trkpt lat="46.52716" lon="5.69458">
        <ele>442.9</ele>
        <time>2022-06-07T12:49:31Z</time>
      </trkpt>
      <trkpt lat="46.5272" lon="5.69461">
        <ele>443.3</ele>
        <time>2022-06-07T12:49:41Z</time>
      </trkpt>
      <trkpt lat="46.52715" lon="5.69458">
        <ele>443.1</ele>
        <time>2022-06-07T12:49:49Z</time>
      </trkpt>
      <trkpt lat="46.52713" lon="5.69465">
        <ele>444.1</ele>
        <time>2022-06-07T12:50:09Z</time>
      </trkpt>
      <trkpt lat="46.52712" lon="5.69472">
        <ele>445</ele>
        <time>2022-06-07T12:50:19Z</time>
      </trkpt>
      <trkpt lat="46.52712" lon="5.69465">
        <ele>446</ele>
        <time>2022-06-07T12:50:40Z</time>
      </trkpt>
      <trkpt lat="46.52716" lon="5.69465">
        <ele>446.4</ele>
        <time>2022-06-07T12:50:50Z</time>
      </trkpt>
      <trkpt lat="46.5272" lon="5.69461">
        <ele>446.9</ele>
        <time>2022-06-07T12:50:59Z</time>
      </trkpt>
      <trkpt lat="46.52725" lon="5.6946">
        <ele>448</ele>
        <time>2022-06-07T12:51:16Z</time>
      </trkpt>
      <trkpt lat="46.52721" lon="5.69458">
        <ele>447.7</ele>
        <time>2022-06-07T12:51:22Z</time>
      </trkpt>
      <trkpt lat="46.52718" lon="5.69464">
        <ele>447.2</ele>
        <time>2022-06-07T12:51:29Z</time>
      </trkpt>
      <trkpt lat="46.5272" lon="5.69459">
        <ele>450.6</ele>
        <time>2022-06-07T12:51:54Z</time>
      </trkpt>
      <trkpt lat="46.52725" lon="5.69457">
        <ele>449.6</ele>
        <time>2022-06-07T12:52:09Z</time>
      </trkpt>
      <trkpt lat="46.52728" lon="5.69463">
        <ele>447.9</ele>
        <time>2022-06-07T12:52:39Z</time>
      </trkpt>
      <trkpt lat="46.5273" lon="5.69457">
        <ele>446.3</ele>
        <time>2022-06-07T12:52:49Z</time>
      </trkpt>
      <trkpt lat="46.52726" lon="5.69452">
        <ele>446.5</ele>
        <time>2022-06-07T12:53:03Z</time>
      </trkpt>
      <trkpt lat="46.52726" lon="5.69446">
        <ele>447.5</ele>
        <time>2022-06-07T12:53:22Z</time>
      </trkpt>
      <trkpt lat="46.52725" lon="5.69452">
        <ele>447.5</ele>
        <time>2022-06-07T12:53:30Z</time>
      </trkpt>
      <trkpt lat="46.52727" lon="5.69458">
        <ele>449.4</ele>
        <time>2022-06-07T12:54:16Z</time>
      </trkpt>
      <trkpt lat="46.52722" lon="5.69461">
        <ele>451.2</ele>
        <time>2022-06-07T12:54:48Z</time>
      </trkpt>
      <trkpt lat="46.52717" lon="5.69463">
        <ele>451</ele>
        <time>2022-06-07T12:54:52Z</time>
      </trkpt>
      <trkpt lat="46.52712" lon="5.6946">
        <ele>449.4</ele>
        <time>2022-06-07T12:55:18Z</time>
      </trkpt>
      <trkpt lat="46.52716" lon="5.69462">
        <ele>448.1</ele>
        <time>2022-06-07T12:55:53Z</time>
      </trkpt>
      <trkpt lat="46.52721" lon="5.69457">
        <ele>450.3</ele>
        <time>2022-06-07T12:56:05Z</time>
      </trkpt>
      <trkpt lat="46.5272" lon="5.6945">
        <ele>449.7</ele>
        <time>2022-06-07T12:56:08Z</time>
      </trkpt>
      <trkpt lat="46.52721" lon="5.69457">
        <ele>446.1</ele>
        <time>2022-06-07T12:56:26Z</time>
      </trkpt>
      <trkpt lat="46.52717" lon="5.69451">
        <ele>443.7</ele>
        <time>2022-06-07T12:56:40Z</time>
      </trkpt>
      <trkpt lat="46.52712" lon="5.69446">
        <ele>442.7</ele>
        <time>2022-06-07T12:56:45Z</time>
      </trkpt>
      <trkpt lat="46.52708" lon="5.69444">
        <ele>442.3</ele>
        <time>2022-06-07T12:56:48Z</time>
      </trkpt>
      <trkpt lat="46.52703" lon="5.69439">
        <ele>441.2</ele>
        <time>2022-06-07T12:56:54Z</time>
      </trkpt>
      <trkpt lat="46.52698" lon="5.69435">
        <ele>440.5</ele>
        <time>2022-06-07T12:56:57Z</time>
      </trkpt>
      <trkpt lat="46.52694" lon="5.69431">
        <ele>439.8</ele>
        <time>2022-06-07T12:57:00Z</time>
      </trkpt>
      <trkpt lat="46.5269" lon="5.69428">
        <ele>439</ele>
        <time>2022-06-07T12:57:04Z</time>
      </trkpt>
      <trkpt lat="46.52685" lon="5.69429">
        <ele>438.8</ele>
        <time>2022-06-07T12:57:08Z</time>
      </trkpt>
      <trkpt lat="46.52679" lon="5.69431">
        <ele>439.1</ele>
        <time>2022-06-07T12:57:11Z</time>
      </trkpt>
      <trkpt lat="46.52675" lon="5.69435">
        <ele>440.6</ele>
        <time>2022-06-07T12:57:17Z</time>
      </trkpt>
      <trkpt lat="46.52671" lon="5.6943">
        <ele>442.1</ele>
        <time>2022-06-07T12:57:25Z</time>
      </trkpt>
      <trkpt lat="46.52667" lon="5.69428">
        <ele>442.1</ele>
        <time>2022-06-07T12:57:28Z</time>
      </trkpt>
      <trkpt lat="46.52665" lon="5.69435">
        <ele>443.1</ele>
        <time>2022-06-07T12:57:40Z</time>
      </trkpt>
      <trkpt lat="46.52663" lon="5.69442">
        <ele>444.4</ele>
        <time>2022-06-07T12:57:45Z</time>
      </trkpt>
      <trkpt lat="46.52658" lon="5.69446">
        <ele>445.2</ele>
        <time>2022-06-07T12:57:50Z</time>
      </trkpt>
      <trkpt lat="46.52656" lon="5.69452">
        <ele>446.5</ele>
        <time>2022-06-07T12:57:55Z</time>
      </trkpt>
      <trkpt lat="46.52656" lon="5.69459">
        <ele>448.5</ele>
        <time>2022-06-07T12:58:01Z</time>
      </trkpt>
      <trkpt lat="46.52654" lon="5.69465">
        <ele>453.1</ele>
        <time>2022-06-07T12:58:25Z</time>
      </trkpt>
      <trkpt lat="46.52651" lon="5.69471">
        <ele>454.2</ele>
        <time>2022-06-07T12:58:31Z</time>
      </trkpt>
      <trkpt lat="46.52648" lon="5.69476">
        <ele>454.7</ele>
        <time>2022-06-07T12:58:38Z</time>
      </trkpt>
      <trkpt lat="46.52644" lon="5.69479">
        <ele>453.5</ele>
        <time>2022-06-07T12:58:46Z</time>
      </trkpt>
      <trkpt lat="46.52641" lon="5.69485">
        <ele>452.9</ele>
        <time>2022-06-07T12:58:53Z</time>
      </trkpt>
      <trkpt lat="46.52639" lon="5.69491">
        <ele>452.8</ele>
        <time>2022-06-07T12:58:59Z</time>
      </trkpt>
      <trkpt lat="46.52637" lon="5.69498">
        <ele>453</ele>
        <time>2022-06-07T12:59:04Z</time>
      </trkpt>
      <trkpt lat="46.52634" lon="5.69506">
        <ele>453.4</ele>
        <time>2022-06-07T12:59:07Z</time>
      </trkpt>
      <trkpt lat="46.52635" lon="5.69513">
        <ele>454.1</ele>
        <time>2022-06-07T12:59:10Z</time>
      </trkpt>
      <trkpt lat="46.52636" lon="5.6952">
        <ele>454.6</ele>
        <time>2022-06-07T12:59:15Z</time>
      </trkpt>
      <trkpt lat="46.52633" lon="5.69526">
        <ele>455.5</ele>
        <time>2022-06-07T12:59:21Z</time>
      </trkpt>
      <trkpt lat="46.52632" lon="5.69532">
        <ele>457</ele>
        <time>2022-06-07T12:59:29Z</time>
      </trkpt>
      <trkpt lat="46.52631" lon="5.69539">
        <ele>459</ele>
        <time>2022-06-07T12:59:34Z</time>
      </trkpt>
      <trkpt lat="46.5263" lon="5.69547">
        <ele>461.1</ele>
        <time>2022-06-07T12:59:39Z</time>
      </trkpt>
      <trkpt lat="46.52628" lon="5.69553">
        <ele>462.7</ele>
        <time>2022-06-07T12:59:44Z</time>
      </trkpt>
      <trkpt lat="46.52625" lon="5.69558">
        <ele>463.9</ele>
        <time>2022-06-07T12:59:50Z</time>
      </trkpt>
      <trkpt lat="46.52623" lon="5.69564">
        <ele>465.4</ele>
        <time>2022-06-07T12:59:58Z</time>
      </trkpt>
      <trkpt lat="46.52619" lon="5.69569">
        <ele>467</ele>
        <time>2022-06-07T13:00:05Z</time>
      </trkpt>
      <trkpt lat="46.52615" lon="5.69573">
        <ele>467.8</ele>
        <time>2022-06-07T13:00:10Z</time>
      </trkpt>
      <trkpt lat="46.52612" lon="5.69578">
        <ele>469.3</ele>
        <time>2022-06-07T13:00:17Z</time>
      </trkpt>
      <trkpt lat="46.52611" lon="5.69585">
        <ele>471.3</ele>
        <time>2022-06-07T13:00:33Z</time>
      </trkpt>
      <trkpt lat="46.52608" lon="5.6959">
        <ele>472</ele>
        <time>2022-06-07T13:00:41Z</time>
      </trkpt>
      <trkpt lat="46.52605" lon="5.69595">
        <ele>472.4</ele>
        <time>2022-06-07T13:00:49Z</time>
      </trkpt>
      <trkpt lat="46.52602" lon="5.69602">
        <ele>472.2</ele>
        <time>2022-06-07T13:00:55Z</time>
      </trkpt>
      <trkpt lat="46.52599" lon="5.69608">
        <ele>471.4</ele>
        <time>2022-06-07T13:01:01Z</time>
      </trkpt>
      <trkpt lat="46.526" lon="5.69615">
        <ele>468.3</ele>
        <time>2022-06-07T13:01:22Z</time>
      </trkpt>
      <trkpt lat="46.52599" lon="5.69622">
        <ele>468.2</ele>
        <time>2022-06-07T13:01:34Z</time>
      </trkpt>
      <trkpt lat="46.52598" lon="5.69628">
        <ele>468.6</ele>
        <time>2022-06-07T13:01:41Z</time>
      </trkpt>
      <trkpt lat="46.526" lon="5.69635">
        <ele>469.5</ele>
        <time>2022-06-07T13:01:47Z</time>
      </trkpt>
      <trkpt lat="46.52602" lon="5.69642">
        <ele>469.4</ele>
        <time>2022-06-07T13:01:54Z</time>
      </trkpt>
      <trkpt lat="46.52597" lon="5.69643">
        <ele>469.5</ele>
        <time>2022-06-07T13:02:05Z</time>
      </trkpt>
      <trkpt lat="46.52594" lon="5.69647">
        <ele>469.3</ele>
        <time>2022-06-07T13:02:10Z</time>
      </trkpt>
      <trkpt lat="46.5259" lon="5.69652">
        <ele>469.1</ele>
        <time>2022-06-07T13:02:16Z</time>
      </trkpt>
      <trkpt lat="46.52584" lon="5.69651">
        <ele>470.2</ele>
        <time>2022-06-07T13:02:34Z</time>
      </trkpt>
      <trkpt lat="46.5258" lon="5.6965">
        <ele>472.2</ele>
        <time>2022-06-07T13:02:47Z</time>
      </trkpt>
      <trkpt lat="46.52573" lon="5.6965">
        <ele>473</ele>
        <time>2022-06-07T13:02:58Z</time>
      </trkpt>
      <trkpt lat="46.52568" lon="5.6965">
        <ele>473.5</ele>
        <time>2022-06-07T13:03:03Z</time>
      </trkpt>
      <trkpt lat="46.52563" lon="5.6965">
        <ele>475.4</ele>
        <time>2022-06-07T13:03:11Z</time>
      </trkpt>
      <trkpt lat="46.5256" lon="5.69655">
        <ele>476.6</ele>
        <time>2022-06-07T13:03:16Z</time>
      </trkpt>
      <trkpt lat="46.52558" lon="5.69661">
        <ele>478.3</ele>
        <time>2022-06-07T13:03:21Z</time>
      </trkpt>
      <trkpt lat="46.52553" lon="5.69665">
        <ele>479.7</ele>
        <time>2022-06-07T13:03:27Z</time>
      </trkpt>
      <trkpt lat="46.52549" lon="5.69669">
        <ele>483.9</ele>
        <time>2022-06-07T13:03:38Z</time>
      </trkpt>
      <trkpt lat="46.52551" lon="5.69662">
        <ele>493.3</ele>
        <time>2022-06-07T13:04:01Z</time>
      </trkpt>
      <trkpt lat="46.52546" lon="5.69664">
        <ele>493.9</ele>
        <time>2022-06-07T13:04:07Z</time>
      </trkpt>
      <trkpt lat="46.52545" lon="5.69657">
        <ele>493.8</ele>
        <time>2022-06-07T13:04:20Z</time>
      </trkpt>
      <trkpt lat="46.52542" lon="5.69652">
        <ele>494.2</ele>
        <time>2022-06-07T13:04:24Z</time>
      </trkpt>
      <trkpt lat="46.52538" lon="5.69648">
        <ele>494.8</ele>
        <time>2022-06-07T13:04:31Z</time>
      </trkpt>
      <trkpt lat="46.52533" lon="5.69647">
        <ele>494.2</ele>
        <time>2022-06-07T13:04:38Z</time>
      </trkpt>
      <trkpt lat="46.52537" lon="5.69642">
        <ele>493.9</ele>
        <time>2022-06-07T13:04:50Z</time>
      </trkpt>
      <trkpt lat="46.52534" lon="5.69647">
        <ele>494.4</ele>
        <time>2022-06-07T13:05:12Z</time>
      </trkpt>
      <trkpt lat="46.52536" lon="5.69641">
        <ele>490.2</ele>
        <time>2022-06-07T13:05:42Z</time>
      </trkpt>
      <trkpt lat="46.52538" lon="5.69649">
        <ele>487.9</ele>
        <time>2022-06-07T13:06:17Z</time>
      </trkpt>
      <trkpt lat="46.52541" lon="5.69655">
        <ele>485.7</ele>
        <time>2022-06-07T13:06:25Z</time>
      </trkpt>
      <trkpt lat="46.52539" lon="5.69649">
        <ele>483.7</ele>
        <time>2022-06-07T13:07:12Z</time>
      </trkpt>
      <trkpt lat="46.52544" lon="5.69646">
        <ele>492</ele>
        <time>2022-06-07T13:07:42Z</time>
      </trkpt>
      <trkpt lat="46.52542" lon="5.69652">
        <ele>494.5</ele>
        <time>2022-06-07T13:07:50Z</time>
      </trkpt>
      <trkpt lat="46.52537" lon="5.69654">
        <ele>494.7</ele>
        <time>2022-06-07T13:07:55Z</time>
      </trkpt>
      <trkpt lat="46.52541" lon="5.69651">
        <ele>498.4</ele>
        <time>2022-06-07T13:08:24Z</time>
      </trkpt>
      <trkpt lat="46.52547" lon="5.69652">
        <ele>500.9</ele>
        <time>2022-06-07T13:08:28Z</time>
      </trkpt>
      <trkpt lat="46.52552" lon="5.69653">
        <ele>503.6</ele>
        <time>2022-06-07T13:08:33Z</time>
      </trkpt>
      <trkpt lat="46.52547" lon="5.69648">
        <ele>505</ele>
        <time>2022-06-07T13:08:58Z</time>
      </trkpt>
      <trkpt lat="46.52543" lon="5.6965">
        <ele>504.7</ele>
        <time>2022-06-07T13:09:02Z</time>
      </trkpt>
      <trkpt lat="46.52544" lon="5.69643">
        <ele>504.4</ele>
        <time>2022-06-07T13:09:21Z</time>
      </trkpt>
      <trkpt lat="46.52539" lon="5.69641">
        <ele>504.5</ele>
        <time>2022-06-07T13:09:24Z</time>
      </trkpt>
      <trkpt lat="46.52534" lon="5.69635">
        <ele>504.1</ele>
        <time>2022-06-07T13:09:46Z</time>
      </trkpt>
      <trkpt lat="46.52529" lon="5.69633">
        <ele>503.8</ele>
        <time>2022-06-07T13:09:49Z</time>
      </trkpt>
      <trkpt lat="46.52527" lon="5.69627">
        <ele>503.1</ele>
        <time>2022-06-07T13:09:57Z</time>
      </trkpt>
      <trkpt lat="46.52524" lon="5.69622">
        <ele>502.3</ele>
        <time>2022-06-07T13:10:07Z</time>
      </trkpt>
      <trkpt lat="46.52519" lon="5.69624">
        <ele>501.4</ele>
        <time>2022-06-07T13:10:13Z</time>
      </trkpt>
      <trkpt lat="46.52514" lon="5.69622">
        <ele>500.4</ele>
        <time>2022-06-07T13:10:18Z</time>
      </trkpt>
      <trkpt lat="46.52511" lon="5.69627">
        <ele>496.6</ele>
        <time>2022-06-07T13:10:42Z</time>
      </trkpt>
      <trkpt lat="46.52506" lon="5.69629">
        <ele>496.6</ele>
        <time>2022-06-07T13:10:46Z</time>
      </trkpt>
      <trkpt lat="46.52501" lon="5.69628">
        <ele>496.8</ele>
        <time>2022-06-07T13:10:50Z</time>
      </trkpt>
      <trkpt lat="46.52495" lon="5.69628">
        <ele>496.2</ele>
        <time>2022-06-07T13:11:01Z</time>
      </trkpt>
      <trkpt lat="46.52491" lon="5.69629">
        <ele>495.8</ele>
        <time>2022-06-07T13:11:04Z</time>
      </trkpt>
      <trkpt lat="46.52487" lon="5.69625">
        <ele>495.6</ele>
        <time>2022-06-07T13:11:10Z</time>
      </trkpt>
      <trkpt lat="46.52489" lon="5.69618">
        <ele>495.4</ele>
        <time>2022-06-07T13:11:18Z</time>
      </trkpt>
      <trkpt lat="46.52488" lon="5.69611">
        <ele>494.6</ele>
        <time>2022-06-07T13:11:25Z</time>
      </trkpt>
      <trkpt lat="46.52484" lon="5.69607">
        <ele>494.8</ele>
        <time>2022-06-07T13:11:34Z</time>
      </trkpt>
      <trkpt lat="46.5248" lon="5.69607">
        <ele>495</ele>
        <time>2022-06-07T13:11:38Z</time>
      </trkpt>
      <trkpt lat="46.52475" lon="5.69605">
        <ele>495.1</ele>
        <time>2022-06-07T13:11:42Z</time>
      </trkpt>
      <trkpt lat="46.5247" lon="5.69603">
        <ele>494.7</ele>
        <time>2022-06-07T13:11:47Z</time>
      </trkpt>
      <trkpt lat="46.52467" lon="5.69597">
        <ele>494.7</ele>
        <time>2022-06-07T13:11:54Z</time>
      </trkpt>
      <trkpt lat="46.52463" lon="5.69593">
        <ele>494.3</ele>
        <time>2022-06-07T13:12:00Z</time>
      </trkpt>
      <trkpt lat="46.52459" lon="5.69589">
        <ele>493.9</ele>
        <time>2022-06-07T13:12:04Z</time>
      </trkpt>
      <trkpt lat="46.52454" lon="5.69588">
        <ele>493.5</ele>
        <time>2022-06-07T13:12:08Z</time>
      </trkpt>
      <trkpt lat="46.52449" lon="5.69587">
        <ele>492.7</ele>
        <time>2022-06-07T13:12:15Z</time>
      </trkpt>
      <trkpt lat="46.52444" lon="5.69585">
        <ele>492.6</ele>
        <time>2022-06-07T13:12:19Z</time>
      </trkpt>
      <trkpt lat="46.52439" lon="5.69583">
        <ele>492.5</ele>
        <time>2022-06-07T13:12:24Z</time>
      </trkpt>
      <trkpt lat="46.52434" lon="5.6958">
        <ele>493.2</ele>
        <time>2022-06-07T13:12:29Z</time>
      </trkpt>
      <trkpt lat="46.52429" lon="5.6958">
        <ele>493.7</ele>
        <time>2022-06-07T13:12:34Z</time>
      </trkpt>
      <trkpt lat="46.52424" lon="5.69579">
        <ele>494.4</ele>
        <time>2022-06-07T13:12:39Z</time>
      </trkpt>
      <trkpt lat="46.52419" lon="5.69577">
        <ele>494.6</ele>
        <time>2022-06-07T13:12:45Z</time>
      </trkpt>
      <trkpt lat="46.52415" lon="5.69578">
        <ele>495.1</ele>
        <time>2022-06-07T13:12:50Z</time>
      </trkpt>
      <trkpt lat="46.5241" lon="5.69579">
        <ele>495.6</ele>
        <time>2022-06-07T13:12:54Z</time>
      </trkpt>
      <trkpt lat="46.52404" lon="5.69579">
        <ele>496</ele>
        <time>2022-06-07T13:13:00Z</time>
      </trkpt>
      <trkpt lat="46.524" lon="5.6958">
        <ele>496.5</ele>
        <time>2022-06-07T13:13:04Z</time>
      </trkpt>
      <trkpt lat="46.52394" lon="5.6958">
        <ele>497</ele>
        <time>2022-06-07T13:13:08Z</time>
      </trkpt>
      <trkpt lat="46.5239" lon="5.69579">
        <ele>498</ele>
        <time>2022-06-07T13:13:14Z</time>
      </trkpt>
      <trkpt lat="46.52384" lon="5.69577">
        <ele>499.1</ele>
        <time>2022-06-07T13:13:19Z</time>
      </trkpt>
      <trkpt lat="46.5238" lon="5.69574">
        <ele>499.6</ele>
        <time>2022-06-07T13:13:23Z</time>
      </trkpt>
      <trkpt lat="46.52376" lon="5.69569">
        <ele>499.7</ele>
        <time>2022-06-07T13:13:27Z</time>
      </trkpt>
      <trkpt lat="46.52373" lon="5.69563">
        <ele>499.7</ele>
        <time>2022-06-07T13:13:32Z</time>
      </trkpt>
      <trkpt lat="46.5237" lon="5.69558">
        <ele>500.1</ele>
        <time>2022-06-07T13:13:37Z</time>
      </trkpt>
      <trkpt lat="46.52367" lon="5.69552">
        <ele>501.3</ele>
        <time>2022-06-07T13:13:42Z</time>
      </trkpt>
      <trkpt lat="46.52363" lon="5.69547">
        <ele>502.6</ele>
        <time>2022-06-07T13:13:47Z</time>
      </trkpt>
      <trkpt lat="46.5236" lon="5.69541">
        <ele>503.4</ele>
        <time>2022-06-07T13:13:52Z</time>
      </trkpt>
      <trkpt lat="46.52356" lon="5.69536">
        <ele>503.7</ele>
        <time>2022-06-07T13:13:56Z</time>
      </trkpt>
      <trkpt lat="46.52352" lon="5.69532">
        <ele>503.6</ele>
        <time>2022-06-07T13:14:00Z</time>
      </trkpt>
      <trkpt lat="46.52349" lon="5.69528">
        <ele>503</ele>
        <time>2022-06-07T13:14:05Z</time>
      </trkpt>
      <trkpt lat="46.52345" lon="5.69523">
        <ele>502.8</ele>
        <time>2022-06-07T13:14:09Z</time>
      </trkpt>
      <trkpt lat="46.52343" lon="5.69518">
        <ele>502.6</ele>
        <time>2022-06-07T13:14:14Z</time>
      </trkpt>
      <trkpt lat="46.5234" lon="5.69511">
        <ele>502.2</ele>
        <time>2022-06-07T13:14:19Z</time>
      </trkpt>
      <trkpt lat="46.52338" lon="5.69504">
        <ele>502</ele>
        <time>2022-06-07T13:14:26Z</time>
      </trkpt>
      <trkpt lat="46.52343" lon="5.695">
        <ele>502.1</ele>
        <time>2022-06-07T13:15:04Z</time>
      </trkpt>
      <trkpt lat="46.52347" lon="5.69502">
        <ele>502.4</ele>
        <time>2022-06-07T13:15:09Z</time>
      </trkpt>
      <trkpt lat="46.52344" lon="5.69497">
        <ele>503.1</ele>
        <time>2022-06-07T13:15:22Z</time>
      </trkpt>
      <trkpt lat="46.52339" lon="5.69501">
        <ele>503.1</ele>
        <time>2022-06-07T13:15:27Z</time>
      </trkpt>
      <trkpt lat="46.52335" lon="5.69503">
        <ele>501.8</ele>
        <time>2022-06-07T13:16:13Z</time>
      </trkpt>
      <trkpt lat="46.52329" lon="5.69503">
        <ele>503.2</ele>
        <time>2022-06-07T13:16:19Z</time>
      </trkpt>
      <trkpt lat="46.52334" lon="5.69504">
        <ele>505.4</ele>
        <time>2022-06-07T13:16:24Z</time>
      </trkpt>
      <trkpt lat="46.52339" lon="5.69503">
        <ele>507.1</ele>
        <time>2022-06-07T13:16:29Z</time>
      </trkpt>
      <trkpt lat="46.52334" lon="5.69504">
        <ele>503.9</ele>
        <time>2022-06-07T13:16:55Z</time>
      </trkpt>
      <trkpt lat="46.5233" lon="5.69507">
        <ele>503.7</ele>
        <time>2022-06-07T13:16:58Z</time>
      </trkpt>
      <trkpt lat="46.52334" lon="5.69508">
        <ele>503.5</ele>
        <time>2022-06-07T13:17:18Z</time>
      </trkpt>
      <trkpt lat="46.52339" lon="5.69509">
        <ele>502.8</ele>
        <time>2022-06-07T13:17:21Z</time>
      </trkpt>
      <trkpt lat="46.52344" lon="5.6951">
        <ele>501.4</ele>
        <time>2022-06-07T13:17:25Z</time>
      </trkpt>
      <trkpt lat="46.52349" lon="5.69512">
        <ele>496.2</ele>
        <time>2022-06-07T13:17:37Z</time>
      </trkpt>
      <trkpt lat="46.52344" lon="5.69509">
        <ele>490.6</ele>
        <time>2022-06-07T13:18:09Z</time>
      </trkpt>
      <trkpt lat="46.5234" lon="5.69509">
        <ele>490.9</ele>
        <time>2022-06-07T13:18:21Z</time>
      </trkpt>
      <trkpt lat="46.52336" lon="5.69512">
        <ele>490.9</ele>
        <time>2022-06-07T13:18:27Z</time>
      </trkpt>
      <trkpt lat="46.52331" lon="5.69513">
        <ele>490.9</ele>
        <time>2022-06-07T13:18:30Z</time>
      </trkpt>
      <trkpt lat="46.52326" lon="5.69515">
        <ele>491.2</ele>
        <time>2022-06-07T13:18:41Z</time>
      </trkpt>
      <trkpt lat="46.52329" lon="5.6951">
        <ele>492.2</ele>
        <time>2022-06-07T13:18:55Z</time>
      </trkpt>
      <trkpt lat="46.52334" lon="5.69515">
        <ele>492</ele>
        <time>2022-06-07T13:18:58Z</time>
      </trkpt>
      <trkpt lat="46.52338" lon="5.69519">
        <ele>492</ele>
        <time>2022-06-07T13:19:34Z</time>
      </trkpt>
      <trkpt lat="46.52339" lon="5.69512">
        <ele>494.8</ele>
        <time>2022-06-07T13:19:58Z</time>
      </trkpt>
      <trkpt lat="46.52339" lon="5.69505">
        <ele>500.4</ele>
        <time>2022-06-07T13:20:26Z</time>
      </trkpt>
      <trkpt lat="46.52338" lon="5.69499">
        <ele>501.8</ele>
        <time>2022-06-07T13:20:47Z</time>
      </trkpt>
      <trkpt lat="46.52337" lon="5.69492">
        <ele>502.4</ele>
        <time>2022-06-07T13:20:54Z</time>
      </trkpt>
      <trkpt lat="46.5234" lon="5.69497">
        <ele>502.3</ele>
        <time>2022-06-07T13:21:00Z</time>
      </trkpt>
      <trkpt lat="46.5234" lon="5.69491">
        <ele>505.5</ele>
        <time>2022-06-07T13:22:09Z</time>
      </trkpt>
      <trkpt lat="46.52343" lon="5.69486">
        <ele>502.9</ele>
        <time>2022-06-07T13:22:16Z</time>
      </trkpt>
      <trkpt lat="46.52347" lon="5.69481">
        <ele>498.8</ele>
        <time>2022-06-07T13:22:29Z</time>
      </trkpt>
      <trkpt lat="46.52347" lon="5.69475">
        <ele>498.5</ele>
        <time>2022-06-07T13:22:38Z</time>
      </trkpt>
      <trkpt lat="46.52346" lon="5.69469">
        <ele>497.4</ele>
        <time>2022-06-07T13:22:55Z</time>
      </trkpt>
      <trkpt lat="46.52348" lon="5.69462">
        <ele>496.1</ele>
        <time>2022-06-07T13:23:01Z</time>
      </trkpt>
      <trkpt lat="46.52348" lon="5.69455">
        <ele>495.7</ele>
        <time>2022-06-07T13:23:10Z</time>
      </trkpt>
      <trkpt lat="46.52346" lon="5.69448">
        <ele>496.9</ele>
        <time>2022-06-07T13:23:16Z</time>
      </trkpt>
      <trkpt lat="46.52343" lon="5.69443">
        <ele>498.3</ele>
        <time>2022-06-07T13:23:21Z</time>
      </trkpt>
      <trkpt lat="46.52342" lon="5.69436">
        <ele>501.4</ele>
        <time>2022-06-07T13:23:55Z</time>
      </trkpt>
      <trkpt lat="46.52341" lon="5.69429">
        <ele>500.5</ele>
        <time>2022-06-07T13:24:00Z</time>
      </trkpt>
      <trkpt lat="46.5234" lon="5.69423">
        <ele>498.8</ele>
        <time>2022-06-07T13:24:06Z</time>
      </trkpt>
      <trkpt lat="46.5234" lon="5.69416">
        <ele>497</ele>
        <time>2022-06-07T13:24:12Z</time>
      </trkpt>
      <trkpt lat="46.52341" lon="5.69409">
        <ele>495.6</ele>
        <time>2022-06-07T13:24:24Z</time>
      </trkpt>
      <trkpt lat="46.52339" lon="5.69403">
        <ele>496.7</ele>
        <time>2022-06-07T13:24:33Z</time>
      </trkpt>
      <trkpt lat="46.52338" lon="5.69397">
        <ele>497.1</ele>
        <time>2022-06-07T13:24:41Z</time>
      </trkpt>
      <trkpt lat="46.52334" lon="5.69393">
        <ele>497.6</ele>
        <time>2022-06-07T13:24:49Z</time>
      </trkpt>
      <trkpt lat="46.52338" lon="5.69397">
        <ele>496.7</ele>
        <time>2022-06-07T13:28:42Z</time>
      </trkpt>
      <trkpt lat="46.52342" lon="5.69401">
        <ele>496.8</ele>
        <time>2022-06-07T13:28:51Z</time>
      </trkpt>
      <trkpt lat="46.52345" lon="5.69396">
        <ele>495.4</ele>
        <time>2022-06-07T13:29:04Z</time>
      </trkpt>
      <trkpt lat="46.52348" lon="5.69391">
        <ele>494.9</ele>
        <time>2022-06-07T13:29:12Z</time>
      </trkpt>
      <trkpt lat="46.52351" lon="5.69384">
        <ele>494.5</ele>
        <time>2022-06-07T13:29:20Z</time>
      </trkpt>
      <trkpt lat="46.52352" lon="5.69378">
        <ele>494.1</ele>
        <time>2022-06-07T13:29:25Z</time>
      </trkpt>
      <trkpt lat="46.52356" lon="5.69372">
        <ele>494</ele>
        <time>2022-06-07T13:29:31Z</time>
      </trkpt>
      <trkpt lat="46.52359" lon="5.69366">
        <ele>494.3</ele>
        <time>2022-06-07T13:29:37Z</time>
      </trkpt>
      <trkpt lat="46.52361" lon="5.69359">
        <ele>494.8</ele>
        <time>2022-06-07T13:29:42Z</time>
      </trkpt>
      <trkpt lat="46.52363" lon="5.69353">
        <ele>495.5</ele>
        <time>2022-06-07T13:29:48Z</time>
      </trkpt>
      <trkpt lat="46.52367" lon="5.6935">
        <ele>496.1</ele>
        <time>2022-06-07T13:29:52Z</time>
      </trkpt>
      <trkpt lat="46.52371" lon="5.69345">
        <ele>496.8</ele>
        <time>2022-06-07T13:29:57Z</time>
      </trkpt>
      <trkpt lat="46.52374" lon="5.69339">
        <ele>497.8</ele>
        <time>2022-06-07T13:30:02Z</time>
      </trkpt>
      <trkpt lat="46.52377" lon="5.69333">
        <ele>499.5</ele>
        <time>2022-06-07T13:30:08Z</time>
      </trkpt>
      <trkpt lat="46.52381" lon="5.69325">
        <ele>502.1</ele>
        <time>2022-06-07T13:30:16Z</time>
      </trkpt>
      <trkpt lat="46.52384" lon="5.6932">
        <ele>502.9</ele>
        <time>2022-06-07T13:30:21Z</time>
      </trkpt>
      <trkpt lat="46.52388" lon="5.69315">
        <ele>503.1</ele>
        <time>2022-06-07T13:30:26Z</time>
      </trkpt>
      <trkpt lat="46.52392" lon="5.6931">
        <ele>503.5</ele>
        <time>2022-06-07T13:30:31Z</time>
      </trkpt>
      <trkpt lat="46.52396" lon="5.69305">
        <ele>504.1</ele>
        <time>2022-06-07T13:30:36Z</time>
      </trkpt>
      <trkpt lat="46.52399" lon="5.69298">
        <ele>504.5</ele>
        <time>2022-06-07T13:30:41Z</time>
      </trkpt>
      <trkpt lat="46.52401" lon="5.69291">
        <ele>505.4</ele>
        <time>2022-06-07T13:30:49Z</time>
      </trkpt>
      <trkpt lat="46.52406" lon="5.69291">
        <ele>506.1</ele>
        <time>2022-06-07T13:31:02Z</time>
      </trkpt>
      <trkpt lat="46.5241" lon="5.69292">
        <ele>505.4</ele>
        <time>2022-06-07T13:31:06Z</time>
      </trkpt>
      <trkpt lat="46.52415" lon="5.69293">
        <ele>504.6</ele>
        <time>2022-06-07T13:31:11Z</time>
      </trkpt>
      <trkpt lat="46.5242" lon="5.69294">
        <ele>503.9</ele>
        <time>2022-06-07T13:31:17Z</time>
      </trkpt>
      <trkpt lat="46.52425" lon="5.69297">
        <ele>503.4</ele>
        <time>2022-06-07T13:31:24Z</time>
      </trkpt>
      <trkpt lat="46.52431" lon="5.693">
        <ele>503</ele>
        <time>2022-06-07T13:31:27Z</time>
      </trkpt>
      <trkpt lat="46.52436" lon="5.69303">
        <ele>502.1</ele>
        <time>2022-06-07T13:31:31Z</time>
      </trkpt>
      <trkpt lat="46.52441" lon="5.69304">
        <ele>501.5</ele>
        <time>2022-06-07T13:31:34Z</time>
      </trkpt>
      <trkpt lat="46.52447" lon="5.69305">
        <ele>501.2</ele>
        <time>2022-06-07T13:31:37Z</time>
      </trkpt>
      <trkpt lat="46.52452" lon="5.69307">
        <ele>501.4</ele>
        <time>2022-06-07T13:31:41Z</time>
      </trkpt>
      <trkpt lat="46.52456" lon="5.69311">
        <ele>501.7</ele>
        <time>2022-06-07T13:31:47Z</time>
      </trkpt>
      <trkpt lat="46.52461" lon="5.69313">
        <ele>501.7</ele>
        <time>2022-06-07T13:31:51Z</time>
      </trkpt>
      <trkpt lat="46.52465" lon="5.69316">
        <ele>501.8</ele>
        <time>2022-06-07T13:31:56Z</time>
      </trkpt>
      <trkpt lat="46.5247" lon="5.69316">
        <ele>502.5</ele>
        <time>2022-06-07T13:32:01Z</time>
      </trkpt>
      <trkpt lat="46.52475" lon="5.69315">
        <ele>503.6</ele>
        <time>2022-06-07T13:32:06Z</time>
      </trkpt>
      <trkpt lat="46.52481" lon="5.69314">
        <ele>504.6</ele>
        <time>2022-06-07T13:32:10Z</time>
      </trkpt>
      <trkpt lat="46.52486" lon="5.69313">
        <ele>505.6</ele>
        <time>2022-06-07T13:32:14Z</time>
      </trkpt>
      <trkpt lat="46.52491" lon="5.69313">
        <ele>506.1</ele>
        <time>2022-06-07T13:32:18Z</time>
      </trkpt>
      <trkpt lat="46.52496" lon="5.69312">
        <ele>506.4</ele>
        <time>2022-06-07T13:32:22Z</time>
      </trkpt>
      <trkpt lat="46.52501" lon="5.6931">
        <ele>506.3</ele>
        <time>2022-06-07T13:32:27Z</time>
      </trkpt>
      <trkpt lat="46.52504" lon="5.69305">
        <ele>505.9</ele>
        <time>2022-06-07T13:32:34Z</time>
      </trkpt>
      <trkpt lat="46.52507" lon="5.69299">
        <ele>506.3</ele>
        <time>2022-06-07T13:32:40Z</time>
      </trkpt>
      <trkpt lat="46.5251" lon="5.69293">
        <ele>506.7</ele>
        <time>2022-06-07T13:32:44Z</time>
      </trkpt>
      <trkpt lat="46.52512" lon="5.69287">
        <ele>507.1</ele>
        <time>2022-06-07T13:32:48Z</time>
      </trkpt>
      <trkpt lat="46.52514" lon="5.6928">
        <ele>507.6</ele>
        <time>2022-06-07T13:32:53Z</time>
      </trkpt>
      <trkpt lat="46.52518" lon="5.69276">
        <ele>508.3</ele>
        <time>2022-06-07T13:32:58Z</time>
      </trkpt>
      <trkpt lat="46.52521" lon="5.69271">
        <ele>509.5</ele>
        <time>2022-06-07T13:33:03Z</time>
      </trkpt>
      <trkpt lat="46.52525" lon="5.69265">
        <ele>510.5</ele>
        <time>2022-06-07T13:33:08Z</time>
      </trkpt>
      <trkpt lat="46.52529" lon="5.6926">
        <ele>512</ele>
        <time>2022-06-07T13:33:13Z</time>
      </trkpt>
      <trkpt lat="46.52533" lon="5.69256">
        <ele>513.3</ele>
        <time>2022-06-07T13:33:18Z</time>
      </trkpt>
      <trkpt lat="46.52535" lon="5.6925">
        <ele>514.2</ele>
        <time>2022-06-07T13:33:24Z</time>
      </trkpt>
      <trkpt lat="46.52539" lon="5.69245">
        <ele>514.7</ele>
        <time>2022-06-07T13:33:30Z</time>
      </trkpt>
      <trkpt lat="46.52542" lon="5.6924">
        <ele>514.7</ele>
        <time>2022-06-07T13:33:36Z</time>
      </trkpt>
      <trkpt lat="46.52543" lon="5.69233">
        <ele>514.1</ele>
        <time>2022-06-07T13:33:42Z</time>
      </trkpt>
      <trkpt lat="46.52543" lon="5.69226">
        <ele>513.1</ele>
        <time>2022-06-07T13:33:48Z</time>
      </trkpt>
      <trkpt lat="46.52544" lon="5.69219">
        <ele>512.8</ele>
        <time>2022-06-07T13:33:53Z</time>
      </trkpt>
      <trkpt lat="46.52546" lon="5.69213">
        <ele>512.7</ele>
        <time>2022-06-07T13:33:57Z</time>
      </trkpt>
      <trkpt lat="46.52549" lon="5.69207">
        <ele>512.5</ele>
        <time>2022-06-07T13:34:01Z</time>
      </trkpt>
      <trkpt lat="46.52553" lon="5.69203">
        <ele>512.1</ele>
        <time>2022-06-07T13:34:06Z</time>
      </trkpt>
      <trkpt lat="46.52555" lon="5.69198">
        <ele>511.8</ele>
        <time>2022-06-07T13:34:11Z</time>
      </trkpt>
      <trkpt lat="46.52557" lon="5.6919">
        <ele>512.2</ele>
        <time>2022-06-07T13:34:16Z</time>
      </trkpt>
      <trkpt lat="46.52559" lon="5.69183">
        <ele>512.8</ele>
        <time>2022-06-07T13:34:20Z</time>
      </trkpt>
      <trkpt lat="46.52562" lon="5.69176">
        <ele>513.6</ele>
        <time>2022-06-07T13:34:24Z</time>
      </trkpt>
      <trkpt lat="46.52564" lon="5.6917">
        <ele>514.8</ele>
        <time>2022-06-07T13:34:28Z</time>
      </trkpt>
      <trkpt lat="46.52564" lon="5.69163">
        <ele>515.7</ele>
        <time>2022-06-07T13:34:32Z</time>
      </trkpt>
      <trkpt lat="46.52562" lon="5.69156">
        <ele>516.5</ele>
        <time>2022-06-07T13:34:36Z</time>
      </trkpt>
      <trkpt lat="46.5256" lon="5.6915">
        <ele>516.7</ele>
        <time>2022-06-07T13:34:40Z</time>
      </trkpt>
      <trkpt lat="46.52558" lon="5.69143">
        <ele>516.7</ele>
        <time>2022-06-07T13:34:45Z</time>
      </trkpt>
      <trkpt lat="46.52557" lon="5.69135">
        <ele>516.8</ele>
        <time>2022-06-07T13:34:50Z</time>
      </trkpt>
      <trkpt lat="46.52555" lon="5.69129">
        <ele>517</ele>
        <time>2022-06-07T13:34:54Z</time>
      </trkpt>
      <trkpt lat="46.52553" lon="5.69121">
        <ele>517.2</ele>
        <time>2022-06-07T13:34:59Z</time>
      </trkpt>
      <trkpt lat="46.52552" lon="5.69114">
        <ele>517.4</ele>
        <time>2022-06-07T13:35:05Z</time>
      </trkpt>
      <trkpt lat="46.5255" lon="5.69107">
        <ele>517.3</ele>
        <time>2022-06-07T13:35:10Z</time>
      </trkpt>
      <trkpt lat="46.52548" lon="5.69101">
        <ele>517.2</ele>
        <time>2022-06-07T13:35:14Z</time>
      </trkpt>
      <trkpt lat="46.52547" lon="5.69094">
        <ele>517.3</ele>
        <time>2022-06-07T13:35:19Z</time>
      </trkpt>
      <trkpt lat="46.52547" lon="5.69087">
        <ele>517.6</ele>
        <time>2022-06-07T13:35:24Z</time>
      </trkpt>
      <trkpt lat="46.52546" lon="5.69079">
        <ele>518.2</ele>
        <time>2022-06-07T13:35:30Z</time>
      </trkpt>
      <trkpt lat="46.52547" lon="5.69072">
        <ele>518.4</ele>
        <time>2022-06-07T13:35:36Z</time>
      </trkpt>
      <trkpt lat="46.52548" lon="5.69065">
        <ele>518.8</ele>
        <time>2022-06-07T13:35:42Z</time>
      </trkpt>
      <trkpt lat="46.52547" lon="5.69059">
        <ele>519</ele>
        <time>2022-06-07T13:35:47Z</time>
      </trkpt>
      <trkpt lat="46.52545" lon="5.69053">
        <ele>519.1</ele>
        <time>2022-06-07T13:35:52Z</time>
      </trkpt>
      <trkpt lat="46.52544" lon="5.69046">
        <ele>518.9</ele>
        <time>2022-06-07T13:35:57Z</time>
      </trkpt>
      <trkpt lat="46.52541" lon="5.69039">
        <ele>518.3</ele>
        <time>2022-06-07T13:36:02Z</time>
      </trkpt>
      <trkpt lat="46.5254" lon="5.69032">
        <ele>517.4</ele>
        <time>2022-06-07T13:36:08Z</time>
      </trkpt>
      <trkpt lat="46.5254" lon="5.69024">
        <ele>515.9</ele>
        <time>2022-06-07T13:36:14Z</time>
      </trkpt>
      <trkpt lat="46.52539" lon="5.69017">
        <ele>515.1</ele>
        <time>2022-06-07T13:36:19Z</time>
      </trkpt>
      <trkpt lat="46.52537" lon="5.69009">
        <ele>514.8</ele>
        <time>2022-06-07T13:36:23Z</time>
      </trkpt>
      <trkpt lat="46.52534" lon="5.69003">
        <ele>514.7</ele>
        <time>2022-06-07T13:36:26Z</time>
      </trkpt>
      <trkpt lat="46.52532" lon="5.68996">
        <ele>514.7</ele>
        <time>2022-06-07T13:36:30Z</time>
      </trkpt>
      <trkpt lat="46.5253" lon="5.6899">
        <ele>515.2</ele>
        <time>2022-06-07T13:36:34Z</time>
      </trkpt>
      <trkpt lat="46.5253" lon="5.68983">
        <ele>516</ele>
        <time>2022-06-07T13:36:38Z</time>
      </trkpt>
      <trkpt lat="46.52529" lon="5.68976">
        <ele>516.9</ele>
        <time>2022-06-07T13:36:42Z</time>
      </trkpt>
      <trkpt lat="46.52528" lon="5.68968">
        <ele>517.7</ele>
        <time>2022-06-07T13:36:46Z</time>
      </trkpt>
      <trkpt lat="46.52527" lon="5.6896">
        <ele>518.3</ele>
        <time>2022-06-07T13:36:50Z</time>
      </trkpt>
      <trkpt lat="46.52526" lon="5.68953">
        <ele>518.5</ele>
        <time>2022-06-07T13:36:54Z</time>
      </trkpt>
      <trkpt lat="46.52523" lon="5.68946">
        <ele>518.3</ele>
        <time>2022-06-07T13:36:59Z</time>
      </trkpt>
      <trkpt lat="46.52522" lon="5.68938">
        <ele>518.1</ele>
        <time>2022-06-07T13:37:03Z</time>
      </trkpt>
      <trkpt lat="46.52521" lon="5.68932">
        <ele>518.3</ele>
        <time>2022-06-07T13:37:07Z</time>
      </trkpt>
      <trkpt lat="46.52519" lon="5.68926">
        <ele>518.9</ele>
        <time>2022-06-07T13:37:12Z</time>
      </trkpt>
      <trkpt lat="46.52517" lon="5.68919">
        <ele>519.5</ele>
        <time>2022-06-07T13:37:20Z</time>
      </trkpt>
      <trkpt lat="46.52515" lon="5.68912">
        <ele>519.5</ele>
        <time>2022-06-07T13:37:25Z</time>
      </trkpt>
      <trkpt lat="46.52513" lon="5.68905">
        <ele>519.6</ele>
        <time>2022-06-07T13:37:30Z</time>
      </trkpt>
      <trkpt lat="46.52511" lon="5.68898">
        <ele>519.1</ele>
        <time>2022-06-07T13:37:34Z</time>
      </trkpt>
      <trkpt lat="46.5251" lon="5.68891">
        <ele>518.6</ele>
        <time>2022-06-07T13:37:38Z</time>
      </trkpt>
      <trkpt lat="46.5251" lon="5.68885">
        <ele>518.4</ele>
        <time>2022-06-07T13:37:42Z</time>
      </trkpt>
      <trkpt lat="46.52508" lon="5.68877">
        <ele>518.6</ele>
        <time>2022-06-07T13:37:47Z</time>
      </trkpt>
      <trkpt lat="46.52507" lon="5.68871">
        <ele>518.8</ele>
        <time>2022-06-07T13:37:51Z</time>
      </trkpt>
      <trkpt lat="46.52505" lon="5.68864">
        <ele>519.4</ele>
        <time>2022-06-07T13:37:57Z</time>
      </trkpt>
      <trkpt lat="46.52504" lon="5.68856">
        <ele>519.4</ele>
        <time>2022-06-07T13:38:02Z</time>
      </trkpt>
      <trkpt lat="46.52504" lon="5.68848">
        <ele>519.6</ele>
        <time>2022-06-07T13:38:06Z</time>
      </trkpt>
      <trkpt lat="46.52504" lon="5.68841">
        <ele>520.2</ele>
        <time>2022-06-07T13:38:11Z</time>
      </trkpt>
      <trkpt lat="46.52501" lon="5.68834">
        <ele>520.3</ele>
        <time>2022-06-07T13:38:16Z</time>
      </trkpt>
      <trkpt lat="46.52499" lon="5.68827">
        <ele>520.4</ele>
        <time>2022-06-07T13:38:20Z</time>
      </trkpt>
      <trkpt lat="46.52496" lon="5.6882">
        <ele>520.5</ele>
        <time>2022-06-07T13:38:24Z</time>
      </trkpt>
      <trkpt lat="46.52493" lon="5.68813">
        <ele>520.8</ele>
        <time>2022-06-07T13:38:29Z</time>
      </trkpt>
      <trkpt lat="46.5249" lon="5.68807">
        <ele>521.2</ele>
        <time>2022-06-07T13:38:34Z</time>
      </trkpt>
      <trkpt lat="46.52485" lon="5.68805">
        <ele>521.4</ele>
        <time>2022-06-07T13:38:39Z</time>
      </trkpt>
      <trkpt lat="46.5248" lon="5.68805">
        <ele>521.2</ele>
        <time>2022-06-07T13:38:44Z</time>
      </trkpt>
      <trkpt lat="46.52475" lon="5.68807">
        <ele>520.4</ele>
        <time>2022-06-07T13:38:52Z</time>
      </trkpt>
      <trkpt lat="46.52472" lon="5.68811">
        <ele>520</ele>
        <time>2022-06-07T13:38:58Z</time>
      </trkpt>
      <trkpt lat="46.52468" lon="5.68815">
        <ele>519.8</ele>
        <time>2022-06-07T13:39:05Z</time>
      </trkpt>
      <trkpt lat="46.5246" lon="5.68816">
        <ele>518.7</ele>
        <time>2022-06-07T13:39:30Z</time>
      </trkpt>
      <trkpt lat="46.52456" lon="5.68819">
        <ele>518.5</ele>
        <time>2022-06-07T13:39:34Z</time>
      </trkpt>
      <trkpt lat="46.52455" lon="5.68827">
        <ele>518.8</ele>
        <time>2022-06-07T13:39:47Z</time>
      </trkpt>
      <trkpt lat="46.5245" lon="5.68829">
        <ele>519</ele>
        <time>2022-06-07T13:39:53Z</time>
      </trkpt>
      <trkpt lat="46.52445" lon="5.6883">
        <ele>519</ele>
        <time>2022-06-07T13:39:58Z</time>
      </trkpt>
      <trkpt lat="46.52441" lon="5.68831">
        <ele>518.7</ele>
        <time>2022-06-07T13:40:02Z</time>
      </trkpt>
      <trkpt lat="46.52435" lon="5.68832">
        <ele>518.3</ele>
        <time>2022-06-07T13:40:07Z</time>
      </trkpt>
      <trkpt lat="46.5243" lon="5.68834">
        <ele>518.2</ele>
        <time>2022-06-07T13:40:11Z</time>
      </trkpt>
      <trkpt lat="46.52426" lon="5.68837">
        <ele>518</ele>
        <time>2022-06-07T13:40:16Z</time>
      </trkpt>
      <trkpt lat="46.5242" lon="5.6884">
        <ele>517.9</ele>
        <time>2022-06-07T13:40:22Z</time>
      </trkpt>
      <trkpt lat="46.52416" lon="5.68844">
        <ele>517.7</ele>
        <time>2022-06-07T13:40:26Z</time>
      </trkpt>
      <trkpt lat="46.52412" lon="5.68846">
        <ele>517.1</ele>
        <time>2022-06-07T13:40:32Z</time>
      </trkpt>
      <trkpt lat="46.52407" lon="5.68847">
        <ele>516</ele>
        <time>2022-06-07T13:40:37Z</time>
      </trkpt>
      <trkpt lat="46.52403" lon="5.68845">
        <ele>514.8</ele>
        <time>2022-06-07T13:40:42Z</time>
      </trkpt>
      <trkpt lat="46.52398" lon="5.68844">
        <ele>513.2</ele>
        <time>2022-06-07T13:40:48Z</time>
      </trkpt>
      <trkpt lat="46.52393" lon="5.68845">
        <ele>512</ele>
        <time>2022-06-07T13:40:53Z</time>
      </trkpt>
      <trkpt lat="46.52388" lon="5.68845">
        <ele>511</ele>
        <time>2022-06-07T13:40:58Z</time>
      </trkpt>
      <trkpt lat="46.52384" lon="5.68845">
        <ele>510.2</ele>
        <time>2022-06-07T13:41:03Z</time>
      </trkpt>
      <trkpt lat="46.52379" lon="5.68844">
        <ele>509.2</ele>
        <time>2022-06-07T13:41:08Z</time>
      </trkpt>
      <trkpt lat="46.52374" lon="5.68841">
        <ele>508.5</ele>
        <time>2022-06-07T13:41:12Z</time>
      </trkpt>
      <trkpt lat="46.52369" lon="5.68838">
        <ele>507.6</ele>
        <time>2022-06-07T13:41:17Z</time>
      </trkpt>
      <trkpt lat="46.52366" lon="5.68834">
        <ele>507.1</ele>
        <time>2022-06-07T13:41:20Z</time>
      </trkpt>
      <trkpt lat="46.52363" lon="5.68829">
        <ele>506.8</ele>
        <time>2022-06-07T13:41:24Z</time>
      </trkpt>
      <trkpt lat="46.5236" lon="5.68823">
        <ele>507</ele>
        <time>2022-06-07T13:41:29Z</time>
      </trkpt>
      <trkpt lat="46.52358" lon="5.68816">
        <ele>507.1</ele>
        <time>2022-06-07T13:41:35Z</time>
      </trkpt>
      <trkpt lat="46.52359" lon="5.68808">
        <ele>506.4</ele>
        <time>2022-06-07T13:41:42Z</time>
      </trkpt>
      <trkpt lat="46.52359" lon="5.68801">
        <ele>504.2</ele>
        <time>2022-06-07T13:41:50Z</time>
      </trkpt>
      <trkpt lat="46.52358" lon="5.68794">
        <ele>502</ele>
        <time>2022-06-07T13:41:56Z</time>
      </trkpt>
      <trkpt lat="46.52357" lon="5.68788">
        <ele>500.4</ele>
        <time>2022-06-07T13:42:01Z</time>
      </trkpt>
      <trkpt lat="46.52355" lon="5.68781">
        <ele>499.6</ele>
        <time>2022-06-07T13:42:05Z</time>
      </trkpt>
      <trkpt lat="46.52354" lon="5.68773">
        <ele>498.7</ele>
        <time>2022-06-07T13:42:09Z</time>
      </trkpt>
      <trkpt lat="46.52353" lon="5.68767">
        <ele>498.3</ele>
        <time>2022-06-07T13:42:12Z</time>
      </trkpt>
      <trkpt lat="46.5235" lon="5.6876">
        <ele>498.4</ele>
        <time>2022-06-07T13:42:16Z</time>
      </trkpt>
      <trkpt lat="46.52349" lon="5.68752">
        <ele>498.5</ele>
        <time>2022-06-07T13:42:22Z</time>
      </trkpt>
      <trkpt lat="46.5235" lon="5.68744">
        <ele>498.3</ele>
        <time>2022-06-07T13:42:27Z</time>
      </trkpt>
      <trkpt lat="46.52351" lon="5.68738">
        <ele>497.9</ele>
        <time>2022-06-07T13:42:31Z</time>
      </trkpt>
      <trkpt lat="46.52352" lon="5.6873">
        <ele>497.9</ele>
        <time>2022-06-07T13:42:36Z</time>
      </trkpt>
      <trkpt lat="46.52352" lon="5.68723">
        <ele>498.2</ele>
        <time>2022-06-07T13:42:40Z</time>
      </trkpt>
      <trkpt lat="46.52352" lon="5.68716">
        <ele>498.7</ele>
        <time>2022-06-07T13:42:44Z</time>
      </trkpt>
      <trkpt lat="46.52351" lon="5.68709">
        <ele>499.1</ele>
        <time>2022-06-07T13:42:49Z</time>
      </trkpt>
      <trkpt lat="46.52351" lon="5.68702">
        <ele>499.1</ele>
        <time>2022-06-07T13:42:56Z</time>
      </trkpt>
      <trkpt lat="46.52352" lon="5.68696">
        <ele>499.2</ele>
        <time>2022-06-07T13:43:01Z</time>
      </trkpt>
      <trkpt lat="46.52353" lon="5.68689">
        <ele>498.7</ele>
        <time>2022-06-07T13:43:06Z</time>
      </trkpt>
      <trkpt lat="46.52354" lon="5.68683">
        <ele>498.6</ele>
        <time>2022-06-07T13:43:11Z</time>
      </trkpt>
      <trkpt lat="46.52355" lon="5.68675">
        <ele>498.3</ele>
        <time>2022-06-07T13:43:16Z</time>
      </trkpt>
      <trkpt lat="46.52355" lon="5.68667">
        <ele>498</ele>
        <time>2022-06-07T13:43:21Z</time>
      </trkpt>
      <trkpt lat="46.52355" lon="5.68661">
        <ele>497.5</ele>
        <time>2022-06-07T13:43:26Z</time>
      </trkpt>
      <trkpt lat="46.52357" lon="5.68653">
        <ele>497.7</ele>
        <time>2022-06-07T13:43:32Z</time>
      </trkpt>
      <trkpt lat="46.52357" lon="5.68645">
        <ele>497.9</ele>
        <time>2022-06-07T13:43:37Z</time>
      </trkpt>
      <trkpt lat="46.52358" lon="5.68638">
        <ele>497.9</ele>
        <time>2022-06-07T13:43:42Z</time>
      </trkpt>
      <trkpt lat="46.52358" lon="5.6863">
        <ele>497.9</ele>
        <time>2022-06-07T13:43:47Z</time>
      </trkpt>
      <trkpt lat="46.52358" lon="5.68622">
        <ele>497.9</ele>
        <time>2022-06-07T13:43:52Z</time>
      </trkpt>
      <trkpt lat="46.52359" lon="5.68615">
        <ele>497.9</ele>
        <time>2022-06-07T13:43:57Z</time>
      </trkpt>
      <trkpt lat="46.52361" lon="5.68608">
        <ele>497.8</ele>
        <time>2022-06-07T13:44:02Z</time>
      </trkpt>
      <trkpt lat="46.52362" lon="5.68601">
        <ele>497.7</ele>
        <time>2022-06-07T13:44:07Z</time>
      </trkpt>
      <trkpt lat="46.52363" lon="5.68595">
        <ele>497.4</ele>
        <time>2022-06-07T13:44:11Z</time>
      </trkpt>
      <trkpt lat="46.52363" lon="5.68588">
        <ele>496.8</ele>
        <time>2022-06-07T13:44:15Z</time>
      </trkpt>
      <trkpt lat="46.52364" lon="5.6858">
        <ele>496.2</ele>
        <time>2022-06-07T13:44:20Z</time>
      </trkpt>
      <trkpt lat="46.52365" lon="5.68573">
        <ele>495.8</ele>
        <time>2022-06-07T13:44:25Z</time>
      </trkpt>
      <trkpt lat="46.52365" lon="5.68566">
        <ele>495.4</ele>
        <time>2022-06-07T13:44:31Z</time>
      </trkpt>
      <trkpt lat="46.52366" lon="5.6856">
        <ele>495</ele>
        <time>2022-06-07T13:44:36Z</time>
      </trkpt>
      <trkpt lat="46.52367" lon="5.68553">
        <ele>494.2</ele>
        <time>2022-06-07T13:44:41Z</time>
      </trkpt>
      <trkpt lat="46.52369" lon="5.68546">
        <ele>493.7</ele>
        <time>2022-06-07T13:44:45Z</time>
      </trkpt>
      <trkpt lat="46.5237" lon="5.68539">
        <ele>493.4</ele>
        <time>2022-06-07T13:44:49Z</time>
      </trkpt>
      <trkpt lat="46.52373" lon="5.68533">
        <ele>492.9</ele>
        <time>2022-06-07T13:44:54Z</time>
      </trkpt>
      <trkpt lat="46.52375" lon="5.68526">
        <ele>492.3</ele>
        <time>2022-06-07T13:44:59Z</time>
      </trkpt>
      <trkpt lat="46.52375" lon="5.68518">
        <ele>491.9</ele>
        <time>2022-06-07T13:45:04Z</time>
      </trkpt>
      <trkpt lat="46.52375" lon="5.68511">
        <ele>491.1</ele>
        <time>2022-06-07T13:45:08Z</time>
      </trkpt>
      <trkpt lat="46.52376" lon="5.68503">
        <ele>490.8</ele>
        <time>2022-06-07T13:45:12Z</time>
      </trkpt>
      <trkpt lat="46.52376" lon="5.68496">
        <ele>490.8</ele>
        <time>2022-06-07T13:45:16Z</time>
      </trkpt>
      <trkpt lat="46.52377" lon="5.6849">
        <ele>490.9</ele>
        <time>2022-06-07T13:45:21Z</time>
      </trkpt>
      <trkpt lat="46.52378" lon="5.68482">
        <ele>490.8</ele>
        <time>2022-06-07T13:45:26Z</time>
      </trkpt>
      <trkpt lat="46.52379" lon="5.68476">
        <ele>490.8</ele>
        <time>2022-06-07T13:45:30Z</time>
      </trkpt>
      <trkpt lat="46.52378" lon="5.68468">
        <ele>490.9</ele>
        <time>2022-06-07T13:45:35Z</time>
      </trkpt>
      <trkpt lat="46.52377" lon="5.6846">
        <ele>491.2</ele>
        <time>2022-06-07T13:45:40Z</time>
      </trkpt>
      <trkpt lat="46.52377" lon="5.68453">
        <ele>491.5</ele>
        <time>2022-06-07T13:45:45Z</time>
      </trkpt>
      <trkpt lat="46.52377" lon="5.68445">
        <ele>491.8</ele>
        <time>2022-06-07T13:45:49Z</time>
      </trkpt>
      <trkpt lat="46.52377" lon="5.68437">
        <ele>492.2</ele>
        <time>2022-06-07T13:45:53Z</time>
      </trkpt>
      <trkpt lat="46.52377" lon="5.6843">
        <ele>492.8</ele>
        <time>2022-06-07T13:45:57Z</time>
      </trkpt>
      <trkpt lat="46.52377" lon="5.68424">
        <ele>492.8</ele>
        <time>2022-06-07T13:46:01Z</time>
      </trkpt>
      <trkpt lat="46.52377" lon="5.68416">
        <ele>492.7</ele>
        <time>2022-06-07T13:46:06Z</time>
      </trkpt>
      <trkpt lat="46.52376" lon="5.68409">
        <ele>492.9</ele>
        <time>2022-06-07T13:46:11Z</time>
      </trkpt>
      <trkpt lat="46.52376" lon="5.68402">
        <ele>492.8</ele>
        <time>2022-06-07T13:46:16Z</time>
      </trkpt>
      <trkpt lat="46.52377" lon="5.68395">
        <ele>493</ele>
        <time>2022-06-07T13:46:25Z</time>
      </trkpt>
      <trkpt lat="46.52376" lon="5.68387">
        <ele>493.2</ele>
        <time>2022-06-07T13:46:31Z</time>
      </trkpt>
      <trkpt lat="46.52376" lon="5.6838">
        <ele>492.9</ele>
        <time>2022-06-07T13:46:36Z</time>
      </trkpt>
      <trkpt lat="46.52377" lon="5.68373">
        <ele>491.7</ele>
        <time>2022-06-07T13:46:41Z</time>
      </trkpt>
      <trkpt lat="46.52377" lon="5.68365">
        <ele>490.3</ele>
        <time>2022-06-07T13:46:46Z</time>
      </trkpt>
      <trkpt lat="46.52378" lon="5.68358">
        <ele>489.5</ele>
        <time>2022-06-07T13:46:50Z</time>
      </trkpt>
      <trkpt lat="46.52378" lon="5.68352">
        <ele>488.9</ele>
        <time>2022-06-07T13:46:55Z</time>
      </trkpt>
      <trkpt lat="46.52377" lon="5.68344">
        <ele>488.3</ele>
        <time>2022-06-07T13:47:00Z</time>
      </trkpt>
      <trkpt lat="46.52378" lon="5.68337">
        <ele>487.9</ele>
        <time>2022-06-07T13:47:05Z</time>
      </trkpt>
      <trkpt lat="46.52378" lon="5.6833">
        <ele>487.7</ele>
        <time>2022-06-07T13:47:09Z</time>
      </trkpt>
      <trkpt lat="46.52377" lon="5.68323">
        <ele>487.5</ele>
        <time>2022-06-07T13:47:13Z</time>
      </trkpt>
      <trkpt lat="46.52377" lon="5.68316">
        <ele>487.4</ele>
        <time>2022-06-07T13:47:17Z</time>
      </trkpt>
      <trkpt lat="46.52377" lon="5.68308">
        <ele>487</ele>
        <time>2022-06-07T13:47:22Z</time>
      </trkpt>
      <trkpt lat="46.52375" lon="5.68302">
        <ele>486.8</ele>
        <time>2022-06-07T13:47:26Z</time>
      </trkpt>
      <trkpt lat="46.52374" lon="5.68294">
        <ele>486.8</ele>
        <time>2022-06-07T13:47:30Z</time>
      </trkpt>
      <trkpt lat="46.52372" lon="5.68288">
        <ele>486.8</ele>
        <time>2022-06-07T13:47:34Z</time>
      </trkpt>
      <trkpt lat="46.5237" lon="5.68281">
        <ele>486.9</ele>
        <time>2022-06-07T13:47:38Z</time>
      </trkpt>
      <trkpt lat="46.52368" lon="5.68274">
        <ele>487.2</ele>
        <time>2022-06-07T13:47:42Z</time>
      </trkpt>
      <trkpt lat="46.52367" lon="5.68267">
        <ele>487.2</ele>
        <time>2022-06-07T13:47:46Z</time>
      </trkpt>
      <trkpt lat="46.52367" lon="5.6826">
        <ele>487</ele>
        <time>2022-06-07T13:47:51Z</time>
      </trkpt>
      <trkpt lat="46.52366" lon="5.68252">
        <ele>486.4</ele>
        <time>2022-06-07T13:47:56Z</time>
      </trkpt>
      <trkpt lat="46.52364" lon="5.68247">
        <ele>486.2</ele>
        <time>2022-06-07T13:48:01Z</time>
      </trkpt>
      <trkpt lat="46.52362" lon="5.6824">
        <ele>486.5</ele>
        <time>2022-06-07T13:48:05Z</time>
      </trkpt>
      <trkpt lat="46.52359" lon="5.68234">
        <ele>486.8</ele>
        <time>2022-06-07T13:48:09Z</time>
      </trkpt>
      <trkpt lat="46.52357" lon="5.68227">
        <ele>487.1</ele>
        <time>2022-06-07T13:48:13Z</time>
      </trkpt>
      <trkpt lat="46.52354" lon="5.6822">
        <ele>487.6</ele>
        <time>2022-06-07T13:48:17Z</time>
      </trkpt>
      <trkpt lat="46.52353" lon="5.68213">
        <ele>488.1</ele>
        <time>2022-06-07T13:48:23Z</time>
      </trkpt>
      <trkpt lat="46.5235" lon="5.68207">
        <ele>488.4</ele>
        <time>2022-06-07T13:48:28Z</time>
      </trkpt>
      <trkpt lat="46.52347" lon="5.68201">
        <ele>488.7</ele>
        <time>2022-06-07T13:48:32Z</time>
      </trkpt>
      <trkpt lat="46.52344" lon="5.68194">
        <ele>488.7</ele>
        <time>2022-06-07T13:48:37Z</time>
      </trkpt>
      <trkpt lat="46.52342" lon="5.68189">
        <ele>488.5</ele>
        <time>2022-06-07T13:48:41Z</time>
      </trkpt>
      <trkpt lat="46.52339" lon="5.68183">
        <ele>487.9</ele>
        <time>2022-06-07T13:48:45Z</time>
      </trkpt>
      <trkpt lat="46.52337" lon="5.68178">
        <ele>487.2</ele>
        <time>2022-06-07T13:48:50Z</time>
      </trkpt>
      <trkpt lat="46.52335" lon="5.68171">
        <ele>486.4</ele>
        <time>2022-06-07T13:48:56Z</time>
      </trkpt>
      <trkpt lat="46.52333" lon="5.68164">
        <ele>485.7</ele>
        <time>2022-06-07T13:49:00Z</time>
      </trkpt>
      <trkpt lat="46.52331" lon="5.68158">
        <ele>485.3</ele>
        <time>2022-06-07T13:49:04Z</time>
      </trkpt>
      <trkpt lat="46.52329" lon="5.68152">
        <ele>484.8</ele>
        <time>2022-06-07T13:49:08Z</time>
      </trkpt>
      <trkpt lat="46.52327" lon="5.68145">
        <ele>484.3</ele>
        <time>2022-06-07T13:49:12Z</time>
      </trkpt>
      <trkpt lat="46.52323" lon="5.68139">
        <ele>484.1</ele>
        <time>2022-06-07T13:49:17Z</time>
      </trkpt>
      <trkpt lat="46.52321" lon="5.68133">
        <ele>484.7</ele>
        <time>2022-06-07T13:49:21Z</time>
      </trkpt>
      <trkpt lat="46.52318" lon="5.68129">
        <ele>485.4</ele>
        <time>2022-06-07T13:49:25Z</time>
      </trkpt>
      <trkpt lat="46.52315" lon="5.68123">
        <ele>486.2</ele>
        <time>2022-06-07T13:49:29Z</time>
      </trkpt>
      <trkpt lat="46.52312" lon="5.68116">
        <ele>486.9</ele>
        <time>2022-06-07T13:49:34Z</time>
      </trkpt>
      <trkpt lat="46.5231" lon="5.68109">
        <ele>487</ele>
        <time>2022-06-07T13:49:39Z</time>
      </trkpt>
      <trkpt lat="46.52308" lon="5.68103">
        <ele>486.7</ele>
        <time>2022-06-07T13:49:43Z</time>
      </trkpt>
      <trkpt lat="46.52305" lon="5.68096">
        <ele>486</ele>
        <time>2022-06-07T13:49:48Z</time>
      </trkpt>
      <trkpt lat="46.52302" lon="5.68089">
        <ele>485.8</ele>
        <time>2022-06-07T13:49:52Z</time>
      </trkpt>
      <trkpt lat="46.52299" lon="5.68084">
        <ele>486.2</ele>
        <time>2022-06-07T13:49:56Z</time>
      </trkpt>
      <trkpt lat="46.52297" lon="5.68078">
        <ele>486.5</ele>
        <time>2022-06-07T13:50:00Z</time>
      </trkpt>
      <trkpt lat="46.52294" lon="5.68072">
        <ele>486.1</ele>
        <time>2022-06-07T13:50:06Z</time>
      </trkpt>
      <trkpt lat="46.52292" lon="5.68066">
        <ele>486.1</ele>
        <time>2022-06-07T13:50:11Z</time>
      </trkpt>
      <trkpt lat="46.52289" lon="5.68059">
        <ele>485.8</ele>
        <time>2022-06-07T13:50:16Z</time>
      </trkpt>
      <trkpt lat="46.52288" lon="5.68052">
        <ele>485.2</ele>
        <time>2022-06-07T13:50:21Z</time>
      </trkpt>
      <trkpt lat="46.52287" lon="5.68045">
        <ele>484.4</ele>
        <time>2022-06-07T13:50:26Z</time>
      </trkpt>
      <trkpt lat="46.52286" lon="5.68039">
        <ele>483.3</ele>
        <time>2022-06-07T13:50:31Z</time>
      </trkpt>
      <trkpt lat="46.52286" lon="5.68032">
        <ele>482.9</ele>
        <time>2022-06-07T13:50:37Z</time>
      </trkpt>
      <trkpt lat="46.52286" lon="5.68024">
        <ele>482.5</ele>
        <time>2022-06-07T13:50:45Z</time>
      </trkpt>
      <trkpt lat="46.52287" lon="5.68018">
        <ele>482</ele>
        <time>2022-06-07T13:50:50Z</time>
      </trkpt>
      <trkpt lat="46.52289" lon="5.68011">
        <ele>481.4</ele>
        <time>2022-06-07T13:50:55Z</time>
      </trkpt>
      <trkpt lat="46.5229" lon="5.68005">
        <ele>480.7</ele>
        <time>2022-06-07T13:51:00Z</time>
      </trkpt>
      <trkpt lat="46.52293" lon="5.67998">
        <ele>480.3</ele>
        <time>2022-06-07T13:51:05Z</time>
      </trkpt>
      <trkpt lat="46.52294" lon="5.67992">
        <ele>480.1</ele>
        <time>2022-06-07T13:51:10Z</time>
      </trkpt>
      <trkpt lat="46.52295" lon="5.67985">
        <ele>480</ele>
        <time>2022-06-07T13:51:15Z</time>
      </trkpt>
      <trkpt lat="46.52295" lon="5.67979">
        <ele>479.5</ele>
        <time>2022-06-07T13:51:21Z</time>
      </trkpt>
      <trkpt lat="46.52298" lon="5.67973">
        <ele>478.8</ele>
        <time>2022-06-07T13:51:26Z</time>
      </trkpt>
      <trkpt lat="46.52299" lon="5.67965">
        <ele>477.5</ele>
        <time>2022-06-07T13:51:32Z</time>
      </trkpt>
      <trkpt lat="46.52301" lon="5.67959">
        <ele>476</ele>
        <time>2022-06-07T13:51:38Z</time>
      </trkpt>
      <trkpt lat="46.52303" lon="5.67953">
        <ele>475.3</ele>
        <time>2022-06-07T13:51:42Z</time>
      </trkpt>
      <trkpt lat="46.52304" lon="5.67946">
        <ele>474.8</ele>
        <time>2022-06-07T13:51:47Z</time>
      </trkpt>
      <trkpt lat="46.52305" lon="5.6794">
        <ele>474.3</ele>
        <time>2022-06-07T13:51:52Z</time>
      </trkpt>
      <trkpt lat="46.52308" lon="5.67933">
        <ele>473.8</ele>
        <time>2022-06-07T13:51:59Z</time>
      </trkpt>
      <trkpt lat="46.52311" lon="5.67928">
        <ele>473.1</ele>
        <time>2022-06-07T13:52:05Z</time>
      </trkpt>
      <trkpt lat="46.52313" lon="5.67922">
        <ele>472.5</ele>
        <time>2022-06-07T13:52:09Z</time>
      </trkpt>
      <trkpt lat="46.52313" lon="5.67914">
        <ele>471.8</ele>
        <time>2022-06-07T13:52:15Z</time>
      </trkpt>
      <trkpt lat="46.52313" lon="5.67907">
        <ele>470.8</ele>
        <time>2022-06-07T13:52:20Z</time>
      </trkpt>
      <trkpt lat="46.52315" lon="5.67901">
        <ele>469.1</ele>
        <time>2022-06-07T13:52:25Z</time>
      </trkpt>
      <trkpt lat="46.52318" lon="5.67894">
        <ele>467.8</ele>
        <time>2022-06-07T13:52:30Z</time>
      </trkpt>
      <trkpt lat="46.52321" lon="5.67888">
        <ele>466.7</ele>
        <time>2022-06-07T13:52:35Z</time>
      </trkpt>
      <trkpt lat="46.52322" lon="5.67882">
        <ele>465.6</ele>
        <time>2022-06-07T13:52:40Z</time>
      </trkpt>
      <trkpt lat="46.52323" lon="5.67874">
        <ele>464.8</ele>
        <time>2022-06-07T13:52:46Z</time>
      </trkpt>
      <trkpt lat="46.52323" lon="5.67867">
        <ele>464.7</ele>
        <time>2022-06-07T13:52:51Z</time>
      </trkpt>
      <trkpt lat="46.52322" lon="5.6786">
        <ele>464.9</ele>
        <time>2022-06-07T13:52:58Z</time>
      </trkpt>
      <trkpt lat="46.52322" lon="5.67853">
        <ele>465.3</ele>
        <time>2022-06-07T13:53:05Z</time>
      </trkpt>
      <trkpt lat="46.52322" lon="5.67846">
        <ele>465.7</ele>
        <time>2022-06-07T13:53:11Z</time>
      </trkpt>
      <trkpt lat="46.52322" lon="5.67839">
        <ele>464.4</ele>
        <time>2022-06-07T13:53:18Z</time>
      </trkpt>
      <trkpt lat="46.52324" lon="5.67832">
        <ele>461.8</ele>
        <time>2022-06-07T13:53:26Z</time>
      </trkpt>
      <trkpt lat="46.52324" lon="5.67826">
        <ele>460.1</ele>
        <time>2022-06-07T13:53:31Z</time>
      </trkpt>
      <trkpt lat="46.52324" lon="5.67819">
        <ele>458.7</ele>
        <time>2022-06-07T13:53:36Z</time>
      </trkpt>
      <trkpt lat="46.52324" lon="5.67812">
        <ele>457.3</ele>
        <time>2022-06-07T13:53:41Z</time>
      </trkpt>
      <trkpt lat="46.52325" lon="5.67805">
        <ele>456.2</ele>
        <time>2022-06-07T13:53:45Z</time>
      </trkpt>
      <trkpt lat="46.52325" lon="5.67797">
        <ele>454.8</ele>
        <time>2022-06-07T13:53:50Z</time>
      </trkpt>
      <trkpt lat="46.52325" lon="5.6779">
        <ele>453.9</ele>
        <time>2022-06-07T13:53:54Z</time>
      </trkpt>
      <trkpt lat="46.52326" lon="5.67783">
        <ele>452.8</ele>
        <time>2022-06-07T13:53:58Z</time>
      </trkpt>
      <trkpt lat="46.52327" lon="5.67776">
        <ele>451.7</ele>
        <time>2022-06-07T13:54:03Z</time>
      </trkpt>
      <trkpt lat="46.52329" lon="5.6777">
        <ele>450.6</ele>
        <time>2022-06-07T13:54:09Z</time>
      </trkpt>
      <trkpt lat="46.52333" lon="5.67765">
        <ele>450.2</ele>
        <time>2022-06-07T13:54:14Z</time>
      </trkpt>
      <trkpt lat="46.52336" lon="5.6776">
        <ele>449.9</ele>
        <time>2022-06-07T13:54:18Z</time>
      </trkpt>
      <trkpt lat="46.5234" lon="5.67755">
        <ele>449.8</ele>
        <time>2022-06-07T13:54:22Z</time>
      </trkpt>
      <trkpt lat="46.52343" lon="5.67751">
        <ele>450.1</ele>
        <time>2022-06-07T13:54:27Z</time>
      </trkpt>
      <trkpt lat="46.52345" lon="5.67744">
        <ele>451.1</ele>
        <time>2022-06-07T13:54:32Z</time>
      </trkpt>
      <trkpt lat="46.52346" lon="5.67738">
        <ele>451.8</ele>
        <time>2022-06-07T13:54:36Z</time>
      </trkpt>
      <trkpt lat="46.52346" lon="5.67731">
        <ele>451.9</ele>
        <time>2022-06-07T13:54:40Z</time>
      </trkpt>
      <trkpt lat="46.52347" lon="5.67723">
        <ele>451.5</ele>
        <time>2022-06-07T13:54:45Z</time>
      </trkpt>
      <trkpt lat="46.52349" lon="5.67716">
        <ele>451.2</ele>
        <time>2022-06-07T13:54:49Z</time>
      </trkpt>
      <trkpt lat="46.5235" lon="5.6771">
        <ele>450.3</ele>
        <time>2022-06-07T13:54:54Z</time>
      </trkpt>
      <trkpt lat="46.5235" lon="5.67703">
        <ele>450</ele>
        <time>2022-06-07T13:54:58Z</time>
      </trkpt>
      <trkpt lat="46.52351" lon="5.67696">
        <ele>449.5</ele>
        <time>2022-06-07T13:55:03Z</time>
      </trkpt>
      <trkpt lat="46.52353" lon="5.6769">
        <ele>449.3</ele>
        <time>2022-06-07T13:55:07Z</time>
      </trkpt>
      <trkpt lat="46.52354" lon="5.67683">
        <ele>449.1</ele>
        <time>2022-06-07T13:55:12Z</time>
      </trkpt>
      <trkpt lat="46.52354" lon="5.67676">
        <ele>448.5</ele>
        <time>2022-06-07T13:55:16Z</time>
      </trkpt>
      <trkpt lat="46.52354" lon="5.67669">
        <ele>447.9</ele>
        <time>2022-06-07T13:55:21Z</time>
      </trkpt>
      <trkpt lat="46.52354" lon="5.67661">
        <ele>447.4</ele>
        <time>2022-06-07T13:55:25Z</time>
      </trkpt>
      <trkpt lat="46.52355" lon="5.67653">
        <ele>447.9</ele>
        <time>2022-06-07T13:55:30Z</time>
      </trkpt>
      <trkpt lat="46.52355" lon="5.67647">
        <ele>448.3</ele>
        <time>2022-06-07T13:55:33Z</time>
      </trkpt>
      <trkpt lat="46.52356" lon="5.67639">
        <ele>448.6</ele>
        <time>2022-06-07T13:55:38Z</time>
      </trkpt>
      <trkpt lat="46.52359" lon="5.67633">
        <ele>448.3</ele>
        <time>2022-06-07T13:55:44Z</time>
      </trkpt>
      <trkpt lat="46.52361" lon="5.67627">
        <ele>447.8</ele>
        <time>2022-06-07T13:55:49Z</time>
      </trkpt>
      <trkpt lat="46.52364" lon="5.67621">
        <ele>447.9</ele>
        <time>2022-06-07T13:55:53Z</time>
      </trkpt>
      <trkpt lat="46.52367" lon="5.67615">
        <ele>448.9</ele>
        <time>2022-06-07T13:55:58Z</time>
      </trkpt>
      <trkpt lat="46.52369" lon="5.67608">
        <ele>450</ele>
        <time>2022-06-07T13:56:02Z</time>
      </trkpt>
      <trkpt lat="46.52369" lon="5.67599">
        <ele>450.8</ele>
        <time>2022-06-07T13:56:06Z</time>
      </trkpt>
      <trkpt lat="46.52369" lon="5.67592">
        <ele>451.3</ele>
        <time>2022-06-07T13:56:10Z</time>
      </trkpt>
      <trkpt lat="46.52368" lon="5.67586">
        <ele>451.3</ele>
        <time>2022-06-07T13:56:14Z</time>
      </trkpt>
      <trkpt lat="46.52366" lon="5.67579">
        <ele>451.3</ele>
        <time>2022-06-07T13:56:18Z</time>
      </trkpt>
      <trkpt lat="46.52366" lon="5.67572">
        <ele>450.7</ele>
        <time>2022-06-07T13:56:23Z</time>
      </trkpt>
      <trkpt lat="46.52366" lon="5.67565">
        <ele>449.8</ele>
        <time>2022-06-07T13:56:28Z</time>
      </trkpt>
      <trkpt lat="46.52365" lon="5.67559">
        <ele>449.3</ele>
        <time>2022-06-07T13:56:32Z</time>
      </trkpt>
      <trkpt lat="46.52364" lon="5.67552">
        <ele>448.9</ele>
        <time>2022-06-07T13:56:36Z</time>
      </trkpt>
      <trkpt lat="46.52362" lon="5.67545">
        <ele>448.5</ele>
        <time>2022-06-07T13:56:40Z</time>
      </trkpt>
      <trkpt lat="46.52361" lon="5.67538">
        <ele>448.2</ele>
        <time>2022-06-07T13:56:45Z</time>
      </trkpt>
      <trkpt lat="46.52361" lon="5.67531">
        <ele>448.1</ele>
        <time>2022-06-07T13:56:50Z</time>
      </trkpt>
      <trkpt lat="46.52361" lon="5.67523">
        <ele>447.5</ele>
        <time>2022-06-07T13:56:55Z</time>
      </trkpt>
      <trkpt lat="46.52361" lon="5.67516">
        <ele>446.3</ele>
        <time>2022-06-07T13:57:00Z</time>
      </trkpt>
      <trkpt lat="46.52362" lon="5.67508">
        <ele>445.4</ele>
        <time>2022-06-07T13:57:05Z</time>
      </trkpt>
      <trkpt lat="46.52362" lon="5.67501">
        <ele>444.4</ele>
        <time>2022-06-07T13:57:10Z</time>
      </trkpt>
      <trkpt lat="46.52362" lon="5.67494">
        <ele>443.6</ele>
        <time>2022-06-07T13:57:14Z</time>
      </trkpt>
      <trkpt lat="46.52362" lon="5.67487">
        <ele>442.9</ele>
        <time>2022-06-07T13:57:18Z</time>
      </trkpt>
      <trkpt lat="46.52361" lon="5.6748">
        <ele>442.3</ele>
        <time>2022-06-07T13:57:23Z</time>
      </trkpt>
      <trkpt lat="46.52359" lon="5.67474">
        <ele>442.3</ele>
        <time>2022-06-07T13:57:27Z</time>
      </trkpt>
      <trkpt lat="46.52357" lon="5.67468">
        <ele>442.2</ele>
        <time>2022-06-07T13:57:31Z</time>
      </trkpt>
      <trkpt lat="46.52356" lon="5.67461">
        <ele>441.6</ele>
        <time>2022-06-07T13:57:35Z</time>
      </trkpt>
      <trkpt lat="46.52354" lon="5.67454">
        <ele>440.9</ele>
        <time>2022-06-07T13:57:39Z</time>
      </trkpt>
      <trkpt lat="46.52352" lon="5.67447">
        <ele>439.9</ele>
        <time>2022-06-07T13:57:44Z</time>
      </trkpt>
      <trkpt lat="46.52351" lon="5.6744">
        <ele>439.2</ele>
        <time>2022-06-07T13:57:49Z</time>
      </trkpt>
      <trkpt lat="46.52349" lon="5.67432">
        <ele>439.1</ele>
        <time>2022-06-07T13:57:54Z</time>
      </trkpt>
      <trkpt lat="46.52346" lon="5.67425">
        <ele>439.5</ele>
        <time>2022-06-07T13:57:59Z</time>
      </trkpt>
      <trkpt lat="46.52344" lon="5.6742">
        <ele>439.6</ele>
        <time>2022-06-07T13:58:03Z</time>
      </trkpt>
      <trkpt lat="46.52341" lon="5.67414">
        <ele>440.2</ele>
        <time>2022-06-07T13:58:08Z</time>
      </trkpt>
      <trkpt lat="46.52339" lon="5.67408">
        <ele>441.2</ele>
        <time>2022-06-07T13:58:14Z</time>
      </trkpt>
      <trkpt lat="46.52337" lon="5.67401">
        <ele>442.3</ele>
        <time>2022-06-07T13:58:31Z</time>
      </trkpt>
      <trkpt lat="46.52334" lon="5.67396">
        <ele>443.7</ele>
        <time>2022-06-07T13:59:00Z</time>
      </trkpt>
      <trkpt lat="46.52331" lon="5.6739">
        <ele>444.1</ele>
        <time>2022-06-07T13:59:07Z</time>
      </trkpt>
      <trkpt lat="46.52334" lon="5.67384">
        <ele>440.9</ele>
        <time>2022-06-07T14:00:22Z</time>
      </trkpt>
      <trkpt lat="46.5233" lon="5.67381">
        <ele>442.1</ele>
        <time>2022-06-07T14:00:30Z</time>
      </trkpt>
      <trkpt lat="46.52327" lon="5.67374">
        <ele>441.2</ele>
        <time>2022-06-07T14:00:43Z</time>
      </trkpt>
      <trkpt lat="46.52327" lon="5.67367">
        <ele>440.9</ele>
        <time>2022-06-07T14:00:55Z</time>
      </trkpt>
      <trkpt lat="46.52325" lon="5.67361">
        <ele>442</ele>
        <time>2022-06-07T14:01:00Z</time>
      </trkpt>
      <trkpt lat="46.52322" lon="5.67354">
        <ele>443.1</ele>
        <time>2022-06-07T14:01:05Z</time>
      </trkpt>
      <trkpt lat="46.52319" lon="5.67348">
        <ele>444.4</ele>
        <time>2022-06-07T14:01:10Z</time>
      </trkpt>
      <trkpt lat="46.52316" lon="5.67343">
        <ele>445.5</ele>
        <time>2022-06-07T14:01:14Z</time>
      </trkpt>
      <trkpt lat="46.52314" lon="5.67336">
        <ele>446.4</ele>
        <time>2022-06-07T14:01:18Z</time>
      </trkpt>
      <trkpt lat="46.52313" lon="5.67329">
        <ele>446.7</ele>
        <time>2022-06-07T14:01:22Z</time>
      </trkpt>
      <trkpt lat="46.52309" lon="5.67323">
        <ele>447.7</ele>
        <time>2022-06-07T14:01:27Z</time>
      </trkpt>
      <trkpt lat="46.52306" lon="5.67317">
        <ele>448.9</ele>
        <time>2022-06-07T14:01:32Z</time>
      </trkpt>
      <trkpt lat="46.52305" lon="5.67309">
        <ele>449.6</ele>
        <time>2022-06-07T14:01:37Z</time>
      </trkpt>
      <trkpt lat="46.52304" lon="5.67303">
        <ele>449.9</ele>
        <time>2022-06-07T14:01:41Z</time>
      </trkpt>
      <trkpt lat="46.52301" lon="5.67296">
        <ele>450.1</ele>
        <time>2022-06-07T14:01:46Z</time>
      </trkpt>
      <trkpt lat="46.52299" lon="5.6729">
        <ele>450</ele>
        <time>2022-06-07T14:01:50Z</time>
      </trkpt>
      <trkpt lat="46.52297" lon="5.67283">
        <ele>449.3</ele>
        <time>2022-06-07T14:01:54Z</time>
      </trkpt>
      <trkpt lat="46.52296" lon="5.67276">
        <ele>448.5</ele>
        <time>2022-06-07T14:01:58Z</time>
      </trkpt>
      <trkpt lat="46.52295" lon="5.67269">
        <ele>447.4</ele>
        <time>2022-06-07T14:02:02Z</time>
      </trkpt>
      <trkpt lat="46.52294" lon="5.67262">
        <ele>446.7</ele>
        <time>2022-06-07T14:02:06Z</time>
      </trkpt>
      <trkpt lat="46.52291" lon="5.67255">
        <ele>446.4</ele>
        <time>2022-06-07T14:02:11Z</time>
      </trkpt>
      <trkpt lat="46.52289" lon="5.6725">
        <ele>445.8</ele>
        <time>2022-06-07T14:02:15Z</time>
      </trkpt>
      <trkpt lat="46.52287" lon="5.67243">
        <ele>444.7</ele>
        <time>2022-06-07T14:02:20Z</time>
      </trkpt>
      <trkpt lat="46.52284" lon="5.67237">
        <ele>443.2</ele>
        <time>2022-06-07T14:02:26Z</time>
      </trkpt>
      <trkpt lat="46.52281" lon="5.6723">
        <ele>442.4</ele>
        <time>2022-06-07T14:02:31Z</time>
      </trkpt>
      <trkpt lat="46.52279" lon="5.67225">
        <ele>442</ele>
        <time>2022-06-07T14:02:35Z</time>
      </trkpt>
      <trkpt lat="46.52276" lon="5.67219">
        <ele>441.9</ele>
        <time>2022-06-07T14:02:39Z</time>
      </trkpt>
      <trkpt lat="46.52272" lon="5.67214">
        <ele>442.1</ele>
        <time>2022-06-07T14:02:44Z</time>
      </trkpt>
      <trkpt lat="46.52269" lon="5.67207">
        <ele>442.7</ele>
        <time>2022-06-07T14:02:49Z</time>
      </trkpt>
      <trkpt lat="46.52266" lon="5.67201">
        <ele>443.1</ele>
        <time>2022-06-07T14:02:53Z</time>
      </trkpt>
      <trkpt lat="46.52262" lon="5.67196">
        <ele>443.2</ele>
        <time>2022-06-07T14:02:57Z</time>
      </trkpt>
      <trkpt lat="46.52259" lon="5.67191">
        <ele>443</ele>
        <time>2022-06-07T14:03:01Z</time>
      </trkpt>
      <trkpt lat="46.52255" lon="5.67189">
        <ele>442.7</ele>
        <time>2022-06-07T14:03:05Z</time>
      </trkpt>
      <trkpt lat="46.5225" lon="5.67185">
        <ele>442.9</ele>
        <time>2022-06-07T14:03:09Z</time>
      </trkpt>
      <trkpt lat="46.52245" lon="5.67181">
        <ele>443.2</ele>
        <time>2022-06-07T14:03:13Z</time>
      </trkpt>
      <trkpt lat="46.52241" lon="5.67177">
        <ele>443.9</ele>
        <time>2022-06-07T14:03:18Z</time>
      </trkpt>
      <trkpt lat="46.52237" lon="5.67174">
        <ele>444.3</ele>
        <time>2022-06-07T14:03:22Z</time>
      </trkpt>
      <trkpt lat="46.52231" lon="5.67171">
        <ele>444.5</ele>
        <time>2022-06-07T14:03:26Z</time>
      </trkpt>
      <trkpt lat="46.52227" lon="5.67168">
        <ele>444.2</ele>
        <time>2022-06-07T14:03:30Z</time>
      </trkpt>
      <trkpt lat="46.52222" lon="5.67166">
        <ele>443.9</ele>
        <time>2022-06-07T14:03:34Z</time>
      </trkpt>
      <trkpt lat="46.52217" lon="5.67163">
        <ele>443.9</ele>
        <time>2022-06-07T14:03:38Z</time>
      </trkpt>
      <trkpt lat="46.52212" lon="5.67161">
        <ele>444.3</ele>
        <time>2022-06-07T14:03:42Z</time>
      </trkpt>
      <trkpt lat="46.52207" lon="5.6716">
        <ele>444.9</ele>
        <time>2022-06-07T14:03:46Z</time>
      </trkpt>
      <trkpt lat="46.52203" lon="5.67157">
        <ele>445.6</ele>
        <time>2022-06-07T14:03:51Z</time>
      </trkpt>
      <trkpt lat="46.52198" lon="5.67155">
        <ele>446.1</ele>
        <time>2022-06-07T14:03:56Z</time>
      </trkpt>
      <trkpt lat="46.52193" lon="5.67152">
        <ele>446.2</ele>
        <time>2022-06-07T14:04:01Z</time>
      </trkpt>
      <trkpt lat="46.52189" lon="5.6715">
        <ele>446.1</ele>
        <time>2022-06-07T14:04:07Z</time>
      </trkpt>
      <trkpt lat="46.52184" lon="5.67147">
        <ele>445.8</ele>
        <time>2022-06-07T14:04:13Z</time>
      </trkpt>
      <trkpt lat="46.52179" lon="5.67145">
        <ele>445.1</ele>
        <time>2022-06-07T14:04:17Z</time>
      </trkpt>
      <trkpt lat="46.52173" lon="5.67143">
        <ele>444.3</ele>
        <time>2022-06-07T14:04:22Z</time>
      </trkpt>
      <trkpt lat="46.52169" lon="5.67141">
        <ele>443.4</ele>
        <time>2022-06-07T14:04:27Z</time>
      </trkpt>
    </trkseg>
  </trk>
</gpx>